<?xml version="1.0" encoding="UTF-8" standalone="no" ?>
<gpx xmlns="http://www.topografix.com/GPX/1/1" xmlns:xsi="http://www.w3.org/2001/XMLSchema-instance" xsi:schemaLocation="http://www.topografix.com/GPX/1/1 http://www.topografix.com/GPX/1/1/gpx.xsd" version="1.1" creator="VisuGPX - https://www.visugpx.com">
  <metadata>
    <name>Chateau du Haut Koenisbourg</name>
  </metadata>
  <trk>
    <name><![CDATA[17/10/2020 07:38:50]]></name>
    <trkseg>
      <trkpt lat="48.23272" lon="7.37197">
        <ele>228</ele>
        <time>2020-10-17T05:38:50Z</time>
      </trkpt>
      <trkpt lat="48.23275" lon="7.3719">
        <ele>228.19999694824</ele>
        <time>2020-10-17T05:39:08Z</time>
      </trkpt>
      <trkpt lat="48.23283" lon="7.37175">
        <ele>228.80000305176</ele>
        <time>2020-10-17T05:39:24Z</time>
      </trkpt>
      <trkpt lat="48.23289" lon="7.37164">
        <ele>229.19999694824</ele>
        <time>2020-10-17T05:39:32Z</time>
      </trkpt>
      <trkpt lat="48.23294" lon="7.37153">
        <ele>229.80000305176</ele>
        <time>2020-10-17T05:39:43Z</time>
      </trkpt>
      <trkpt lat="48.23295" lon="7.37152">
        <ele>229.80000305176</ele>
        <time>2020-10-17T05:39:44Z</time>
      </trkpt>
      <trkpt lat="48.23295" lon="7.3715">
        <ele>230</ele>
        <time>2020-10-17T05:39:45Z</time>
      </trkpt>
      <trkpt lat="48.23296" lon="7.37149">
        <ele>230</ele>
        <time>2020-10-17T05:39:46Z</time>
      </trkpt>
      <trkpt lat="48.23296" lon="7.37147">
        <ele>230</ele>
        <time>2020-10-17T05:39:47Z</time>
      </trkpt>
      <trkpt lat="48.23297" lon="7.37146">
        <ele>230</ele>
        <time>2020-10-17T05:39:48Z</time>
      </trkpt>
      <trkpt lat="48.23302" lon="7.37136">
        <ele>230.39999389648</ele>
        <time>2020-10-17T05:39:55Z</time>
      </trkpt>
      <trkpt lat="48.23314" lon="7.37113">
        <ele>231.19999694824</ele>
        <time>2020-10-17T05:40:09Z</time>
      </trkpt>
      <trkpt lat="48.23319" lon="7.37112">
        <ele>231.60000610352</ele>
        <time>2020-10-17T05:40:24Z</time>
      </trkpt>
      <trkpt lat="48.2332" lon="7.37105">
        <ele>231.60000610352</ele>
        <time>2020-10-17T05:40:30Z</time>
      </trkpt>
      <trkpt lat="48.23321" lon="7.37103">
        <ele>231.39999389648</ele>
        <time>2020-10-17T05:40:31Z</time>
      </trkpt>
      <trkpt lat="48.23322" lon="7.37101">
        <ele>231.39999389648</ele>
        <time>2020-10-17T05:40:32Z</time>
      </trkpt>
      <trkpt lat="48.23322" lon="7.37099">
        <ele>231.39999389648</ele>
        <time>2020-10-17T05:40:33Z</time>
      </trkpt>
      <trkpt lat="48.23323" lon="7.37098">
        <ele>231.39999389648</ele>
        <time>2020-10-17T05:40:34Z</time>
      </trkpt>
      <trkpt lat="48.23324" lon="7.37096">
        <ele>231.39999389648</ele>
        <time>2020-10-17T05:40:35Z</time>
      </trkpt>
      <trkpt lat="48.23332" lon="7.37079">
        <ele>232</ele>
        <time>2020-10-17T05:40:47Z</time>
      </trkpt>
      <trkpt lat="48.23346" lon="7.37057">
        <ele>233.19999694824</ele>
        <time>2020-10-17T05:41:03Z</time>
      </trkpt>
      <trkpt lat="48.23358" lon="7.37035">
        <ele>234.39999389648</ele>
        <time>2020-10-17T05:41:19Z</time>
      </trkpt>
      <trkpt lat="48.2337" lon="7.37012">
        <ele>235.80000305176</ele>
        <time>2020-10-17T05:41:37Z</time>
      </trkpt>
      <trkpt lat="48.23385" lon="7.36989">
        <ele>237.39999389648</ele>
        <time>2020-10-17T05:41:53Z</time>
      </trkpt>
      <trkpt lat="48.23395" lon="7.36966">
        <ele>238.80000305176</ele>
        <time>2020-10-17T05:42:09Z</time>
      </trkpt>
      <trkpt lat="48.23397" lon="7.36962">
        <ele>239</ele>
        <time>2020-10-17T05:42:12Z</time>
      </trkpt>
      <trkpt lat="48.23411" lon="7.36941">
        <ele>240.60000610352</ele>
        <time>2020-10-17T05:42:29Z</time>
      </trkpt>
      <trkpt lat="48.23412" lon="7.3694">
        <ele>240.60000610352</ele>
        <time>2020-10-17T05:42:30Z</time>
      </trkpt>
      <trkpt lat="48.23414" lon="7.36938">
        <ele>240.80000305176</ele>
        <time>2020-10-17T05:42:31Z</time>
      </trkpt>
      <trkpt lat="48.23415" lon="7.36936">
        <ele>240.80000305176</ele>
        <time>2020-10-17T05:42:32Z</time>
      </trkpt>
      <trkpt lat="48.23416" lon="7.36934">
        <ele>241</ele>
        <time>2020-10-17T05:42:33Z</time>
      </trkpt>
      <trkpt lat="48.23417" lon="7.36933">
        <ele>241</ele>
        <time>2020-10-17T05:42:34Z</time>
      </trkpt>
      <trkpt lat="48.23418" lon="7.36931">
        <ele>241.19999694824</ele>
        <time>2020-10-17T05:42:35Z</time>
      </trkpt>
      <trkpt lat="48.23434" lon="7.36907">
        <ele>243</ele>
        <time>2020-10-17T05:42:49Z</time>
      </trkpt>
      <trkpt lat="48.23447" lon="7.36884">
        <ele>245.60000610352</ele>
        <time>2020-10-17T05:43:08Z</time>
      </trkpt>
      <trkpt lat="48.23461" lon="7.36857">
        <ele>248</ele>
        <time>2020-10-17T05:43:27Z</time>
      </trkpt>
      <trkpt lat="48.23469" lon="7.36849">
        <ele>248.80000305176</ele>
        <time>2020-10-17T05:43:34Z</time>
      </trkpt>
      <trkpt lat="48.23488" lon="7.36832">
        <ele>250.60000610352</ele>
        <time>2020-10-17T05:43:50Z</time>
      </trkpt>
      <trkpt lat="48.23489" lon="7.36831">
        <ele>250.60000610352</ele>
        <time>2020-10-17T05:43:51Z</time>
      </trkpt>
      <trkpt lat="48.23497" lon="7.36823">
        <ele>251.80000305176</ele>
        <time>2020-10-17T05:44:01Z</time>
      </trkpt>
      <trkpt lat="48.23515" lon="7.36801">
        <ele>254.39999389648</ele>
        <time>2020-10-17T05:44:19Z</time>
      </trkpt>
      <trkpt lat="48.23534" lon="7.36781">
        <ele>256.60000610352</ele>
        <time>2020-10-17T05:44:38Z</time>
      </trkpt>
      <trkpt lat="48.23536" lon="7.36781">
        <ele>257</ele>
        <time>2020-10-17T05:44:40Z</time>
      </trkpt>
      <trkpt lat="48.23537" lon="7.36782">
        <ele>257.39999389648</ele>
        <time>2020-10-17T05:44:41Z</time>
      </trkpt>
      <trkpt lat="48.23538" lon="7.36783">
        <ele>257.60000610352</ele>
        <time>2020-10-17T05:44:42Z</time>
      </trkpt>
      <trkpt lat="48.23551" lon="7.36799">
        <ele>258.79998779297</ele>
        <time>2020-10-17T05:44:57Z</time>
      </trkpt>
      <trkpt lat="48.23552" lon="7.368">
        <ele>258.79998779297</ele>
        <time>2020-10-17T05:44:58Z</time>
      </trkpt>
      <trkpt lat="48.23553" lon="7.36801">
        <ele>259</ele>
        <time>2020-10-17T05:44:59Z</time>
      </trkpt>
      <trkpt lat="48.23554" lon="7.36802">
        <ele>259</ele>
        <time>2020-10-17T05:45:00Z</time>
      </trkpt>
      <trkpt lat="48.23555" lon="7.36803">
        <ele>259</ele>
        <time>2020-10-17T05:45:01Z</time>
      </trkpt>
      <trkpt lat="48.23556" lon="7.36804">
        <ele>259</ele>
        <time>2020-10-17T05:45:02Z</time>
      </trkpt>
      <trkpt lat="48.23557" lon="7.36805">
        <ele>259</ele>
        <time>2020-10-17T05:45:03Z</time>
      </trkpt>
      <trkpt lat="48.23558" lon="7.36806">
        <ele>259.20001220703</ele>
        <time>2020-10-17T05:45:04Z</time>
      </trkpt>
      <trkpt lat="48.23559" lon="7.36807">
        <ele>259.20001220703</ele>
        <time>2020-10-17T05:45:05Z</time>
      </trkpt>
      <trkpt lat="48.2356" lon="7.36808">
        <ele>259.39999389648</ele>
        <time>2020-10-17T05:45:06Z</time>
      </trkpt>
      <trkpt lat="48.23561" lon="7.3681">
        <ele>259.39999389648</ele>
        <time>2020-10-17T05:45:07Z</time>
      </trkpt>
      <trkpt lat="48.23563" lon="7.36811">
        <ele>259.60000610352</ele>
        <time>2020-10-17T05:45:08Z</time>
      </trkpt>
      <trkpt lat="48.23578" lon="7.36837">
        <ele>261</ele>
        <time>2020-10-17T05:45:26Z</time>
      </trkpt>
      <trkpt lat="48.23589" lon="7.36858">
        <ele>262</ele>
        <time>2020-10-17T05:45:43Z</time>
      </trkpt>
      <trkpt lat="48.2359" lon="7.36859">
        <ele>262</ele>
        <time>2020-10-17T05:45:44Z</time>
      </trkpt>
      <trkpt lat="48.23595" lon="7.3686">
        <ele>262.60000610352</ele>
        <time>2020-10-17T05:45:52Z</time>
      </trkpt>
      <trkpt lat="48.23596" lon="7.36861">
        <ele>262.60000610352</ele>
        <time>2020-10-17T05:45:53Z</time>
      </trkpt>
      <trkpt lat="48.23597" lon="7.36861">
        <ele>262.79998779297</ele>
        <time>2020-10-17T05:45:54Z</time>
      </trkpt>
      <trkpt lat="48.2362" lon="7.36872">
        <ele>265.60000610352</ele>
        <time>2020-10-17T05:46:15Z</time>
      </trkpt>
      <trkpt lat="48.23637" lon="7.36881">
        <ele>268.39999389648</ele>
        <time>2020-10-17T05:46:32Z</time>
      </trkpt>
      <trkpt lat="48.2365" lon="7.36891">
        <ele>271.20001220703</ele>
        <time>2020-10-17T05:46:48Z</time>
      </trkpt>
      <trkpt lat="48.23665" lon="7.36898">
        <ele>273.79998779297</ele>
        <time>2020-10-17T05:47:04Z</time>
      </trkpt>
      <trkpt lat="48.23678" lon="7.36893">
        <ele>277</ele>
        <time>2020-10-17T05:47:20Z</time>
      </trkpt>
      <trkpt lat="48.23681" lon="7.36888">
        <ele>277.39999389648</ele>
        <time>2020-10-17T05:47:23Z</time>
      </trkpt>
      <trkpt lat="48.23693" lon="7.36876">
        <ele>280.60000610352</ele>
        <time>2020-10-17T05:47:42Z</time>
      </trkpt>
      <trkpt lat="48.23708" lon="7.3688">
        <ele>283.79998779297</ele>
        <time>2020-10-17T05:48:00Z</time>
      </trkpt>
      <trkpt lat="48.23716" lon="7.36879">
        <ele>285.20001220703</ele>
        <time>2020-10-17T05:48:14Z</time>
      </trkpt>
      <trkpt lat="48.23718" lon="7.36881">
        <ele>285.39999389648</ele>
        <time>2020-10-17T05:48:25Z</time>
      </trkpt>
      <trkpt lat="48.23719" lon="7.36881">
        <ele>285.39999389648</ele>
        <time>2020-10-17T05:48:26Z</time>
      </trkpt>
      <trkpt lat="48.23721" lon="7.36883">
        <ele>285.60000610352</ele>
        <time>2020-10-17T05:48:28Z</time>
      </trkpt>
      <trkpt lat="48.23731" lon="7.36896">
        <ele>286</ele>
        <time>2020-10-17T05:48:46Z</time>
      </trkpt>
      <trkpt lat="48.23732" lon="7.36896">
        <ele>285.60000610352</ele>
        <time>2020-10-17T05:49:10Z</time>
      </trkpt>
      <trkpt lat="48.23733" lon="7.36899">
        <ele>285.60000610352</ele>
        <time>2020-10-17T05:49:27Z</time>
      </trkpt>
      <trkpt lat="48.23734" lon="7.369">
        <ele>285.60000610352</ele>
        <time>2020-10-17T05:49:28Z</time>
      </trkpt>
      <trkpt lat="48.23735" lon="7.36901">
        <ele>285.60000610352</ele>
        <time>2020-10-17T05:49:29Z</time>
      </trkpt>
      <trkpt lat="48.23736" lon="7.36901">
        <ele>285.60000610352</ele>
        <time>2020-10-17T05:49:30Z</time>
      </trkpt>
      <trkpt lat="48.23737" lon="7.36902">
        <ele>285.79998779297</ele>
        <time>2020-10-17T05:49:31Z</time>
      </trkpt>
      <trkpt lat="48.23738" lon="7.36902">
        <ele>285.79998779297</ele>
        <time>2020-10-17T05:49:32Z</time>
      </trkpt>
      <trkpt lat="48.23739" lon="7.36903">
        <ele>286</ele>
        <time>2020-10-17T05:49:33Z</time>
      </trkpt>
      <trkpt lat="48.23755" lon="7.36921">
        <ele>287.60000610352</ele>
        <time>2020-10-17T05:49:50Z</time>
      </trkpt>
      <trkpt lat="48.23769" lon="7.36946">
        <ele>289</ele>
        <time>2020-10-17T05:50:07Z</time>
      </trkpt>
      <trkpt lat="48.23783" lon="7.36976">
        <ele>290.20001220703</ele>
        <time>2020-10-17T05:50:26Z</time>
      </trkpt>
      <trkpt lat="48.23802" lon="7.37002">
        <ele>292</ele>
        <time>2020-10-17T05:50:46Z</time>
      </trkpt>
      <trkpt lat="48.23815" lon="7.37023">
        <ele>295.20001220703</ele>
        <time>2020-10-17T05:51:03Z</time>
      </trkpt>
      <trkpt lat="48.23816" lon="7.37024">
        <ele>295.39999389648</ele>
        <time>2020-10-17T05:51:04Z</time>
      </trkpt>
      <trkpt lat="48.23818" lon="7.3703">
        <ele>296.39999389648</ele>
        <time>2020-10-17T05:51:09Z</time>
      </trkpt>
      <trkpt lat="48.23819" lon="7.37032">
        <ele>296.39999389648</ele>
        <time>2020-10-17T05:51:10Z</time>
      </trkpt>
      <trkpt lat="48.2382" lon="7.37033">
        <ele>296.79998779297</ele>
        <time>2020-10-17T05:51:11Z</time>
      </trkpt>
      <trkpt lat="48.23828" lon="7.37051">
        <ele>299.20001220703</ele>
        <time>2020-10-17T05:51:27Z</time>
      </trkpt>
      <trkpt lat="48.2383" lon="7.37058">
        <ele>299.79998779297</ele>
        <time>2020-10-17T05:51:49Z</time>
      </trkpt>
      <trkpt lat="48.23831" lon="7.3706">
        <ele>299.79998779297</ele>
        <time>2020-10-17T05:51:50Z</time>
      </trkpt>
      <trkpt lat="48.23831" lon="7.37062">
        <ele>300</ele>
        <time>2020-10-17T05:51:51Z</time>
      </trkpt>
      <trkpt lat="48.23831" lon="7.37063">
        <ele>300.20001220703</ele>
        <time>2020-10-17T05:51:52Z</time>
      </trkpt>
      <trkpt lat="48.23831" lon="7.37065">
        <ele>300.60000610352</ele>
        <time>2020-10-17T05:51:53Z</time>
      </trkpt>
      <trkpt lat="48.23832" lon="7.37067">
        <ele>300.79998779297</ele>
        <time>2020-10-17T05:51:54Z</time>
      </trkpt>
      <trkpt lat="48.23832" lon="7.37069">
        <ele>301</ele>
        <time>2020-10-17T05:51:55Z</time>
      </trkpt>
      <trkpt lat="48.23832" lon="7.37071">
        <ele>301</ele>
        <time>2020-10-17T05:51:56Z</time>
      </trkpt>
      <trkpt lat="48.23833" lon="7.37072">
        <ele>301.20001220703</ele>
        <time>2020-10-17T05:51:57Z</time>
      </trkpt>
      <trkpt lat="48.23834" lon="7.37074">
        <ele>301.20001220703</ele>
        <time>2020-10-17T05:51:58Z</time>
      </trkpt>
      <trkpt lat="48.23834" lon="7.37075">
        <ele>301.39999389648</ele>
        <time>2020-10-17T05:51:59Z</time>
      </trkpt>
      <trkpt lat="48.23835" lon="7.37077">
        <ele>301.39999389648</ele>
        <time>2020-10-17T05:52:00Z</time>
      </trkpt>
      <trkpt lat="48.23846" lon="7.37103">
        <ele>303.20001220703</ele>
        <time>2020-10-17T05:52:19Z</time>
      </trkpt>
      <trkpt lat="48.23855" lon="7.37132">
        <ele>304.20001220703</ele>
        <time>2020-10-17T05:52:37Z</time>
      </trkpt>
      <trkpt lat="48.23862" lon="7.37168">
        <ele>305</ele>
        <time>2020-10-17T05:52:56Z</time>
      </trkpt>
      <trkpt lat="48.23868" lon="7.37205">
        <ele>306.20001220703</ele>
        <time>2020-10-17T05:53:17Z</time>
      </trkpt>
      <trkpt lat="48.23879" lon="7.37239">
        <ele>309</ele>
        <time>2020-10-17T05:53:39Z</time>
      </trkpt>
      <trkpt lat="48.23884" lon="7.37256">
        <ele>311.39999389648</ele>
        <time>2020-10-17T05:53:55Z</time>
      </trkpt>
      <trkpt lat="48.23884" lon="7.37259">
        <ele>311.39999389648</ele>
        <time>2020-10-17T05:54:20Z</time>
      </trkpt>
      <trkpt lat="48.23888" lon="7.37256">
        <ele>311.79998779297</ele>
        <time>2020-10-17T05:54:39Z</time>
      </trkpt>
      <trkpt lat="48.23891" lon="7.37261">
        <ele>312</ele>
        <time>2020-10-17T05:54:51Z</time>
      </trkpt>
      <trkpt lat="48.23892" lon="7.37262">
        <ele>312</ele>
        <time>2020-10-17T05:54:52Z</time>
      </trkpt>
      <trkpt lat="48.23893" lon="7.37263">
        <ele>312</ele>
        <time>2020-10-17T05:54:53Z</time>
      </trkpt>
      <trkpt lat="48.23894" lon="7.37264">
        <ele>312.20001220703</ele>
        <time>2020-10-17T05:54:54Z</time>
      </trkpt>
      <trkpt lat="48.23895" lon="7.37266">
        <ele>312.39999389648</ele>
        <time>2020-10-17T05:54:55Z</time>
      </trkpt>
      <trkpt lat="48.23909" lon="7.37283">
        <ele>315.20001220703</ele>
        <time>2020-10-17T05:55:13Z</time>
      </trkpt>
      <trkpt lat="48.23918" lon="7.37299">
        <ele>317.60000610352</ele>
        <time>2020-10-17T05:55:26Z</time>
      </trkpt>
      <trkpt lat="48.23919" lon="7.373">
        <ele>317.79998779297</ele>
        <time>2020-10-17T05:55:27Z</time>
      </trkpt>
      <trkpt lat="48.23931" lon="7.3732">
        <ele>320.79998779297</ele>
        <time>2020-10-17T05:55:44Z</time>
      </trkpt>
      <trkpt lat="48.23945" lon="7.37342">
        <ele>323.60000610352</ele>
        <time>2020-10-17T05:56:04Z</time>
      </trkpt>
      <trkpt lat="48.23958" lon="7.3736">
        <ele>326.60000610352</ele>
        <time>2020-10-17T05:56:21Z</time>
      </trkpt>
      <trkpt lat="48.2397" lon="7.3738">
        <ele>329.60000610352</ele>
        <time>2020-10-17T05:56:39Z</time>
      </trkpt>
      <trkpt lat="48.23982" lon="7.374">
        <ele>332.20001220703</ele>
        <time>2020-10-17T05:56:56Z</time>
      </trkpt>
      <trkpt lat="48.23995" lon="7.37421">
        <ele>335</ele>
        <time>2020-10-17T05:57:13Z</time>
      </trkpt>
      <trkpt lat="48.24004" lon="7.37444">
        <ele>337.39999389648</ele>
        <time>2020-10-17T05:57:31Z</time>
      </trkpt>
      <trkpt lat="48.24004" lon="7.37446">
        <ele>337.39999389648</ele>
        <time>2020-10-17T05:57:32Z</time>
      </trkpt>
      <trkpt lat="48.24004" lon="7.37447">
        <ele>338</ele>
        <time>2020-10-17T05:58:00Z</time>
      </trkpt>
      <trkpt lat="48.24004" lon="7.37449">
        <ele>338</ele>
        <time>2020-10-17T05:58:04Z</time>
      </trkpt>
      <trkpt lat="48.24005" lon="7.3745">
        <ele>338.20001220703</ele>
        <time>2020-10-17T05:58:05Z</time>
      </trkpt>
      <trkpt lat="48.24005" lon="7.37451">
        <ele>338.20001220703</ele>
        <time>2020-10-17T05:58:06Z</time>
      </trkpt>
      <trkpt lat="48.24006" lon="7.37452">
        <ele>338.20001220703</ele>
        <time>2020-10-17T05:58:07Z</time>
      </trkpt>
      <trkpt lat="48.24007" lon="7.37454">
        <ele>338.20001220703</ele>
        <time>2020-10-17T05:58:08Z</time>
      </trkpt>
      <trkpt lat="48.24022" lon="7.37478">
        <ele>340.39999389648</ele>
        <time>2020-10-17T05:58:27Z</time>
      </trkpt>
      <trkpt lat="48.2403" lon="7.37487">
        <ele>341.39999389648</ele>
        <time>2020-10-17T05:58:41Z</time>
      </trkpt>
      <trkpt lat="48.24033" lon="7.37468">
        <ele>343</ele>
        <time>2020-10-17T05:58:59Z</time>
      </trkpt>
      <trkpt lat="48.24034" lon="7.37445">
        <ele>346.20001220703</ele>
        <time>2020-10-17T05:59:16Z</time>
      </trkpt>
      <trkpt lat="48.24036" lon="7.37432">
        <ele>349.20001220703</ele>
        <time>2020-10-17T05:59:26Z</time>
      </trkpt>
      <trkpt lat="48.2404" lon="7.37413">
        <ele>352.39999389648</ele>
        <time>2020-10-17T05:59:45Z</time>
      </trkpt>
      <trkpt lat="48.24039" lon="7.37389">
        <ele>355.39999389648</ele>
        <time>2020-10-17T06:00:01Z</time>
      </trkpt>
      <trkpt lat="48.2404" lon="7.37366">
        <ele>358.60000610352</ele>
        <time>2020-10-17T06:00:17Z</time>
      </trkpt>
      <trkpt lat="48.24033" lon="7.37337">
        <ele>361.60000610352</ele>
        <time>2020-10-17T06:00:37Z</time>
      </trkpt>
      <trkpt lat="48.24041" lon="7.37322">
        <ele>364.79998779297</ele>
        <time>2020-10-17T06:00:53Z</time>
      </trkpt>
      <trkpt lat="48.24041" lon="7.3732">
        <ele>365</ele>
        <time>2020-10-17T06:00:54Z</time>
      </trkpt>
      <trkpt lat="48.24041" lon="7.37295">
        <ele>367.79998779297</ele>
        <time>2020-10-17T06:01:09Z</time>
      </trkpt>
      <trkpt lat="48.24044" lon="7.37269">
        <ele>371</ele>
        <time>2020-10-17T06:01:27Z</time>
      </trkpt>
      <trkpt lat="48.24046" lon="7.37246">
        <ele>374</ele>
        <time>2020-10-17T06:01:45Z</time>
      </trkpt>
      <trkpt lat="48.24048" lon="7.37226">
        <ele>377.20001220703</ele>
        <time>2020-10-17T06:02:02Z</time>
      </trkpt>
      <trkpt lat="48.24048" lon="7.37202">
        <ele>380.20001220703</ele>
        <time>2020-10-17T06:02:18Z</time>
      </trkpt>
      <trkpt lat="48.24051" lon="7.37166">
        <ele>383.39999389648</ele>
        <time>2020-10-17T06:02:41Z</time>
      </trkpt>
      <trkpt lat="48.24057" lon="7.37135">
        <ele>386.20001220703</ele>
        <time>2020-10-17T06:03:00Z</time>
      </trkpt>
      <trkpt lat="48.24057" lon="7.37133">
        <ele>386.60000610352</ele>
        <time>2020-10-17T06:03:01Z</time>
      </trkpt>
      <trkpt lat="48.24057" lon="7.37123">
        <ele>387.39999389648</ele>
        <time>2020-10-17T06:03:07Z</time>
      </trkpt>
      <trkpt lat="48.24056" lon="7.37121">
        <ele>387.60000610352</ele>
        <time>2020-10-17T06:03:08Z</time>
      </trkpt>
      <trkpt lat="48.24059" lon="7.37107">
        <ele>388.20001220703</ele>
        <time>2020-10-17T06:03:16Z</time>
      </trkpt>
      <trkpt lat="48.24055" lon="7.37095">
        <ele>389.79998779297</ele>
        <time>2020-10-17T06:03:29Z</time>
      </trkpt>
      <trkpt lat="48.24049" lon="7.37095">
        <ele>389.79998779297</ele>
        <time>2020-10-17T06:03:34Z</time>
      </trkpt>
      <trkpt lat="48.24034" lon="7.37092">
        <ele>386.60000610352</ele>
        <time>2020-10-17T06:03:50Z</time>
      </trkpt>
      <trkpt lat="48.24027" lon="7.37091">
        <ele>383.39999389648</ele>
        <time>2020-10-17T06:04:08Z</time>
      </trkpt>
      <trkpt lat="48.24026" lon="7.37089">
        <ele>383.20001220703</ele>
        <time>2020-10-17T06:04:39Z</time>
      </trkpt>
      <trkpt lat="48.24031" lon="7.37077">
        <ele>383.20001220703</ele>
        <time>2020-10-17T06:04:49Z</time>
      </trkpt>
      <trkpt lat="48.24037" lon="7.37064">
        <ele>386.39999389648</ele>
        <time>2020-10-17T06:05:01Z</time>
      </trkpt>
      <trkpt lat="48.2404" lon="7.37041">
        <ele>388.39999389648</ele>
        <time>2020-10-17T06:05:16Z</time>
      </trkpt>
      <trkpt lat="48.24045" lon="7.37013">
        <ele>391.20001220703</ele>
        <time>2020-10-17T06:05:37Z</time>
      </trkpt>
      <trkpt lat="48.24047" lon="7.36991">
        <ele>394.20001220703</ele>
        <time>2020-10-17T06:05:58Z</time>
      </trkpt>
      <trkpt lat="48.24044" lon="7.36966">
        <ele>394.60000610352</ele>
        <time>2020-10-17T06:06:14Z</time>
      </trkpt>
      <trkpt lat="48.24045" lon="7.36953">
        <ele>395.79998779297</ele>
        <time>2020-10-17T06:06:28Z</time>
      </trkpt>
      <trkpt lat="48.2405" lon="7.36921">
        <ele>398</ele>
        <time>2020-10-17T06:06:48Z</time>
      </trkpt>
      <trkpt lat="48.24053" lon="7.36901">
        <ele>400.39999389648</ele>
        <time>2020-10-17T06:07:02Z</time>
      </trkpt>
      <trkpt lat="48.24042" lon="7.36888">
        <ele>397.60000610352</ele>
        <time>2020-10-17T06:07:14Z</time>
      </trkpt>
      <trkpt lat="48.24033" lon="7.36872">
        <ele>394.60000610352</ele>
        <time>2020-10-17T06:07:26Z</time>
      </trkpt>
      <trkpt lat="48.24025" lon="7.36866">
        <ele>391.39999389648</ele>
        <time>2020-10-17T06:07:35Z</time>
      </trkpt>
      <trkpt lat="48.24024" lon="7.36864">
        <ele>391</ele>
        <time>2020-10-17T06:07:36Z</time>
      </trkpt>
      <trkpt lat="48.24023" lon="7.36857">
        <ele>389.39999389648</ele>
        <time>2020-10-17T06:07:40Z</time>
      </trkpt>
      <trkpt lat="48.24022" lon="7.3685">
        <ele>389.20001220703</ele>
        <time>2020-10-17T06:07:44Z</time>
      </trkpt>
      <trkpt lat="48.24015" lon="7.36822">
        <ele>388.20001220703</ele>
        <time>2020-10-17T06:07:58Z</time>
      </trkpt>
      <trkpt lat="48.24012" lon="7.36799">
        <ele>386.79998779297</ele>
        <time>2020-10-17T06:08:10Z</time>
      </trkpt>
      <trkpt lat="48.24009" lon="7.36766">
        <ele>387.60000610352</ele>
        <time>2020-10-17T06:08:28Z</time>
      </trkpt>
      <trkpt lat="48.24008" lon="7.36757">
        <ele>387.60000610352</ele>
        <time>2020-10-17T06:08:32Z</time>
      </trkpt>
      <trkpt lat="48.24004" lon="7.36731">
        <ele>389</ele>
        <time>2020-10-17T06:08:46Z</time>
      </trkpt>
      <trkpt lat="48.24004" lon="7.36719">
        <ele>390</ele>
        <time>2020-10-17T06:08:52Z</time>
      </trkpt>
      <trkpt lat="48.24001" lon="7.36695">
        <ele>391.79998779297</ele>
        <time>2020-10-17T06:09:06Z</time>
      </trkpt>
      <trkpt lat="48.23995" lon="7.36669">
        <ele>391.39999389648</ele>
        <time>2020-10-17T06:09:19Z</time>
      </trkpt>
      <trkpt lat="48.23992" lon="7.36655">
        <ele>391.20001220703</ele>
        <time>2020-10-17T06:09:27Z</time>
      </trkpt>
      <trkpt lat="48.23991" lon="7.36653">
        <ele>391.20001220703</ele>
        <time>2020-10-17T06:09:28Z</time>
      </trkpt>
      <trkpt lat="48.23981" lon="7.36632">
        <ele>389.60000610352</ele>
        <time>2020-10-17T06:09:42Z</time>
      </trkpt>
      <trkpt lat="48.2398" lon="7.3663">
        <ele>389.60000610352</ele>
        <time>2020-10-17T06:09:43Z</time>
      </trkpt>
      <trkpt lat="48.2397" lon="7.36604">
        <ele>388.39999389648</ele>
        <time>2020-10-17T06:09:56Z</time>
      </trkpt>
      <trkpt lat="48.2397" lon="7.36602">
        <ele>388.39999389648</ele>
        <time>2020-10-17T06:09:57Z</time>
      </trkpt>
      <trkpt lat="48.23971" lon="7.366">
        <ele>388.39999389648</ele>
        <time>2020-10-17T06:09:58Z</time>
      </trkpt>
      <trkpt lat="48.23972" lon="7.36586">
        <ele>389.60000610352</ele>
        <time>2020-10-17T06:10:11Z</time>
      </trkpt>
      <trkpt lat="48.23966" lon="7.3658">
        <ele>387.60000610352</ele>
        <time>2020-10-17T06:10:31Z</time>
      </trkpt>
      <trkpt lat="48.23959" lon="7.36567">
        <ele>384.39999389648</ele>
        <time>2020-10-17T06:10:44Z</time>
      </trkpt>
      <trkpt lat="48.23956" lon="7.36559">
        <ele>383.20001220703</ele>
        <time>2020-10-17T06:10:49Z</time>
      </trkpt>
      <trkpt lat="48.23961" lon="7.36544">
        <ele>382.60000610352</ele>
        <time>2020-10-17T06:10:59Z</time>
      </trkpt>
      <trkpt lat="48.23964" lon="7.36535">
        <ele>382.39999389648</ele>
        <time>2020-10-17T06:11:05Z</time>
      </trkpt>
      <trkpt lat="48.23975" lon="7.3652">
        <ele>384</ele>
        <time>2020-10-17T06:11:21Z</time>
      </trkpt>
      <trkpt lat="48.23987" lon="7.36495">
        <ele>385.60000610352</ele>
        <time>2020-10-17T06:11:36Z</time>
      </trkpt>
      <trkpt lat="48.24" lon="7.36476">
        <ele>387.60000610352</ele>
        <time>2020-10-17T06:11:51Z</time>
      </trkpt>
      <trkpt lat="48.24001" lon="7.36474">
        <ele>387.79998779297</ele>
        <time>2020-10-17T06:11:52Z</time>
      </trkpt>
      <trkpt lat="48.24006" lon="7.36463">
        <ele>388.60000610352</ele>
        <time>2020-10-17T06:12:10Z</time>
      </trkpt>
      <trkpt lat="48.24005" lon="7.36466">
        <ele>388.79998779297</ele>
        <time>2020-10-17T06:12:40Z</time>
      </trkpt>
      <trkpt lat="48.24009" lon="7.36453">
        <ele>389</ele>
        <time>2020-10-17T06:12:59Z</time>
      </trkpt>
      <trkpt lat="48.2401" lon="7.36444">
        <ele>388.79998779297</ele>
        <time>2020-10-17T06:13:03Z</time>
      </trkpt>
      <trkpt lat="48.24013" lon="7.36412">
        <ele>388.79998779297</ele>
        <time>2020-10-17T06:13:21Z</time>
      </trkpt>
      <trkpt lat="48.24014" lon="7.36392">
        <ele>388.20001220703</ele>
        <time>2020-10-17T06:13:37Z</time>
      </trkpt>
      <trkpt lat="48.24014" lon="7.3639">
        <ele>388.20001220703</ele>
        <time>2020-10-17T06:13:38Z</time>
      </trkpt>
      <trkpt lat="48.24014" lon="7.36388">
        <ele>388</ele>
        <time>2020-10-17T06:13:39Z</time>
      </trkpt>
      <trkpt lat="48.24013" lon="7.36386">
        <ele>388</ele>
        <time>2020-10-17T06:13:40Z</time>
      </trkpt>
      <trkpt lat="48.24012" lon="7.36384">
        <ele>387.79998779297</ele>
        <time>2020-10-17T06:13:41Z</time>
      </trkpt>
      <trkpt lat="48.24007" lon="7.3636">
        <ele>384.79998779297</ele>
        <time>2020-10-17T06:14:00Z</time>
      </trkpt>
      <trkpt lat="48.24001" lon="7.36348">
        <ele>383</ele>
        <time>2020-10-17T06:14:18Z</time>
      </trkpt>
      <trkpt lat="48.23999" lon="7.36343">
        <ele>382.79998779297</ele>
        <time>2020-10-17T06:14:28Z</time>
      </trkpt>
      <trkpt lat="48.23998" lon="7.36341">
        <ele>382.79998779297</ele>
        <time>2020-10-17T06:14:29Z</time>
      </trkpt>
      <trkpt lat="48.23997" lon="7.36336">
        <ele>382.60000610352</ele>
        <time>2020-10-17T06:14:31Z</time>
      </trkpt>
      <trkpt lat="48.23997" lon="7.36334">
        <ele>382.39999389648</ele>
        <time>2020-10-17T06:14:32Z</time>
      </trkpt>
      <trkpt lat="48.23997" lon="7.36332">
        <ele>382.20001220703</ele>
        <time>2020-10-17T06:14:33Z</time>
      </trkpt>
      <trkpt lat="48.24002" lon="7.3631">
        <ele>381.79998779297</ele>
        <time>2020-10-17T06:14:46Z</time>
      </trkpt>
      <trkpt lat="48.24003" lon="7.36308">
        <ele>381.79998779297</ele>
        <time>2020-10-17T06:14:47Z</time>
      </trkpt>
      <trkpt lat="48.24003" lon="7.36307">
        <ele>381.79998779297</ele>
        <time>2020-10-17T06:14:48Z</time>
      </trkpt>
      <trkpt lat="48.24004" lon="7.36304">
        <ele>381.79998779297</ele>
        <time>2020-10-17T06:14:49Z</time>
      </trkpt>
      <trkpt lat="48.24005" lon="7.36303">
        <ele>381.79998779297</ele>
        <time>2020-10-17T06:14:50Z</time>
      </trkpt>
      <trkpt lat="48.24006" lon="7.36301">
        <ele>381.79998779297</ele>
        <time>2020-10-17T06:14:51Z</time>
      </trkpt>
      <trkpt lat="48.24008" lon="7.36292">
        <ele>382.60000610352</ele>
        <time>2020-10-17T06:14:58Z</time>
      </trkpt>
      <trkpt lat="48.24009" lon="7.36289">
        <ele>382.60000610352</ele>
        <time>2020-10-17T06:14:59Z</time>
      </trkpt>
      <trkpt lat="48.24009" lon="7.36287">
        <ele>382.60000610352</ele>
        <time>2020-10-17T06:15:00Z</time>
      </trkpt>
      <trkpt lat="48.24017" lon="7.36257">
        <ele>382.60000610352</ele>
        <time>2020-10-17T06:15:16Z</time>
      </trkpt>
      <trkpt lat="48.24026" lon="7.36229">
        <ele>382.79998779297</ele>
        <time>2020-10-17T06:15:32Z</time>
      </trkpt>
      <trkpt lat="48.24039" lon="7.36205">
        <ele>384.60000610352</ele>
        <time>2020-10-17T06:15:47Z</time>
      </trkpt>
      <trkpt lat="48.2404" lon="7.36203">
        <ele>384.79998779297</ele>
        <time>2020-10-17T06:15:48Z</time>
      </trkpt>
      <trkpt lat="48.24041" lon="7.36201">
        <ele>385</ele>
        <time>2020-10-17T06:15:49Z</time>
      </trkpt>
      <trkpt lat="48.24044" lon="7.36198">
        <ele>385.39999389648</ele>
        <time>2020-10-17T06:15:52Z</time>
      </trkpt>
      <trkpt lat="48.24045" lon="7.36198">
        <ele>385.60000610352</ele>
        <time>2020-10-17T06:15:53Z</time>
      </trkpt>
      <trkpt lat="48.24045" lon="7.36197">
        <ele>385.60000610352</ele>
        <time>2020-10-17T06:15:54Z</time>
      </trkpt>
      <trkpt lat="48.24047" lon="7.36193">
        <ele>386.20001220703</ele>
        <time>2020-10-17T06:15:58Z</time>
      </trkpt>
      <trkpt lat="48.24043" lon="7.36189">
        <ele>385</ele>
        <time>2020-10-17T06:16:02Z</time>
      </trkpt>
      <trkpt lat="48.2404" lon="7.36184">
        <ele>383.20001220703</ele>
        <time>2020-10-17T06:16:06Z</time>
      </trkpt>
      <trkpt lat="48.24041" lon="7.36167">
        <ele>379.60000610352</ele>
        <time>2020-10-17T06:16:17Z</time>
      </trkpt>
      <trkpt lat="48.24044" lon="7.36155">
        <ele>376.60000610352</ele>
        <time>2020-10-17T06:16:25Z</time>
      </trkpt>
      <trkpt lat="48.24045" lon="7.36139">
        <ele>373.20001220703</ele>
        <time>2020-10-17T06:16:33Z</time>
      </trkpt>
      <trkpt lat="48.24047" lon="7.36126">
        <ele>369.60000610352</ele>
        <time>2020-10-17T06:16:43Z</time>
      </trkpt>
      <trkpt lat="48.2405" lon="7.36121">
        <ele>366.60000610352</ele>
        <time>2020-10-17T06:16:54Z</time>
      </trkpt>
      <trkpt lat="48.24051" lon="7.36108">
        <ele>363.39999389648</ele>
        <time>2020-10-17T06:17:05Z</time>
      </trkpt>
      <trkpt lat="48.24064" lon="7.36097">
        <ele>361.39999389648</ele>
        <time>2020-10-17T06:17:19Z</time>
      </trkpt>
      <trkpt lat="48.24065" lon="7.36095">
        <ele>361.39999389648</ele>
        <time>2020-10-17T06:17:20Z</time>
      </trkpt>
      <trkpt lat="48.24069" lon="7.36088">
        <ele>361.20001220703</ele>
        <time>2020-10-17T06:17:24Z</time>
      </trkpt>
      <trkpt lat="48.24082" lon="7.36074">
        <ele>361.20001220703</ele>
        <time>2020-10-17T06:17:40Z</time>
      </trkpt>
      <trkpt lat="48.24089" lon="7.36044">
        <ele>358.20001220703</ele>
        <time>2020-10-17T06:17:57Z</time>
      </trkpt>
      <trkpt lat="48.241" lon="7.3602">
        <ele>355</ele>
        <time>2020-10-17T06:18:10Z</time>
      </trkpt>
      <trkpt lat="48.24117" lon="7.35989">
        <ele>355.39999389648</ele>
        <time>2020-10-17T06:18:29Z</time>
      </trkpt>
      <trkpt lat="48.24118" lon="7.35974">
        <ele>353.60000610352</ele>
        <time>2020-10-17T06:18:45Z</time>
      </trkpt>
      <trkpt lat="48.24123" lon="7.35965">
        <ele>353.60000610352</ele>
        <time>2020-10-17T06:18:49Z</time>
      </trkpt>
      <trkpt lat="48.24127" lon="7.3593">
        <ele>352.60000610352</ele>
        <time>2020-10-17T06:19:10Z</time>
      </trkpt>
      <trkpt lat="48.24131" lon="7.3592">
        <ele>352.60000610352</ele>
        <time>2020-10-17T06:19:16Z</time>
      </trkpt>
      <trkpt lat="48.24131" lon="7.35918">
        <ele>352.60000610352</ele>
        <time>2020-10-17T06:19:17Z</time>
      </trkpt>
      <trkpt lat="48.24136" lon="7.35889">
        <ele>352</ele>
        <time>2020-10-17T06:19:33Z</time>
      </trkpt>
      <trkpt lat="48.24137" lon="7.35884">
        <ele>351</ele>
        <time>2020-10-17T06:19:37Z</time>
      </trkpt>
      <trkpt lat="48.24145" lon="7.35862">
        <ele>349.39999389648</ele>
        <time>2020-10-17T06:19:51Z</time>
      </trkpt>
      <trkpt lat="48.24145" lon="7.3586">
        <ele>349.20001220703</ele>
        <time>2020-10-17T06:19:52Z</time>
      </trkpt>
      <trkpt lat="48.24146" lon="7.35858">
        <ele>348.79998779297</ele>
        <time>2020-10-17T06:19:53Z</time>
      </trkpt>
      <trkpt lat="48.24147" lon="7.35854">
        <ele>348</ele>
        <time>2020-10-17T06:19:55Z</time>
      </trkpt>
      <trkpt lat="48.2415" lon="7.35833">
        <ele>344.79998779297</ele>
        <time>2020-10-17T06:20:04Z</time>
      </trkpt>
      <trkpt lat="48.24155" lon="7.35817">
        <ele>342.39999389648</ele>
        <time>2020-10-17T06:20:11Z</time>
      </trkpt>
      <trkpt lat="48.24156" lon="7.35815">
        <ele>342.39999389648</ele>
        <time>2020-10-17T06:20:12Z</time>
      </trkpt>
      <trkpt lat="48.2416" lon="7.35801">
        <ele>341.39999389648</ele>
        <time>2020-10-17T06:20:19Z</time>
      </trkpt>
      <trkpt lat="48.2416" lon="7.35799">
        <ele>341.39999389648</ele>
        <time>2020-10-17T06:20:20Z</time>
      </trkpt>
      <trkpt lat="48.24161" lon="7.35797">
        <ele>341.39999389648</ele>
        <time>2020-10-17T06:20:21Z</time>
      </trkpt>
      <trkpt lat="48.24163" lon="7.35793">
        <ele>341.20001220703</ele>
        <time>2020-10-17T06:20:23Z</time>
      </trkpt>
      <trkpt lat="48.24174" lon="7.35764">
        <ele>340.60000610352</ele>
        <time>2020-10-17T06:20:39Z</time>
      </trkpt>
      <trkpt lat="48.24175" lon="7.35762">
        <ele>340.60000610352</ele>
        <time>2020-10-17T06:20:40Z</time>
      </trkpt>
      <trkpt lat="48.24176" lon="7.35759">
        <ele>340.60000610352</ele>
        <time>2020-10-17T06:20:41Z</time>
      </trkpt>
      <trkpt lat="48.24178" lon="7.35758">
        <ele>340.60000610352</ele>
        <time>2020-10-17T06:20:42Z</time>
      </trkpt>
      <trkpt lat="48.24191" lon="7.35729">
        <ele>341</ele>
        <time>2020-10-17T06:20:58Z</time>
      </trkpt>
      <trkpt lat="48.24204" lon="7.357">
        <ele>340.20001220703</ele>
        <time>2020-10-17T06:21:16Z</time>
      </trkpt>
      <trkpt lat="48.24205" lon="7.35695">
        <ele>339.79998779297</ele>
        <time>2020-10-17T06:21:20Z</time>
      </trkpt>
      <trkpt lat="48.24212" lon="7.35678">
        <ele>337.79998779297</ele>
        <time>2020-10-17T06:21:41Z</time>
      </trkpt>
      <trkpt lat="48.24211" lon="7.35677">
        <ele>338.60000610352</ele>
        <time>2020-10-17T06:21:59Z</time>
      </trkpt>
      <trkpt lat="48.24194" lon="7.35671">
        <ele>336.79998779297</ele>
        <time>2020-10-17T06:22:59Z</time>
      </trkpt>
      <trkpt lat="48.24197" lon="7.35664">
        <ele>336.20001220703</ele>
        <time>2020-10-17T06:23:07Z</time>
      </trkpt>
      <trkpt lat="48.24204" lon="7.35643">
        <ele>336.39999389648</ele>
        <time>2020-10-17T06:23:17Z</time>
      </trkpt>
      <trkpt lat="48.24203" lon="7.3562">
        <ele>336.79998779297</ele>
        <time>2020-10-17T06:23:32Z</time>
      </trkpt>
      <trkpt lat="48.24178" lon="7.35614">
        <ele>337.20001220703</ele>
        <time>2020-10-17T06:23:44Z</time>
      </trkpt>
      <trkpt lat="48.24176" lon="7.35615">
        <ele>337.20001220703</ele>
        <time>2020-10-17T06:23:45Z</time>
      </trkpt>
      <trkpt lat="48.24174" lon="7.35616">
        <ele>337.39999389648</ele>
        <time>2020-10-17T06:23:46Z</time>
      </trkpt>
      <trkpt lat="48.24172" lon="7.35617">
        <ele>337.39999389648</ele>
        <time>2020-10-17T06:23:47Z</time>
      </trkpt>
      <trkpt lat="48.24171" lon="7.35617">
        <ele>337.60000610352</ele>
        <time>2020-10-17T06:23:48Z</time>
      </trkpt>
      <trkpt lat="48.24169" lon="7.35618">
        <ele>337.60000610352</ele>
        <time>2020-10-17T06:23:49Z</time>
      </trkpt>
      <trkpt lat="48.24151" lon="7.3563">
        <ele>338.60000610352</ele>
        <time>2020-10-17T06:24:03Z</time>
      </trkpt>
      <trkpt lat="48.24133" lon="7.35621">
        <ele>340.20001220703</ele>
        <time>2020-10-17T06:24:19Z</time>
      </trkpt>
      <trkpt lat="48.24125" lon="7.35604">
        <ele>341.79998779297</ele>
        <time>2020-10-17T06:24:35Z</time>
      </trkpt>
      <trkpt lat="48.24124" lon="7.35575">
        <ele>343.39999389648</ele>
        <time>2020-10-17T06:24:52Z</time>
      </trkpt>
      <trkpt lat="48.24134" lon="7.3556">
        <ele>346.39999389648</ele>
        <time>2020-10-17T06:25:08Z</time>
      </trkpt>
      <trkpt lat="48.24142" lon="7.35543">
        <ele>349.39999389648</ele>
        <time>2020-10-17T06:25:23Z</time>
      </trkpt>
      <trkpt lat="48.24151" lon="7.35527">
        <ele>352.60000610352</ele>
        <time>2020-10-17T06:25:38Z</time>
      </trkpt>
      <trkpt lat="48.24159" lon="7.35516">
        <ele>355.60000610352</ele>
        <time>2020-10-17T06:25:53Z</time>
      </trkpt>
      <trkpt lat="48.24169" lon="7.35503">
        <ele>358.60000610352</ele>
        <time>2020-10-17T06:26:05Z</time>
      </trkpt>
      <trkpt lat="48.24178" lon="7.35486">
        <ele>361.79998779297</ele>
        <time>2020-10-17T06:26:22Z</time>
      </trkpt>
      <trkpt lat="48.24186" lon="7.35472">
        <ele>364.79998779297</ele>
        <time>2020-10-17T06:26:37Z</time>
      </trkpt>
      <trkpt lat="48.24196" lon="7.35458">
        <ele>367.79998779297</ele>
        <time>2020-10-17T06:26:53Z</time>
      </trkpt>
      <trkpt lat="48.24201" lon="7.35449">
        <ele>369.39999389648</ele>
        <time>2020-10-17T06:27:01Z</time>
      </trkpt>
      <trkpt lat="48.24205" lon="7.35439">
        <ele>372.39999389648</ele>
        <time>2020-10-17T06:27:15Z</time>
      </trkpt>
      <trkpt lat="48.24216" lon="7.35424">
        <ele>373.39999389648</ele>
        <time>2020-10-17T06:27:36Z</time>
      </trkpt>
      <trkpt lat="48.24224" lon="7.35409">
        <ele>375.79998779297</ele>
        <time>2020-10-17T06:27:52Z</time>
      </trkpt>
      <trkpt lat="48.24237" lon="7.35387">
        <ele>378.20001220703</ele>
        <time>2020-10-17T06:28:09Z</time>
      </trkpt>
      <trkpt lat="48.24244" lon="7.35377">
        <ele>381.39999389648</ele>
        <time>2020-10-17T06:28:26Z</time>
      </trkpt>
      <trkpt lat="48.24249" lon="7.35367">
        <ele>384.39999389648</ele>
        <time>2020-10-17T06:28:40Z</time>
      </trkpt>
      <trkpt lat="48.24259" lon="7.35349">
        <ele>387.39999389648</ele>
        <time>2020-10-17T06:28:57Z</time>
      </trkpt>
      <trkpt lat="48.24271" lon="7.3533">
        <ele>390.60000610352</ele>
        <time>2020-10-17T06:29:16Z</time>
      </trkpt>
      <trkpt lat="48.24282" lon="7.35312">
        <ele>393.60000610352</ele>
        <time>2020-10-17T06:29:34Z</time>
      </trkpt>
      <trkpt lat="48.24293" lon="7.35294">
        <ele>396.60000610352</ele>
        <time>2020-10-17T06:29:51Z</time>
      </trkpt>
      <trkpt lat="48.24302" lon="7.35283">
        <ele>399.60000610352</ele>
        <time>2020-10-17T06:30:07Z</time>
      </trkpt>
      <trkpt lat="48.2431" lon="7.35267">
        <ele>402</ele>
        <time>2020-10-17T06:30:22Z</time>
      </trkpt>
      <trkpt lat="48.24319" lon="7.35255">
        <ele>405.20001220703</ele>
        <time>2020-10-17T06:30:42Z</time>
      </trkpt>
      <trkpt lat="48.24328" lon="7.35238">
        <ele>407.79998779297</ele>
        <time>2020-10-17T06:31:07Z</time>
      </trkpt>
      <trkpt lat="48.24338" lon="7.35221">
        <ele>411</ele>
        <time>2020-10-17T06:31:27Z</time>
      </trkpt>
      <trkpt lat="48.24347" lon="7.35203">
        <ele>414</ele>
        <time>2020-10-17T06:31:43Z</time>
      </trkpt>
      <trkpt lat="48.24354" lon="7.35189">
        <ele>417.20001220703</ele>
        <time>2020-10-17T06:31:57Z</time>
      </trkpt>
      <trkpt lat="48.24364" lon="7.35173">
        <ele>420.39999389648</ele>
        <time>2020-10-17T06:32:13Z</time>
      </trkpt>
      <trkpt lat="48.24373" lon="7.35161">
        <ele>423.39999389648</ele>
        <time>2020-10-17T06:32:30Z</time>
      </trkpt>
      <trkpt lat="48.24374" lon="7.35146">
        <ele>426.60000610352</ele>
        <time>2020-10-17T06:32:44Z</time>
      </trkpt>
      <trkpt lat="48.24369" lon="7.35119">
        <ele>428.60000610352</ele>
        <time>2020-10-17T06:33:03Z</time>
      </trkpt>
      <trkpt lat="48.24377" lon="7.3511">
        <ele>431.60000610352</ele>
        <time>2020-10-17T06:33:22Z</time>
      </trkpt>
      <trkpt lat="48.24384" lon="7.35118">
        <ele>433</ele>
        <time>2020-10-17T06:33:40Z</time>
      </trkpt>
      <trkpt lat="48.24388" lon="7.35124">
        <ele>432.60000610352</ele>
        <time>2020-10-17T06:33:56Z</time>
      </trkpt>
      <trkpt lat="48.24389" lon="7.35129">
        <ele>432.60000610352</ele>
        <time>2020-10-17T06:34:16Z</time>
      </trkpt>
      <trkpt lat="48.24393" lon="7.35129">
        <ele>432.79998779297</ele>
        <time>2020-10-17T06:34:34Z</time>
      </trkpt>
      <trkpt lat="48.24416" lon="7.35105">
        <ele>432.79998779297</ele>
        <time>2020-10-17T06:34:54Z</time>
      </trkpt>
      <trkpt lat="48.24425" lon="7.35103">
        <ele>433.60000610352</ele>
        <time>2020-10-17T06:35:17Z</time>
      </trkpt>
      <trkpt lat="48.24434" lon="7.3509">
        <ele>435.39999389648</ele>
        <time>2020-10-17T06:35:33Z</time>
      </trkpt>
      <trkpt lat="48.24435" lon="7.35094">
        <ele>436.79998779297</ele>
        <time>2020-10-17T06:35:48Z</time>
      </trkpt>
      <trkpt lat="48.24444" lon="7.35089">
        <ele>436.60000610352</ele>
        <time>2020-10-17T06:36:18Z</time>
      </trkpt>
      <trkpt lat="48.24428" lon="7.35087">
        <ele>436.79998779297</ele>
        <time>2020-10-17T06:36:49Z</time>
      </trkpt>
      <trkpt lat="48.24428" lon="7.35088">
        <ele>436.60000610352</ele>
        <time>2020-10-17T06:37:14Z</time>
      </trkpt>
      <trkpt lat="48.24435" lon="7.35096">
        <ele>436.60000610352</ele>
        <time>2020-10-17T06:38:00Z</time>
      </trkpt>
      <trkpt lat="48.24441" lon="7.35106">
        <ele>437.60000610352</ele>
        <time>2020-10-17T06:38:12Z</time>
      </trkpt>
      <trkpt lat="48.24449" lon="7.35103">
        <ele>439.79998779297</ele>
        <time>2020-10-17T06:38:23Z</time>
      </trkpt>
      <trkpt lat="48.24451" lon="7.3508">
        <ele>442.20001220703</ele>
        <time>2020-10-17T06:38:37Z</time>
      </trkpt>
      <trkpt lat="48.24455" lon="7.35059">
        <ele>444.60000610352</ele>
        <time>2020-10-17T06:38:53Z</time>
      </trkpt>
      <trkpt lat="48.24457" lon="7.35072">
        <ele>447.39999389648</ele>
        <time>2020-10-17T06:39:09Z</time>
      </trkpt>
      <trkpt lat="48.24461" lon="7.35082">
        <ele>450.20001220703</ele>
        <time>2020-10-17T06:39:27Z</time>
      </trkpt>
      <trkpt lat="48.24465" lon="7.3509">
        <ele>450.79998779297</ele>
        <time>2020-10-17T06:39:41Z</time>
      </trkpt>
      <trkpt lat="48.24471" lon="7.35082">
        <ele>452.79998779297</ele>
        <time>2020-10-17T06:39:52Z</time>
      </trkpt>
      <trkpt lat="48.24471" lon="7.35059">
        <ele>456</ele>
        <time>2020-10-17T06:40:10Z</time>
      </trkpt>
      <trkpt lat="48.24468" lon="7.35042">
        <ele>458</ele>
        <time>2020-10-17T06:40:24Z</time>
      </trkpt>
      <trkpt lat="48.24464" lon="7.35019">
        <ele>461.20001220703</ele>
        <time>2020-10-17T06:40:41Z</time>
      </trkpt>
      <trkpt lat="48.2446" lon="7.35003">
        <ele>463.79998779297</ele>
        <time>2020-10-17T06:40:56Z</time>
      </trkpt>
      <trkpt lat="48.2446" lon="7.3499">
        <ele>467</ele>
        <time>2020-10-17T06:41:11Z</time>
      </trkpt>
      <trkpt lat="48.24466" lon="7.35003">
        <ele>469.79998779297</ele>
        <time>2020-10-17T06:41:31Z</time>
      </trkpt>
      <trkpt lat="48.24473" lon="7.35011">
        <ele>473</ele>
        <time>2020-10-17T06:41:47Z</time>
      </trkpt>
      <trkpt lat="48.24482" lon="7.35016">
        <ele>476</ele>
        <time>2020-10-17T06:42:06Z</time>
      </trkpt>
      <trkpt lat="48.24492" lon="7.35027">
        <ele>479.20001220703</ele>
        <time>2020-10-17T06:42:25Z</time>
      </trkpt>
      <trkpt lat="48.24502" lon="7.3504">
        <ele>481.79998779297</ele>
        <time>2020-10-17T06:42:41Z</time>
      </trkpt>
      <trkpt lat="48.24513" lon="7.35056">
        <ele>484.79998779297</ele>
        <time>2020-10-17T06:43:00Z</time>
      </trkpt>
      <trkpt lat="48.24526" lon="7.35072">
        <ele>487.79998779297</ele>
        <time>2020-10-17T06:43:22Z</time>
      </trkpt>
      <trkpt lat="48.24536" lon="7.35086">
        <ele>490.79998779297</ele>
        <time>2020-10-17T06:43:41Z</time>
      </trkpt>
      <trkpt lat="48.24555" lon="7.35094">
        <ele>494</ele>
        <time>2020-10-17T06:44:03Z</time>
      </trkpt>
      <trkpt lat="48.24571" lon="7.35087">
        <ele>497.20001220703</ele>
        <time>2020-10-17T06:44:21Z</time>
      </trkpt>
      <trkpt lat="48.24576" lon="7.35067">
        <ele>500.20001220703</ele>
        <time>2020-10-17T06:44:39Z</time>
      </trkpt>
      <trkpt lat="48.24574" lon="7.35046">
        <ele>503.39999389648</ele>
        <time>2020-10-17T06:44:55Z</time>
      </trkpt>
      <trkpt lat="48.24563" lon="7.3502">
        <ele>506.39999389648</ele>
        <time>2020-10-17T06:45:17Z</time>
      </trkpt>
      <trkpt lat="48.2456" lon="7.35009">
        <ele>508.79998779297</ele>
        <time>2020-10-17T06:45:38Z</time>
      </trkpt>
      <trkpt lat="48.24564" lon="7.3499">
        <ele>510.39999389648</ele>
        <time>2020-10-17T06:46:00Z</time>
      </trkpt>
      <trkpt lat="48.24567" lon="7.3497">
        <ele>513.40002441406</ele>
        <time>2020-10-17T06:46:15Z</time>
      </trkpt>
      <trkpt lat="48.24569" lon="7.34948">
        <ele>516.59997558594</ele>
        <time>2020-10-17T06:46:35Z</time>
      </trkpt>
      <trkpt lat="48.2457" lon="7.34923">
        <ele>519.59997558594</ele>
        <time>2020-10-17T06:46:53Z</time>
      </trkpt>
      <trkpt lat="48.24572" lon="7.34897">
        <ele>522.79998779297</ele>
        <time>2020-10-17T06:47:12Z</time>
      </trkpt>
      <trkpt lat="48.2458" lon="7.34887">
        <ele>525.79998779297</ele>
        <time>2020-10-17T06:47:30Z</time>
      </trkpt>
      <trkpt lat="48.24592" lon="7.34887">
        <ele>529</ele>
        <time>2020-10-17T06:47:49Z</time>
      </trkpt>
      <trkpt lat="48.24609" lon="7.34872">
        <ele>532</ele>
        <time>2020-10-17T06:48:14Z</time>
      </trkpt>
      <trkpt lat="48.24627" lon="7.34854">
        <ele>534.20001220703</ele>
        <time>2020-10-17T06:48:39Z</time>
      </trkpt>
      <trkpt lat="48.24637" lon="7.34837">
        <ele>536.79998779297</ele>
        <time>2020-10-17T06:48:57Z</time>
      </trkpt>
      <trkpt lat="48.24647" lon="7.34812">
        <ele>540</ele>
        <time>2020-10-17T06:49:16Z</time>
      </trkpt>
      <trkpt lat="48.24655" lon="7.34782">
        <ele>542.20001220703</ele>
        <time>2020-10-17T06:49:36Z</time>
      </trkpt>
      <trkpt lat="48.24659" lon="7.34749">
        <ele>544.79998779297</ele>
        <time>2020-10-17T06:50:00Z</time>
      </trkpt>
      <trkpt lat="48.24665" lon="7.34722">
        <ele>548</ele>
        <time>2020-10-17T06:50:20Z</time>
      </trkpt>
      <trkpt lat="48.24669" lon="7.34716">
        <ele>551.20001220703</ele>
        <time>2020-10-17T06:50:35Z</time>
      </trkpt>
      <trkpt lat="48.24675" lon="7.34713">
        <ele>552.59997558594</ele>
        <time>2020-10-17T06:50:55Z</time>
      </trkpt>
      <trkpt lat="48.24676" lon="7.34718">
        <ele>552.59997558594</ele>
        <time>2020-10-17T06:51:20Z</time>
      </trkpt>
      <trkpt lat="48.24683" lon="7.34699">
        <ele>552.79998779297</ele>
        <time>2020-10-17T06:51:31Z</time>
      </trkpt>
      <trkpt lat="48.24688" lon="7.34667">
        <ele>554.79998779297</ele>
        <time>2020-10-17T06:51:50Z</time>
      </trkpt>
      <trkpt lat="48.24685" lon="7.34663">
        <ele>555.40002441406</ele>
        <time>2020-10-17T06:52:10Z</time>
      </trkpt>
      <trkpt lat="48.24685" lon="7.34664">
        <ele>556.20001220703</ele>
        <time>2020-10-17T06:52:34Z</time>
      </trkpt>
      <trkpt lat="48.24688" lon="7.34663">
        <ele>559.40002441406</ele>
        <time>2020-10-17T06:52:43Z</time>
      </trkpt>
      <trkpt lat="48.24693" lon="7.34659">
        <ele>562.59997558594</ele>
        <time>2020-10-17T06:52:57Z</time>
      </trkpt>
      <trkpt lat="48.24698" lon="7.34644">
        <ele>565.40002441406</ele>
        <time>2020-10-17T06:53:09Z</time>
      </trkpt>
      <trkpt lat="48.24699" lon="7.34632">
        <ele>565.79998779297</ele>
        <time>2020-10-17T06:53:26Z</time>
      </trkpt>
      <trkpt lat="48.24704" lon="7.34631">
        <ele>567</ele>
        <time>2020-10-17T06:53:43Z</time>
      </trkpt>
      <trkpt lat="48.2471" lon="7.3463">
        <ele>570</ele>
        <time>2020-10-17T06:53:55Z</time>
      </trkpt>
      <trkpt lat="48.24718" lon="7.34636">
        <ele>573.20001220703</ele>
        <time>2020-10-17T06:54:14Z</time>
      </trkpt>
      <trkpt lat="48.24724" lon="7.3464">
        <ele>576.40002441406</ele>
        <time>2020-10-17T06:54:30Z</time>
      </trkpt>
      <trkpt lat="48.24731" lon="7.34646">
        <ele>579.40002441406</ele>
        <time>2020-10-17T06:54:44Z</time>
      </trkpt>
      <trkpt lat="48.24734" lon="7.34651">
        <ele>580.79998779297</ele>
        <time>2020-10-17T06:54:59Z</time>
      </trkpt>
      <trkpt lat="48.24739" lon="7.34652">
        <ele>580.79998779297</ele>
        <time>2020-10-17T06:55:18Z</time>
      </trkpt>
      <trkpt lat="48.24744" lon="7.3463">
        <ele>583.20001220703</ele>
        <time>2020-10-17T06:55:33Z</time>
      </trkpt>
      <trkpt lat="48.24744" lon="7.34608">
        <ele>586</ele>
        <time>2020-10-17T06:55:47Z</time>
      </trkpt>
      <trkpt lat="48.24746" lon="7.34592">
        <ele>588.20001220703</ele>
        <time>2020-10-17T06:56:00Z</time>
      </trkpt>
      <trkpt lat="48.24746" lon="7.34579">
        <ele>590.20001220703</ele>
        <time>2020-10-17T06:56:12Z</time>
      </trkpt>
      <trkpt lat="48.24747" lon="7.34562">
        <ele>593.40002441406</ele>
        <time>2020-10-17T06:56:24Z</time>
      </trkpt>
      <trkpt lat="48.24748" lon="7.34541">
        <ele>594.59997558594</ele>
        <time>2020-10-17T06:56:39Z</time>
      </trkpt>
      <trkpt lat="48.24747" lon="7.34524">
        <ele>596.20001220703</ele>
        <time>2020-10-17T06:56:50Z</time>
      </trkpt>
      <trkpt lat="48.24743" lon="7.34514">
        <ele>597.20001220703</ele>
        <time>2020-10-17T06:56:58Z</time>
      </trkpt>
      <trkpt lat="48.24739" lon="7.34495">
        <ele>598.59997558594</ele>
        <time>2020-10-17T06:57:10Z</time>
      </trkpt>
      <trkpt lat="48.24739" lon="7.34477">
        <ele>600.59997558594</ele>
        <time>2020-10-17T06:57:21Z</time>
      </trkpt>
      <trkpt lat="48.2474" lon="7.34462">
        <ele>602</ele>
        <time>2020-10-17T06:57:30Z</time>
      </trkpt>
      <trkpt lat="48.2474" lon="7.34441">
        <ele>604.40002441406</ele>
        <time>2020-10-17T06:57:45Z</time>
      </trkpt>
      <trkpt lat="48.2474" lon="7.34431">
        <ele>605.59997558594</ele>
        <time>2020-10-17T06:57:52Z</time>
      </trkpt>
      <trkpt lat="48.24739" lon="7.34415">
        <ele>607.40002441406</ele>
        <time>2020-10-17T06:58:02Z</time>
      </trkpt>
      <trkpt lat="48.24738" lon="7.34405">
        <ele>608</ele>
        <time>2020-10-17T06:58:07Z</time>
      </trkpt>
      <trkpt lat="48.24737" lon="7.3437">
        <ele>611.20001220703</ele>
        <time>2020-10-17T06:58:26Z</time>
      </trkpt>
      <trkpt lat="48.2474" lon="7.3434">
        <ele>614.20001220703</ele>
        <time>2020-10-17T06:58:43Z</time>
      </trkpt>
      <trkpt lat="48.2474" lon="7.34315">
        <ele>616.20001220703</ele>
        <time>2020-10-17T06:58:58Z</time>
      </trkpt>
      <trkpt lat="48.24741" lon="7.34299">
        <ele>617</ele>
        <time>2020-10-17T06:59:08Z</time>
      </trkpt>
      <trkpt lat="48.24738" lon="7.34286">
        <ele>617.20001220703</ele>
        <time>2020-10-17T06:59:14Z</time>
      </trkpt>
      <trkpt lat="48.24737" lon="7.34281">
        <ele>617.40002441406</ele>
        <time>2020-10-17T06:59:17Z</time>
      </trkpt>
      <trkpt lat="48.24737" lon="7.3427">
        <ele>617.59997558594</ele>
        <time>2020-10-17T06:59:23Z</time>
      </trkpt>
      <trkpt lat="48.24736" lon="7.34261">
        <ele>617.79998779297</ele>
        <time>2020-10-17T06:59:26Z</time>
      </trkpt>
      <trkpt lat="48.24736" lon="7.34259">
        <ele>618</ele>
        <time>2020-10-17T06:59:27Z</time>
      </trkpt>
      <trkpt lat="48.24743" lon="7.34234">
        <ele>619.79998779297</ele>
        <time>2020-10-17T06:59:41Z</time>
      </trkpt>
      <trkpt lat="48.24749" lon="7.34224">
        <ele>621.79998779297</ele>
        <time>2020-10-17T06:59:52Z</time>
      </trkpt>
      <trkpt lat="48.24754" lon="7.34212">
        <ele>623.79998779297</ele>
        <time>2020-10-17T07:00:02Z</time>
      </trkpt>
      <trkpt lat="48.24758" lon="7.34197">
        <ele>625.40002441406</ele>
        <time>2020-10-17T07:00:11Z</time>
      </trkpt>
      <trkpt lat="48.24759" lon="7.34173">
        <ele>628.40002441406</ele>
        <time>2020-10-17T07:00:26Z</time>
      </trkpt>
      <trkpt lat="48.24761" lon="7.34167">
        <ele>629</ele>
        <time>2020-10-17T07:00:30Z</time>
      </trkpt>
      <trkpt lat="48.2477" lon="7.34137">
        <ele>632</ele>
        <time>2020-10-17T07:00:52Z</time>
      </trkpt>
      <trkpt lat="48.24772" lon="7.34134">
        <ele>633</ele>
        <time>2020-10-17T07:01:11Z</time>
      </trkpt>
      <trkpt lat="48.24767" lon="7.34132">
        <ele>632.79998779297</ele>
        <time>2020-10-17T07:01:17Z</time>
      </trkpt>
      <trkpt lat="48.24766" lon="7.34121">
        <ele>631.79998779297</ele>
        <time>2020-10-17T07:01:44Z</time>
      </trkpt>
      <trkpt lat="48.24768" lon="7.34125">
        <ele>631.59997558594</ele>
        <time>2020-10-17T07:02:44Z</time>
      </trkpt>
      <trkpt lat="48.24767" lon="7.34132">
        <ele>631.79998779297</ele>
        <time>2020-10-17T07:03:17Z</time>
      </trkpt>
      <trkpt lat="48.24759" lon="7.34141">
        <ele>631.79998779297</ele>
        <time>2020-10-17T07:03:52Z</time>
      </trkpt>
      <trkpt lat="48.24753" lon="7.34141">
        <ele>631.79998779297</ele>
        <time>2020-10-17T07:04:23Z</time>
      </trkpt>
      <trkpt lat="48.24754" lon="7.34136">
        <ele>631.79998779297</ele>
        <time>2020-10-17T07:04:55Z</time>
      </trkpt>
      <trkpt lat="48.24758" lon="7.34142">
        <ele>631.79998779297</ele>
        <time>2020-10-17T07:05:27Z</time>
      </trkpt>
      <trkpt lat="48.24753" lon="7.34129">
        <ele>631.59997558594</ele>
        <time>2020-10-17T07:06:01Z</time>
      </trkpt>
      <trkpt lat="48.24763" lon="7.34137">
        <ele>631.59997558594</ele>
        <time>2020-10-17T07:06:34Z</time>
      </trkpt>
      <trkpt lat="48.24769" lon="7.34134">
        <ele>631.59997558594</ele>
        <time>2020-10-17T07:07:01Z</time>
      </trkpt>
      <trkpt lat="48.2477" lon="7.34129">
        <ele>631.59997558594</ele>
        <time>2020-10-17T07:07:24Z</time>
      </trkpt>
      <trkpt lat="48.2477" lon="7.34124">
        <ele>631.59997558594</ele>
        <time>2020-10-17T07:07:40Z</time>
      </trkpt>
      <trkpt lat="48.24771" lon="7.34121">
        <ele>632.59997558594</ele>
        <time>2020-10-17T07:08:04Z</time>
      </trkpt>
      <trkpt lat="48.2477" lon="7.34124">
        <ele>632.59997558594</ele>
        <time>2020-10-17T07:08:06Z</time>
      </trkpt>
      <trkpt lat="48.24758" lon="7.34153">
        <ele>634</ele>
        <time>2020-10-17T07:08:25Z</time>
      </trkpt>
      <trkpt lat="48.24762" lon="7.34177">
        <ele>634.40002441406</ele>
        <time>2020-10-17T07:08:46Z</time>
      </trkpt>
      <trkpt lat="48.24766" lon="7.34192">
        <ele>635</ele>
        <time>2020-10-17T07:09:04Z</time>
      </trkpt>
      <trkpt lat="48.24768" lon="7.34206">
        <ele>636.40002441406</ele>
        <time>2020-10-17T07:09:12Z</time>
      </trkpt>
      <trkpt lat="48.24768" lon="7.34211">
        <ele>636.59997558594</ele>
        <time>2020-10-17T07:09:15Z</time>
      </trkpt>
      <trkpt lat="48.24768" lon="7.34213">
        <ele>636.79998779297</ele>
        <time>2020-10-17T07:09:16Z</time>
      </trkpt>
      <trkpt lat="48.24769" lon="7.34222">
        <ele>637.40002441406</ele>
        <time>2020-10-17T07:09:22Z</time>
      </trkpt>
      <trkpt lat="48.24773" lon="7.34229">
        <ele>638.40002441406</ele>
        <time>2020-10-17T07:09:37Z</time>
      </trkpt>
      <trkpt lat="48.24775" lon="7.34247">
        <ele>639.20001220703</ele>
        <time>2020-10-17T07:09:59Z</time>
      </trkpt>
      <trkpt lat="48.24782" lon="7.34253">
        <ele>641.20001220703</ele>
        <time>2020-10-17T07:10:14Z</time>
      </trkpt>
      <trkpt lat="48.24788" lon="7.34236">
        <ele>643.59997558594</ele>
        <time>2020-10-17T07:10:28Z</time>
      </trkpt>
      <trkpt lat="48.24791" lon="7.34217">
        <ele>645.20001220703</ele>
        <time>2020-10-17T07:10:41Z</time>
      </trkpt>
      <trkpt lat="48.24792" lon="7.34207">
        <ele>646.40002441406</ele>
        <time>2020-10-17T07:10:47Z</time>
      </trkpt>
      <trkpt lat="48.24792" lon="7.34205">
        <ele>646.40002441406</ele>
        <time>2020-10-17T07:10:48Z</time>
      </trkpt>
      <trkpt lat="48.24796" lon="7.34186">
        <ele>648.40002441406</ele>
        <time>2020-10-17T07:11:02Z</time>
      </trkpt>
      <trkpt lat="48.24796" lon="7.34164">
        <ele>650.40002441406</ele>
        <time>2020-10-17T07:11:20Z</time>
      </trkpt>
      <trkpt lat="48.24802" lon="7.34143">
        <ele>652.40002441406</ele>
        <time>2020-10-17T07:11:35Z</time>
      </trkpt>
      <trkpt lat="48.24801" lon="7.34134">
        <ele>653.20001220703</ele>
        <time>2020-10-17T07:11:48Z</time>
      </trkpt>
      <trkpt lat="48.24805" lon="7.3412">
        <ele>655</ele>
        <time>2020-10-17T07:12:08Z</time>
      </trkpt>
      <trkpt lat="48.24812" lon="7.34095">
        <ele>657.20001220703</ele>
        <time>2020-10-17T07:12:25Z</time>
      </trkpt>
      <trkpt lat="48.24811" lon="7.34086">
        <ele>658.40002441406</ele>
        <time>2020-10-17T07:12:32Z</time>
      </trkpt>
      <trkpt lat="48.24812" lon="7.34065">
        <ele>659.79998779297</ele>
        <time>2020-10-17T07:12:42Z</time>
      </trkpt>
      <trkpt lat="48.24813" lon="7.34038">
        <ele>663</ele>
        <time>2020-10-17T07:13:00Z</time>
      </trkpt>
      <trkpt lat="48.24815" lon="7.34019">
        <ele>665.79998779297</ele>
        <time>2020-10-17T07:13:14Z</time>
      </trkpt>
      <trkpt lat="48.24818" lon="7.3401">
        <ele>669</ele>
        <time>2020-10-17T07:13:27Z</time>
      </trkpt>
      <trkpt lat="48.24827" lon="7.3399">
        <ele>669</ele>
        <time>2020-10-17T07:13:50Z</time>
      </trkpt>
      <trkpt lat="48.24818" lon="7.33957">
        <ele>667.79998779297</ele>
        <time>2020-10-17T07:14:06Z</time>
      </trkpt>
      <trkpt lat="48.24812" lon="7.33936">
        <ele>666.79998779297</ele>
        <time>2020-10-17T07:14:17Z</time>
      </trkpt>
      <trkpt lat="48.24812" lon="7.33932">
        <ele>666.79998779297</ele>
        <time>2020-10-17T07:14:19Z</time>
      </trkpt>
      <trkpt lat="48.24811" lon="7.33923">
        <ele>666.20001220703</ele>
        <time>2020-10-17T07:14:38Z</time>
      </trkpt>
      <trkpt lat="48.24809" lon="7.33938">
        <ele>666</ele>
        <time>2020-10-17T07:15:04Z</time>
      </trkpt>
      <trkpt lat="48.24808" lon="7.3394">
        <ele>666.20001220703</ele>
        <time>2020-10-17T07:15:05Z</time>
      </trkpt>
      <trkpt lat="48.24807" lon="7.33947">
        <ele>666.79998779297</ele>
        <time>2020-10-17T07:15:09Z</time>
      </trkpt>
      <trkpt lat="48.24807" lon="7.33949">
        <ele>666.79998779297</ele>
        <time>2020-10-17T07:15:10Z</time>
      </trkpt>
      <trkpt lat="48.24807" lon="7.33964">
        <ele>667.20001220703</ele>
        <time>2020-10-17T07:15:19Z</time>
      </trkpt>
      <trkpt lat="48.24805" lon="7.33985">
        <ele>668.20001220703</ele>
        <time>2020-10-17T07:15:31Z</time>
      </trkpt>
      <trkpt lat="48.24811" lon="7.34017">
        <ele>669.40002441406</ele>
        <time>2020-10-17T07:15:48Z</time>
      </trkpt>
      <trkpt lat="48.24811" lon="7.3402">
        <ele>669.59997558594</ele>
        <time>2020-10-17T07:15:49Z</time>
      </trkpt>
      <trkpt lat="48.24811" lon="7.34022">
        <ele>669.59997558594</ele>
        <time>2020-10-17T07:15:50Z</time>
      </trkpt>
      <trkpt lat="48.24814" lon="7.34053">
        <ele>671.20001220703</ele>
        <time>2020-10-17T07:16:05Z</time>
      </trkpt>
      <trkpt lat="48.24818" lon="7.34083">
        <ele>673</ele>
        <time>2020-10-17T07:16:20Z</time>
      </trkpt>
      <trkpt lat="48.24819" lon="7.3409">
        <ele>673.40002441406</ele>
        <time>2020-10-17T07:16:25Z</time>
      </trkpt>
      <trkpt lat="48.24818" lon="7.34093">
        <ele>673.40002441406</ele>
        <time>2020-10-17T07:16:26Z</time>
      </trkpt>
      <trkpt lat="48.24819" lon="7.34095">
        <ele>673.59997558594</ele>
        <time>2020-10-17T07:16:27Z</time>
      </trkpt>
      <trkpt lat="48.24822" lon="7.34121">
        <ele>675.40002441406</ele>
        <time>2020-10-17T07:16:42Z</time>
      </trkpt>
      <trkpt lat="48.24821" lon="7.34123">
        <ele>675.40002441406</ele>
        <time>2020-10-17T07:16:43Z</time>
      </trkpt>
      <trkpt lat="48.24821" lon="7.34124">
        <ele>675.59997558594</ele>
        <time>2020-10-17T07:16:44Z</time>
      </trkpt>
      <trkpt lat="48.24822" lon="7.34127">
        <ele>675.59997558594</ele>
        <time>2020-10-17T07:16:45Z</time>
      </trkpt>
      <trkpt lat="48.24822" lon="7.34129">
        <ele>675.59997558594</ele>
        <time>2020-10-17T07:16:46Z</time>
      </trkpt>
      <trkpt lat="48.24826" lon="7.3416">
        <ele>677.40002441406</ele>
        <time>2020-10-17T07:17:00Z</time>
      </trkpt>
      <trkpt lat="48.24831" lon="7.34184">
        <ele>679</ele>
        <time>2020-10-17T07:17:13Z</time>
      </trkpt>
      <trkpt lat="48.24836" lon="7.34212">
        <ele>680.59997558594</ele>
        <time>2020-10-17T07:17:27Z</time>
      </trkpt>
      <trkpt lat="48.24839" lon="7.34243">
        <ele>682.40002441406</ele>
        <time>2020-10-17T07:17:43Z</time>
      </trkpt>
      <trkpt lat="48.2484" lon="7.34259">
        <ele>683.40002441406</ele>
        <time>2020-10-17T07:17:51Z</time>
      </trkpt>
      <trkpt lat="48.24841" lon="7.34268">
        <ele>684.20001220703</ele>
        <time>2020-10-17T07:17:57Z</time>
      </trkpt>
      <trkpt lat="48.24843" lon="7.34278">
        <ele>684.79998779297</ele>
        <time>2020-10-17T07:18:03Z</time>
      </trkpt>
      <trkpt lat="48.24843" lon="7.34281">
        <ele>685</ele>
        <time>2020-10-17T07:18:04Z</time>
      </trkpt>
      <trkpt lat="48.24847" lon="7.34304">
        <ele>685.79998779297</ele>
        <time>2020-10-17T07:18:15Z</time>
      </trkpt>
      <trkpt lat="48.24847" lon="7.34306">
        <ele>686</ele>
        <time>2020-10-17T07:18:16Z</time>
      </trkpt>
      <trkpt lat="48.24848" lon="7.34308">
        <ele>686</ele>
        <time>2020-10-17T07:18:17Z</time>
      </trkpt>
      <trkpt lat="48.24849" lon="7.3431">
        <ele>686.20001220703</ele>
        <time>2020-10-17T07:18:18Z</time>
      </trkpt>
      <trkpt lat="48.24853" lon="7.34326">
        <ele>687</ele>
        <time>2020-10-17T07:18:26Z</time>
      </trkpt>
      <trkpt lat="48.24854" lon="7.34328">
        <ele>687.20001220703</ele>
        <time>2020-10-17T07:18:27Z</time>
      </trkpt>
      <trkpt lat="48.24854" lon="7.3433">
        <ele>687.20001220703</ele>
        <time>2020-10-17T07:18:28Z</time>
      </trkpt>
      <trkpt lat="48.24855" lon="7.34331">
        <ele>687.40002441406</ele>
        <time>2020-10-17T07:18:29Z</time>
      </trkpt>
      <trkpt lat="48.24856" lon="7.34333">
        <ele>687.40002441406</ele>
        <time>2020-10-17T07:18:30Z</time>
      </trkpt>
      <trkpt lat="48.24858" lon="7.34337">
        <ele>687.79998779297</ele>
        <time>2020-10-17T07:18:33Z</time>
      </trkpt>
      <trkpt lat="48.24859" lon="7.34339">
        <ele>687.79998779297</ele>
        <time>2020-10-17T07:18:34Z</time>
      </trkpt>
      <trkpt lat="48.24868" lon="7.34372">
        <ele>689.79998779297</ele>
        <time>2020-10-17T07:18:52Z</time>
      </trkpt>
      <trkpt lat="48.24868" lon="7.34378">
        <ele>690</ele>
        <time>2020-10-17T07:18:55Z</time>
      </trkpt>
      <trkpt lat="48.24868" lon="7.3438">
        <ele>690.20001220703</ele>
        <time>2020-10-17T07:18:56Z</time>
      </trkpt>
      <trkpt lat="48.24868" lon="7.34382">
        <ele>690.20001220703</ele>
        <time>2020-10-17T07:18:57Z</time>
      </trkpt>
      <trkpt lat="48.24869" lon="7.34389">
        <ele>690.59997558594</ele>
        <time>2020-10-17T07:19:00Z</time>
      </trkpt>
      <trkpt lat="48.24876" lon="7.34416">
        <ele>692.20001220703</ele>
        <time>2020-10-17T07:19:17Z</time>
      </trkpt>
      <trkpt lat="48.24882" lon="7.34446">
        <ele>694</ele>
        <time>2020-10-17T07:19:32Z</time>
      </trkpt>
      <trkpt lat="48.24884" lon="7.34459">
        <ele>694.59997558594</ele>
        <time>2020-10-17T07:19:40Z</time>
      </trkpt>
      <trkpt lat="48.24885" lon="7.34462">
        <ele>694.79998779297</ele>
        <time>2020-10-17T07:19:42Z</time>
      </trkpt>
      <trkpt lat="48.24885" lon="7.34464">
        <ele>695</ele>
        <time>2020-10-17T07:19:43Z</time>
      </trkpt>
      <trkpt lat="48.24887" lon="7.34491">
        <ele>696.59997558594</ele>
        <time>2020-10-17T07:19:58Z</time>
      </trkpt>
      <trkpt lat="48.24888" lon="7.34493">
        <ele>696.59997558594</ele>
        <time>2020-10-17T07:19:59Z</time>
      </trkpt>
      <trkpt lat="48.24889" lon="7.34495">
        <ele>696.79998779297</ele>
        <time>2020-10-17T07:20:00Z</time>
      </trkpt>
      <trkpt lat="48.2489" lon="7.34497">
        <ele>696.79998779297</ele>
        <time>2020-10-17T07:20:01Z</time>
      </trkpt>
      <trkpt lat="48.24891" lon="7.345">
        <ele>697</ele>
        <time>2020-10-17T07:20:02Z</time>
      </trkpt>
      <trkpt lat="48.24892" lon="7.34503">
        <ele>697</ele>
        <time>2020-10-17T07:20:03Z</time>
      </trkpt>
      <trkpt lat="48.24898" lon="7.34523">
        <ele>697.79998779297</ele>
        <time>2020-10-17T07:20:13Z</time>
      </trkpt>
      <trkpt lat="48.24898" lon="7.34525">
        <ele>698</ele>
        <time>2020-10-17T07:20:14Z</time>
      </trkpt>
      <trkpt lat="48.24899" lon="7.34526">
        <ele>698</ele>
        <time>2020-10-17T07:20:15Z</time>
      </trkpt>
      <trkpt lat="48.249" lon="7.34529">
        <ele>698.20001220703</ele>
        <time>2020-10-17T07:20:16Z</time>
      </trkpt>
      <trkpt lat="48.24901" lon="7.3453">
        <ele>698.20001220703</ele>
        <time>2020-10-17T07:20:17Z</time>
      </trkpt>
      <trkpt lat="48.24901" lon="7.34532">
        <ele>698.40002441406</ele>
        <time>2020-10-17T07:20:18Z</time>
      </trkpt>
      <trkpt lat="48.24902" lon="7.34534">
        <ele>698.40002441406</ele>
        <time>2020-10-17T07:20:19Z</time>
      </trkpt>
      <trkpt lat="48.24903" lon="7.34536">
        <ele>698.59997558594</ele>
        <time>2020-10-17T07:20:20Z</time>
      </trkpt>
      <trkpt lat="48.24912" lon="7.34566">
        <ele>700</ele>
        <time>2020-10-17T07:20:37Z</time>
      </trkpt>
      <trkpt lat="48.24916" lon="7.34576">
        <ele>700.20001220703</ele>
        <time>2020-10-17T07:20:43Z</time>
      </trkpt>
      <trkpt lat="48.24916" lon="7.34578">
        <ele>700.40002441406</ele>
        <time>2020-10-17T07:20:44Z</time>
      </trkpt>
      <trkpt lat="48.24917" lon="7.3458">
        <ele>700.40002441406</ele>
        <time>2020-10-17T07:20:45Z</time>
      </trkpt>
      <trkpt lat="48.24917" lon="7.34582">
        <ele>700.59997558594</ele>
        <time>2020-10-17T07:20:46Z</time>
      </trkpt>
      <trkpt lat="48.24918" lon="7.34584">
        <ele>700.59997558594</ele>
        <time>2020-10-17T07:20:47Z</time>
      </trkpt>
      <trkpt lat="48.24918" lon="7.34585">
        <ele>700.79998779297</ele>
        <time>2020-10-17T07:20:48Z</time>
      </trkpt>
      <trkpt lat="48.24918" lon="7.34587">
        <ele>700.79998779297</ele>
        <time>2020-10-17T07:20:49Z</time>
      </trkpt>
      <trkpt lat="48.24929" lon="7.34611">
        <ele>702.20001220703</ele>
        <time>2020-10-17T07:21:06Z</time>
      </trkpt>
      <trkpt lat="48.24944" lon="7.34629">
        <ele>702.79998779297</ele>
        <time>2020-10-17T07:21:21Z</time>
      </trkpt>
      <trkpt lat="48.24965" lon="7.34624">
        <ele>703.20001220703</ele>
        <time>2020-10-17T07:21:38Z</time>
      </trkpt>
      <trkpt lat="48.24967" lon="7.34624">
        <ele>703.20001220703</ele>
        <time>2020-10-17T07:21:41Z</time>
      </trkpt>
      <trkpt lat="48.24968" lon="7.34623">
        <ele>703.20001220703</ele>
        <time>2020-10-17T07:21:42Z</time>
      </trkpt>
      <trkpt lat="48.2497" lon="7.3462">
        <ele>703.40002441406</ele>
        <time>2020-10-17T07:21:57Z</time>
      </trkpt>
      <trkpt lat="48.24966" lon="7.34613">
        <ele>703</ele>
        <time>2020-10-17T07:22:06Z</time>
      </trkpt>
      <trkpt lat="48.24971" lon="7.34598">
        <ele>704.79998779297</ele>
        <time>2020-10-17T07:22:22Z</time>
      </trkpt>
      <trkpt lat="48.24976" lon="7.34587">
        <ele>706.20001220703</ele>
        <time>2020-10-17T07:22:37Z</time>
      </trkpt>
      <trkpt lat="48.24981" lon="7.34577">
        <ele>705.79998779297</ele>
        <time>2020-10-17T07:22:44Z</time>
      </trkpt>
      <trkpt lat="48.24981" lon="7.34575">
        <ele>705.79998779297</ele>
        <time>2020-10-17T07:22:45Z</time>
      </trkpt>
      <trkpt lat="48.24982" lon="7.34569">
        <ele>705.79998779297</ele>
        <time>2020-10-17T07:22:48Z</time>
      </trkpt>
      <trkpt lat="48.24982" lon="7.34567">
        <ele>705.79998779297</ele>
        <time>2020-10-17T07:22:49Z</time>
      </trkpt>
      <trkpt lat="48.24983" lon="7.34566">
        <ele>705.79998779297</ele>
        <time>2020-10-17T07:22:50Z</time>
      </trkpt>
      <trkpt lat="48.24983" lon="7.34564">
        <ele>705.79998779297</ele>
        <time>2020-10-17T07:22:51Z</time>
      </trkpt>
      <trkpt lat="48.24985" lon="7.34557">
        <ele>705.79998779297</ele>
        <time>2020-10-17T07:22:55Z</time>
      </trkpt>
      <trkpt lat="48.24985" lon="7.34552">
        <ele>706</ele>
        <time>2020-10-17T07:22:58Z</time>
      </trkpt>
      <trkpt lat="48.24985" lon="7.3455">
        <ele>706</ele>
        <time>2020-10-17T07:22:59Z</time>
      </trkpt>
      <trkpt lat="48.24986" lon="7.34548">
        <ele>706</ele>
        <time>2020-10-17T07:23:00Z</time>
      </trkpt>
      <trkpt lat="48.24991" lon="7.3452">
        <ele>706.59997558594</ele>
        <time>2020-10-17T07:23:13Z</time>
      </trkpt>
      <trkpt lat="48.24992" lon="7.34512">
        <ele>706.79998779297</ele>
        <time>2020-10-17T07:23:18Z</time>
      </trkpt>
      <trkpt lat="48.24993" lon="7.34511">
        <ele>707</ele>
        <time>2020-10-17T07:23:19Z</time>
      </trkpt>
      <trkpt lat="48.24995" lon="7.34507">
        <ele>707.59997558594</ele>
        <time>2020-10-17T07:23:33Z</time>
      </trkpt>
      <trkpt lat="48.24995" lon="7.34489">
        <ele>707.59997558594</ele>
        <time>2020-10-17T07:23:55Z</time>
      </trkpt>
      <trkpt lat="48.24995" lon="7.34472">
        <ele>707.59997558594</ele>
        <time>2020-10-17T07:24:10Z</time>
      </trkpt>
      <trkpt lat="48.24994" lon="7.34466">
        <ele>707.59997558594</ele>
        <time>2020-10-17T07:24:13Z</time>
      </trkpt>
      <trkpt lat="48.24994" lon="7.34433">
        <ele>708.59997558594</ele>
        <time>2020-10-17T07:24:32Z</time>
      </trkpt>
      <trkpt lat="48.24992" lon="7.34398">
        <ele>710</ele>
        <time>2020-10-17T07:24:52Z</time>
      </trkpt>
      <trkpt lat="48.24984" lon="7.34361">
        <ele>711.59997558594</ele>
        <time>2020-10-17T07:25:10Z</time>
      </trkpt>
      <trkpt lat="48.24985" lon="7.34344">
        <ele>712.79998779297</ele>
        <time>2020-10-17T07:25:26Z</time>
      </trkpt>
      <trkpt lat="48.24978" lon="7.34322">
        <ele>713</ele>
        <time>2020-10-17T07:25:52Z</time>
      </trkpt>
      <trkpt lat="48.24979" lon="7.34306">
        <ele>712.59997558594</ele>
        <time>2020-10-17T07:26:06Z</time>
      </trkpt>
      <trkpt lat="48.24985" lon="7.34288">
        <ele>712.59997558594</ele>
        <time>2020-10-17T07:26:24Z</time>
      </trkpt>
      <trkpt lat="48.24987" lon="7.3428">
        <ele>712.20001220703</ele>
        <time>2020-10-17T07:26:29Z</time>
      </trkpt>
      <trkpt lat="48.24983" lon="7.34271">
        <ele>713.40002441406</ele>
        <time>2020-10-17T07:26:46Z</time>
      </trkpt>
      <trkpt lat="48.24977" lon="7.34256">
        <ele>714</ele>
        <time>2020-10-17T07:27:02Z</time>
      </trkpt>
      <trkpt lat="48.24976" lon="7.34239">
        <ele>714.40002441406</ele>
        <time>2020-10-17T07:27:10Z</time>
      </trkpt>
      <trkpt lat="48.24975" lon="7.34202">
        <ele>715.20001220703</ele>
        <time>2020-10-17T07:27:27Z</time>
      </trkpt>
      <trkpt lat="48.2497" lon="7.34165">
        <ele>716.20001220703</ele>
        <time>2020-10-17T07:27:45Z</time>
      </trkpt>
      <trkpt lat="48.24968" lon="7.34141">
        <ele>716.79998779297</ele>
        <time>2020-10-17T07:27:56Z</time>
      </trkpt>
      <trkpt lat="48.24968" lon="7.34139">
        <ele>716.79998779297</ele>
        <time>2020-10-17T07:27:57Z</time>
      </trkpt>
      <trkpt lat="48.24967" lon="7.34117">
        <ele>717.40002441406</ele>
        <time>2020-10-17T07:28:09Z</time>
      </trkpt>
      <trkpt lat="48.24967" lon="7.34115">
        <ele>717.59997558594</ele>
        <time>2020-10-17T07:28:10Z</time>
      </trkpt>
      <trkpt lat="48.24967" lon="7.34102">
        <ele>717.79998779297</ele>
        <time>2020-10-17T07:28:15Z</time>
      </trkpt>
      <trkpt lat="48.24965" lon="7.34095">
        <ele>718</ele>
        <time>2020-10-17T07:28:18Z</time>
      </trkpt>
      <trkpt lat="48.24964" lon="7.34092">
        <ele>718</ele>
        <time>2020-10-17T07:28:19Z</time>
      </trkpt>
      <trkpt lat="48.24962" lon="7.34071">
        <ele>718.40002441406</ele>
        <time>2020-10-17T07:28:29Z</time>
      </trkpt>
      <trkpt lat="48.24961" lon="7.34065">
        <ele>718.59997558594</ele>
        <time>2020-10-17T07:28:32Z</time>
      </trkpt>
      <trkpt lat="48.24955" lon="7.34029">
        <ele>719.59997558594</ele>
        <time>2020-10-17T07:28:48Z</time>
      </trkpt>
      <trkpt lat="48.24958" lon="7.34006">
        <ele>720</ele>
        <time>2020-10-17T07:29:00Z</time>
      </trkpt>
      <trkpt lat="48.24958" lon="7.34004">
        <ele>720</ele>
        <time>2020-10-17T07:29:01Z</time>
      </trkpt>
      <trkpt lat="48.24959" lon="7.34002">
        <ele>720</ele>
        <time>2020-10-17T07:29:02Z</time>
      </trkpt>
      <trkpt lat="48.24959" lon="7.34">
        <ele>720</ele>
        <time>2020-10-17T07:29:03Z</time>
      </trkpt>
      <trkpt lat="48.24958" lon="7.33997">
        <ele>720</ele>
        <time>2020-10-17T07:29:04Z</time>
      </trkpt>
      <trkpt lat="48.24956" lon="7.33981">
        <ele>720</ele>
        <time>2020-10-17T07:29:12Z</time>
      </trkpt>
      <trkpt lat="48.24953" lon="7.33972">
        <ele>720</ele>
        <time>2020-10-17T07:29:17Z</time>
      </trkpt>
      <trkpt lat="48.24952" lon="7.3397">
        <ele>720</ele>
        <time>2020-10-17T07:29:18Z</time>
      </trkpt>
      <trkpt lat="48.24952" lon="7.33967">
        <ele>720</ele>
        <time>2020-10-17T07:29:19Z</time>
      </trkpt>
      <trkpt lat="48.2495" lon="7.33938">
        <ele>720</ele>
        <time>2020-10-17T07:29:33Z</time>
      </trkpt>
      <trkpt lat="48.24949" lon="7.33926">
        <ele>719.79998779297</ele>
        <time>2020-10-17T07:29:47Z</time>
      </trkpt>
      <trkpt lat="48.24948" lon="7.33922">
        <ele>719.79998779297</ele>
        <time>2020-10-17T07:29:55Z</time>
      </trkpt>
      <trkpt lat="48.24951" lon="7.33905">
        <ele>720</ele>
        <time>2020-10-17T07:30:25Z</time>
      </trkpt>
      <trkpt lat="48.24951" lon="7.33867">
        <ele>719.59997558594</ele>
        <time>2020-10-17T07:30:44Z</time>
      </trkpt>
      <trkpt lat="48.2495" lon="7.33854">
        <ele>719.40002441406</ele>
        <time>2020-10-17T07:30:50Z</time>
      </trkpt>
      <trkpt lat="48.24951" lon="7.33852">
        <ele>719.40002441406</ele>
        <time>2020-10-17T07:30:51Z</time>
      </trkpt>
      <trkpt lat="48.24951" lon="7.3385">
        <ele>719.20001220703</ele>
        <time>2020-10-17T07:30:52Z</time>
      </trkpt>
      <trkpt lat="48.24951" lon="7.33847">
        <ele>719.20001220703</ele>
        <time>2020-10-17T07:30:53Z</time>
      </trkpt>
      <trkpt lat="48.24952" lon="7.33845">
        <ele>719.20001220703</ele>
        <time>2020-10-17T07:30:54Z</time>
      </trkpt>
      <trkpt lat="48.24952" lon="7.33843">
        <ele>719.20001220703</ele>
        <time>2020-10-17T07:30:55Z</time>
      </trkpt>
      <trkpt lat="48.24952" lon="7.33841">
        <ele>719.20001220703</ele>
        <time>2020-10-17T07:30:56Z</time>
      </trkpt>
      <trkpt lat="48.24951" lon="7.33834">
        <ele>719.20001220703</ele>
        <time>2020-10-17T07:31:00Z</time>
      </trkpt>
      <trkpt lat="48.24944" lon="7.33806">
        <ele>718.59997558594</ele>
        <time>2020-10-17T07:31:14Z</time>
      </trkpt>
      <trkpt lat="48.24936" lon="7.33787">
        <ele>718.59997558594</ele>
        <time>2020-10-17T07:31:22Z</time>
      </trkpt>
      <trkpt lat="48.24934" lon="7.33785">
        <ele>718.59997558594</ele>
        <time>2020-10-17T07:31:23Z</time>
      </trkpt>
      <trkpt lat="48.2493" lon="7.33777">
        <ele>718.59997558594</ele>
        <time>2020-10-17T07:31:27Z</time>
      </trkpt>
      <trkpt lat="48.24912" lon="7.33761">
        <ele>719.20001220703</ele>
        <time>2020-10-17T07:31:43Z</time>
      </trkpt>
      <trkpt lat="48.24901" lon="7.33761">
        <ele>719.20001220703</ele>
        <time>2020-10-17T07:31:52Z</time>
      </trkpt>
      <trkpt lat="48.24899" lon="7.33762">
        <ele>719.20001220703</ele>
        <time>2020-10-17T07:31:53Z</time>
      </trkpt>
      <trkpt lat="48.24887" lon="7.33777">
        <ele>719.20001220703</ele>
        <time>2020-10-17T07:32:09Z</time>
      </trkpt>
      <trkpt lat="48.24888" lon="7.33778">
        <ele>718.79998779297</ele>
        <time>2020-10-17T07:32:37Z</time>
      </trkpt>
      <trkpt lat="48.24888" lon="7.33789">
        <ele>718.79998779297</ele>
        <time>2020-10-17T07:33:01Z</time>
      </trkpt>
      <trkpt lat="48.24892" lon="7.33808">
        <ele>718.20001220703</ele>
        <time>2020-10-17T07:33:13Z</time>
      </trkpt>
      <trkpt lat="48.24893" lon="7.33819">
        <ele>717.59997558594</ele>
        <time>2020-10-17T07:33:19Z</time>
      </trkpt>
      <trkpt lat="48.24894" lon="7.33832">
        <ele>718</ele>
        <time>2020-10-17T07:33:27Z</time>
      </trkpt>
      <trkpt lat="48.24894" lon="7.33834">
        <ele>718</ele>
        <time>2020-10-17T07:33:28Z</time>
      </trkpt>
      <trkpt lat="48.24894" lon="7.33836">
        <ele>718</ele>
        <time>2020-10-17T07:33:29Z</time>
      </trkpt>
      <trkpt lat="48.24892" lon="7.33868">
        <ele>717.20001220703</ele>
        <time>2020-10-17T07:33:43Z</time>
      </trkpt>
      <trkpt lat="48.24894" lon="7.33893">
        <ele>716.59997558594</ele>
        <time>2020-10-17T07:33:57Z</time>
      </trkpt>
      <trkpt lat="48.24891" lon="7.33921">
        <ele>716.20001220703</ele>
        <time>2020-10-17T07:34:10Z</time>
      </trkpt>
      <trkpt lat="48.2489" lon="7.33923">
        <ele>716.20001220703</ele>
        <time>2020-10-17T07:34:11Z</time>
      </trkpt>
      <trkpt lat="48.24888" lon="7.33925">
        <ele>716.20001220703</ele>
        <time>2020-10-17T07:34:12Z</time>
      </trkpt>
      <trkpt lat="48.24888" lon="7.33927">
        <ele>716.20001220703</ele>
        <time>2020-10-17T07:34:13Z</time>
      </trkpt>
      <trkpt lat="48.24888" lon="7.33929">
        <ele>716.20001220703</ele>
        <time>2020-10-17T07:34:14Z</time>
      </trkpt>
      <trkpt lat="48.24888" lon="7.33939">
        <ele>715.79998779297</ele>
        <time>2020-10-17T07:34:19Z</time>
      </trkpt>
      <trkpt lat="48.24888" lon="7.33941">
        <ele>715.59997558594</ele>
        <time>2020-10-17T07:34:20Z</time>
      </trkpt>
      <trkpt lat="48.24888" lon="7.33943">
        <ele>715.59997558594</ele>
        <time>2020-10-17T07:34:21Z</time>
      </trkpt>
      <trkpt lat="48.24889" lon="7.33945">
        <ele>715.40002441406</ele>
        <time>2020-10-17T07:34:22Z</time>
      </trkpt>
      <trkpt lat="48.2489" lon="7.33947">
        <ele>715.40002441406</ele>
        <time>2020-10-17T07:34:23Z</time>
      </trkpt>
      <trkpt lat="48.24889" lon="7.33968">
        <ele>715.20001220703</ele>
        <time>2020-10-17T07:34:35Z</time>
      </trkpt>
      <trkpt lat="48.24886" lon="7.3398">
        <ele>715.20001220703</ele>
        <time>2020-10-17T07:34:41Z</time>
      </trkpt>
      <trkpt lat="48.24886" lon="7.33982">
        <ele>715</ele>
        <time>2020-10-17T07:34:42Z</time>
      </trkpt>
      <trkpt lat="48.24885" lon="7.33984">
        <ele>715</ele>
        <time>2020-10-17T07:34:43Z</time>
      </trkpt>
      <trkpt lat="48.24886" lon="7.33986">
        <ele>715</ele>
        <time>2020-10-17T07:34:44Z</time>
      </trkpt>
      <trkpt lat="48.24889" lon="7.34007">
        <ele>714.59997558594</ele>
        <time>2020-10-17T07:34:57Z</time>
      </trkpt>
      <trkpt lat="48.24891" lon="7.34019">
        <ele>714.40002441406</ele>
        <time>2020-10-17T07:35:03Z</time>
      </trkpt>
      <trkpt lat="48.2489" lon="7.34042">
        <ele>713.79998779297</ele>
        <time>2020-10-17T07:35:16Z</time>
      </trkpt>
      <trkpt lat="48.2489" lon="7.34057">
        <ele>713.59997558594</ele>
        <time>2020-10-17T07:35:24Z</time>
      </trkpt>
      <trkpt lat="48.24891" lon="7.34059">
        <ele>713.59997558594</ele>
        <time>2020-10-17T07:35:25Z</time>
      </trkpt>
      <trkpt lat="48.24889" lon="7.3408">
        <ele>713.20001220703</ele>
        <time>2020-10-17T07:35:39Z</time>
      </trkpt>
      <trkpt lat="48.24888" lon="7.34081">
        <ele>713</ele>
        <time>2020-10-17T07:36:06Z</time>
      </trkpt>
      <trkpt lat="48.24882" lon="7.34078">
        <ele>709.79998779297</ele>
        <time>2020-10-17T07:36:25Z</time>
      </trkpt>
      <trkpt lat="48.24878" lon="7.34079">
        <ele>706.79998779297</ele>
        <time>2020-10-17T07:36:43Z</time>
      </trkpt>
      <trkpt lat="48.24874" lon="7.34074">
        <ele>703.59997558594</ele>
        <time>2020-10-17T07:36:48Z</time>
      </trkpt>
      <trkpt lat="48.24866" lon="7.34042">
        <ele>700.40002441406</ele>
        <time>2020-10-17T07:37:07Z</time>
      </trkpt>
      <trkpt lat="48.24861" lon="7.3401">
        <ele>698.40002441406</ele>
        <time>2020-10-17T07:37:22Z</time>
      </trkpt>
      <trkpt lat="48.2486" lon="7.33992">
        <ele>696.20001220703</ele>
        <time>2020-10-17T07:37:31Z</time>
      </trkpt>
      <trkpt lat="48.24861" lon="7.33987">
        <ele>695.79998779297</ele>
        <time>2020-10-17T07:37:33Z</time>
      </trkpt>
      <trkpt lat="48.24859" lon="7.33964">
        <ele>693.79998779297</ele>
        <time>2020-10-17T07:37:43Z</time>
      </trkpt>
      <trkpt lat="48.24859" lon="7.33943">
        <ele>692.20001220703</ele>
        <time>2020-10-17T07:37:53Z</time>
      </trkpt>
      <trkpt lat="48.24854" lon="7.33917">
        <ele>690.20001220703</ele>
        <time>2020-10-17T07:38:04Z</time>
      </trkpt>
      <trkpt lat="48.24853" lon="7.33914">
        <ele>690</ele>
        <time>2020-10-17T07:38:05Z</time>
      </trkpt>
      <trkpt lat="48.24853" lon="7.33912">
        <ele>690</ele>
        <time>2020-10-17T07:38:06Z</time>
      </trkpt>
      <trkpt lat="48.24852" lon="7.3391">
        <ele>689.79998779297</ele>
        <time>2020-10-17T07:38:07Z</time>
      </trkpt>
      <trkpt lat="48.24847" lon="7.33884">
        <ele>687.79998779297</ele>
        <time>2020-10-17T07:38:20Z</time>
      </trkpt>
      <trkpt lat="48.2484" lon="7.33856">
        <ele>686</ele>
        <time>2020-10-17T07:38:36Z</time>
      </trkpt>
      <trkpt lat="48.24838" lon="7.33847">
        <ele>685</ele>
        <time>2020-10-17T07:38:41Z</time>
      </trkpt>
      <trkpt lat="48.24837" lon="7.3383">
        <ele>684</ele>
        <time>2020-10-17T07:38:50Z</time>
      </trkpt>
      <trkpt lat="48.24833" lon="7.33813">
        <ele>681.79998779297</ele>
        <time>2020-10-17T07:39:06Z</time>
      </trkpt>
      <trkpt lat="48.24832" lon="7.33811">
        <ele>681.59997558594</ele>
        <time>2020-10-17T07:39:07Z</time>
      </trkpt>
      <trkpt lat="48.24831" lon="7.33808">
        <ele>681.20001220703</ele>
        <time>2020-10-17T07:39:08Z</time>
      </trkpt>
      <trkpt lat="48.2483" lon="7.33806">
        <ele>680.79998779297</ele>
        <time>2020-10-17T07:39:09Z</time>
      </trkpt>
      <trkpt lat="48.24829" lon="7.33802">
        <ele>680.40002441406</ele>
        <time>2020-10-17T07:39:10Z</time>
      </trkpt>
      <trkpt lat="48.24827" lon="7.33799">
        <ele>680</ele>
        <time>2020-10-17T07:39:11Z</time>
      </trkpt>
      <trkpt lat="48.24825" lon="7.33799">
        <ele>679.79998779297</ele>
        <time>2020-10-17T07:39:12Z</time>
      </trkpt>
      <trkpt lat="48.24823" lon="7.33798">
        <ele>679.20001220703</ele>
        <time>2020-10-17T07:39:13Z</time>
      </trkpt>
      <trkpt lat="48.24821" lon="7.33796">
        <ele>678.59997558594</ele>
        <time>2020-10-17T07:39:14Z</time>
      </trkpt>
      <trkpt lat="48.2482" lon="7.33795">
        <ele>678.20001220703</ele>
        <time>2020-10-17T07:39:15Z</time>
      </trkpt>
      <trkpt lat="48.24815" lon="7.33779">
        <ele>675</ele>
        <time>2020-10-17T07:39:27Z</time>
      </trkpt>
      <trkpt lat="48.24812" lon="7.33761">
        <ele>673.20001220703</ele>
        <time>2020-10-17T07:39:41Z</time>
      </trkpt>
      <trkpt lat="48.24811" lon="7.33759">
        <ele>673</ele>
        <time>2020-10-17T07:39:42Z</time>
      </trkpt>
      <trkpt lat="48.24807" lon="7.33743">
        <ele>670.59997558594</ele>
        <time>2020-10-17T07:39:53Z</time>
      </trkpt>
      <trkpt lat="48.248" lon="7.33723">
        <ele>668.79998779297</ele>
        <time>2020-10-17T07:40:04Z</time>
      </trkpt>
      <trkpt lat="48.248" lon="7.3372">
        <ele>668.59997558594</ele>
        <time>2020-10-17T07:40:06Z</time>
      </trkpt>
      <trkpt lat="48.24797" lon="7.337">
        <ele>667.40002441406</ele>
        <time>2020-10-17T07:40:18Z</time>
      </trkpt>
      <trkpt lat="48.2479" lon="7.33676">
        <ele>664.40002441406</ele>
        <time>2020-10-17T07:40:32Z</time>
      </trkpt>
      <trkpt lat="48.24789" lon="7.33673">
        <ele>664.20001220703</ele>
        <time>2020-10-17T07:40:33Z</time>
      </trkpt>
      <trkpt lat="48.24789" lon="7.33671">
        <ele>664</ele>
        <time>2020-10-17T07:40:34Z</time>
      </trkpt>
      <trkpt lat="48.24788" lon="7.33654">
        <ele>662</ele>
        <time>2020-10-17T07:40:43Z</time>
      </trkpt>
      <trkpt lat="48.24788" lon="7.33652">
        <ele>661.79998779297</ele>
        <time>2020-10-17T07:40:44Z</time>
      </trkpt>
      <trkpt lat="48.24788" lon="7.33648">
        <ele>661.20001220703</ele>
        <time>2020-10-17T07:40:46Z</time>
      </trkpt>
      <trkpt lat="48.24788" lon="7.33642">
        <ele>660.79998779297</ele>
        <time>2020-10-17T07:40:48Z</time>
      </trkpt>
      <trkpt lat="48.24787" lon="7.3364">
        <ele>660.59997558594</ele>
        <time>2020-10-17T07:40:49Z</time>
      </trkpt>
      <trkpt lat="48.24784" lon="7.33618">
        <ele>657.59997558594</ele>
        <time>2020-10-17T07:41:02Z</time>
      </trkpt>
      <trkpt lat="48.24781" lon="7.336">
        <ele>654.40002441406</ele>
        <time>2020-10-17T07:41:13Z</time>
      </trkpt>
      <trkpt lat="48.2477" lon="7.33581">
        <ele>651.20001220703</ele>
        <time>2020-10-17T07:41:25Z</time>
      </trkpt>
      <trkpt lat="48.2476" lon="7.33556">
        <ele>649.40002441406</ele>
        <time>2020-10-17T07:41:43Z</time>
      </trkpt>
      <trkpt lat="48.2475" lon="7.33538">
        <ele>646.40002441406</ele>
        <time>2020-10-17T07:42:01Z</time>
      </trkpt>
      <trkpt lat="48.24739" lon="7.33518">
        <ele>643.40002441406</ele>
        <time>2020-10-17T07:42:14Z</time>
      </trkpt>
      <trkpt lat="48.24732" lon="7.335">
        <ele>641.59997558594</ele>
        <time>2020-10-17T07:42:23Z</time>
      </trkpt>
      <trkpt lat="48.2473" lon="7.3349">
        <ele>640.40002441406</ele>
        <time>2020-10-17T07:42:28Z</time>
      </trkpt>
      <trkpt lat="48.24729" lon="7.33485">
        <ele>639.79998779297</ele>
        <time>2020-10-17T07:42:31Z</time>
      </trkpt>
      <trkpt lat="48.24725" lon="7.33468">
        <ele>637.79998779297</ele>
        <time>2020-10-17T07:42:40Z</time>
      </trkpt>
      <trkpt lat="48.24725" lon="7.33466">
        <ele>637.59997558594</ele>
        <time>2020-10-17T07:42:41Z</time>
      </trkpt>
      <trkpt lat="48.24724" lon="7.33464">
        <ele>637.20001220703</ele>
        <time>2020-10-17T07:42:42Z</time>
      </trkpt>
      <trkpt lat="48.24721" lon="7.33435">
        <ele>634.20001220703</ele>
        <time>2020-10-17T07:42:59Z</time>
      </trkpt>
      <trkpt lat="48.24719" lon="7.33424">
        <ele>633.40002441406</ele>
        <time>2020-10-17T07:43:05Z</time>
      </trkpt>
      <trkpt lat="48.24717" lon="7.33415">
        <ele>632.40002441406</ele>
        <time>2020-10-17T07:43:09Z</time>
      </trkpt>
      <trkpt lat="48.24717" lon="7.33413">
        <ele>632.20001220703</ele>
        <time>2020-10-17T07:43:10Z</time>
      </trkpt>
      <trkpt lat="48.24716" lon="7.3341">
        <ele>632</ele>
        <time>2020-10-17T07:43:11Z</time>
      </trkpt>
      <trkpt lat="48.24716" lon="7.33408">
        <ele>631.59997558594</ele>
        <time>2020-10-17T07:43:12Z</time>
      </trkpt>
      <trkpt lat="48.24715" lon="7.33405">
        <ele>631.20001220703</ele>
        <time>2020-10-17T07:43:13Z</time>
      </trkpt>
      <trkpt lat="48.24711" lon="7.3339">
        <ele>629.40002441406</ele>
        <time>2020-10-17T07:43:21Z</time>
      </trkpt>
      <trkpt lat="48.24711" lon="7.33371">
        <ele>626.20001220703</ele>
        <time>2020-10-17T07:43:34Z</time>
      </trkpt>
      <trkpt lat="48.24712" lon="7.33349">
        <ele>626.20001220703</ele>
        <time>2020-10-17T07:43:51Z</time>
      </trkpt>
      <trkpt lat="48.24712" lon="7.33326">
        <ele>624.59997558594</ele>
        <time>2020-10-17T07:44:09Z</time>
      </trkpt>
      <trkpt lat="48.24712" lon="7.3332">
        <ele>624.20001220703</ele>
        <time>2020-10-17T07:44:13Z</time>
      </trkpt>
      <trkpt lat="48.2472" lon="7.33309">
        <ele>622.20001220703</ele>
        <time>2020-10-17T07:44:20Z</time>
      </trkpt>
      <trkpt lat="48.24725" lon="7.33299">
        <ele>619.59997558594</ele>
        <time>2020-10-17T07:44:34Z</time>
      </trkpt>
      <trkpt lat="48.24724" lon="7.33295">
        <ele>618.79998779297</ele>
        <time>2020-10-17T07:44:59Z</time>
      </trkpt>
      <trkpt lat="48.24726" lon="7.33301">
        <ele>618.59997558594</ele>
        <time>2020-10-17T07:45:31Z</time>
      </trkpt>
      <trkpt lat="48.24719" lon="7.33289">
        <ele>617.79998779297</ele>
        <time>2020-10-17T07:45:55Z</time>
      </trkpt>
      <trkpt lat="48.24714" lon="7.33285">
        <ele>616.79998779297</ele>
        <time>2020-10-17T07:45:58Z</time>
      </trkpt>
      <trkpt lat="48.24711" lon="7.33279">
        <ele>615.20001220703</ele>
        <time>2020-10-17T07:46:02Z</time>
      </trkpt>
      <trkpt lat="48.24709" lon="7.33277">
        <ele>614.79998779297</ele>
        <time>2020-10-17T07:46:03Z</time>
      </trkpt>
      <trkpt lat="48.24698" lon="7.3327">
        <ele>611.79998779297</ele>
        <time>2020-10-17T07:46:11Z</time>
      </trkpt>
      <trkpt lat="48.24697" lon="7.33268">
        <ele>611.40002441406</ele>
        <time>2020-10-17T07:46:12Z</time>
      </trkpt>
      <trkpt lat="48.24695" lon="7.33267">
        <ele>611</ele>
        <time>2020-10-17T07:46:13Z</time>
      </trkpt>
      <trkpt lat="48.24687" lon="7.33247">
        <ele>608</ele>
        <time>2020-10-17T07:46:23Z</time>
      </trkpt>
      <trkpt lat="48.24685" lon="7.33237">
        <ele>607</ele>
        <time>2020-10-17T07:46:27Z</time>
      </trkpt>
      <trkpt lat="48.24685" lon="7.33234">
        <ele>606.59997558594</ele>
        <time>2020-10-17T07:46:28Z</time>
      </trkpt>
      <trkpt lat="48.24684" lon="7.33231">
        <ele>606.40002441406</ele>
        <time>2020-10-17T07:46:29Z</time>
      </trkpt>
      <trkpt lat="48.24682" lon="7.33215">
        <ele>604.79998779297</ele>
        <time>2020-10-17T07:46:37Z</time>
      </trkpt>
      <trkpt lat="48.2467" lon="7.33194">
        <ele>602.20001220703</ele>
        <time>2020-10-17T07:46:50Z</time>
      </trkpt>
      <trkpt lat="48.24667" lon="7.33188">
        <ele>601.40002441406</ele>
        <time>2020-10-17T07:46:54Z</time>
      </trkpt>
      <trkpt lat="48.24666" lon="7.33186">
        <ele>601.20001220703</ele>
        <time>2020-10-17T07:46:55Z</time>
      </trkpt>
      <trkpt lat="48.24665" lon="7.33184">
        <ele>601</ele>
        <time>2020-10-17T07:46:56Z</time>
      </trkpt>
      <trkpt lat="48.24661" lon="7.33181">
        <ele>600.40002441406</ele>
        <time>2020-10-17T07:46:59Z</time>
      </trkpt>
      <trkpt lat="48.2466" lon="7.3318">
        <ele>600.20001220703</ele>
        <time>2020-10-17T07:47:00Z</time>
      </trkpt>
      <trkpt lat="48.24656" lon="7.33174">
        <ele>599.59997558594</ele>
        <time>2020-10-17T07:47:04Z</time>
      </trkpt>
      <trkpt lat="48.24647" lon="7.33147">
        <ele>597</ele>
        <time>2020-10-17T07:47:17Z</time>
      </trkpt>
      <trkpt lat="48.24647" lon="7.33144">
        <ele>597</ele>
        <time>2020-10-17T07:47:18Z</time>
      </trkpt>
      <trkpt lat="48.24647" lon="7.33141">
        <ele>596.79998779297</ele>
        <time>2020-10-17T07:47:19Z</time>
      </trkpt>
      <trkpt lat="48.24646" lon="7.33138">
        <ele>596.79998779297</ele>
        <time>2020-10-17T07:47:20Z</time>
      </trkpt>
      <trkpt lat="48.24646" lon="7.33136">
        <ele>596.59997558594</ele>
        <time>2020-10-17T07:47:21Z</time>
      </trkpt>
      <trkpt lat="48.24645" lon="7.33133">
        <ele>596.40002441406</ele>
        <time>2020-10-17T07:47:22Z</time>
      </trkpt>
      <trkpt lat="48.24645" lon="7.33131">
        <ele>596.20001220703</ele>
        <time>2020-10-17T07:47:23Z</time>
      </trkpt>
      <trkpt lat="48.24644" lon="7.33128">
        <ele>596</ele>
        <time>2020-10-17T07:47:24Z</time>
      </trkpt>
      <trkpt lat="48.24638" lon="7.33095">
        <ele>593.20001220703</ele>
        <time>2020-10-17T07:47:40Z</time>
      </trkpt>
      <trkpt lat="48.24638" lon="7.33075">
        <ele>590.59997558594</ele>
        <time>2020-10-17T07:47:55Z</time>
      </trkpt>
      <trkpt lat="48.24629" lon="7.33055">
        <ele>589</ele>
        <time>2020-10-17T07:48:08Z</time>
      </trkpt>
      <trkpt lat="48.24618" lon="7.33022">
        <ele>586.40002441406</ele>
        <time>2020-10-17T07:48:24Z</time>
      </trkpt>
      <trkpt lat="48.24603" lon="7.32998">
        <ele>584.79998779297</ele>
        <time>2020-10-17T07:48:38Z</time>
      </trkpt>
      <trkpt lat="48.24597" lon="7.32982">
        <ele>584.20001220703</ele>
        <time>2020-10-17T07:48:46Z</time>
      </trkpt>
      <trkpt lat="48.24585" lon="7.32966">
        <ele>583.20001220703</ele>
        <time>2020-10-17T07:48:56Z</time>
      </trkpt>
      <trkpt lat="48.24584" lon="7.32966">
        <ele>583</ele>
        <time>2020-10-17T07:48:57Z</time>
      </trkpt>
      <trkpt lat="48.24575" lon="7.32955">
        <ele>582.40002441406</ele>
        <time>2020-10-17T07:49:06Z</time>
      </trkpt>
      <trkpt lat="48.24574" lon="7.32953">
        <ele>582.40002441406</ele>
        <time>2020-10-17T07:49:07Z</time>
      </trkpt>
      <trkpt lat="48.24566" lon="7.32936">
        <ele>581.59997558594</ele>
        <time>2020-10-17T07:49:19Z</time>
      </trkpt>
      <trkpt lat="48.24565" lon="7.32934">
        <ele>581.59997558594</ele>
        <time>2020-10-17T07:49:20Z</time>
      </trkpt>
      <trkpt lat="48.24563" lon="7.32917">
        <ele>581</ele>
        <time>2020-10-17T07:49:33Z</time>
      </trkpt>
      <trkpt lat="48.24556" lon="7.32887">
        <ele>579.79998779297</ele>
        <time>2020-10-17T07:49:52Z</time>
      </trkpt>
      <trkpt lat="48.24551" lon="7.32871">
        <ele>579.40002441406</ele>
        <time>2020-10-17T07:50:00Z</time>
      </trkpt>
      <trkpt lat="48.24539" lon="7.32845">
        <ele>577.79998779297</ele>
        <time>2020-10-17T07:50:14Z</time>
      </trkpt>
      <trkpt lat="48.24522" lon="7.32819">
        <ele>577</ele>
        <time>2020-10-17T07:50:30Z</time>
      </trkpt>
      <trkpt lat="48.24518" lon="7.32815">
        <ele>577</ele>
        <time>2020-10-17T07:50:33Z</time>
      </trkpt>
      <trkpt lat="48.24516" lon="7.32814">
        <ele>576.79998779297</ele>
        <time>2020-10-17T07:50:34Z</time>
      </trkpt>
      <trkpt lat="48.24515" lon="7.32812">
        <ele>576.79998779297</ele>
        <time>2020-10-17T07:50:35Z</time>
      </trkpt>
      <trkpt lat="48.24499" lon="7.32787">
        <ele>576.40002441406</ele>
        <time>2020-10-17T07:50:50Z</time>
      </trkpt>
      <trkpt lat="48.24496" lon="7.32783">
        <ele>576.20001220703</ele>
        <time>2020-10-17T07:50:53Z</time>
      </trkpt>
      <trkpt lat="48.24495" lon="7.32781">
        <ele>576.20001220703</ele>
        <time>2020-10-17T07:50:54Z</time>
      </trkpt>
      <trkpt lat="48.24475" lon="7.32756">
        <ele>576.20001220703</ele>
        <time>2020-10-17T07:51:10Z</time>
      </trkpt>
      <trkpt lat="48.24462" lon="7.32737">
        <ele>576.20001220703</ele>
        <time>2020-10-17T07:51:24Z</time>
      </trkpt>
      <trkpt lat="48.2445" lon="7.32714">
        <ele>576</ele>
        <time>2020-10-17T07:51:40Z</time>
      </trkpt>
      <trkpt lat="48.24435" lon="7.32695">
        <ele>574.79998779297</ele>
        <time>2020-10-17T07:51:55Z</time>
      </trkpt>
      <trkpt lat="48.24429" lon="7.32681">
        <ele>574.79998779297</ele>
        <time>2020-10-17T07:52:04Z</time>
      </trkpt>
      <trkpt lat="48.24424" lon="7.32675">
        <ele>574.79998779297</ele>
        <time>2020-10-17T07:52:09Z</time>
      </trkpt>
      <trkpt lat="48.24423" lon="7.32673">
        <ele>574.79998779297</ele>
        <time>2020-10-17T07:52:10Z</time>
      </trkpt>
      <trkpt lat="48.24419" lon="7.32662">
        <ele>574.59997558594</ele>
        <time>2020-10-17T07:52:20Z</time>
      </trkpt>
      <trkpt lat="48.24418" lon="7.3266">
        <ele>574.59997558594</ele>
        <time>2020-10-17T07:52:21Z</time>
      </trkpt>
      <trkpt lat="48.24411" lon="7.32644">
        <ele>574.79998779297</ele>
        <time>2020-10-17T07:52:31Z</time>
      </trkpt>
      <trkpt lat="48.24411" lon="7.32643">
        <ele>574.79998779297</ele>
        <time>2020-10-17T07:52:32Z</time>
      </trkpt>
      <trkpt lat="48.24412" lon="7.32642">
        <ele>575</ele>
        <time>2020-10-17T07:52:33Z</time>
      </trkpt>
      <trkpt lat="48.24412" lon="7.32641">
        <ele>575</ele>
        <time>2020-10-17T07:52:34Z</time>
      </trkpt>
      <trkpt lat="48.24411" lon="7.32639">
        <ele>575</ele>
        <time>2020-10-17T07:52:35Z</time>
      </trkpt>
      <trkpt lat="48.24411" lon="7.32637">
        <ele>575</ele>
        <time>2020-10-17T07:52:36Z</time>
      </trkpt>
      <trkpt lat="48.24411" lon="7.32634">
        <ele>575</ele>
        <time>2020-10-17T07:52:38Z</time>
      </trkpt>
      <trkpt lat="48.2441" lon="7.32633">
        <ele>575</ele>
        <time>2020-10-17T07:52:39Z</time>
      </trkpt>
      <trkpt lat="48.24409" lon="7.32631">
        <ele>575</ele>
        <time>2020-10-17T07:52:40Z</time>
      </trkpt>
      <trkpt lat="48.24408" lon="7.3263">
        <ele>574.79998779297</ele>
        <time>2020-10-17T07:52:41Z</time>
      </trkpt>
      <trkpt lat="48.24407" lon="7.32628">
        <ele>574.79998779297</ele>
        <time>2020-10-17T07:52:42Z</time>
      </trkpt>
      <trkpt lat="48.24403" lon="7.32622">
        <ele>574.79998779297</ele>
        <time>2020-10-17T07:52:58Z</time>
      </trkpt>
      <trkpt lat="48.24404" lon="7.32614">
        <ele>574.59997558594</ele>
        <time>2020-10-17T07:53:04Z</time>
      </trkpt>
      <trkpt lat="48.24402" lon="7.32598">
        <ele>574.40002441406</ele>
        <time>2020-10-17T07:53:14Z</time>
      </trkpt>
      <trkpt lat="48.24399" lon="7.32593">
        <ele>574.40002441406</ele>
        <time>2020-10-17T07:53:17Z</time>
      </trkpt>
      <trkpt lat="48.24399" lon="7.32591">
        <ele>574.20001220703</ele>
        <time>2020-10-17T07:53:18Z</time>
      </trkpt>
      <trkpt lat="48.24398" lon="7.32589">
        <ele>574.40002441406</ele>
        <time>2020-10-17T07:53:19Z</time>
      </trkpt>
      <trkpt lat="48.24398" lon="7.32587">
        <ele>574.40002441406</ele>
        <time>2020-10-17T07:53:20Z</time>
      </trkpt>
      <trkpt lat="48.24396" lon="7.32575">
        <ele>574.40002441406</ele>
        <time>2020-10-17T07:53:26Z</time>
      </trkpt>
      <trkpt lat="48.24395" lon="7.32573">
        <ele>574.59997558594</ele>
        <time>2020-10-17T07:53:27Z</time>
      </trkpt>
      <trkpt lat="48.24391" lon="7.32556">
        <ele>575.40002441406</ele>
        <time>2020-10-17T07:53:35Z</time>
      </trkpt>
      <trkpt lat="48.24393" lon="7.32525">
        <ele>577.59997558594</ele>
        <time>2020-10-17T07:53:52Z</time>
      </trkpt>
      <trkpt lat="48.24389" lon="7.32493">
        <ele>578.40002441406</ele>
        <time>2020-10-17T07:54:06Z</time>
      </trkpt>
      <trkpt lat="48.24388" lon="7.32463">
        <ele>578.79998779297</ele>
        <time>2020-10-17T07:54:20Z</time>
      </trkpt>
      <trkpt lat="48.24387" lon="7.3243">
        <ele>578.79998779297</ele>
        <time>2020-10-17T07:54:35Z</time>
      </trkpt>
      <trkpt lat="48.24382" lon="7.32396">
        <ele>578.40002441406</ele>
        <time>2020-10-17T07:54:51Z</time>
      </trkpt>
      <trkpt lat="48.2438" lon="7.32386">
        <ele>578.40002441406</ele>
        <time>2020-10-17T07:54:56Z</time>
      </trkpt>
      <trkpt lat="48.2438" lon="7.32383">
        <ele>578.40002441406</ele>
        <time>2020-10-17T07:54:57Z</time>
      </trkpt>
      <trkpt lat="48.2438" lon="7.32381">
        <ele>578.40002441406</ele>
        <time>2020-10-17T07:54:58Z</time>
      </trkpt>
      <trkpt lat="48.24379" lon="7.32379">
        <ele>578.40002441406</ele>
        <time>2020-10-17T07:54:59Z</time>
      </trkpt>
      <trkpt lat="48.24379" lon="7.32377">
        <ele>578.40002441406</ele>
        <time>2020-10-17T07:55:00Z</time>
      </trkpt>
      <trkpt lat="48.24384" lon="7.32346">
        <ele>578</ele>
        <time>2020-10-17T07:55:14Z</time>
      </trkpt>
      <trkpt lat="48.24401" lon="7.32333">
        <ele>578.20001220703</ele>
        <time>2020-10-17T07:55:28Z</time>
      </trkpt>
      <trkpt lat="48.24415" lon="7.32327">
        <ele>579.40002441406</ele>
        <time>2020-10-17T07:55:43Z</time>
      </trkpt>
      <trkpt lat="48.24418" lon="7.32325">
        <ele>579.59997558594</ele>
        <time>2020-10-17T07:55:46Z</time>
      </trkpt>
      <trkpt lat="48.24432" lon="7.32316">
        <ele>580.59997558594</ele>
        <time>2020-10-17T07:55:56Z</time>
      </trkpt>
      <trkpt lat="48.24441" lon="7.32305">
        <ele>581.79998779297</ele>
        <time>2020-10-17T07:56:04Z</time>
      </trkpt>
      <trkpt lat="48.24442" lon="7.32303">
        <ele>582</ele>
        <time>2020-10-17T07:56:05Z</time>
      </trkpt>
      <trkpt lat="48.24443" lon="7.32301">
        <ele>582.20001220703</ele>
        <time>2020-10-17T07:56:06Z</time>
      </trkpt>
      <trkpt lat="48.24444" lon="7.32298">
        <ele>582.40002441406</ele>
        <time>2020-10-17T07:56:07Z</time>
      </trkpt>
      <trkpt lat="48.24445" lon="7.32296">
        <ele>582.40002441406</ele>
        <time>2020-10-17T07:56:08Z</time>
      </trkpt>
      <trkpt lat="48.24448" lon="7.32275">
        <ele>583.40002441406</ele>
        <time>2020-10-17T07:56:18Z</time>
      </trkpt>
      <trkpt lat="48.24449" lon="7.32273">
        <ele>583.40002441406</ele>
        <time>2020-10-17T07:56:19Z</time>
      </trkpt>
      <trkpt lat="48.2445" lon="7.32271">
        <ele>583.40002441406</ele>
        <time>2020-10-17T07:56:20Z</time>
      </trkpt>
      <trkpt lat="48.24451" lon="7.32269">
        <ele>583.40002441406</ele>
        <time>2020-10-17T07:56:21Z</time>
      </trkpt>
      <trkpt lat="48.24452" lon="7.32267">
        <ele>583.40002441406</ele>
        <time>2020-10-17T07:56:22Z</time>
      </trkpt>
      <trkpt lat="48.24452" lon="7.32265">
        <ele>583.40002441406</ele>
        <time>2020-10-17T07:56:23Z</time>
      </trkpt>
      <trkpt lat="48.24453" lon="7.32262">
        <ele>583.40002441406</ele>
        <time>2020-10-17T07:56:24Z</time>
      </trkpt>
      <trkpt lat="48.24453" lon="7.32259">
        <ele>583.40002441406</ele>
        <time>2020-10-17T07:56:25Z</time>
      </trkpt>
      <trkpt lat="48.24453" lon="7.32256">
        <ele>583.40002441406</ele>
        <time>2020-10-17T07:56:26Z</time>
      </trkpt>
      <trkpt lat="48.24453" lon="7.32252">
        <ele>583.40002441406</ele>
        <time>2020-10-17T07:56:27Z</time>
      </trkpt>
      <trkpt lat="48.24454" lon="7.32249">
        <ele>583.40002441406</ele>
        <time>2020-10-17T07:56:28Z</time>
      </trkpt>
      <trkpt lat="48.24453" lon="7.32246">
        <ele>583.40002441406</ele>
        <time>2020-10-17T07:56:29Z</time>
      </trkpt>
      <trkpt lat="48.24453" lon="7.3223">
        <ele>583.79998779297</ele>
        <time>2020-10-17T07:56:37Z</time>
      </trkpt>
      <trkpt lat="48.24453" lon="7.32227">
        <ele>583.79998779297</ele>
        <time>2020-10-17T07:56:38Z</time>
      </trkpt>
      <trkpt lat="48.24453" lon="7.32225">
        <ele>583.79998779297</ele>
        <time>2020-10-17T07:56:39Z</time>
      </trkpt>
      <trkpt lat="48.24453" lon="7.32223">
        <ele>584</ele>
        <time>2020-10-17T07:56:40Z</time>
      </trkpt>
      <trkpt lat="48.24454" lon="7.32221">
        <ele>584</ele>
        <time>2020-10-17T07:56:41Z</time>
      </trkpt>
      <trkpt lat="48.24454" lon="7.32218">
        <ele>584</ele>
        <time>2020-10-17T07:56:42Z</time>
      </trkpt>
      <trkpt lat="48.24454" lon="7.32216">
        <ele>584.20001220703</ele>
        <time>2020-10-17T07:56:43Z</time>
      </trkpt>
      <trkpt lat="48.24454" lon="7.32214">
        <ele>584.20001220703</ele>
        <time>2020-10-17T07:56:44Z</time>
      </trkpt>
      <trkpt lat="48.24458" lon="7.32188">
        <ele>585.79998779297</ele>
        <time>2020-10-17T07:56:58Z</time>
      </trkpt>
      <trkpt lat="48.24455" lon="7.32169">
        <ele>586.59997558594</ele>
        <time>2020-10-17T07:57:09Z</time>
      </trkpt>
      <trkpt lat="48.24457" lon="7.32155">
        <ele>586.79998779297</ele>
        <time>2020-10-17T07:57:27Z</time>
      </trkpt>
      <trkpt lat="48.24464" lon="7.32142">
        <ele>585.59997558594</ele>
        <time>2020-10-17T07:57:45Z</time>
      </trkpt>
      <trkpt lat="48.24459" lon="7.32146">
        <ele>585.79998779297</ele>
        <time>2020-10-17T07:58:13Z</time>
      </trkpt>
      <trkpt lat="48.2446" lon="7.32153">
        <ele>585.59997558594</ele>
        <time>2020-10-17T07:58:27Z</time>
      </trkpt>
      <trkpt lat="48.24459" lon="7.32155">
        <ele>585.59997558594</ele>
        <time>2020-10-17T07:58:54Z</time>
      </trkpt>
      <trkpt lat="48.24461" lon="7.32151">
        <ele>586</ele>
        <time>2020-10-17T07:58:59Z</time>
      </trkpt>
      <trkpt lat="48.24462" lon="7.32137">
        <ele>585.79998779297</ele>
        <time>2020-10-17T07:59:40Z</time>
      </trkpt>
      <trkpt lat="48.24465" lon="7.32133">
        <ele>585.40002441406</ele>
        <time>2020-10-17T08:00:00Z</time>
      </trkpt>
      <trkpt lat="48.24466" lon="7.32123">
        <ele>585.40002441406</ele>
        <time>2020-10-17T08:00:04Z</time>
      </trkpt>
      <trkpt lat="48.24471" lon="7.32111">
        <ele>585</ele>
        <time>2020-10-17T08:00:11Z</time>
      </trkpt>
      <trkpt lat="48.24471" lon="7.32109">
        <ele>585</ele>
        <time>2020-10-17T08:00:12Z</time>
      </trkpt>
      <trkpt lat="48.24473" lon="7.32103">
        <ele>584.40002441406</ele>
        <time>2020-10-17T08:00:15Z</time>
      </trkpt>
      <trkpt lat="48.24476" lon="7.32092">
        <ele>584</ele>
        <time>2020-10-17T08:00:20Z</time>
      </trkpt>
      <trkpt lat="48.24476" lon="7.3209">
        <ele>583.79998779297</ele>
        <time>2020-10-17T08:00:21Z</time>
      </trkpt>
      <trkpt lat="48.24476" lon="7.32089">
        <ele>583.79998779297</ele>
        <time>2020-10-17T08:00:22Z</time>
      </trkpt>
      <trkpt lat="48.24477" lon="7.32088">
        <ele>583.79998779297</ele>
        <time>2020-10-17T08:00:23Z</time>
      </trkpt>
      <trkpt lat="48.24482" lon="7.32076">
        <ele>583.40002441406</ele>
        <time>2020-10-17T08:00:30Z</time>
      </trkpt>
      <trkpt lat="48.24483" lon="7.32074">
        <ele>583.20001220703</ele>
        <time>2020-10-17T08:00:31Z</time>
      </trkpt>
      <trkpt lat="48.24498" lon="7.32062">
        <ele>580.59997558594</ele>
        <time>2020-10-17T08:00:45Z</time>
      </trkpt>
      <trkpt lat="48.24519" lon="7.3205">
        <ele>577.40002441406</ele>
        <time>2020-10-17T08:01:02Z</time>
      </trkpt>
      <trkpt lat="48.24535" lon="7.32028">
        <ele>575</ele>
        <time>2020-10-17T08:01:17Z</time>
      </trkpt>
      <trkpt lat="48.24552" lon="7.32008">
        <ele>573.40002441406</ele>
        <time>2020-10-17T08:01:31Z</time>
      </trkpt>
      <trkpt lat="48.24553" lon="7.32006">
        <ele>573.40002441406</ele>
        <time>2020-10-17T08:01:32Z</time>
      </trkpt>
      <trkpt lat="48.24562" lon="7.31994">
        <ele>573</ele>
        <time>2020-10-17T08:01:40Z</time>
      </trkpt>
      <trkpt lat="48.24562" lon="7.31992">
        <ele>573</ele>
        <time>2020-10-17T08:01:41Z</time>
      </trkpt>
      <trkpt lat="48.24563" lon="7.3199">
        <ele>572.79998779297</ele>
        <time>2020-10-17T08:01:42Z</time>
      </trkpt>
      <trkpt lat="48.24563" lon="7.31988">
        <ele>572.79998779297</ele>
        <time>2020-10-17T08:01:43Z</time>
      </trkpt>
      <trkpt lat="48.24564" lon="7.31986">
        <ele>572.59997558594</ele>
        <time>2020-10-17T08:01:44Z</time>
      </trkpt>
      <trkpt lat="48.24571" lon="7.31962">
        <ele>571.79998779297</ele>
        <time>2020-10-17T08:01:57Z</time>
      </trkpt>
      <trkpt lat="48.24576" lon="7.31931">
        <ele>571.20001220703</ele>
        <time>2020-10-17T08:02:13Z</time>
      </trkpt>
      <trkpt lat="48.24575" lon="7.3191">
        <ele>570.40002441406</ele>
        <time>2020-10-17T08:02:23Z</time>
      </trkpt>
      <trkpt lat="48.24574" lon="7.31902">
        <ele>570</ele>
        <time>2020-10-17T08:02:27Z</time>
      </trkpt>
      <trkpt lat="48.24574" lon="7.31899">
        <ele>569.79998779297</ele>
        <time>2020-10-17T08:02:28Z</time>
      </trkpt>
      <trkpt lat="48.2457" lon="7.31866">
        <ele>567.40002441406</ele>
        <time>2020-10-17T08:02:44Z</time>
      </trkpt>
      <trkpt lat="48.24569" lon="7.31864">
        <ele>567.20001220703</ele>
        <time>2020-10-17T08:02:45Z</time>
      </trkpt>
      <trkpt lat="48.24568" lon="7.31857">
        <ele>566.59997558594</ele>
        <time>2020-10-17T08:02:48Z</time>
      </trkpt>
      <trkpt lat="48.24567" lon="7.31851">
        <ele>566.20001220703</ele>
        <time>2020-10-17T08:02:51Z</time>
      </trkpt>
      <trkpt lat="48.24567" lon="7.31847">
        <ele>565.79998779297</ele>
        <time>2020-10-17T08:02:53Z</time>
      </trkpt>
      <trkpt lat="48.24559" lon="7.31814">
        <ele>563.40002441406</ele>
        <time>2020-10-17T08:03:09Z</time>
      </trkpt>
      <trkpt lat="48.24557" lon="7.31809">
        <ele>563</ele>
        <time>2020-10-17T08:03:12Z</time>
      </trkpt>
      <trkpt lat="48.24555" lon="7.31802">
        <ele>562.59997558594</ele>
        <time>2020-10-17T08:03:16Z</time>
      </trkpt>
      <trkpt lat="48.24547" lon="7.31783">
        <ele>561.79998779297</ele>
        <time>2020-10-17T08:03:27Z</time>
      </trkpt>
      <trkpt lat="48.24546" lon="7.31755">
        <ele>560.79998779297</ele>
        <time>2020-10-17T08:03:49Z</time>
      </trkpt>
      <trkpt lat="48.24556" lon="7.31739">
        <ele>560.59997558594</ele>
        <time>2020-10-17T08:04:00Z</time>
      </trkpt>
      <trkpt lat="48.24567" lon="7.3174">
        <ele>560.59997558594</ele>
        <time>2020-10-17T08:04:08Z</time>
      </trkpt>
      <trkpt lat="48.24593" lon="7.31745">
        <ele>561.79998779297</ele>
        <time>2020-10-17T08:04:28Z</time>
      </trkpt>
      <trkpt lat="48.24594" lon="7.31745">
        <ele>561.79998779297</ele>
        <time>2020-10-17T08:04:29Z</time>
      </trkpt>
      <trkpt lat="48.24612" lon="7.31746">
        <ele>560.59997558594</ele>
        <time>2020-10-17T08:04:45Z</time>
      </trkpt>
      <trkpt lat="48.2463" lon="7.3175">
        <ele>558.59997558594</ele>
        <time>2020-10-17T08:04:57Z</time>
      </trkpt>
      <trkpt lat="48.24636" lon="7.31752">
        <ele>557.59997558594</ele>
        <time>2020-10-17T08:05:02Z</time>
      </trkpt>
      <trkpt lat="48.24638" lon="7.31752">
        <ele>557</ele>
        <time>2020-10-17T08:05:03Z</time>
      </trkpt>
      <trkpt lat="48.24641" lon="7.31752">
        <ele>556.59997558594</ele>
        <time>2020-10-17T08:05:04Z</time>
      </trkpt>
      <trkpt lat="48.24643" lon="7.31752">
        <ele>556.40002441406</ele>
        <time>2020-10-17T08:05:05Z</time>
      </trkpt>
      <trkpt lat="48.24645" lon="7.31752">
        <ele>556.20001220703</ele>
        <time>2020-10-17T08:05:06Z</time>
      </trkpt>
      <trkpt lat="48.24652" lon="7.31751">
        <ele>555</ele>
        <time>2020-10-17T08:05:11Z</time>
      </trkpt>
      <trkpt lat="48.24659" lon="7.31745">
        <ele>554.20001220703</ele>
        <time>2020-10-17T08:05:17Z</time>
      </trkpt>
      <trkpt lat="48.24666" lon="7.31735">
        <ele>553.20001220703</ele>
        <time>2020-10-17T08:05:25Z</time>
      </trkpt>
      <trkpt lat="48.24673" lon="7.31725">
        <ele>552.59997558594</ele>
        <time>2020-10-17T08:05:31Z</time>
      </trkpt>
      <trkpt lat="48.24682" lon="7.31718">
        <ele>551.59997558594</ele>
        <time>2020-10-17T08:05:38Z</time>
      </trkpt>
      <trkpt lat="48.24689" lon="7.31709">
        <ele>551</ele>
        <time>2020-10-17T08:05:46Z</time>
      </trkpt>
      <trkpt lat="48.24709" lon="7.31697">
        <ele>549.79998779297</ele>
        <time>2020-10-17T08:06:02Z</time>
      </trkpt>
      <trkpt lat="48.24722" lon="7.31687">
        <ele>549.40002441406</ele>
        <time>2020-10-17T08:06:11Z</time>
      </trkpt>
      <trkpt lat="48.24724" lon="7.31686">
        <ele>549.20001220703</ele>
        <time>2020-10-17T08:06:12Z</time>
      </trkpt>
      <trkpt lat="48.24725" lon="7.31685">
        <ele>549.20001220703</ele>
        <time>2020-10-17T08:06:13Z</time>
      </trkpt>
      <trkpt lat="48.24729" lon="7.3168">
        <ele>548.79998779297</ele>
        <time>2020-10-17T08:06:16Z</time>
      </trkpt>
      <trkpt lat="48.24737" lon="7.31671">
        <ele>548.40002441406</ele>
        <time>2020-10-17T08:06:21Z</time>
      </trkpt>
      <trkpt lat="48.24754" lon="7.3166">
        <ele>548</ele>
        <time>2020-10-17T08:06:32Z</time>
      </trkpt>
      <trkpt lat="48.24765" lon="7.31651">
        <ele>547.79998779297</ele>
        <time>2020-10-17T08:06:41Z</time>
      </trkpt>
      <trkpt lat="48.24772" lon="7.31643">
        <ele>547.79998779297</ele>
        <time>2020-10-17T08:06:47Z</time>
      </trkpt>
      <trkpt lat="48.24774" lon="7.31641">
        <ele>547.79998779297</ele>
        <time>2020-10-17T08:06:48Z</time>
      </trkpt>
      <trkpt lat="48.24775" lon="7.3164">
        <ele>547.79998779297</ele>
        <time>2020-10-17T08:06:49Z</time>
      </trkpt>
      <trkpt lat="48.24781" lon="7.31633">
        <ele>548</ele>
        <time>2020-10-17T08:06:55Z</time>
      </trkpt>
      <trkpt lat="48.24787" lon="7.31629">
        <ele>548.40002441406</ele>
        <time>2020-10-17T08:07:00Z</time>
      </trkpt>
      <trkpt lat="48.24797" lon="7.31618">
        <ele>549.20001220703</ele>
        <time>2020-10-17T08:07:12Z</time>
      </trkpt>
      <trkpt lat="48.24822" lon="7.31591">
        <ele>548.40002441406</ele>
        <time>2020-10-17T08:07:29Z</time>
      </trkpt>
      <trkpt lat="48.24823" lon="7.3159">
        <ele>548.20001220703</ele>
        <time>2020-10-17T08:07:30Z</time>
      </trkpt>
      <trkpt lat="48.24829" lon="7.31582">
        <ele>548</ele>
        <time>2020-10-17T08:07:34Z</time>
      </trkpt>
      <trkpt lat="48.2483" lon="7.3158">
        <ele>548</ele>
        <time>2020-10-17T08:07:35Z</time>
      </trkpt>
      <trkpt lat="48.24832" lon="7.31578">
        <ele>548</ele>
        <time>2020-10-17T08:07:36Z</time>
      </trkpt>
      <trkpt lat="48.24834" lon="7.31576">
        <ele>547.79998779297</ele>
        <time>2020-10-17T08:07:37Z</time>
      </trkpt>
      <trkpt lat="48.24835" lon="7.31574">
        <ele>547.79998779297</ele>
        <time>2020-10-17T08:07:38Z</time>
      </trkpt>
      <trkpt lat="48.24838" lon="7.31571">
        <ele>547.79998779297</ele>
        <time>2020-10-17T08:07:40Z</time>
      </trkpt>
      <trkpt lat="48.24851" lon="7.31555">
        <ele>547.79998779297</ele>
        <time>2020-10-17T08:07:50Z</time>
      </trkpt>
      <trkpt lat="48.2486" lon="7.31544">
        <ele>547.59997558594</ele>
        <time>2020-10-17T08:07:58Z</time>
      </trkpt>
      <trkpt lat="48.24861" lon="7.31543">
        <ele>547.59997558594</ele>
        <time>2020-10-17T08:07:59Z</time>
      </trkpt>
      <trkpt lat="48.24875" lon="7.31525">
        <ele>548</ele>
        <time>2020-10-17T08:08:12Z</time>
      </trkpt>
      <trkpt lat="48.24877" lon="7.31523">
        <ele>548</ele>
        <time>2020-10-17T08:08:13Z</time>
      </trkpt>
      <trkpt lat="48.24886" lon="7.3151">
        <ele>548.59997558594</ele>
        <time>2020-10-17T08:08:21Z</time>
      </trkpt>
      <trkpt lat="48.24892" lon="7.31503">
        <ele>549</ele>
        <time>2020-10-17T08:08:26Z</time>
      </trkpt>
      <trkpt lat="48.24894" lon="7.31501">
        <ele>549.20001220703</ele>
        <time>2020-10-17T08:08:28Z</time>
      </trkpt>
      <trkpt lat="48.24895" lon="7.31499">
        <ele>549.20001220703</ele>
        <time>2020-10-17T08:08:29Z</time>
      </trkpt>
      <trkpt lat="48.24898" lon="7.31497">
        <ele>549.40002441406</ele>
        <time>2020-10-17T08:08:31Z</time>
      </trkpt>
      <trkpt lat="48.24899" lon="7.31495">
        <ele>549.40002441406</ele>
        <time>2020-10-17T08:08:32Z</time>
      </trkpt>
      <trkpt lat="48.249" lon="7.31494">
        <ele>549.40002441406</ele>
        <time>2020-10-17T08:08:33Z</time>
      </trkpt>
      <trkpt lat="48.24902" lon="7.31493">
        <ele>549.40002441406</ele>
        <time>2020-10-17T08:08:34Z</time>
      </trkpt>
      <trkpt lat="48.24903" lon="7.31491">
        <ele>549.59997558594</ele>
        <time>2020-10-17T08:08:35Z</time>
      </trkpt>
      <trkpt lat="48.24911" lon="7.31482">
        <ele>550.40002441406</ele>
        <time>2020-10-17T08:08:43Z</time>
      </trkpt>
      <trkpt lat="48.24918" lon="7.31479">
        <ele>550.79998779297</ele>
        <time>2020-10-17T08:08:55Z</time>
      </trkpt>
      <trkpt lat="48.24918" lon="7.31481">
        <ele>551</ele>
        <time>2020-10-17T08:09:23Z</time>
      </trkpt>
      <trkpt lat="48.24929" lon="7.31472">
        <ele>551</ele>
        <time>2020-10-17T08:09:48Z</time>
      </trkpt>
      <trkpt lat="48.2493" lon="7.3147">
        <ele>550.79998779297</ele>
        <time>2020-10-17T08:09:49Z</time>
      </trkpt>
      <trkpt lat="48.24931" lon="7.31468">
        <ele>550.79998779297</ele>
        <time>2020-10-17T08:09:50Z</time>
      </trkpt>
      <trkpt lat="48.24932" lon="7.31466">
        <ele>550.79998779297</ele>
        <time>2020-10-17T08:09:51Z</time>
      </trkpt>
      <trkpt lat="48.24937" lon="7.31457">
        <ele>549.79998779297</ele>
        <time>2020-10-17T08:10:11Z</time>
      </trkpt>
      <trkpt lat="48.24941" lon="7.31447">
        <ele>549.40002441406</ele>
        <time>2020-10-17T08:10:19Z</time>
      </trkpt>
      <trkpt lat="48.24943" lon="7.31439">
        <ele>548.79998779297</ele>
        <time>2020-10-17T08:10:25Z</time>
      </trkpt>
      <trkpt lat="48.24943" lon="7.31431">
        <ele>548</ele>
        <time>2020-10-17T08:10:29Z</time>
      </trkpt>
      <trkpt lat="48.24948" lon="7.31412">
        <ele>544.79998779297</ele>
        <time>2020-10-17T08:10:41Z</time>
      </trkpt>
      <trkpt lat="48.24949" lon="7.3141">
        <ele>544.59997558594</ele>
        <time>2020-10-17T08:10:42Z</time>
      </trkpt>
      <trkpt lat="48.2495" lon="7.31408">
        <ele>544.40002441406</ele>
        <time>2020-10-17T08:10:43Z</time>
      </trkpt>
      <trkpt lat="48.2495" lon="7.31406">
        <ele>544.20001220703</ele>
        <time>2020-10-17T08:10:44Z</time>
      </trkpt>
      <trkpt lat="48.24951" lon="7.31404">
        <ele>543.79998779297</ele>
        <time>2020-10-17T08:10:45Z</time>
      </trkpt>
      <trkpt lat="48.24951" lon="7.31402">
        <ele>543.59997558594</ele>
        <time>2020-10-17T08:10:46Z</time>
      </trkpt>
      <trkpt lat="48.24952" lon="7.31399">
        <ele>543.40002441406</ele>
        <time>2020-10-17T08:10:47Z</time>
      </trkpt>
      <trkpt lat="48.24952" lon="7.31397">
        <ele>543.40002441406</ele>
        <time>2020-10-17T08:10:48Z</time>
      </trkpt>
      <trkpt lat="48.24955" lon="7.31381">
        <ele>541.40002441406</ele>
        <time>2020-10-17T08:10:56Z</time>
      </trkpt>
      <trkpt lat="48.24956" lon="7.31379">
        <ele>541.20001220703</ele>
        <time>2020-10-17T08:10:57Z</time>
      </trkpt>
      <trkpt lat="48.2496" lon="7.31369">
        <ele>540</ele>
        <time>2020-10-17T08:11:03Z</time>
      </trkpt>
      <trkpt lat="48.24962" lon="7.31364">
        <ele>539</ele>
        <time>2020-10-17T08:11:06Z</time>
      </trkpt>
      <trkpt lat="48.24962" lon="7.31362">
        <ele>538.79998779297</ele>
        <time>2020-10-17T08:11:07Z</time>
      </trkpt>
      <trkpt lat="48.24962" lon="7.31349">
        <ele>537.59997558594</ele>
        <time>2020-10-17T08:11:15Z</time>
      </trkpt>
      <trkpt lat="48.24967" lon="7.31318">
        <ele>535</ele>
        <time>2020-10-17T08:11:30Z</time>
      </trkpt>
      <trkpt lat="48.24968" lon="7.31316">
        <ele>534.79998779297</ele>
        <time>2020-10-17T08:11:31Z</time>
      </trkpt>
      <trkpt lat="48.24969" lon="7.31314">
        <ele>534.59997558594</ele>
        <time>2020-10-17T08:11:32Z</time>
      </trkpt>
      <trkpt lat="48.24974" lon="7.31295">
        <ele>533.40002441406</ele>
        <time>2020-10-17T08:11:40Z</time>
      </trkpt>
      <trkpt lat="48.24976" lon="7.31293">
        <ele>533.20001220703</ele>
        <time>2020-10-17T08:11:41Z</time>
      </trkpt>
      <trkpt lat="48.24981" lon="7.31272">
        <ele>530.40002441406</ele>
        <time>2020-10-17T08:11:53Z</time>
      </trkpt>
      <trkpt lat="48.24982" lon="7.31249">
        <ele>528.40002441406</ele>
        <time>2020-10-17T08:12:03Z</time>
      </trkpt>
      <trkpt lat="48.24982" lon="7.31247">
        <ele>528.20001220703</ele>
        <time>2020-10-17T08:12:04Z</time>
      </trkpt>
      <trkpt lat="48.24983" lon="7.31244">
        <ele>528.20001220703</ele>
        <time>2020-10-17T08:12:05Z</time>
      </trkpt>
      <trkpt lat="48.24984" lon="7.31242">
        <ele>528</ele>
        <time>2020-10-17T08:12:06Z</time>
      </trkpt>
      <trkpt lat="48.24985" lon="7.3124">
        <ele>527.79998779297</ele>
        <time>2020-10-17T08:12:07Z</time>
      </trkpt>
      <trkpt lat="48.24987" lon="7.31238">
        <ele>527.79998779297</ele>
        <time>2020-10-17T08:12:08Z</time>
      </trkpt>
      <trkpt lat="48.24988" lon="7.31236">
        <ele>527.59997558594</ele>
        <time>2020-10-17T08:12:09Z</time>
      </trkpt>
      <trkpt lat="48.24989" lon="7.31234">
        <ele>527.40002441406</ele>
        <time>2020-10-17T08:12:10Z</time>
      </trkpt>
      <trkpt lat="48.24989" lon="7.3123">
        <ele>527.20001220703</ele>
        <time>2020-10-17T08:12:11Z</time>
      </trkpt>
      <trkpt lat="48.24993" lon="7.31214">
        <ele>526.20001220703</ele>
        <time>2020-10-17T08:12:17Z</time>
      </trkpt>
      <trkpt lat="48.24994" lon="7.31211">
        <ele>526.20001220703</ele>
        <time>2020-10-17T08:12:18Z</time>
      </trkpt>
      <trkpt lat="48.25005" lon="7.31189">
        <ele>525.20001220703</ele>
        <time>2020-10-17T08:12:29Z</time>
      </trkpt>
      <trkpt lat="48.25009" lon="7.31182">
        <ele>524.79998779297</ele>
        <time>2020-10-17T08:12:32Z</time>
      </trkpt>
      <trkpt lat="48.25011" lon="7.3118">
        <ele>524.59997558594</ele>
        <time>2020-10-17T08:12:33Z</time>
      </trkpt>
      <trkpt lat="48.25011" lon="7.31178">
        <ele>524.59997558594</ele>
        <time>2020-10-17T08:12:34Z</time>
      </trkpt>
      <trkpt lat="48.25015" lon="7.31163">
        <ele>523.40002441406</ele>
        <time>2020-10-17T08:12:42Z</time>
      </trkpt>
      <trkpt lat="48.25016" lon="7.31161">
        <ele>523.20001220703</ele>
        <time>2020-10-17T08:12:43Z</time>
      </trkpt>
      <trkpt lat="48.25016" lon="7.31158">
        <ele>523.20001220703</ele>
        <time>2020-10-17T08:12:44Z</time>
      </trkpt>
      <trkpt lat="48.25021" lon="7.31141">
        <ele>522.40002441406</ele>
        <time>2020-10-17T08:12:53Z</time>
      </trkpt>
      <trkpt lat="48.25022" lon="7.31139">
        <ele>522.40002441406</ele>
        <time>2020-10-17T08:12:54Z</time>
      </trkpt>
      <trkpt lat="48.25023" lon="7.31138">
        <ele>522.20001220703</ele>
        <time>2020-10-17T08:12:55Z</time>
      </trkpt>
      <trkpt lat="48.25024" lon="7.31136">
        <ele>522.20001220703</ele>
        <time>2020-10-17T08:12:56Z</time>
      </trkpt>
      <trkpt lat="48.25024" lon="7.31134">
        <ele>522.20001220703</ele>
        <time>2020-10-17T08:12:57Z</time>
      </trkpt>
      <trkpt lat="48.25025" lon="7.31132">
        <ele>522</ele>
        <time>2020-10-17T08:12:58Z</time>
      </trkpt>
      <trkpt lat="48.25026" lon="7.31131">
        <ele>522</ele>
        <time>2020-10-17T08:12:59Z</time>
      </trkpt>
      <trkpt lat="48.25026" lon="7.31129">
        <ele>521.79998779297</ele>
        <time>2020-10-17T08:13:00Z</time>
      </trkpt>
      <trkpt lat="48.25027" lon="7.31127">
        <ele>521.79998779297</ele>
        <time>2020-10-17T08:13:01Z</time>
      </trkpt>
      <trkpt lat="48.25031" lon="7.31108">
        <ele>520.79998779297</ele>
        <time>2020-10-17T08:13:11Z</time>
      </trkpt>
      <trkpt lat="48.25032" lon="7.31107">
        <ele>520.59997558594</ele>
        <time>2020-10-17T08:13:12Z</time>
      </trkpt>
      <trkpt lat="48.25033" lon="7.31104">
        <ele>520.59997558594</ele>
        <time>2020-10-17T08:13:13Z</time>
      </trkpt>
      <trkpt lat="48.25033" lon="7.31102">
        <ele>520.40002441406</ele>
        <time>2020-10-17T08:13:14Z</time>
      </trkpt>
      <trkpt lat="48.25033" lon="7.311">
        <ele>520.40002441406</ele>
        <time>2020-10-17T08:13:15Z</time>
      </trkpt>
      <trkpt lat="48.25037" lon="7.31074">
        <ele>518.40002441406</ele>
        <time>2020-10-17T08:13:27Z</time>
      </trkpt>
      <trkpt lat="48.25037" lon="7.31072">
        <ele>518.40002441406</ele>
        <time>2020-10-17T08:13:28Z</time>
      </trkpt>
      <trkpt lat="48.25041" lon="7.31053">
        <ele>517.20001220703</ele>
        <time>2020-10-17T08:13:37Z</time>
      </trkpt>
      <trkpt lat="48.25041" lon="7.31051">
        <ele>517</ele>
        <time>2020-10-17T08:13:38Z</time>
      </trkpt>
      <trkpt lat="48.25042" lon="7.31049">
        <ele>517</ele>
        <time>2020-10-17T08:13:39Z</time>
      </trkpt>
      <trkpt lat="48.25046" lon="7.31038">
        <ele>516.20001220703</ele>
        <time>2020-10-17T08:13:45Z</time>
      </trkpt>
      <trkpt lat="48.25054" lon="7.30998">
        <ele>513</ele>
        <time>2020-10-17T08:14:04Z</time>
      </trkpt>
      <trkpt lat="48.25058" lon="7.30988">
        <ele>512.59997558594</ele>
        <time>2020-10-17T08:14:08Z</time>
      </trkpt>
      <trkpt lat="48.25059" lon="7.30986">
        <ele>512.59997558594</ele>
        <time>2020-10-17T08:14:09Z</time>
      </trkpt>
      <trkpt lat="48.2506" lon="7.30984">
        <ele>512.40002441406</ele>
        <time>2020-10-17T08:14:10Z</time>
      </trkpt>
      <trkpt lat="48.2506" lon="7.30982">
        <ele>512.20001220703</ele>
        <time>2020-10-17T08:14:11Z</time>
      </trkpt>
      <trkpt lat="48.2506" lon="7.3098">
        <ele>512</ele>
        <time>2020-10-17T08:14:12Z</time>
      </trkpt>
      <trkpt lat="48.2506" lon="7.30978">
        <ele>511.79998779297</ele>
        <time>2020-10-17T08:14:13Z</time>
      </trkpt>
      <trkpt lat="48.2506" lon="7.30976">
        <ele>511.60000610352</ele>
        <time>2020-10-17T08:14:14Z</time>
      </trkpt>
      <trkpt lat="48.2506" lon="7.30962">
        <ele>510</ele>
        <time>2020-10-17T08:14:22Z</time>
      </trkpt>
      <trkpt lat="48.2506" lon="7.3096">
        <ele>509.79998779297</ele>
        <time>2020-10-17T08:14:23Z</time>
      </trkpt>
      <trkpt lat="48.25061" lon="7.30956">
        <ele>509.60000610352</ele>
        <time>2020-10-17T08:14:24Z</time>
      </trkpt>
      <trkpt lat="48.25064" lon="7.30942">
        <ele>508.39999389648</ele>
        <time>2020-10-17T08:14:31Z</time>
      </trkpt>
      <trkpt lat="48.25064" lon="7.3094">
        <ele>508.20001220703</ele>
        <time>2020-10-17T08:14:32Z</time>
      </trkpt>
      <trkpt lat="48.25064" lon="7.30937">
        <ele>508</ele>
        <time>2020-10-17T08:14:33Z</time>
      </trkpt>
      <trkpt lat="48.25064" lon="7.30935">
        <ele>507.79998779297</ele>
        <time>2020-10-17T08:14:34Z</time>
      </trkpt>
      <trkpt lat="48.25065" lon="7.30932">
        <ele>507.39999389648</ele>
        <time>2020-10-17T08:14:35Z</time>
      </trkpt>
      <trkpt lat="48.25065" lon="7.30902">
        <ele>504.39999389648</ele>
        <time>2020-10-17T08:14:48Z</time>
      </trkpt>
      <trkpt lat="48.25061" lon="7.30875">
        <ele>502</ele>
        <time>2020-10-17T08:15:01Z</time>
      </trkpt>
      <trkpt lat="48.25063" lon="7.30873">
        <ele>501.60000610352</ele>
        <time>2020-10-17T08:15:13Z</time>
      </trkpt>
      <trkpt lat="48.25065" lon="7.30847">
        <ele>499.20001220703</ele>
        <time>2020-10-17T08:15:34Z</time>
      </trkpt>
      <trkpt lat="48.2506" lon="7.30815">
        <ele>496.79998779297</ele>
        <time>2020-10-17T08:15:50Z</time>
      </trkpt>
      <trkpt lat="48.25053" lon="7.30781">
        <ele>493.79998779297</ele>
        <time>2020-10-17T08:16:07Z</time>
      </trkpt>
      <trkpt lat="48.25054" lon="7.30779">
        <ele>493.60000610352</ele>
        <time>2020-10-17T08:16:08Z</time>
      </trkpt>
      <trkpt lat="48.25054" lon="7.30776">
        <ele>493.39999389648</ele>
        <time>2020-10-17T08:16:09Z</time>
      </trkpt>
      <trkpt lat="48.25064" lon="7.30739">
        <ele>491.20001220703</ele>
        <time>2020-10-17T08:16:29Z</time>
      </trkpt>
      <trkpt lat="48.25067" lon="7.30727">
        <ele>490.39999389648</ele>
        <time>2020-10-17T08:16:37Z</time>
      </trkpt>
      <trkpt lat="48.25068" lon="7.30725">
        <ele>490.39999389648</ele>
        <time>2020-10-17T08:16:38Z</time>
      </trkpt>
      <trkpt lat="48.25069" lon="7.30721">
        <ele>490.20001220703</ele>
        <time>2020-10-17T08:16:40Z</time>
      </trkpt>
      <trkpt lat="48.25069" lon="7.30719">
        <ele>490</ele>
        <time>2020-10-17T08:16:41Z</time>
      </trkpt>
      <trkpt lat="48.25071" lon="7.30717">
        <ele>489.60000610352</ele>
        <time>2020-10-17T08:16:42Z</time>
      </trkpt>
      <trkpt lat="48.25072" lon="7.30715">
        <ele>489.39999389648</ele>
        <time>2020-10-17T08:16:43Z</time>
      </trkpt>
      <trkpt lat="48.25072" lon="7.30712">
        <ele>489.39999389648</ele>
        <time>2020-10-17T08:16:44Z</time>
      </trkpt>
      <trkpt lat="48.25073" lon="7.3071">
        <ele>488.79998779297</ele>
        <time>2020-10-17T08:16:45Z</time>
      </trkpt>
      <trkpt lat="48.25073" lon="7.30709">
        <ele>488.60000610352</ele>
        <time>2020-10-17T08:16:46Z</time>
      </trkpt>
      <trkpt lat="48.25074" lon="7.30707">
        <ele>488.39999389648</ele>
        <time>2020-10-17T08:16:47Z</time>
      </trkpt>
      <trkpt lat="48.25075" lon="7.30705">
        <ele>488.20001220703</ele>
        <time>2020-10-17T08:16:48Z</time>
      </trkpt>
      <trkpt lat="48.25081" lon="7.30687">
        <ele>486.60000610352</ele>
        <time>2020-10-17T08:16:58Z</time>
      </trkpt>
      <trkpt lat="48.25083" lon="7.30681">
        <ele>486.20001220703</ele>
        <time>2020-10-17T08:17:01Z</time>
      </trkpt>
      <trkpt lat="48.25083" lon="7.3068">
        <ele>486.20001220703</ele>
        <time>2020-10-17T08:17:02Z</time>
      </trkpt>
      <trkpt lat="48.25084" lon="7.30678">
        <ele>486</ele>
        <time>2020-10-17T08:17:03Z</time>
      </trkpt>
      <trkpt lat="48.25085" lon="7.30676">
        <ele>485.79998779297</ele>
        <time>2020-10-17T08:17:04Z</time>
      </trkpt>
      <trkpt lat="48.25086" lon="7.30675">
        <ele>485.79998779297</ele>
        <time>2020-10-17T08:17:05Z</time>
      </trkpt>
      <trkpt lat="48.25087" lon="7.30673">
        <ele>485.60000610352</ele>
        <time>2020-10-17T08:17:06Z</time>
      </trkpt>
      <trkpt lat="48.25087" lon="7.30671">
        <ele>485.60000610352</ele>
        <time>2020-10-17T08:17:07Z</time>
      </trkpt>
      <trkpt lat="48.25089" lon="7.30668">
        <ele>485.39999389648</ele>
        <time>2020-10-17T08:17:08Z</time>
      </trkpt>
      <trkpt lat="48.2509" lon="7.30666">
        <ele>485.39999389648</ele>
        <time>2020-10-17T08:17:09Z</time>
      </trkpt>
      <trkpt lat="48.251" lon="7.30648">
        <ele>484.39999389648</ele>
        <time>2020-10-17T08:17:20Z</time>
      </trkpt>
      <trkpt lat="48.25102" lon="7.30646">
        <ele>484.39999389648</ele>
        <time>2020-10-17T08:17:21Z</time>
      </trkpt>
      <trkpt lat="48.25104" lon="7.30645">
        <ele>484.39999389648</ele>
        <time>2020-10-17T08:17:22Z</time>
      </trkpt>
      <trkpt lat="48.25107" lon="7.30636">
        <ele>484.39999389648</ele>
        <time>2020-10-17T08:17:27Z</time>
      </trkpt>
      <trkpt lat="48.25108" lon="7.30634">
        <ele>484.20001220703</ele>
        <time>2020-10-17T08:17:28Z</time>
      </trkpt>
      <trkpt lat="48.2511" lon="7.30631">
        <ele>483.79998779297</ele>
        <time>2020-10-17T08:17:30Z</time>
      </trkpt>
      <trkpt lat="48.25111" lon="7.30629">
        <ele>483.79998779297</ele>
        <time>2020-10-17T08:17:31Z</time>
      </trkpt>
      <trkpt lat="48.25111" lon="7.30627">
        <ele>483.79998779297</ele>
        <time>2020-10-17T08:17:32Z</time>
      </trkpt>
      <trkpt lat="48.25112" lon="7.30625">
        <ele>483.79998779297</ele>
        <time>2020-10-17T08:17:33Z</time>
      </trkpt>
      <trkpt lat="48.25112" lon="7.30624">
        <ele>483.79998779297</ele>
        <time>2020-10-17T08:17:34Z</time>
      </trkpt>
      <trkpt lat="48.2511" lon="7.306">
        <ele>483.39999389648</ele>
        <time>2020-10-17T08:17:47Z</time>
      </trkpt>
      <trkpt lat="48.25108" lon="7.30591">
        <ele>483</ele>
        <time>2020-10-17T08:17:53Z</time>
      </trkpt>
      <trkpt lat="48.25107" lon="7.30584">
        <ele>483.20001220703</ele>
        <time>2020-10-17T08:18:11Z</time>
      </trkpt>
      <trkpt lat="48.251" lon="7.30563">
        <ele>483.39999389648</ele>
        <time>2020-10-17T08:18:28Z</time>
      </trkpt>
      <trkpt lat="48.25095" lon="7.30553">
        <ele>483.39999389648</ele>
        <time>2020-10-17T08:18:33Z</time>
      </trkpt>
      <trkpt lat="48.25094" lon="7.30552">
        <ele>483.60000610352</ele>
        <time>2020-10-17T08:18:34Z</time>
      </trkpt>
      <trkpt lat="48.25086" lon="7.30542">
        <ele>483.60000610352</ele>
        <time>2020-10-17T08:18:41Z</time>
      </trkpt>
      <trkpt lat="48.25085" lon="7.3054">
        <ele>483.79998779297</ele>
        <time>2020-10-17T08:18:42Z</time>
      </trkpt>
      <trkpt lat="48.25084" lon="7.30539">
        <ele>483.79998779297</ele>
        <time>2020-10-17T08:18:43Z</time>
      </trkpt>
      <trkpt lat="48.25075" lon="7.30522">
        <ele>485</ele>
        <time>2020-10-17T08:19:00Z</time>
      </trkpt>
      <trkpt lat="48.25059" lon="7.30512">
        <ele>487</ele>
        <time>2020-10-17T08:19:14Z</time>
      </trkpt>
      <trkpt lat="48.25035" lon="7.30494">
        <ele>490</ele>
        <time>2020-10-17T08:19:35Z</time>
      </trkpt>
      <trkpt lat="48.25023" lon="7.30491">
        <ele>491.79998779297</ele>
        <time>2020-10-17T08:19:47Z</time>
      </trkpt>
      <trkpt lat="48.25009" lon="7.30489">
        <ele>494</ele>
        <time>2020-10-17T08:20:00Z</time>
      </trkpt>
      <trkpt lat="48.24984" lon="7.30482">
        <ele>496.60000610352</ele>
        <time>2020-10-17T08:20:20Z</time>
      </trkpt>
      <trkpt lat="48.24963" lon="7.30473">
        <ele>499.60000610352</ele>
        <time>2020-10-17T08:20:37Z</time>
      </trkpt>
      <trkpt lat="48.24952" lon="7.30466">
        <ele>501.39999389648</ele>
        <time>2020-10-17T08:20:49Z</time>
      </trkpt>
      <trkpt lat="48.24942" lon="7.30456">
        <ele>503</ele>
        <time>2020-10-17T08:21:00Z</time>
      </trkpt>
      <trkpt lat="48.24934" lon="7.30447">
        <ele>504</ele>
        <time>2020-10-17T08:21:08Z</time>
      </trkpt>
      <trkpt lat="48.24924" lon="7.30437">
        <ele>505.20001220703</ele>
        <time>2020-10-17T08:21:17Z</time>
      </trkpt>
      <trkpt lat="48.2491" lon="7.30424">
        <ele>507.39999389648</ele>
        <time>2020-10-17T08:21:32Z</time>
      </trkpt>
      <trkpt lat="48.24899" lon="7.30419">
        <ele>509</ele>
        <time>2020-10-17T08:21:44Z</time>
      </trkpt>
      <trkpt lat="48.24883" lon="7.30406">
        <ele>511.20001220703</ele>
        <time>2020-10-17T08:21:59Z</time>
      </trkpt>
      <trkpt lat="48.2487" lon="7.30397">
        <ele>513.20001220703</ele>
        <time>2020-10-17T08:22:13Z</time>
      </trkpt>
      <trkpt lat="48.24851" lon="7.30383">
        <ele>516.20001220703</ele>
        <time>2020-10-17T08:22:32Z</time>
      </trkpt>
      <trkpt lat="48.24845" lon="7.30384">
        <ele>517</ele>
        <time>2020-10-17T08:22:50Z</time>
      </trkpt>
      <trkpt lat="48.24838" lon="7.30376">
        <ele>518.20001220703</ele>
        <time>2020-10-17T08:23:04Z</time>
      </trkpt>
      <trkpt lat="48.24822" lon="7.30367">
        <ele>520</ele>
        <time>2020-10-17T08:23:18Z</time>
      </trkpt>
      <trkpt lat="48.24815" lon="7.30362">
        <ele>521.20001220703</ele>
        <time>2020-10-17T08:23:26Z</time>
      </trkpt>
      <trkpt lat="48.24809" lon="7.30358">
        <ele>522</ele>
        <time>2020-10-17T08:23:32Z</time>
      </trkpt>
      <trkpt lat="48.24797" lon="7.30348">
        <ele>523.59997558594</ele>
        <time>2020-10-17T08:23:44Z</time>
      </trkpt>
      <trkpt lat="48.24785" lon="7.30331">
        <ele>525.59997558594</ele>
        <time>2020-10-17T08:24:03Z</time>
      </trkpt>
      <trkpt lat="48.24777" lon="7.30333">
        <ele>526.40002441406</ele>
        <time>2020-10-17T08:24:09Z</time>
      </trkpt>
      <trkpt lat="48.24769" lon="7.30327">
        <ele>528.59997558594</ele>
        <time>2020-10-17T08:24:21Z</time>
      </trkpt>
      <trkpt lat="48.24756" lon="7.30312">
        <ele>530.20001220703</ele>
        <time>2020-10-17T08:24:35Z</time>
      </trkpt>
      <trkpt lat="48.24755" lon="7.30309">
        <ele>530.20001220703</ele>
        <time>2020-10-17T08:24:36Z</time>
      </trkpt>
      <trkpt lat="48.24747" lon="7.30299">
        <ele>531</ele>
        <time>2020-10-17T08:24:44Z</time>
      </trkpt>
      <trkpt lat="48.24736" lon="7.30284">
        <ele>533.20001220703</ele>
        <time>2020-10-17T08:24:57Z</time>
      </trkpt>
      <trkpt lat="48.24733" lon="7.30279">
        <ele>533.59997558594</ele>
        <time>2020-10-17T08:25:01Z</time>
      </trkpt>
      <trkpt lat="48.24726" lon="7.30273">
        <ele>535</ele>
        <time>2020-10-17T08:25:10Z</time>
      </trkpt>
      <trkpt lat="48.24716" lon="7.30261">
        <ele>537</ele>
        <time>2020-10-17T08:25:24Z</time>
      </trkpt>
      <trkpt lat="48.24706" lon="7.3025">
        <ele>538.79998779297</ele>
        <time>2020-10-17T08:25:37Z</time>
      </trkpt>
      <trkpt lat="48.24695" lon="7.30231">
        <ele>541.59997558594</ele>
        <time>2020-10-17T08:25:52Z</time>
      </trkpt>
      <trkpt lat="48.24686" lon="7.30217">
        <ele>543.79998779297</ele>
        <time>2020-10-17T08:26:05Z</time>
      </trkpt>
      <trkpt lat="48.24679" lon="7.30201">
        <ele>545</ele>
        <time>2020-10-17T08:26:15Z</time>
      </trkpt>
      <trkpt lat="48.24674" lon="7.30183">
        <ele>546.59997558594</ele>
        <time>2020-10-17T08:26:30Z</time>
      </trkpt>
      <trkpt lat="48.24673" lon="7.30175">
        <ele>547</ele>
        <time>2020-10-17T08:26:35Z</time>
      </trkpt>
      <trkpt lat="48.24674" lon="7.30165">
        <ele>547.40002441406</ele>
        <time>2020-10-17T08:26:41Z</time>
      </trkpt>
      <trkpt lat="48.24675" lon="7.30161">
        <ele>547.59997558594</ele>
        <time>2020-10-17T08:26:43Z</time>
      </trkpt>
      <trkpt lat="48.24677" lon="7.30156">
        <ele>547.79998779297</ele>
        <time>2020-10-17T08:26:46Z</time>
      </trkpt>
      <trkpt lat="48.24683" lon="7.30143">
        <ele>548.40002441406</ele>
        <time>2020-10-17T08:26:55Z</time>
      </trkpt>
      <trkpt lat="48.24685" lon="7.30142">
        <ele>548.40002441406</ele>
        <time>2020-10-17T08:26:56Z</time>
      </trkpt>
      <trkpt lat="48.24686" lon="7.30141">
        <ele>548.40002441406</ele>
        <time>2020-10-17T08:26:57Z</time>
      </trkpt>
      <trkpt lat="48.24687" lon="7.30139">
        <ele>548.59997558594</ele>
        <time>2020-10-17T08:26:58Z</time>
      </trkpt>
      <trkpt lat="48.24688" lon="7.30137">
        <ele>548.59997558594</ele>
        <time>2020-10-17T08:26:59Z</time>
      </trkpt>
      <trkpt lat="48.24696" lon="7.30122">
        <ele>549.79998779297</ele>
        <time>2020-10-17T08:27:08Z</time>
      </trkpt>
      <trkpt lat="48.24696" lon="7.30121">
        <ele>549.79998779297</ele>
        <time>2020-10-17T08:27:09Z</time>
      </trkpt>
      <trkpt lat="48.247" lon="7.30107">
        <ele>550.79998779297</ele>
        <time>2020-10-17T08:27:18Z</time>
      </trkpt>
      <trkpt lat="48.24703" lon="7.30099">
        <ele>551.20001220703</ele>
        <time>2020-10-17T08:27:23Z</time>
      </trkpt>
      <trkpt lat="48.24703" lon="7.30097">
        <ele>551.20001220703</ele>
        <time>2020-10-17T08:27:24Z</time>
      </trkpt>
      <trkpt lat="48.24708" lon="7.30077">
        <ele>552.40002441406</ele>
        <time>2020-10-17T08:27:37Z</time>
      </trkpt>
      <trkpt lat="48.24712" lon="7.30064">
        <ele>553.40002441406</ele>
        <time>2020-10-17T08:27:46Z</time>
      </trkpt>
      <trkpt lat="48.2471" lon="7.30057">
        <ele>553.79998779297</ele>
        <time>2020-10-17T08:27:50Z</time>
      </trkpt>
      <trkpt lat="48.24704" lon="7.3004">
        <ele>554.79998779297</ele>
        <time>2020-10-17T08:27:59Z</time>
      </trkpt>
      <trkpt lat="48.24704" lon="7.30038">
        <ele>555</ele>
        <time>2020-10-17T08:28:00Z</time>
      </trkpt>
      <trkpt lat="48.24698" lon="7.30021">
        <ele>555.59997558594</ele>
        <time>2020-10-17T08:28:09Z</time>
      </trkpt>
      <trkpt lat="48.24697" lon="7.30003">
        <ele>556.79998779297</ele>
        <time>2020-10-17T08:28:21Z</time>
      </trkpt>
      <trkpt lat="48.24697" lon="7.29988">
        <ele>558.40002441406</ele>
        <time>2020-10-17T08:28:35Z</time>
      </trkpt>
      <trkpt lat="48.24695" lon="7.29987">
        <ele>558.59997558594</ele>
        <time>2020-10-17T08:28:36Z</time>
      </trkpt>
      <trkpt lat="48.24684" lon="7.29984">
        <ele>559.20001220703</ele>
        <time>2020-10-17T08:28:44Z</time>
      </trkpt>
      <trkpt lat="48.24674" lon="7.29988">
        <ele>560.79998779297</ele>
        <time>2020-10-17T08:29:00Z</time>
      </trkpt>
      <trkpt lat="48.24674" lon="7.29998">
        <ele>560.59997558594</ele>
        <time>2020-10-17T08:29:18Z</time>
      </trkpt>
      <trkpt lat="48.24664" lon="7.30011">
        <ele>561.79998779297</ele>
        <time>2020-10-17T08:29:36Z</time>
      </trkpt>
      <trkpt lat="48.24655" lon="7.30013">
        <ele>563.40002441406</ele>
        <time>2020-10-17T08:29:46Z</time>
      </trkpt>
      <trkpt lat="48.24646" lon="7.30023">
        <ele>564.79998779297</ele>
        <time>2020-10-17T08:29:58Z</time>
      </trkpt>
      <trkpt lat="48.24639" lon="7.30039">
        <ele>566.20001220703</ele>
        <time>2020-10-17T08:30:10Z</time>
      </trkpt>
      <trkpt lat="48.24628" lon="7.30053">
        <ele>567.40002441406</ele>
        <time>2020-10-17T08:30:25Z</time>
      </trkpt>
      <trkpt lat="48.24619" lon="7.30059">
        <ele>568.40002441406</ele>
        <time>2020-10-17T08:30:38Z</time>
      </trkpt>
      <trkpt lat="48.24611" lon="7.30049">
        <ele>570.40002441406</ele>
        <time>2020-10-17T08:30:53Z</time>
      </trkpt>
      <trkpt lat="48.2461" lon="7.3004">
        <ele>572</ele>
        <time>2020-10-17T08:31:03Z</time>
      </trkpt>
      <trkpt lat="48.24607" lon="7.30032">
        <ele>574</ele>
        <time>2020-10-17T08:31:15Z</time>
      </trkpt>
      <trkpt lat="48.24603" lon="7.30021">
        <ele>576.40002441406</ele>
        <time>2020-10-17T08:31:28Z</time>
      </trkpt>
      <trkpt lat="48.24601" lon="7.30017">
        <ele>577</ele>
        <time>2020-10-17T08:31:32Z</time>
      </trkpt>
      <trkpt lat="48.24596" lon="7.30002">
        <ele>579.20001220703</ele>
        <time>2020-10-17T08:31:47Z</time>
      </trkpt>
      <trkpt lat="48.24589" lon="7.29989">
        <ele>581.59997558594</ele>
        <time>2020-10-17T08:32:03Z</time>
      </trkpt>
      <trkpt lat="48.2458" lon="7.29978">
        <ele>583.79998779297</ele>
        <time>2020-10-17T08:32:16Z</time>
      </trkpt>
      <trkpt lat="48.24572" lon="7.29964">
        <ele>585</ele>
        <time>2020-10-17T08:32:26Z</time>
      </trkpt>
      <trkpt lat="48.24568" lon="7.29952">
        <ele>586.79998779297</ele>
        <time>2020-10-17T08:32:39Z</time>
      </trkpt>
      <trkpt lat="48.24564" lon="7.29938">
        <ele>588.59997558594</ele>
        <time>2020-10-17T08:32:51Z</time>
      </trkpt>
      <trkpt lat="48.24562" lon="7.29934">
        <ele>589.20001220703</ele>
        <time>2020-10-17T08:32:55Z</time>
      </trkpt>
      <trkpt lat="48.24558" lon="7.29923">
        <ele>590.40002441406</ele>
        <time>2020-10-17T08:33:06Z</time>
      </trkpt>
      <trkpt lat="48.24555" lon="7.2991">
        <ele>592.20001220703</ele>
        <time>2020-10-17T08:33:17Z</time>
      </trkpt>
      <trkpt lat="48.24551" lon="7.29895">
        <ele>593.79998779297</ele>
        <time>2020-10-17T08:33:30Z</time>
      </trkpt>
      <trkpt lat="48.24549" lon="7.29889">
        <ele>594.20001220703</ele>
        <time>2020-10-17T08:33:34Z</time>
      </trkpt>
      <trkpt lat="48.24545" lon="7.29871">
        <ele>596</ele>
        <time>2020-10-17T08:33:48Z</time>
      </trkpt>
      <trkpt lat="48.24534" lon="7.29852">
        <ele>597.40002441406</ele>
        <time>2020-10-17T08:34:02Z</time>
      </trkpt>
      <trkpt lat="48.24528" lon="7.29835">
        <ele>599</ele>
        <time>2020-10-17T08:34:14Z</time>
      </trkpt>
      <trkpt lat="48.24523" lon="7.29821">
        <ele>600.20001220703</ele>
        <time>2020-10-17T08:34:25Z</time>
      </trkpt>
      <trkpt lat="48.24519" lon="7.29808">
        <ele>601.79998779297</ele>
        <time>2020-10-17T08:34:37Z</time>
      </trkpt>
      <trkpt lat="48.24514" lon="7.29788">
        <ele>603.59997558594</ele>
        <time>2020-10-17T08:34:54Z</time>
      </trkpt>
      <trkpt lat="48.24506" lon="7.29769">
        <ele>605</ele>
        <time>2020-10-17T08:35:06Z</time>
      </trkpt>
      <trkpt lat="48.24501" lon="7.29754">
        <ele>606.20001220703</ele>
        <time>2020-10-17T08:35:17Z</time>
      </trkpt>
      <trkpt lat="48.245" lon="7.29735">
        <ele>608.40002441406</ele>
        <time>2020-10-17T08:35:31Z</time>
      </trkpt>
      <trkpt lat="48.24495" lon="7.29723">
        <ele>610.40002441406</ele>
        <time>2020-10-17T08:35:43Z</time>
      </trkpt>
      <trkpt lat="48.24491" lon="7.2971">
        <ele>611.59997558594</ele>
        <time>2020-10-17T08:35:52Z</time>
      </trkpt>
      <trkpt lat="48.24489" lon="7.29702">
        <ele>612.79998779297</ele>
        <time>2020-10-17T08:36:02Z</time>
      </trkpt>
      <trkpt lat="48.24489" lon="7.29696">
        <ele>613.79998779297</ele>
        <time>2020-10-17T08:36:07Z</time>
      </trkpt>
      <trkpt lat="48.24483" lon="7.29676">
        <ele>615.20001220703</ele>
        <time>2020-10-17T08:36:21Z</time>
      </trkpt>
      <trkpt lat="48.24481" lon="7.29661">
        <ele>616</ele>
        <time>2020-10-17T08:36:30Z</time>
      </trkpt>
      <trkpt lat="48.24479" lon="7.29646">
        <ele>617.20001220703</ele>
        <time>2020-10-17T08:36:41Z</time>
      </trkpt>
      <trkpt lat="48.24473" lon="7.29629">
        <ele>618.59997558594</ele>
        <time>2020-10-17T08:36:52Z</time>
      </trkpt>
      <trkpt lat="48.24467" lon="7.29614">
        <ele>620.20001220703</ele>
        <time>2020-10-17T08:37:02Z</time>
      </trkpt>
      <trkpt lat="48.24458" lon="7.29603">
        <ele>621.79998779297</ele>
        <time>2020-10-17T08:37:15Z</time>
      </trkpt>
      <trkpt lat="48.24453" lon="7.2959">
        <ele>623.79998779297</ele>
        <time>2020-10-17T08:37:26Z</time>
      </trkpt>
      <trkpt lat="48.24446" lon="7.29576">
        <ele>625.79998779297</ele>
        <time>2020-10-17T08:37:39Z</time>
      </trkpt>
      <trkpt lat="48.24436" lon="7.29568">
        <ele>628.40002441406</ele>
        <time>2020-10-17T08:37:54Z</time>
      </trkpt>
      <trkpt lat="48.24427" lon="7.29562">
        <ele>630.59997558594</ele>
        <time>2020-10-17T08:38:07Z</time>
      </trkpt>
      <trkpt lat="48.24426" lon="7.29561">
        <ele>630.59997558594</ele>
        <time>2020-10-17T08:38:08Z</time>
      </trkpt>
      <trkpt lat="48.2442" lon="7.29548">
        <ele>632.79998779297</ele>
        <time>2020-10-17T08:38:20Z</time>
      </trkpt>
      <trkpt lat="48.24412" lon="7.29534">
        <ele>635.20001220703</ele>
        <time>2020-10-17T08:38:34Z</time>
      </trkpt>
      <trkpt lat="48.24404" lon="7.2952">
        <ele>637.59997558594</ele>
        <time>2020-10-17T08:38:48Z</time>
      </trkpt>
      <trkpt lat="48.24402" lon="7.29514">
        <ele>639.40002441406</ele>
        <time>2020-10-17T08:38:57Z</time>
      </trkpt>
      <trkpt lat="48.24395" lon="7.29497">
        <ele>641.79998779297</ele>
        <time>2020-10-17T08:39:12Z</time>
      </trkpt>
      <trkpt lat="48.24391" lon="7.29485">
        <ele>643.59997558594</ele>
        <time>2020-10-17T08:39:23Z</time>
      </trkpt>
      <trkpt lat="48.24386" lon="7.29468">
        <ele>646</ele>
        <time>2020-10-17T08:39:39Z</time>
      </trkpt>
      <trkpt lat="48.24379" lon="7.29448">
        <ele>649</ele>
        <time>2020-10-17T08:39:59Z</time>
      </trkpt>
      <trkpt lat="48.24372" lon="7.29429">
        <ele>651.79998779297</ele>
        <time>2020-10-17T08:40:18Z</time>
      </trkpt>
      <trkpt lat="48.24363" lon="7.29413">
        <ele>654.79998779297</ele>
        <time>2020-10-17T08:40:36Z</time>
      </trkpt>
      <trkpt lat="48.2436" lon="7.29402">
        <ele>657.79998779297</ele>
        <time>2020-10-17T08:40:50Z</time>
      </trkpt>
      <trkpt lat="48.2435" lon="7.29393">
        <ele>661</ele>
        <time>2020-10-17T08:41:04Z</time>
      </trkpt>
      <trkpt lat="48.24341" lon="7.29376">
        <ele>663.59997558594</ele>
        <time>2020-10-17T08:41:22Z</time>
      </trkpt>
      <trkpt lat="48.24335" lon="7.29364">
        <ele>665.59997558594</ele>
        <time>2020-10-17T08:41:34Z</time>
      </trkpt>
      <trkpt lat="48.24327" lon="7.29355">
        <ele>667.59997558594</ele>
        <time>2020-10-17T08:41:50Z</time>
      </trkpt>
      <trkpt lat="48.2432" lon="7.29359">
        <ele>667.79998779297</ele>
        <time>2020-10-17T08:42:10Z</time>
      </trkpt>
      <trkpt lat="48.24312" lon="7.29366">
        <ele>667.59997558594</ele>
        <time>2020-10-17T08:42:19Z</time>
      </trkpt>
      <trkpt lat="48.24311" lon="7.29367">
        <ele>667.59997558594</ele>
        <time>2020-10-17T08:42:20Z</time>
      </trkpt>
      <trkpt lat="48.2431" lon="7.29369">
        <ele>667.59997558594</ele>
        <time>2020-10-17T08:42:21Z</time>
      </trkpt>
      <trkpt lat="48.24308" lon="7.29371">
        <ele>667.40002441406</ele>
        <time>2020-10-17T08:42:22Z</time>
      </trkpt>
      <trkpt lat="48.24307" lon="7.29372">
        <ele>667.40002441406</ele>
        <time>2020-10-17T08:42:23Z</time>
      </trkpt>
      <trkpt lat="48.24299" lon="7.29395">
        <ele>667.20001220703</ele>
        <time>2020-10-17T08:42:38Z</time>
      </trkpt>
      <trkpt lat="48.24299" lon="7.29405">
        <ele>667.40002441406</ele>
        <time>2020-10-17T08:42:43Z</time>
      </trkpt>
      <trkpt lat="48.24292" lon="7.2941">
        <ele>668</ele>
        <time>2020-10-17T08:42:52Z</time>
      </trkpt>
      <trkpt lat="48.24283" lon="7.29392">
        <ele>668.20001220703</ele>
        <time>2020-10-17T08:43:06Z</time>
      </trkpt>
      <trkpt lat="48.24279" lon="7.2937">
        <ele>668.79998779297</ele>
        <time>2020-10-17T08:43:19Z</time>
      </trkpt>
      <trkpt lat="48.24282" lon="7.2936">
        <ele>669.20001220703</ele>
        <time>2020-10-17T08:43:32Z</time>
      </trkpt>
      <trkpt lat="48.24285" lon="7.29361">
        <ele>668.79998779297</ele>
        <time>2020-10-17T08:43:59Z</time>
      </trkpt>
      <trkpt lat="48.24283" lon="7.29352">
        <ele>669</ele>
        <time>2020-10-17T08:44:11Z</time>
      </trkpt>
      <trkpt lat="48.24283" lon="7.2935">
        <ele>669</ele>
        <time>2020-10-17T08:44:12Z</time>
      </trkpt>
      <trkpt lat="48.24283" lon="7.29348">
        <ele>669</ele>
        <time>2020-10-17T08:44:13Z</time>
      </trkpt>
      <trkpt lat="48.2428" lon="7.2933">
        <ele>669.20001220703</ele>
        <time>2020-10-17T08:44:26Z</time>
      </trkpt>
      <trkpt lat="48.2428" lon="7.29324">
        <ele>669.40002441406</ele>
        <time>2020-10-17T08:44:40Z</time>
      </trkpt>
      <trkpt lat="48.2428" lon="7.29323">
        <ele>669.40002441406</ele>
        <time>2020-10-17T08:44:41Z</time>
      </trkpt>
      <trkpt lat="48.2428" lon="7.29321">
        <ele>669.40002441406</ele>
        <time>2020-10-17T08:44:42Z</time>
      </trkpt>
      <trkpt lat="48.2428" lon="7.29319">
        <ele>669.40002441406</ele>
        <time>2020-10-17T08:44:43Z</time>
      </trkpt>
      <trkpt lat="48.2428" lon="7.29318">
        <ele>669.40002441406</ele>
        <time>2020-10-17T08:44:44Z</time>
      </trkpt>
      <trkpt lat="48.24284" lon="7.29322">
        <ele>669.40002441406</ele>
        <time>2020-10-17T08:44:49Z</time>
      </trkpt>
      <trkpt lat="48.24284" lon="7.29331">
        <ele>669</ele>
        <time>2020-10-17T08:45:05Z</time>
      </trkpt>
      <trkpt lat="48.24283" lon="7.29337">
        <ele>669.20001220703</ele>
        <time>2020-10-17T08:45:22Z</time>
      </trkpt>
      <trkpt lat="48.2428" lon="7.29322">
        <ele>669.20001220703</ele>
        <time>2020-10-17T08:45:38Z</time>
      </trkpt>
      <trkpt lat="48.24278" lon="7.29308">
        <ele>670.20001220703</ele>
        <time>2020-10-17T08:45:59Z</time>
      </trkpt>
      <trkpt lat="48.24275" lon="7.29306">
        <ele>670.20001220703</ele>
        <time>2020-10-17T08:46:14Z</time>
      </trkpt>
      <trkpt lat="48.24274" lon="7.29304">
        <ele>670.20001220703</ele>
        <time>2020-10-17T08:46:16Z</time>
      </trkpt>
      <trkpt lat="48.24275" lon="7.29293">
        <ele>670.40002441406</ele>
        <time>2020-10-17T08:46:22Z</time>
      </trkpt>
      <trkpt lat="48.24276" lon="7.29288">
        <ele>670.59997558594</ele>
        <time>2020-10-17T08:46:25Z</time>
      </trkpt>
      <trkpt lat="48.24278" lon="7.29277">
        <ele>670.79998779297</ele>
        <time>2020-10-17T08:46:31Z</time>
      </trkpt>
      <trkpt lat="48.24282" lon="7.29247">
        <ele>672.20001220703</ele>
        <time>2020-10-17T08:46:47Z</time>
      </trkpt>
      <trkpt lat="48.24281" lon="7.29209">
        <ele>673.20001220703</ele>
        <time>2020-10-17T08:47:04Z</time>
      </trkpt>
      <trkpt lat="48.24275" lon="7.29184">
        <ele>673.59997558594</ele>
        <time>2020-10-17T08:47:19Z</time>
      </trkpt>
      <trkpt lat="48.24276" lon="7.29175">
        <ele>673.79998779297</ele>
        <time>2020-10-17T08:47:23Z</time>
      </trkpt>
      <trkpt lat="48.24284" lon="7.29127">
        <ele>674</ele>
        <time>2020-10-17T08:47:43Z</time>
      </trkpt>
      <trkpt lat="48.24288" lon="7.29094">
        <ele>674.20001220703</ele>
        <time>2020-10-17T08:47:59Z</time>
      </trkpt>
      <trkpt lat="48.24297" lon="7.29062">
        <ele>674</ele>
        <time>2020-10-17T08:48:15Z</time>
      </trkpt>
      <trkpt lat="48.24302" lon="7.29027">
        <ele>674</ele>
        <time>2020-10-17T08:48:32Z</time>
      </trkpt>
      <trkpt lat="48.24304" lon="7.29017">
        <ele>673.79998779297</ele>
        <time>2020-10-17T08:48:46Z</time>
      </trkpt>
      <trkpt lat="48.24311" lon="7.28991">
        <ele>674</ele>
        <time>2020-10-17T08:49:05Z</time>
      </trkpt>
      <trkpt lat="48.24313" lon="7.28962">
        <ele>674</ele>
        <time>2020-10-17T08:49:20Z</time>
      </trkpt>
      <trkpt lat="48.24313" lon="7.28958">
        <ele>674</ele>
        <time>2020-10-17T08:49:22Z</time>
      </trkpt>
      <trkpt lat="48.24313" lon="7.28956">
        <ele>674.20001220703</ele>
        <time>2020-10-17T08:49:23Z</time>
      </trkpt>
      <trkpt lat="48.24314" lon="7.28954">
        <ele>674.20001220703</ele>
        <time>2020-10-17T08:49:24Z</time>
      </trkpt>
      <trkpt lat="48.24314" lon="7.28952">
        <ele>674.20001220703</ele>
        <time>2020-10-17T08:49:25Z</time>
      </trkpt>
      <trkpt lat="48.24315" lon="7.2895">
        <ele>674.20001220703</ele>
        <time>2020-10-17T08:49:26Z</time>
      </trkpt>
      <trkpt lat="48.24316" lon="7.28948">
        <ele>674.20001220703</ele>
        <time>2020-10-17T08:49:27Z</time>
      </trkpt>
      <trkpt lat="48.24316" lon="7.28946">
        <ele>674.20001220703</ele>
        <time>2020-10-17T08:49:28Z</time>
      </trkpt>
      <trkpt lat="48.24324" lon="7.28917">
        <ele>674</ele>
        <time>2020-10-17T08:49:44Z</time>
      </trkpt>
      <trkpt lat="48.24326" lon="7.28904">
        <ele>674</ele>
        <time>2020-10-17T08:49:51Z</time>
      </trkpt>
      <trkpt lat="48.24327" lon="7.28903">
        <ele>673.79998779297</ele>
        <time>2020-10-17T08:49:52Z</time>
      </trkpt>
      <trkpt lat="48.24328" lon="7.28901">
        <ele>673.79998779297</ele>
        <time>2020-10-17T08:49:53Z</time>
      </trkpt>
      <trkpt lat="48.24329" lon="7.28899">
        <ele>673.79998779297</ele>
        <time>2020-10-17T08:49:54Z</time>
      </trkpt>
      <trkpt lat="48.24329" lon="7.28897">
        <ele>673.79998779297</ele>
        <time>2020-10-17T08:49:55Z</time>
      </trkpt>
      <trkpt lat="48.2433" lon="7.28895">
        <ele>674</ele>
        <time>2020-10-17T08:49:56Z</time>
      </trkpt>
      <trkpt lat="48.24331" lon="7.28889">
        <ele>674</ele>
        <time>2020-10-17T08:49:59Z</time>
      </trkpt>
      <trkpt lat="48.24332" lon="7.28887">
        <ele>674</ele>
        <time>2020-10-17T08:50:00Z</time>
      </trkpt>
      <trkpt lat="48.24334" lon="7.28885">
        <ele>674</ele>
        <time>2020-10-17T08:50:01Z</time>
      </trkpt>
      <trkpt lat="48.24335" lon="7.28883">
        <ele>674</ele>
        <time>2020-10-17T08:50:02Z</time>
      </trkpt>
      <trkpt lat="48.24336" lon="7.28881">
        <ele>674</ele>
        <time>2020-10-17T08:50:03Z</time>
      </trkpt>
      <trkpt lat="48.24337" lon="7.28879">
        <ele>674</ele>
        <time>2020-10-17T08:50:04Z</time>
      </trkpt>
      <trkpt lat="48.24337" lon="7.28878">
        <ele>674</ele>
        <time>2020-10-17T08:50:05Z</time>
      </trkpt>
      <trkpt lat="48.24338" lon="7.28876">
        <ele>674</ele>
        <time>2020-10-17T08:50:06Z</time>
      </trkpt>
      <trkpt lat="48.24346" lon="7.28851">
        <ele>674</ele>
        <time>2020-10-17T08:50:21Z</time>
      </trkpt>
      <trkpt lat="48.2435" lon="7.28843">
        <ele>673.20001220703</ele>
        <time>2020-10-17T08:50:34Z</time>
      </trkpt>
      <trkpt lat="48.24351" lon="7.28842">
        <ele>673.20001220703</ele>
        <time>2020-10-17T08:50:35Z</time>
      </trkpt>
      <trkpt lat="48.24352" lon="7.2884">
        <ele>673.20001220703</ele>
        <time>2020-10-17T08:50:36Z</time>
      </trkpt>
      <trkpt lat="48.24352" lon="7.28838">
        <ele>673.20001220703</ele>
        <time>2020-10-17T08:50:37Z</time>
      </trkpt>
      <trkpt lat="48.2436" lon="7.28822">
        <ele>674</ele>
        <time>2020-10-17T08:50:48Z</time>
      </trkpt>
      <trkpt lat="48.24361" lon="7.28819">
        <ele>674.20001220703</ele>
        <time>2020-10-17T08:51:00Z</time>
      </trkpt>
      <trkpt lat="48.24359" lon="7.28815">
        <ele>674.20001220703</ele>
        <time>2020-10-17T08:51:26Z</time>
      </trkpt>
      <trkpt lat="48.24365" lon="7.28798">
        <ele>674.20001220703</ele>
        <time>2020-10-17T08:51:48Z</time>
      </trkpt>
      <trkpt lat="48.2437" lon="7.28792">
        <ele>674.40002441406</ele>
        <time>2020-10-17T08:51:52Z</time>
      </trkpt>
      <trkpt lat="48.24372" lon="7.2879">
        <ele>674.40002441406</ele>
        <time>2020-10-17T08:51:53Z</time>
      </trkpt>
      <trkpt lat="48.24373" lon="7.28788">
        <ele>674.40002441406</ele>
        <time>2020-10-17T08:51:54Z</time>
      </trkpt>
      <trkpt lat="48.24383" lon="7.28774">
        <ele>674.59997558594</ele>
        <time>2020-10-17T08:52:05Z</time>
      </trkpt>
      <trkpt lat="48.24384" lon="7.28773">
        <ele>674.79998779297</ele>
        <time>2020-10-17T08:52:06Z</time>
      </trkpt>
      <trkpt lat="48.24386" lon="7.28772">
        <ele>674.79998779297</ele>
        <time>2020-10-17T08:52:07Z</time>
      </trkpt>
      <trkpt lat="48.24387" lon="7.28771">
        <ele>674.79998779297</ele>
        <time>2020-10-17T08:52:08Z</time>
      </trkpt>
      <trkpt lat="48.24388" lon="7.28769">
        <ele>674.79998779297</ele>
        <time>2020-10-17T08:52:09Z</time>
      </trkpt>
      <trkpt lat="48.24401" lon="7.28758">
        <ele>674.79998779297</ele>
        <time>2020-10-17T08:52:17Z</time>
      </trkpt>
      <trkpt lat="48.24414" lon="7.28733">
        <ele>675.20001220703</ele>
        <time>2020-10-17T08:52:32Z</time>
      </trkpt>
      <trkpt lat="48.24428" lon="7.28725">
        <ele>675.40002441406</ele>
        <time>2020-10-17T08:52:46Z</time>
      </trkpt>
      <trkpt lat="48.24448" lon="7.28704">
        <ele>676</ele>
        <time>2020-10-17T08:53:05Z</time>
      </trkpt>
      <trkpt lat="48.24458" lon="7.28683">
        <ele>676.59997558594</ele>
        <time>2020-10-17T08:53:18Z</time>
      </trkpt>
      <trkpt lat="48.24466" lon="7.28669">
        <ele>677.20001220703</ele>
        <time>2020-10-17T08:53:28Z</time>
      </trkpt>
      <trkpt lat="48.24469" lon="7.28665">
        <ele>677.20001220703</ele>
        <time>2020-10-17T08:53:30Z</time>
      </trkpt>
      <trkpt lat="48.24487" lon="7.28644">
        <ele>678.40002441406</ele>
        <time>2020-10-17T08:53:46Z</time>
      </trkpt>
      <trkpt lat="48.24503" lon="7.28623">
        <ele>680.79998779297</ele>
        <time>2020-10-17T08:54:03Z</time>
      </trkpt>
      <trkpt lat="48.24506" lon="7.28622">
        <ele>681.20001220703</ele>
        <time>2020-10-17T08:54:05Z</time>
      </trkpt>
      <trkpt lat="48.24518" lon="7.28613">
        <ele>682.40002441406</ele>
        <time>2020-10-17T08:54:15Z</time>
      </trkpt>
      <trkpt lat="48.24521" lon="7.28611">
        <ele>682.59997558594</ele>
        <time>2020-10-17T08:54:17Z</time>
      </trkpt>
      <trkpt lat="48.24522" lon="7.28609">
        <ele>682.79998779297</ele>
        <time>2020-10-17T08:54:18Z</time>
      </trkpt>
      <trkpt lat="48.24538" lon="7.28597">
        <ele>684.79998779297</ele>
        <time>2020-10-17T08:54:33Z</time>
      </trkpt>
      <trkpt lat="48.2455" lon="7.28584">
        <ele>687.20001220703</ele>
        <time>2020-10-17T08:54:52Z</time>
      </trkpt>
      <trkpt lat="48.24558" lon="7.28571">
        <ele>688.20001220703</ele>
        <time>2020-10-17T08:55:01Z</time>
      </trkpt>
      <trkpt lat="48.24559" lon="7.28569">
        <ele>688.40002441406</ele>
        <time>2020-10-17T08:55:02Z</time>
      </trkpt>
      <trkpt lat="48.24561" lon="7.28566">
        <ele>688.40002441406</ele>
        <time>2020-10-17T08:55:03Z</time>
      </trkpt>
      <trkpt lat="48.24564" lon="7.28544">
        <ele>689.79998779297</ele>
        <time>2020-10-17T08:55:14Z</time>
      </trkpt>
      <trkpt lat="48.24564" lon="7.2854">
        <ele>690</ele>
        <time>2020-10-17T08:55:15Z</time>
      </trkpt>
      <trkpt lat="48.24562" lon="7.28527">
        <ele>690.79998779297</ele>
        <time>2020-10-17T08:55:21Z</time>
      </trkpt>
      <trkpt lat="48.24561" lon="7.28525">
        <ele>690.79998779297</ele>
        <time>2020-10-17T08:55:22Z</time>
      </trkpt>
      <trkpt lat="48.24561" lon="7.28522">
        <ele>691</ele>
        <time>2020-10-17T08:55:23Z</time>
      </trkpt>
      <trkpt lat="48.24562" lon="7.28495">
        <ele>692.59997558594</ele>
        <time>2020-10-17T08:55:36Z</time>
      </trkpt>
      <trkpt lat="48.24556" lon="7.28459">
        <ele>695.40002441406</ele>
        <time>2020-10-17T08:55:56Z</time>
      </trkpt>
      <trkpt lat="48.24555" lon="7.28457">
        <ele>695.40002441406</ele>
        <time>2020-10-17T08:55:57Z</time>
      </trkpt>
      <trkpt lat="48.24554" lon="7.28455">
        <ele>695.59997558594</ele>
        <time>2020-10-17T08:55:58Z</time>
      </trkpt>
      <trkpt lat="48.24549" lon="7.28436">
        <ele>697.40002441406</ele>
        <time>2020-10-17T08:56:11Z</time>
      </trkpt>
      <trkpt lat="48.24519" lon="7.28418">
        <ele>700.40002441406</ele>
        <time>2020-10-17T08:56:35Z</time>
      </trkpt>
      <trkpt lat="48.24497" lon="7.28389">
        <ele>703</ele>
        <time>2020-10-17T08:56:56Z</time>
      </trkpt>
      <trkpt lat="48.24486" lon="7.28369">
        <ele>704.79998779297</ele>
        <time>2020-10-17T08:57:10Z</time>
      </trkpt>
      <trkpt lat="48.24485" lon="7.28367">
        <ele>705</ele>
        <time>2020-10-17T08:57:11Z</time>
      </trkpt>
      <trkpt lat="48.24473" lon="7.28344">
        <ele>707.20001220703</ele>
        <time>2020-10-17T08:57:28Z</time>
      </trkpt>
      <trkpt lat="48.24471" lon="7.28319">
        <ele>708.79998779297</ele>
        <time>2020-10-17T08:57:41Z</time>
      </trkpt>
      <trkpt lat="48.24462" lon="7.28294">
        <ele>711.59997558594</ele>
        <time>2020-10-17T08:57:57Z</time>
      </trkpt>
      <trkpt lat="48.24459" lon="7.28272">
        <ele>713.20001220703</ele>
        <time>2020-10-17T08:58:12Z</time>
      </trkpt>
      <trkpt lat="48.24459" lon="7.28239">
        <ele>715.20001220703</ele>
        <time>2020-10-17T08:58:28Z</time>
      </trkpt>
      <trkpt lat="48.24453" lon="7.28215">
        <ele>716.59997558594</ele>
        <time>2020-10-17T08:58:41Z</time>
      </trkpt>
      <trkpt lat="48.24448" lon="7.28193">
        <ele>718.59997558594</ele>
        <time>2020-10-17T08:58:53Z</time>
      </trkpt>
      <trkpt lat="48.24441" lon="7.28174">
        <ele>719.59997558594</ele>
        <time>2020-10-17T08:59:04Z</time>
      </trkpt>
      <trkpt lat="48.2444" lon="7.28173">
        <ele>719.79998779297</ele>
        <time>2020-10-17T08:59:05Z</time>
      </trkpt>
      <trkpt lat="48.24432" lon="7.28164">
        <ele>720.79998779297</ele>
        <time>2020-10-17T08:59:14Z</time>
      </trkpt>
      <trkpt lat="48.24425" lon="7.28159">
        <ele>721.20001220703</ele>
        <time>2020-10-17T08:59:30Z</time>
      </trkpt>
      <trkpt lat="48.24407" lon="7.2817">
        <ele>721.20001220703</ele>
        <time>2020-10-17T08:59:48Z</time>
      </trkpt>
      <trkpt lat="48.24413" lon="7.28172">
        <ele>721</ele>
        <time>2020-10-17T09:00:13Z</time>
      </trkpt>
      <trkpt lat="48.24416" lon="7.28164">
        <ele>721</ele>
        <time>2020-10-17T09:00:18Z</time>
      </trkpt>
      <trkpt lat="48.24408" lon="7.28132">
        <ele>722.40002441406</ele>
        <time>2020-10-17T09:00:35Z</time>
      </trkpt>
      <trkpt lat="48.24403" lon="7.28101">
        <ele>723.79998779297</ele>
        <time>2020-10-17T09:00:51Z</time>
      </trkpt>
      <trkpt lat="48.24404" lon="7.28084">
        <ele>724.59997558594</ele>
        <time>2020-10-17T09:01:01Z</time>
      </trkpt>
      <trkpt lat="48.24403" lon="7.28082">
        <ele>724.79998779297</ele>
        <time>2020-10-17T09:01:02Z</time>
      </trkpt>
      <trkpt lat="48.24403" lon="7.28057">
        <ele>726</ele>
        <time>2020-10-17T09:01:18Z</time>
      </trkpt>
      <trkpt lat="48.24402" lon="7.28028">
        <ele>728.40002441406</ele>
        <time>2020-10-17T09:01:35Z</time>
      </trkpt>
      <trkpt lat="48.24396" lon="7.28016">
        <ele>729.20001220703</ele>
        <time>2020-10-17T09:02:00Z</time>
      </trkpt>
      <trkpt lat="48.24392" lon="7.2801">
        <ele>729.20001220703</ele>
        <time>2020-10-17T09:02:33Z</time>
      </trkpt>
      <trkpt lat="48.24388" lon="7.28005">
        <ele>729.59997558594</ele>
        <time>2020-10-17T09:03:01Z</time>
      </trkpt>
      <trkpt lat="48.24392" lon="7.28006">
        <ele>729.59997558594</ele>
        <time>2020-10-17T09:03:31Z</time>
      </trkpt>
      <trkpt lat="48.24395" lon="7.28011">
        <ele>729.59997558594</ele>
        <time>2020-10-17T09:04:04Z</time>
      </trkpt>
      <trkpt lat="48.244" lon="7.28017">
        <ele>729.59997558594</ele>
        <time>2020-10-17T09:04:37Z</time>
      </trkpt>
      <trkpt lat="48.24403" lon="7.2802">
        <ele>729.59997558594</ele>
        <time>2020-10-17T09:05:05Z</time>
      </trkpt>
      <trkpt lat="48.24397" lon="7.28026">
        <ele>729.59997558594</ele>
        <time>2020-10-17T09:05:33Z</time>
      </trkpt>
      <trkpt lat="48.24391" lon="7.28014">
        <ele>729.59997558594</ele>
        <time>2020-10-17T09:05:48Z</time>
      </trkpt>
      <trkpt lat="48.24389" lon="7.2801">
        <ele>729.59997558594</ele>
        <time>2020-10-17T09:06:03Z</time>
      </trkpt>
      <trkpt lat="48.24369" lon="7.28014">
        <ele>732</ele>
        <time>2020-10-17T09:06:18Z</time>
      </trkpt>
      <trkpt lat="48.24351" lon="7.28031">
        <ele>735.20001220703</ele>
        <time>2020-10-17T09:06:40Z</time>
      </trkpt>
      <trkpt lat="48.24339" lon="7.28056">
        <ele>737.20001220703</ele>
        <time>2020-10-17T09:07:01Z</time>
      </trkpt>
      <trkpt lat="48.24328" lon="7.28063">
        <ele>737.79998779297</ele>
        <time>2020-10-17T09:07:10Z</time>
      </trkpt>
      <trkpt lat="48.2431" lon="7.28079">
        <ele>739.40002441406</ele>
        <time>2020-10-17T09:07:28Z</time>
      </trkpt>
      <trkpt lat="48.24295" lon="7.28083">
        <ele>740.20001220703</ele>
        <time>2020-10-17T09:07:43Z</time>
      </trkpt>
      <trkpt lat="48.24282" lon="7.28079">
        <ele>742.20001220703</ele>
        <time>2020-10-17T09:08:01Z</time>
      </trkpt>
      <trkpt lat="48.24281" lon="7.28075">
        <ele>744.79998779297</ele>
        <time>2020-10-17T09:08:18Z</time>
      </trkpt>
      <trkpt lat="48.24271" lon="7.28068">
        <ele>748</ele>
        <time>2020-10-17T09:08:35Z</time>
      </trkpt>
      <trkpt lat="48.24259" lon="7.28055">
        <ele>750.59997558594</ele>
        <time>2020-10-17T09:08:51Z</time>
      </trkpt>
      <trkpt lat="48.2425" lon="7.2805">
        <ele>752</ele>
        <time>2020-10-17T09:09:01Z</time>
      </trkpt>
      <trkpt lat="48.2424" lon="7.2804">
        <ele>754.20001220703</ele>
        <time>2020-10-17T09:09:15Z</time>
      </trkpt>
      <trkpt lat="48.24229" lon="7.28033">
        <ele>755.79998779297</ele>
        <time>2020-10-17T09:09:29Z</time>
      </trkpt>
      <trkpt lat="48.24221" lon="7.2803">
        <ele>757.59997558594</ele>
        <time>2020-10-17T09:09:40Z</time>
      </trkpt>
      <trkpt lat="48.24217" lon="7.28026">
        <ele>758.40002441406</ele>
        <time>2020-10-17T09:09:45Z</time>
      </trkpt>
      <trkpt lat="48.24207" lon="7.28018">
        <ele>760.40002441406</ele>
        <time>2020-10-17T09:09:58Z</time>
      </trkpt>
      <trkpt lat="48.24197" lon="7.28012">
        <ele>763</ele>
        <time>2020-10-17T09:10:13Z</time>
      </trkpt>
      <trkpt lat="48.24185" lon="7.28002">
        <ele>765.20001220703</ele>
        <time>2020-10-17T09:10:29Z</time>
      </trkpt>
      <trkpt lat="48.24174" lon="7.27989">
        <ele>767.79998779297</ele>
        <time>2020-10-17T09:10:48Z</time>
      </trkpt>
      <trkpt lat="48.24165" lon="7.27984">
        <ele>769.79998779297</ele>
        <time>2020-10-17T09:11:09Z</time>
      </trkpt>
      <trkpt lat="48.24159" lon="7.27976">
        <ele>770.79998779297</ele>
        <time>2020-10-17T09:11:31Z</time>
      </trkpt>
      <trkpt lat="48.24152" lon="7.27965">
        <ele>772.40002441406</ele>
        <time>2020-10-17T09:11:45Z</time>
      </trkpt>
      <trkpt lat="48.24148" lon="7.27962">
        <ele>773.59997558594</ele>
        <time>2020-10-17T09:11:53Z</time>
      </trkpt>
      <trkpt lat="48.24152" lon="7.27956">
        <ele>774.20001220703</ele>
        <time>2020-10-17T09:12:22Z</time>
      </trkpt>
      <trkpt lat="48.2415" lon="7.27949">
        <ele>774.40002441406</ele>
        <time>2020-10-17T09:12:40Z</time>
      </trkpt>
      <trkpt lat="48.2415" lon="7.27947">
        <ele>774.40002441406</ele>
        <time>2020-10-17T09:12:41Z</time>
      </trkpt>
      <trkpt lat="48.24135" lon="7.27945">
        <ele>775.59997558594</ele>
        <time>2020-10-17T09:12:57Z</time>
      </trkpt>
      <trkpt lat="48.24123" lon="7.27943">
        <ele>778.79998779297</ele>
        <time>2020-10-17T09:13:13Z</time>
      </trkpt>
      <trkpt lat="48.24121" lon="7.2794">
        <ele>779.40002441406</ele>
        <time>2020-10-17T09:13:20Z</time>
      </trkpt>
      <trkpt lat="48.24104" lon="7.27941">
        <ele>781.40002441406</ele>
        <time>2020-10-17T09:13:35Z</time>
      </trkpt>
      <trkpt lat="48.24084" lon="7.27939">
        <ele>784</ele>
        <time>2020-10-17T09:13:53Z</time>
      </trkpt>
      <trkpt lat="48.24075" lon="7.27937">
        <ele>785.40002441406</ele>
        <time>2020-10-17T09:14:03Z</time>
      </trkpt>
      <trkpt lat="48.24062" lon="7.27939">
        <ele>788</ele>
        <time>2020-10-17T09:14:22Z</time>
      </trkpt>
      <trkpt lat="48.24047" lon="7.27932">
        <ele>790</ele>
        <time>2020-10-17T09:14:37Z</time>
      </trkpt>
      <trkpt lat="48.24038" lon="7.27932">
        <ele>792</ele>
        <time>2020-10-17T09:14:49Z</time>
      </trkpt>
      <trkpt lat="48.24025" lon="7.27933">
        <ele>794.59997558594</ele>
        <time>2020-10-17T09:15:07Z</time>
      </trkpt>
      <trkpt lat="48.24017" lon="7.27929">
        <ele>797</ele>
        <time>2020-10-17T09:15:22Z</time>
      </trkpt>
      <trkpt lat="48.23993" lon="7.27926">
        <ele>799.59997558594</ele>
        <time>2020-10-17T09:15:38Z</time>
      </trkpt>
      <trkpt lat="48.23975" lon="7.27934">
        <ele>802.40002441406</ele>
        <time>2020-10-17T09:15:58Z</time>
      </trkpt>
      <trkpt lat="48.23969" lon="7.27941">
        <ele>804</ele>
        <time>2020-10-17T09:16:12Z</time>
      </trkpt>
      <trkpt lat="48.23953" lon="7.27942">
        <ele>806.59997558594</ele>
        <time>2020-10-17T09:16:29Z</time>
      </trkpt>
      <trkpt lat="48.23939" lon="7.27943">
        <ele>809.20001220703</ele>
        <time>2020-10-17T09:16:47Z</time>
      </trkpt>
      <trkpt lat="48.2392" lon="7.27951">
        <ele>812.20001220703</ele>
        <time>2020-10-17T09:17:07Z</time>
      </trkpt>
      <trkpt lat="48.23913" lon="7.27961">
        <ele>814.59997558594</ele>
        <time>2020-10-17T09:17:25Z</time>
      </trkpt>
      <trkpt lat="48.23894" lon="7.27965">
        <ele>817.40002441406</ele>
        <time>2020-10-17T09:17:45Z</time>
      </trkpt>
      <trkpt lat="48.23881" lon="7.27972">
        <ele>820.79998779297</ele>
        <time>2020-10-17T09:18:06Z</time>
      </trkpt>
      <trkpt lat="48.23866" lon="7.27982">
        <ele>823</ele>
        <time>2020-10-17T09:18:23Z</time>
      </trkpt>
      <trkpt lat="48.23854" lon="7.27985">
        <ele>825.59997558594</ele>
        <time>2020-10-17T09:18:38Z</time>
      </trkpt>
      <trkpt lat="48.2384" lon="7.27989">
        <ele>828.20001220703</ele>
        <time>2020-10-17T09:18:55Z</time>
      </trkpt>
      <trkpt lat="48.23829" lon="7.27998">
        <ele>829</ele>
        <time>2020-10-17T09:19:06Z</time>
      </trkpt>
      <trkpt lat="48.23826" lon="7.2801">
        <ele>829.40002441406</ele>
        <time>2020-10-17T09:19:16Z</time>
      </trkpt>
      <trkpt lat="48.23824" lon="7.28013">
        <ele>830</ele>
        <time>2020-10-17T09:19:35Z</time>
      </trkpt>
      <trkpt lat="48.23824" lon="7.28013">
        <ele>829.40002441406</ele>
        <time>2020-10-17T09:19:46Z</time>
      </trkpt>
      <trkpt lat="48.23816" lon="7.28009">
        <ele>830</ele>
        <time>2020-10-17T09:20:55Z</time>
      </trkpt>
      <trkpt lat="48.2381" lon="7.28015">
        <ele>833.20001220703</ele>
        <time>2020-10-17T09:21:14Z</time>
      </trkpt>
      <trkpt lat="48.23796" lon="7.28023">
        <ele>836.20001220703</ele>
        <time>2020-10-17T09:21:31Z</time>
      </trkpt>
      <trkpt lat="48.2379" lon="7.28023">
        <ele>837.20001220703</ele>
        <time>2020-10-17T09:21:38Z</time>
      </trkpt>
      <trkpt lat="48.2378" lon="7.28034">
        <ele>840.20001220703</ele>
        <time>2020-10-17T09:21:58Z</time>
      </trkpt>
      <trkpt lat="48.23765" lon="7.28035">
        <ele>842.79998779297</ele>
        <time>2020-10-17T09:22:16Z</time>
      </trkpt>
      <trkpt lat="48.23748" lon="7.28041">
        <ele>846</ele>
        <time>2020-10-17T09:22:38Z</time>
      </trkpt>
      <trkpt lat="48.23734" lon="7.28047">
        <ele>848.20001220703</ele>
        <time>2020-10-17T09:22:54Z</time>
      </trkpt>
      <trkpt lat="48.23721" lon="7.28043">
        <ele>850.79998779297</ele>
        <time>2020-10-17T09:23:12Z</time>
      </trkpt>
      <trkpt lat="48.23706" lon="7.28046">
        <ele>853.79998779297</ele>
        <time>2020-10-17T09:23:30Z</time>
      </trkpt>
      <trkpt lat="48.23692" lon="7.28046">
        <ele>856.79998779297</ele>
        <time>2020-10-17T09:23:52Z</time>
      </trkpt>
      <trkpt lat="48.23675" lon="7.28047">
        <ele>859.79998779297</ele>
        <time>2020-10-17T09:24:10Z</time>
      </trkpt>
      <trkpt lat="48.23659" lon="7.28047">
        <ele>862.59997558594</ele>
        <time>2020-10-17T09:24:30Z</time>
      </trkpt>
      <trkpt lat="48.23645" lon="7.28049">
        <ele>864.79998779297</ele>
        <time>2020-10-17T09:24:46Z</time>
      </trkpt>
      <trkpt lat="48.23629" lon="7.28047">
        <ele>867.79998779297</ele>
        <time>2020-10-17T09:25:07Z</time>
      </trkpt>
      <trkpt lat="48.23615" lon="7.28046">
        <ele>871</ele>
        <time>2020-10-17T09:25:25Z</time>
      </trkpt>
      <trkpt lat="48.236" lon="7.28035">
        <ele>874.20001220703</ele>
        <time>2020-10-17T09:25:45Z</time>
      </trkpt>
      <trkpt lat="48.23599" lon="7.28029">
        <ele>876.40002441406</ele>
        <time>2020-10-17T09:26:01Z</time>
      </trkpt>
      <trkpt lat="48.23614" lon="7.28023">
        <ele>879.40002441406</ele>
        <time>2020-10-17T09:26:21Z</time>
      </trkpt>
      <trkpt lat="48.23627" lon="7.2801">
        <ele>882</ele>
        <time>2020-10-17T09:26:40Z</time>
      </trkpt>
      <trkpt lat="48.23636" lon="7.27996">
        <ele>885</ele>
        <time>2020-10-17T09:26:57Z</time>
      </trkpt>
      <trkpt lat="48.23647" lon="7.27984">
        <ele>887.40002441406</ele>
        <time>2020-10-17T09:27:15Z</time>
      </trkpt>
      <trkpt lat="48.23659" lon="7.27968">
        <ele>890.40002441406</ele>
        <time>2020-10-17T09:27:35Z</time>
      </trkpt>
      <trkpt lat="48.2367" lon="7.2795">
        <ele>893.59997558594</ele>
        <time>2020-10-17T09:27:56Z</time>
      </trkpt>
      <trkpt lat="48.23682" lon="7.27931">
        <ele>896.59997558594</ele>
        <time>2020-10-17T09:28:17Z</time>
      </trkpt>
      <trkpt lat="48.23693" lon="7.27915">
        <ele>899.59997558594</ele>
        <time>2020-10-17T09:28:37Z</time>
      </trkpt>
      <trkpt lat="48.23702" lon="7.27897">
        <ele>902.79998779297</ele>
        <time>2020-10-17T09:28:56Z</time>
      </trkpt>
      <trkpt lat="48.23713" lon="7.27878">
        <ele>905.40002441406</ele>
        <time>2020-10-17T09:29:15Z</time>
      </trkpt>
      <trkpt lat="48.23722" lon="7.27857">
        <ele>908.40002441406</ele>
        <time>2020-10-17T09:29:35Z</time>
      </trkpt>
      <trkpt lat="48.23733" lon="7.27841">
        <ele>911.20001220703</ele>
        <time>2020-10-17T09:29:55Z</time>
      </trkpt>
      <trkpt lat="48.23741" lon="7.27823">
        <ele>913.79998779297</ele>
        <time>2020-10-17T09:30:13Z</time>
      </trkpt>
      <trkpt lat="48.23746" lon="7.27814">
        <ele>915.40002441406</ele>
        <time>2020-10-17T09:30:30Z</time>
      </trkpt>
      <trkpt lat="48.23733" lon="7.27816">
        <ele>918.40002441406</ele>
        <time>2020-10-17T09:30:46Z</time>
      </trkpt>
      <trkpt lat="48.23723" lon="7.27816">
        <ele>920.40002441406</ele>
        <time>2020-10-17T09:30:59Z</time>
      </trkpt>
      <trkpt lat="48.23727" lon="7.27808">
        <ele>923.20001220703</ele>
        <time>2020-10-17T09:31:19Z</time>
      </trkpt>
      <trkpt lat="48.23728" lon="7.27808">
        <ele>924.20001220703</ele>
        <time>2020-10-17T09:31:41Z</time>
      </trkpt>
      <trkpt lat="48.23727" lon="7.27798">
        <ele>925.40002441406</ele>
        <time>2020-10-17T09:32:06Z</time>
      </trkpt>
      <trkpt lat="48.23724" lon="7.27796">
        <ele>928.40002441406</ele>
        <time>2020-10-17T09:32:24Z</time>
      </trkpt>
      <trkpt lat="48.23725" lon="7.27787">
        <ele>930.20001220703</ele>
        <time>2020-10-17T09:32:50Z</time>
      </trkpt>
      <trkpt lat="48.23728" lon="7.2777">
        <ele>932.20001220703</ele>
        <time>2020-10-17T09:33:08Z</time>
      </trkpt>
      <trkpt lat="48.23732" lon="7.27752">
        <ele>935</ele>
        <time>2020-10-17T09:33:27Z</time>
      </trkpt>
      <trkpt lat="48.23739" lon="7.27739">
        <ele>936.20001220703</ele>
        <time>2020-10-17T09:33:47Z</time>
      </trkpt>
      <trkpt lat="48.23744" lon="7.27743">
        <ele>937</ele>
        <time>2020-10-17T09:34:06Z</time>
      </trkpt>
      <trkpt lat="48.23745" lon="7.27741">
        <ele>937</ele>
        <time>2020-10-17T09:34:35Z</time>
      </trkpt>
      <trkpt lat="48.23747" lon="7.27747">
        <ele>937</ele>
        <time>2020-10-17T09:35:02Z</time>
      </trkpt>
      <trkpt lat="48.2375" lon="7.27749">
        <ele>937.59997558594</ele>
        <time>2020-10-17T09:35:19Z</time>
      </trkpt>
      <trkpt lat="48.23754" lon="7.27754">
        <ele>939.20001220703</ele>
        <time>2020-10-17T09:35:38Z</time>
      </trkpt>
      <trkpt lat="48.23753" lon="7.27742">
        <ele>938.59997558594</ele>
        <time>2020-10-17T09:36:03Z</time>
      </trkpt>
      <trkpt lat="48.23752" lon="7.2775">
        <ele>938.59997558594</ele>
        <time>2020-10-17T09:36:30Z</time>
      </trkpt>
      <trkpt lat="48.23753" lon="7.27742">
        <ele>938.59997558594</ele>
        <time>2020-10-17T09:36:54Z</time>
      </trkpt>
      <trkpt lat="48.23754" lon="7.27734">
        <ele>938.59997558594</ele>
        <time>2020-10-17T09:37:12Z</time>
      </trkpt>
      <trkpt lat="48.23755" lon="7.27736">
        <ele>938.59997558594</ele>
        <time>2020-10-17T09:37:41Z</time>
      </trkpt>
      <trkpt lat="48.23753" lon="7.2774">
        <ele>938.59997558594</ele>
        <time>2020-10-17T09:38:02Z</time>
      </trkpt>
      <trkpt lat="48.23741" lon="7.2774">
        <ele>938.59997558594</ele>
        <time>2020-10-17T09:38:19Z</time>
      </trkpt>
      <trkpt lat="48.23735" lon="7.27744">
        <ele>935.20001220703</ele>
        <time>2020-10-17T09:38:27Z</time>
      </trkpt>
      <trkpt lat="48.23734" lon="7.27745">
        <ele>935.40002441406</ele>
        <time>2020-10-17T09:38:28Z</time>
      </trkpt>
      <trkpt lat="48.2371" lon="7.27755">
        <ele>935.40002441406</ele>
        <time>2020-10-17T09:38:52Z</time>
      </trkpt>
      <trkpt lat="48.23716" lon="7.27752">
        <ele>935.59997558594</ele>
        <time>2020-10-17T09:39:13Z</time>
      </trkpt>
      <trkpt lat="48.23726" lon="7.2775">
        <ele>935.40002441406</ele>
        <time>2020-10-17T09:39:29Z</time>
      </trkpt>
      <trkpt lat="48.2373" lon="7.27748">
        <ele>935.40002441406</ele>
        <time>2020-10-17T09:39:31Z</time>
      </trkpt>
      <trkpt lat="48.23732" lon="7.27746">
        <ele>935.40002441406</ele>
        <time>2020-10-17T09:39:34Z</time>
      </trkpt>
      <trkpt lat="48.23735" lon="7.2774">
        <ele>936</ele>
        <time>2020-10-17T09:39:39Z</time>
      </trkpt>
      <trkpt lat="48.23738" lon="7.27736">
        <ele>936.20001220703</ele>
        <time>2020-10-17T09:39:42Z</time>
      </trkpt>
      <trkpt lat="48.23739" lon="7.27734">
        <ele>936.20001220703</ele>
        <time>2020-10-17T09:39:43Z</time>
      </trkpt>
      <trkpt lat="48.2374" lon="7.27733">
        <ele>936.40002441406</ele>
        <time>2020-10-17T09:39:44Z</time>
      </trkpt>
      <trkpt lat="48.23741" lon="7.27732">
        <ele>936.40002441406</ele>
        <time>2020-10-17T09:39:45Z</time>
      </trkpt>
      <trkpt lat="48.23755" lon="7.27711">
        <ele>936.79998779297</ele>
        <time>2020-10-17T09:39:59Z</time>
      </trkpt>
      <trkpt lat="48.23757" lon="7.2768">
        <ele>936.59997558594</ele>
        <time>2020-10-17T09:40:14Z</time>
      </trkpt>
      <trkpt lat="48.23759" lon="7.27676">
        <ele>936.59997558594</ele>
        <time>2020-10-17T09:40:16Z</time>
      </trkpt>
      <trkpt lat="48.2376" lon="7.27674">
        <ele>936.59997558594</ele>
        <time>2020-10-17T09:40:17Z</time>
      </trkpt>
      <trkpt lat="48.23761" lon="7.27672">
        <ele>936.79998779297</ele>
        <time>2020-10-17T09:40:18Z</time>
      </trkpt>
      <trkpt lat="48.23762" lon="7.2767">
        <ele>936.79998779297</ele>
        <time>2020-10-17T09:40:19Z</time>
      </trkpt>
      <trkpt lat="48.23763" lon="7.27668">
        <ele>937</ele>
        <time>2020-10-17T09:40:20Z</time>
      </trkpt>
      <trkpt lat="48.23764" lon="7.27667">
        <ele>937</ele>
        <time>2020-10-17T09:40:21Z</time>
      </trkpt>
      <trkpt lat="48.23765" lon="7.27665">
        <ele>937</ele>
        <time>2020-10-17T09:40:22Z</time>
      </trkpt>
      <trkpt lat="48.23771" lon="7.2765">
        <ele>937.59997558594</ele>
        <time>2020-10-17T09:40:31Z</time>
      </trkpt>
      <trkpt lat="48.23772" lon="7.27647">
        <ele>937.59997558594</ele>
        <time>2020-10-17T09:40:32Z</time>
      </trkpt>
      <trkpt lat="48.23775" lon="7.27642">
        <ele>937.79998779297</ele>
        <time>2020-10-17T09:40:35Z</time>
      </trkpt>
      <trkpt lat="48.23775" lon="7.2764">
        <ele>937.79998779297</ele>
        <time>2020-10-17T09:40:36Z</time>
      </trkpt>
      <trkpt lat="48.23776" lon="7.27638">
        <ele>937.79998779297</ele>
        <time>2020-10-17T09:40:37Z</time>
      </trkpt>
      <trkpt lat="48.23777" lon="7.27636">
        <ele>937.79998779297</ele>
        <time>2020-10-17T09:40:38Z</time>
      </trkpt>
      <trkpt lat="48.23778" lon="7.27634">
        <ele>937.79998779297</ele>
        <time>2020-10-17T09:40:39Z</time>
      </trkpt>
      <trkpt lat="48.23779" lon="7.27632">
        <ele>937.79998779297</ele>
        <time>2020-10-17T09:40:40Z</time>
      </trkpt>
      <trkpt lat="48.23779" lon="7.2763">
        <ele>937.79998779297</ele>
        <time>2020-10-17T09:40:41Z</time>
      </trkpt>
      <trkpt lat="48.2378" lon="7.27628">
        <ele>938</ele>
        <time>2020-10-17T09:40:42Z</time>
      </trkpt>
      <trkpt lat="48.23775" lon="7.2761">
        <ele>938.20001220703</ele>
        <time>2020-10-17T09:40:51Z</time>
      </trkpt>
      <trkpt lat="48.23776" lon="7.27608">
        <ele>938.20001220703</ele>
        <time>2020-10-17T09:40:52Z</time>
      </trkpt>
      <trkpt lat="48.23776" lon="7.27606">
        <ele>938.20001220703</ele>
        <time>2020-10-17T09:40:53Z</time>
      </trkpt>
      <trkpt lat="48.23775" lon="7.27581">
        <ele>939.59997558594</ele>
        <time>2020-10-17T09:41:07Z</time>
      </trkpt>
      <trkpt lat="48.23777" lon="7.27558">
        <ele>940.40002441406</ele>
        <time>2020-10-17T09:41:21Z</time>
      </trkpt>
      <trkpt lat="48.23783" lon="7.27534">
        <ele>939</ele>
        <time>2020-10-17T09:41:36Z</time>
      </trkpt>
      <trkpt lat="48.23782" lon="7.27526">
        <ele>938.79998779297</ele>
        <time>2020-10-17T09:41:40Z</time>
      </trkpt>
      <trkpt lat="48.23783" lon="7.27524">
        <ele>938.79998779297</ele>
        <time>2020-10-17T09:41:41Z</time>
      </trkpt>
      <trkpt lat="48.23788" lon="7.27501">
        <ele>938.59997558594</ele>
        <time>2020-10-17T09:41:50Z</time>
      </trkpt>
      <trkpt lat="48.23788" lon="7.27498">
        <ele>938.59997558594</ele>
        <time>2020-10-17T09:41:51Z</time>
      </trkpt>
      <trkpt lat="48.23788" lon="7.27496">
        <ele>938.59997558594</ele>
        <time>2020-10-17T09:41:52Z</time>
      </trkpt>
      <trkpt lat="48.23788" lon="7.27494">
        <ele>938.40002441406</ele>
        <time>2020-10-17T09:41:53Z</time>
      </trkpt>
      <trkpt lat="48.23788" lon="7.27488">
        <ele>938.20001220703</ele>
        <time>2020-10-17T09:41:57Z</time>
      </trkpt>
      <trkpt lat="48.23788" lon="7.27485">
        <ele>938.20001220703</ele>
        <time>2020-10-17T09:41:58Z</time>
      </trkpt>
      <trkpt lat="48.23792" lon="7.27472">
        <ele>937.59997558594</ele>
        <time>2020-10-17T09:42:04Z</time>
      </trkpt>
      <trkpt lat="48.23792" lon="7.2747">
        <ele>937.59997558594</ele>
        <time>2020-10-17T09:42:05Z</time>
      </trkpt>
      <trkpt lat="48.23793" lon="7.27467">
        <ele>937.59997558594</ele>
        <time>2020-10-17T09:42:06Z</time>
      </trkpt>
      <trkpt lat="48.23794" lon="7.27464">
        <ele>937.40002441406</ele>
        <time>2020-10-17T09:42:07Z</time>
      </trkpt>
      <trkpt lat="48.23798" lon="7.27458">
        <ele>937.40002441406</ele>
        <time>2020-10-17T09:42:10Z</time>
      </trkpt>
      <trkpt lat="48.238" lon="7.27452">
        <ele>937.20001220703</ele>
        <time>2020-10-17T09:42:13Z</time>
      </trkpt>
      <trkpt lat="48.23801" lon="7.27446">
        <ele>937.20001220703</ele>
        <time>2020-10-17T09:42:16Z</time>
      </trkpt>
      <trkpt lat="48.23802" lon="7.27441">
        <ele>937.20001220703</ele>
        <time>2020-10-17T09:42:18Z</time>
      </trkpt>
      <trkpt lat="48.23802" lon="7.27421">
        <ele>937.40002441406</ele>
        <time>2020-10-17T09:42:28Z</time>
      </trkpt>
      <trkpt lat="48.23802" lon="7.27419">
        <ele>937.40002441406</ele>
        <time>2020-10-17T09:42:29Z</time>
      </trkpt>
      <trkpt lat="48.23807" lon="7.27394">
        <ele>938.40002441406</ele>
        <time>2020-10-17T09:42:43Z</time>
      </trkpt>
      <trkpt lat="48.23812" lon="7.2738">
        <ele>939</ele>
        <time>2020-10-17T09:42:51Z</time>
      </trkpt>
      <trkpt lat="48.23813" lon="7.27378">
        <ele>939</ele>
        <time>2020-10-17T09:42:52Z</time>
      </trkpt>
      <trkpt lat="48.23814" lon="7.27372">
        <ele>939</ele>
        <time>2020-10-17T09:42:55Z</time>
      </trkpt>
      <trkpt lat="48.23813" lon="7.27369">
        <ele>939</ele>
        <time>2020-10-17T09:42:56Z</time>
      </trkpt>
      <trkpt lat="48.23816" lon="7.27338">
        <ele>939.20001220703</ele>
        <time>2020-10-17T09:43:11Z</time>
      </trkpt>
      <trkpt lat="48.23814" lon="7.27324">
        <ele>938</ele>
        <time>2020-10-17T09:43:20Z</time>
      </trkpt>
      <trkpt lat="48.23813" lon="7.27322">
        <ele>938</ele>
        <time>2020-10-17T09:43:21Z</time>
      </trkpt>
      <trkpt lat="48.23811" lon="7.27319">
        <ele>938</ele>
        <time>2020-10-17T09:43:22Z</time>
      </trkpt>
      <trkpt lat="48.23811" lon="7.27317">
        <ele>938</ele>
        <time>2020-10-17T09:43:23Z</time>
      </trkpt>
      <trkpt lat="48.2381" lon="7.27315">
        <ele>937.79998779297</ele>
        <time>2020-10-17T09:43:24Z</time>
      </trkpt>
      <trkpt lat="48.2381" lon="7.27314">
        <ele>937.79998779297</ele>
        <time>2020-10-17T09:43:25Z</time>
      </trkpt>
      <trkpt lat="48.23807" lon="7.27299">
        <ele>937.59997558594</ele>
        <time>2020-10-17T09:43:32Z</time>
      </trkpt>
      <trkpt lat="48.23807" lon="7.27298">
        <ele>937.59997558594</ele>
        <time>2020-10-17T09:43:33Z</time>
      </trkpt>
      <trkpt lat="48.23805" lon="7.27276">
        <ele>939.20001220703</ele>
        <time>2020-10-17T09:43:48Z</time>
      </trkpt>
      <trkpt lat="48.23801" lon="7.27266">
        <ele>942.20001220703</ele>
        <time>2020-10-17T09:43:59Z</time>
      </trkpt>
      <trkpt lat="48.23793" lon="7.27237">
        <ele>945.40002441406</ele>
        <time>2020-10-17T09:44:13Z</time>
      </trkpt>
      <trkpt lat="48.23791" lon="7.27218">
        <ele>948.40002441406</ele>
        <time>2020-10-17T09:44:28Z</time>
      </trkpt>
      <trkpt lat="48.2379" lon="7.27203">
        <ele>951.40002441406</ele>
        <time>2020-10-17T09:44:42Z</time>
      </trkpt>
      <trkpt lat="48.23787" lon="7.27186">
        <ele>952.79998779297</ele>
        <time>2020-10-17T09:44:55Z</time>
      </trkpt>
      <trkpt lat="48.23784" lon="7.27171">
        <ele>953</ele>
        <time>2020-10-17T09:45:20Z</time>
      </trkpt>
      <trkpt lat="48.23783" lon="7.27159">
        <ele>952.79998779297</ele>
        <time>2020-10-17T09:45:26Z</time>
      </trkpt>
      <trkpt lat="48.23777" lon="7.27133">
        <ele>952.79998779297</ele>
        <time>2020-10-17T09:45:42Z</time>
      </trkpt>
      <trkpt lat="48.23769" lon="7.27104">
        <ele>951.40002441406</ele>
        <time>2020-10-17T09:46:02Z</time>
      </trkpt>
      <trkpt lat="48.23764" lon="7.27069">
        <ele>951</ele>
        <time>2020-10-17T09:46:20Z</time>
      </trkpt>
      <trkpt lat="48.23764" lon="7.27058">
        <ele>951</ele>
        <time>2020-10-17T09:46:27Z</time>
      </trkpt>
      <trkpt lat="48.23764" lon="7.27056">
        <ele>951</ele>
        <time>2020-10-17T09:46:28Z</time>
      </trkpt>
      <trkpt lat="48.23763" lon="7.27053">
        <ele>951</ele>
        <time>2020-10-17T09:46:29Z</time>
      </trkpt>
      <trkpt lat="48.23763" lon="7.27051">
        <ele>951</ele>
        <time>2020-10-17T09:46:30Z</time>
      </trkpt>
      <trkpt lat="48.23763" lon="7.27049">
        <ele>951</ele>
        <time>2020-10-17T09:46:31Z</time>
      </trkpt>
      <trkpt lat="48.23759" lon="7.27028">
        <ele>950.79998779297</ele>
        <time>2020-10-17T09:46:47Z</time>
      </trkpt>
      <trkpt lat="48.23757" lon="7.27012">
        <ele>951</ele>
        <time>2020-10-17T09:47:12Z</time>
      </trkpt>
      <trkpt lat="48.23766" lon="7.26984">
        <ele>952</ele>
        <time>2020-10-17T09:47:32Z</time>
      </trkpt>
      <trkpt lat="48.23769" lon="7.26982">
        <ele>952</ele>
        <time>2020-10-17T09:47:53Z</time>
      </trkpt>
      <trkpt lat="48.23773" lon="7.26988">
        <ele>953.20001220703</ele>
        <time>2020-10-17T09:48:16Z</time>
      </trkpt>
      <trkpt lat="48.23779" lon="7.26983">
        <ele>953.20001220703</ele>
        <time>2020-10-17T09:48:40Z</time>
      </trkpt>
      <trkpt lat="48.23781" lon="7.26984">
        <ele>953</ele>
        <time>2020-10-17T09:49:02Z</time>
      </trkpt>
      <trkpt lat="48.23774" lon="7.26986">
        <ele>953.20001220703</ele>
        <time>2020-10-17T09:49:23Z</time>
      </trkpt>
      <trkpt lat="48.23769" lon="7.26984">
        <ele>952.40002441406</ele>
        <time>2020-10-17T09:49:45Z</time>
      </trkpt>
      <trkpt lat="48.23766" lon="7.26961">
        <ele>951.20001220703</ele>
        <time>2020-10-17T09:50:04Z</time>
      </trkpt>
      <trkpt lat="48.23764" lon="7.26953">
        <ele>951.40002441406</ele>
        <time>2020-10-17T09:50:25Z</time>
      </trkpt>
      <trkpt lat="48.23761" lon="7.2695">
        <ele>951.20001220703</ele>
        <time>2020-10-17T09:50:54Z</time>
      </trkpt>
      <trkpt lat="48.23763" lon="7.2695">
        <ele>951.20001220703</ele>
        <time>2020-10-17T09:51:20Z</time>
      </trkpt>
      <trkpt lat="48.23764" lon="7.26961">
        <ele>951.20001220703</ele>
        <time>2020-10-17T09:51:28Z</time>
      </trkpt>
      <trkpt lat="48.23764" lon="7.26967">
        <ele>951.40002441406</ele>
        <time>2020-10-17T09:51:31Z</time>
      </trkpt>
      <trkpt lat="48.23765" lon="7.26976">
        <ele>951.79998779297</ele>
        <time>2020-10-17T09:51:36Z</time>
      </trkpt>
      <trkpt lat="48.2376" lon="7.26986">
        <ele>952.20001220703</ele>
        <time>2020-10-17T09:51:43Z</time>
      </trkpt>
      <trkpt lat="48.23747" lon="7.26998">
        <ele>951.40002441406</ele>
        <time>2020-10-17T09:52:03Z</time>
      </trkpt>
      <trkpt lat="48.23749" lon="7.2701">
        <ele>951.40002441406</ele>
        <time>2020-10-17T09:52:11Z</time>
      </trkpt>
      <trkpt lat="48.23744" lon="7.26988">
        <ele>952.40002441406</ele>
        <time>2020-10-17T09:52:34Z</time>
      </trkpt>
      <trkpt lat="48.23745" lon="7.26982">
        <ele>953</ele>
        <time>2020-10-17T09:52:41Z</time>
      </trkpt>
      <trkpt lat="48.23742" lon="7.26975">
        <ele>953.79998779297</ele>
        <time>2020-10-17T09:53:09Z</time>
      </trkpt>
      <trkpt lat="48.23738" lon="7.26949">
        <ele>952.79998779297</ele>
        <time>2020-10-17T09:53:27Z</time>
      </trkpt>
      <trkpt lat="48.23731" lon="7.2692">
        <ele>952.59997558594</ele>
        <time>2020-10-17T09:53:45Z</time>
      </trkpt>
      <trkpt lat="48.23715" lon="7.2689">
        <ele>952.20001220703</ele>
        <time>2020-10-17T09:54:04Z</time>
      </trkpt>
      <trkpt lat="48.23707" lon="7.26879">
        <ele>951.59997558594</ele>
        <time>2020-10-17T09:54:12Z</time>
      </trkpt>
      <trkpt lat="48.23705" lon="7.26877">
        <ele>951.59997558594</ele>
        <time>2020-10-17T09:54:13Z</time>
      </trkpt>
      <trkpt lat="48.23704" lon="7.26875">
        <ele>951.59997558594</ele>
        <time>2020-10-17T09:54:14Z</time>
      </trkpt>
      <trkpt lat="48.23702" lon="7.2687">
        <ele>951.59997558594</ele>
        <time>2020-10-17T09:54:16Z</time>
      </trkpt>
      <trkpt lat="48.23685" lon="7.26847">
        <ele>951</ele>
        <time>2020-10-17T09:54:33Z</time>
      </trkpt>
      <trkpt lat="48.2368" lon="7.26827">
        <ele>949.59997558594</ele>
        <time>2020-10-17T09:54:47Z</time>
      </trkpt>
      <trkpt lat="48.23677" lon="7.26813">
        <ele>948.20001220703</ele>
        <time>2020-10-17T09:54:55Z</time>
      </trkpt>
      <trkpt lat="48.23677" lon="7.26808">
        <ele>948</ele>
        <time>2020-10-17T09:54:57Z</time>
      </trkpt>
      <trkpt lat="48.23678" lon="7.26806">
        <ele>948</ele>
        <time>2020-10-17T09:54:58Z</time>
      </trkpt>
      <trkpt lat="48.23682" lon="7.2679">
        <ele>947.40002441406</ele>
        <time>2020-10-17T09:55:07Z</time>
      </trkpt>
      <trkpt lat="48.23686" lon="7.2676">
        <ele>945.20001220703</ele>
        <time>2020-10-17T09:55:22Z</time>
      </trkpt>
      <trkpt lat="48.23686" lon="7.26747">
        <ele>944</ele>
        <time>2020-10-17T09:55:29Z</time>
      </trkpt>
      <trkpt lat="48.23685" lon="7.26724">
        <ele>942.79998779297</ele>
        <time>2020-10-17T09:55:40Z</time>
      </trkpt>
      <trkpt lat="48.23685" lon="7.26722">
        <ele>942.59997558594</ele>
        <time>2020-10-17T09:55:41Z</time>
      </trkpt>
      <trkpt lat="48.2368" lon="7.26695">
        <ele>942.40002441406</ele>
        <time>2020-10-17T09:55:56Z</time>
      </trkpt>
      <trkpt lat="48.23674" lon="7.26675">
        <ele>942.40002441406</ele>
        <time>2020-10-17T09:56:12Z</time>
      </trkpt>
      <trkpt lat="48.23671" lon="7.26665">
        <ele>942.40002441406</ele>
        <time>2020-10-17T09:56:35Z</time>
      </trkpt>
      <trkpt lat="48.23671" lon="7.26662">
        <ele>942.40002441406</ele>
        <time>2020-10-17T09:56:37Z</time>
      </trkpt>
      <trkpt lat="48.23669" lon="7.26672">
        <ele>942.40002441406</ele>
        <time>2020-10-17T09:56:54Z</time>
      </trkpt>
      <trkpt lat="48.23665" lon="7.26682">
        <ele>942.40002441406</ele>
        <time>2020-10-17T09:57:11Z</time>
      </trkpt>
      <trkpt lat="48.23663" lon="7.26686">
        <ele>942.59997558594</ele>
        <time>2020-10-17T09:57:14Z</time>
      </trkpt>
      <trkpt lat="48.2366" lon="7.26699">
        <ele>942.79998779297</ele>
        <time>2020-10-17T09:57:21Z</time>
      </trkpt>
      <trkpt lat="48.23652" lon="7.26724">
        <ele>942.79998779297</ele>
        <time>2020-10-17T09:57:39Z</time>
      </trkpt>
      <trkpt lat="48.23648" lon="7.2673">
        <ele>942.79998779297</ele>
        <time>2020-10-17T09:57:43Z</time>
      </trkpt>
      <trkpt lat="48.23643" lon="7.2674">
        <ele>941.79998779297</ele>
        <time>2020-10-17T09:57:49Z</time>
      </trkpt>
      <trkpt lat="48.23625" lon="7.2676">
        <ele>939</ele>
        <time>2020-10-17T09:58:05Z</time>
      </trkpt>
      <trkpt lat="48.23614" lon="7.26773">
        <ele>935.79998779297</ele>
        <time>2020-10-17T09:58:15Z</time>
      </trkpt>
      <trkpt lat="48.23602" lon="7.26791">
        <ele>932.59997558594</ele>
        <time>2020-10-17T09:58:25Z</time>
      </trkpt>
      <trkpt lat="48.23593" lon="7.26802">
        <ele>929.40002441406</ele>
        <time>2020-10-17T09:58:33Z</time>
      </trkpt>
      <trkpt lat="48.23581" lon="7.2681">
        <ele>926.40002441406</ele>
        <time>2020-10-17T09:58:42Z</time>
      </trkpt>
      <trkpt lat="48.2358" lon="7.2681">
        <ele>926.20001220703</ele>
        <time>2020-10-17T09:58:43Z</time>
      </trkpt>
      <trkpt lat="48.23566" lon="7.26826">
        <ele>923</ele>
        <time>2020-10-17T09:58:53Z</time>
      </trkpt>
      <trkpt lat="48.23558" lon="7.26834">
        <ele>921.59997558594</ele>
        <time>2020-10-17T09:58:58Z</time>
      </trkpt>
      <trkpt lat="48.23557" lon="7.26836">
        <ele>921.20001220703</ele>
        <time>2020-10-17T09:58:59Z</time>
      </trkpt>
      <trkpt lat="48.23555" lon="7.26841">
        <ele>920.20001220703</ele>
        <time>2020-10-17T09:59:02Z</time>
      </trkpt>
      <trkpt lat="48.23554" lon="7.26844">
        <ele>920</ele>
        <time>2020-10-17T09:59:03Z</time>
      </trkpt>
      <trkpt lat="48.23543" lon="7.26864">
        <ele>916.79998779297</ele>
        <time>2020-10-17T09:59:14Z</time>
      </trkpt>
      <trkpt lat="48.23536" lon="7.26882">
        <ele>913.59997558594</ele>
        <time>2020-10-17T09:59:23Z</time>
      </trkpt>
      <trkpt lat="48.23531" lon="7.26895">
        <ele>912.20001220703</ele>
        <time>2020-10-17T09:59:28Z</time>
      </trkpt>
      <trkpt lat="48.23528" lon="7.26905">
        <ele>910.20001220703</ele>
        <time>2020-10-17T09:59:35Z</time>
      </trkpt>
      <trkpt lat="48.23528" lon="7.26909">
        <ele>909.79998779297</ele>
        <time>2020-10-17T09:59:50Z</time>
      </trkpt>
      <trkpt lat="48.23516" lon="7.26925">
        <ele>908.40002441406</ele>
        <time>2020-10-17T10:00:12Z</time>
      </trkpt>
      <trkpt lat="48.23514" lon="7.26936">
        <ele>907</ele>
        <time>2020-10-17T10:00:19Z</time>
      </trkpt>
      <trkpt lat="48.23505" lon="7.26952">
        <ele>903.59997558594</ele>
        <time>2020-10-17T10:00:29Z</time>
      </trkpt>
      <trkpt lat="48.23504" lon="7.26962">
        <ele>902.20001220703</ele>
        <time>2020-10-17T10:00:34Z</time>
      </trkpt>
      <trkpt lat="48.23505" lon="7.26964">
        <ele>902</ele>
        <time>2020-10-17T10:00:35Z</time>
      </trkpt>
      <trkpt lat="48.23506" lon="7.26971">
        <ele>901.20001220703</ele>
        <time>2020-10-17T10:00:38Z</time>
      </trkpt>
      <trkpt lat="48.23506" lon="7.2698">
        <ele>899</ele>
        <time>2020-10-17T10:00:43Z</time>
      </trkpt>
      <trkpt lat="48.23506" lon="7.26982">
        <ele>898.79998779297</ele>
        <time>2020-10-17T10:00:44Z</time>
      </trkpt>
      <trkpt lat="48.23506" lon="7.26984">
        <ele>898.59997558594</ele>
        <time>2020-10-17T10:00:45Z</time>
      </trkpt>
      <trkpt lat="48.23507" lon="7.26986">
        <ele>898.59997558594</ele>
        <time>2020-10-17T10:00:46Z</time>
      </trkpt>
      <trkpt lat="48.23507" lon="7.26999">
        <ele>896.40002441406</ele>
        <time>2020-10-17T10:00:56Z</time>
      </trkpt>
      <trkpt lat="48.2351" lon="7.27025">
        <ele>893.20001220703</ele>
        <time>2020-10-17T10:01:11Z</time>
      </trkpt>
      <trkpt lat="48.23506" lon="7.27046">
        <ele>889.79998779297</ele>
        <time>2020-10-17T10:01:19Z</time>
      </trkpt>
      <trkpt lat="48.23505" lon="7.27049">
        <ele>889.59997558594</ele>
        <time>2020-10-17T10:01:20Z</time>
      </trkpt>
      <trkpt lat="48.23505" lon="7.27053">
        <ele>889.40002441406</ele>
        <time>2020-10-17T10:01:21Z</time>
      </trkpt>
      <trkpt lat="48.23495" lon="7.27079">
        <ele>886.40002441406</ele>
        <time>2020-10-17T10:01:31Z</time>
      </trkpt>
      <trkpt lat="48.23486" lon="7.27099">
        <ele>883.40002441406</ele>
        <time>2020-10-17T10:01:41Z</time>
      </trkpt>
      <trkpt lat="48.23478" lon="7.27101">
        <ele>880.59997558594</ele>
        <time>2020-10-17T10:01:57Z</time>
      </trkpt>
      <trkpt lat="48.23474" lon="7.27102">
        <ele>878.79998779297</ele>
        <time>2020-10-17T10:02:09Z</time>
      </trkpt>
      <trkpt lat="48.23476" lon="7.27111">
        <ele>879.59997558594</ele>
        <time>2020-10-17T10:02:29Z</time>
      </trkpt>
      <trkpt lat="48.23485" lon="7.271">
        <ele>880.79998779297</ele>
        <time>2020-10-17T10:02:51Z</time>
      </trkpt>
      <trkpt lat="48.23488" lon="7.27089">
        <ele>878.79998779297</ele>
        <time>2020-10-17T10:03:19Z</time>
      </trkpt>
      <trkpt lat="48.23488" lon="7.27076">
        <ele>875.40002441406</ele>
        <time>2020-10-17T10:03:28Z</time>
      </trkpt>
      <trkpt lat="48.23487" lon="7.27067">
        <ele>874</ele>
        <time>2020-10-17T10:03:31Z</time>
      </trkpt>
      <trkpt lat="48.23486" lon="7.27066">
        <ele>873.79998779297</ele>
        <time>2020-10-17T10:03:32Z</time>
      </trkpt>
      <trkpt lat="48.23483" lon="7.27053">
        <ele>870.79998779297</ele>
        <time>2020-10-17T10:03:40Z</time>
      </trkpt>
      <trkpt lat="48.23481" lon="7.27044">
        <ele>869.20001220703</ele>
        <time>2020-10-17T10:03:44Z</time>
      </trkpt>
      <trkpt lat="48.23474" lon="7.27015">
        <ele>865.79998779297</ele>
        <time>2020-10-17T10:03:54Z</time>
      </trkpt>
      <trkpt lat="48.23473" lon="7.27011">
        <ele>865.40002441406</ele>
        <time>2020-10-17T10:03:55Z</time>
      </trkpt>
      <trkpt lat="48.2347" lon="7.27002">
        <ele>864.20001220703</ele>
        <time>2020-10-17T10:03:59Z</time>
      </trkpt>
      <trkpt lat="48.2347" lon="7.26989">
        <ele>862</ele>
        <time>2020-10-17T10:04:05Z</time>
      </trkpt>
      <trkpt lat="48.23469" lon="7.26983">
        <ele>861.40002441406</ele>
        <time>2020-10-17T10:04:08Z</time>
      </trkpt>
      <trkpt lat="48.23468" lon="7.26981">
        <ele>861.40002441406</ele>
        <time>2020-10-17T10:04:09Z</time>
      </trkpt>
      <trkpt lat="48.23468" lon="7.26978">
        <ele>861</ele>
        <time>2020-10-17T10:04:11Z</time>
      </trkpt>
      <trkpt lat="48.23466" lon="7.26979">
        <ele>858</ele>
        <time>2020-10-17T10:04:24Z</time>
      </trkpt>
      <trkpt lat="48.23465" lon="7.26998">
        <ele>854.79998779297</ele>
        <time>2020-10-17T10:04:37Z</time>
      </trkpt>
      <trkpt lat="48.23464" lon="7.2702">
        <ele>851.59997558594</ele>
        <time>2020-10-17T10:04:49Z</time>
      </trkpt>
      <trkpt lat="48.23463" lon="7.27025">
        <ele>850.79998779297</ele>
        <time>2020-10-17T10:04:51Z</time>
      </trkpt>
      <trkpt lat="48.23461" lon="7.27041">
        <ele>847.79998779297</ele>
        <time>2020-10-17T10:05:00Z</time>
      </trkpt>
      <trkpt lat="48.23454" lon="7.27063">
        <ele>844.20001220703</ele>
        <time>2020-10-17T10:05:12Z</time>
      </trkpt>
      <trkpt lat="48.2345" lon="7.27084">
        <ele>841.20001220703</ele>
        <time>2020-10-17T10:05:20Z</time>
      </trkpt>
      <trkpt lat="48.23447" lon="7.27093">
        <ele>840.40002441406</ele>
        <time>2020-10-17T10:05:40Z</time>
      </trkpt>
      <trkpt lat="48.2344" lon="7.27114">
        <ele>839.20001220703</ele>
        <time>2020-10-17T10:05:55Z</time>
      </trkpt>
      <trkpt lat="48.23435" lon="7.2712">
        <ele>839</ele>
        <time>2020-10-17T10:06:18Z</time>
      </trkpt>
      <trkpt lat="48.23434" lon="7.27124">
        <ele>838.59997558594</ele>
        <time>2020-10-17T10:06:21Z</time>
      </trkpt>
      <trkpt lat="48.23431" lon="7.27137">
        <ele>836.40002441406</ele>
        <time>2020-10-17T10:06:44Z</time>
      </trkpt>
      <trkpt lat="48.23429" lon="7.27151">
        <ele>833.40002441406</ele>
        <time>2020-10-17T10:06:52Z</time>
      </trkpt>
      <trkpt lat="48.23427" lon="7.27158">
        <ele>831.59997558594</ele>
        <time>2020-10-17T10:06:56Z</time>
      </trkpt>
      <trkpt lat="48.23421" lon="7.27179">
        <ele>828.40002441406</ele>
        <time>2020-10-17T10:07:08Z</time>
      </trkpt>
      <trkpt lat="48.23419" lon="7.272">
        <ele>825.40002441406</ele>
        <time>2020-10-17T10:07:23Z</time>
      </trkpt>
      <trkpt lat="48.23419" lon="7.27199">
        <ele>824.79998779297</ele>
        <time>2020-10-17T10:07:44Z</time>
      </trkpt>
      <trkpt lat="48.23417" lon="7.27205">
        <ele>824.59997558594</ele>
        <time>2020-10-17T10:08:15Z</time>
      </trkpt>
      <trkpt lat="48.23416" lon="7.2721">
        <ele>824.79998779297</ele>
        <time>2020-10-17T10:08:46Z</time>
      </trkpt>
      <trkpt lat="48.23418" lon="7.27215">
        <ele>824.59997558594</ele>
        <time>2020-10-17T10:09:24Z</time>
      </trkpt>
      <trkpt lat="48.23422" lon="7.2721">
        <ele>824.20001220703</ele>
        <time>2020-10-17T10:09:54Z</time>
      </trkpt>
      <trkpt lat="48.23427" lon="7.27206">
        <ele>824</ele>
        <time>2020-10-17T10:10:38Z</time>
      </trkpt>
      <trkpt lat="48.23424" lon="7.27207">
        <ele>824</ele>
        <time>2020-10-17T10:11:05Z</time>
      </trkpt>
      <trkpt lat="48.23422" lon="7.27211">
        <ele>824</ele>
        <time>2020-10-17T10:11:31Z</time>
      </trkpt>
      <trkpt lat="48.23423" lon="7.27225">
        <ele>824</ele>
        <time>2020-10-17T10:11:50Z</time>
      </trkpt>
      <trkpt lat="48.23424" lon="7.27235">
        <ele>830</ele>
        <time>2020-10-17T10:12:01Z</time>
      </trkpt>
      <trkpt lat="48.23425" lon="7.27236">
        <ele>830.20001220703</ele>
        <time>2020-10-17T10:12:02Z</time>
      </trkpt>
      <trkpt lat="48.23427" lon="7.27251">
        <ele>832.20001220703</ele>
        <time>2020-10-17T10:12:17Z</time>
      </trkpt>
      <trkpt lat="48.23425" lon="7.27263">
        <ele>835.40002441406</ele>
        <time>2020-10-17T10:12:35Z</time>
      </trkpt>
      <trkpt lat="48.23424" lon="7.27269">
        <ele>838.40002441406</ele>
        <time>2020-10-17T10:12:51Z</time>
      </trkpt>
      <trkpt lat="48.23424" lon="7.27278">
        <ele>840.40002441406</ele>
        <time>2020-10-17T10:13:03Z</time>
      </trkpt>
      <trkpt lat="48.23422" lon="7.27303">
        <ele>843.79998779297</ele>
        <time>2020-10-17T10:13:21Z</time>
      </trkpt>
      <trkpt lat="48.23421" lon="7.27315">
        <ele>846</ele>
        <time>2020-10-17T10:13:37Z</time>
      </trkpt>
      <trkpt lat="48.2342" lon="7.27327">
        <ele>849</ele>
        <time>2020-10-17T10:13:55Z</time>
      </trkpt>
      <trkpt lat="48.23417" lon="7.27339">
        <ele>852.40002441406</ele>
        <time>2020-10-17T10:14:12Z</time>
      </trkpt>
      <trkpt lat="48.23415" lon="7.27358">
        <ele>855.40002441406</ele>
        <time>2020-10-17T10:14:32Z</time>
      </trkpt>
      <trkpt lat="48.23415" lon="7.27371">
        <ele>858.40002441406</ele>
        <time>2020-10-17T10:14:52Z</time>
      </trkpt>
      <trkpt lat="48.23414" lon="7.2738">
        <ele>861</ele>
        <time>2020-10-17T10:15:05Z</time>
      </trkpt>
      <trkpt lat="48.23415" lon="7.27388">
        <ele>864.40002441406</ele>
        <time>2020-10-17T10:15:21Z</time>
      </trkpt>
      <trkpt lat="48.23413" lon="7.27394">
        <ele>867</ele>
        <time>2020-10-17T10:15:34Z</time>
      </trkpt>
      <trkpt lat="48.23414" lon="7.27401">
        <ele>870</ele>
        <time>2020-10-17T10:15:52Z</time>
      </trkpt>
      <trkpt lat="48.23413" lon="7.27414">
        <ele>873.20001220703</ele>
        <time>2020-10-17T10:16:10Z</time>
      </trkpt>
      <trkpt lat="48.2341" lon="7.27428">
        <ele>875.59997558594</ele>
        <time>2020-10-17T10:16:25Z</time>
      </trkpt>
      <trkpt lat="48.23413" lon="7.27446">
        <ele>878.40002441406</ele>
        <time>2020-10-17T10:16:41Z</time>
      </trkpt>
      <trkpt lat="48.2341" lon="7.2746">
        <ele>880.59997558594</ele>
        <time>2020-10-17T10:16:55Z</time>
      </trkpt>
      <trkpt lat="48.23405" lon="7.27476">
        <ele>883.79998779297</ele>
        <time>2020-10-17T10:17:14Z</time>
      </trkpt>
      <trkpt lat="48.23402" lon="7.27485">
        <ele>885.59997558594</ele>
        <time>2020-10-17T10:17:27Z</time>
      </trkpt>
      <trkpt lat="48.23397" lon="7.27502">
        <ele>888</ele>
        <time>2020-10-17T10:17:45Z</time>
      </trkpt>
      <trkpt lat="48.23391" lon="7.27517">
        <ele>891</ele>
        <time>2020-10-17T10:18:06Z</time>
      </trkpt>
      <trkpt lat="48.23385" lon="7.27536">
        <ele>893.20001220703</ele>
        <time>2020-10-17T10:18:21Z</time>
      </trkpt>
      <trkpt lat="48.23384" lon="7.27557">
        <ele>896.40002441406</ele>
        <time>2020-10-17T10:18:39Z</time>
      </trkpt>
      <trkpt lat="48.23376" lon="7.27576">
        <ele>899</ele>
        <time>2020-10-17T10:18:58Z</time>
      </trkpt>
      <trkpt lat="48.23374" lon="7.27599">
        <ele>902</ele>
        <time>2020-10-17T10:19:15Z</time>
      </trkpt>
      <trkpt lat="48.23371" lon="7.27614">
        <ele>905</ele>
        <time>2020-10-17T10:19:31Z</time>
      </trkpt>
      <trkpt lat="48.23374" lon="7.27639">
        <ele>908.20001220703</ele>
        <time>2020-10-17T10:19:49Z</time>
      </trkpt>
      <trkpt lat="48.23375" lon="7.27659">
        <ele>911</ele>
        <time>2020-10-17T10:20:06Z</time>
      </trkpt>
      <trkpt lat="48.23378" lon="7.27678">
        <ele>912.79998779297</ele>
        <time>2020-10-17T10:20:20Z</time>
      </trkpt>
      <trkpt lat="48.23378" lon="7.27704">
        <ele>915</ele>
        <time>2020-10-17T10:20:39Z</time>
      </trkpt>
      <trkpt lat="48.23379" lon="7.2773">
        <ele>917.20001220703</ele>
        <time>2020-10-17T10:20:53Z</time>
      </trkpt>
      <trkpt lat="48.2338" lon="7.27746">
        <ele>918.40002441406</ele>
        <time>2020-10-17T10:21:03Z</time>
      </trkpt>
      <trkpt lat="48.23381" lon="7.27766">
        <ele>918.79998779297</ele>
        <time>2020-10-17T10:21:12Z</time>
      </trkpt>
      <trkpt lat="48.23373" lon="7.27788">
        <ele>919.40002441406</ele>
        <time>2020-10-17T10:21:33Z</time>
      </trkpt>
      <trkpt lat="48.23361" lon="7.278">
        <ele>918.20001220703</ele>
        <time>2020-10-17T10:21:52Z</time>
      </trkpt>
      <trkpt lat="48.23347" lon="7.27816">
        <ele>918.20001220703</ele>
        <time>2020-10-17T10:22:12Z</time>
      </trkpt>
      <trkpt lat="48.23346" lon="7.27822">
        <ele>918.59997558594</ele>
        <time>2020-10-17T10:22:32Z</time>
      </trkpt>
      <trkpt lat="48.23335" lon="7.27835">
        <ele>918.20001220703</ele>
        <time>2020-10-17T10:22:50Z</time>
      </trkpt>
      <trkpt lat="48.23336" lon="7.27852">
        <ele>918.59997558594</ele>
        <time>2020-10-17T10:23:07Z</time>
      </trkpt>
      <trkpt lat="48.23331" lon="7.27859">
        <ele>918.20001220703</ele>
        <time>2020-10-17T10:23:34Z</time>
      </trkpt>
      <trkpt lat="48.23329" lon="7.27859">
        <ele>918.20001220703</ele>
        <time>2020-10-17T10:24:02Z</time>
      </trkpt>
      <trkpt lat="48.2333" lon="7.27865">
        <ele>917.20001220703</ele>
        <time>2020-10-17T10:24:30Z</time>
      </trkpt>
      <trkpt lat="48.2333" lon="7.27865">
        <ele>917.20001220703</ele>
        <time>2020-10-17T10:24:59Z</time>
      </trkpt>
      <trkpt lat="48.23326" lon="7.27865">
        <ele>917</ele>
        <time>2020-10-17T10:25:25Z</time>
      </trkpt>
      <trkpt lat="48.2333" lon="7.27867">
        <ele>917</ele>
        <time>2020-10-17T10:25:56Z</time>
      </trkpt>
      <trkpt lat="48.23333" lon="7.27865">
        <ele>917</ele>
        <time>2020-10-17T10:26:27Z</time>
      </trkpt>
      <trkpt lat="48.23329" lon="7.27867">
        <ele>917</ele>
        <time>2020-10-17T10:26:58Z</time>
      </trkpt>
      <trkpt lat="48.23329" lon="7.27865">
        <ele>917</ele>
        <time>2020-10-17T10:27:25Z</time>
      </trkpt>
      <trkpt lat="48.23322" lon="7.27866">
        <ele>917</ele>
        <time>2020-10-17T10:27:51Z</time>
      </trkpt>
      <trkpt lat="48.23308" lon="7.27889">
        <ele>918.59997558594</ele>
        <time>2020-10-17T10:28:12Z</time>
      </trkpt>
      <trkpt lat="48.233" lon="7.27899">
        <ele>918.79998779297</ele>
        <time>2020-10-17T10:28:20Z</time>
      </trkpt>
      <trkpt lat="48.23287" lon="7.2791">
        <ele>918.20001220703</ele>
        <time>2020-10-17T10:28:34Z</time>
      </trkpt>
      <trkpt lat="48.23273" lon="7.27927">
        <ele>918.40002441406</ele>
        <time>2020-10-17T10:28:50Z</time>
      </trkpt>
      <trkpt lat="48.23261" lon="7.27936">
        <ele>917.79998779297</ele>
        <time>2020-10-17T10:29:00Z</time>
      </trkpt>
      <trkpt lat="48.23256" lon="7.27942">
        <ele>917.59997558594</ele>
        <time>2020-10-17T10:29:04Z</time>
      </trkpt>
      <trkpt lat="48.23249" lon="7.27951">
        <ele>916.79998779297</ele>
        <time>2020-10-17T10:29:23Z</time>
      </trkpt>
      <trkpt lat="48.23237" lon="7.27959">
        <ele>917.20001220703</ele>
        <time>2020-10-17T10:29:41Z</time>
      </trkpt>
      <trkpt lat="48.23214" lon="7.27978">
        <ele>917</ele>
        <time>2020-10-17T10:30:04Z</time>
      </trkpt>
      <trkpt lat="48.23199" lon="7.27989">
        <ele>918</ele>
        <time>2020-10-17T10:30:17Z</time>
      </trkpt>
      <trkpt lat="48.23185" lon="7.28">
        <ele>918.59997558594</ele>
        <time>2020-10-17T10:30:28Z</time>
      </trkpt>
      <trkpt lat="48.23184" lon="7.28001">
        <ele>918.79998779297</ele>
        <time>2020-10-17T10:30:29Z</time>
      </trkpt>
      <trkpt lat="48.23183" lon="7.28003">
        <ele>918.79998779297</ele>
        <time>2020-10-17T10:30:30Z</time>
      </trkpt>
      <trkpt lat="48.23166" lon="7.28019">
        <ele>919.59997558594</ele>
        <time>2020-10-17T10:30:47Z</time>
      </trkpt>
      <trkpt lat="48.23158" lon="7.28029">
        <ele>919.59997558594</ele>
        <time>2020-10-17T10:30:54Z</time>
      </trkpt>
      <trkpt lat="48.23156" lon="7.28031">
        <ele>919.59997558594</ele>
        <time>2020-10-17T10:30:55Z</time>
      </trkpt>
      <trkpt lat="48.23155" lon="7.28033">
        <ele>919.59997558594</ele>
        <time>2020-10-17T10:30:56Z</time>
      </trkpt>
      <trkpt lat="48.23153" lon="7.28034">
        <ele>919.59997558594</ele>
        <time>2020-10-17T10:30:57Z</time>
      </trkpt>
      <trkpt lat="48.23139" lon="7.28056">
        <ele>919.79998779297</ele>
        <time>2020-10-17T10:31:13Z</time>
      </trkpt>
      <trkpt lat="48.23123" lon="7.28072">
        <ele>918.20001220703</ele>
        <time>2020-10-17T10:31:29Z</time>
      </trkpt>
      <trkpt lat="48.23107" lon="7.28082">
        <ele>917.40002441406</ele>
        <time>2020-10-17T10:31:45Z</time>
      </trkpt>
      <trkpt lat="48.23105" lon="7.28086">
        <ele>917.20001220703</ele>
        <time>2020-10-17T10:32:10Z</time>
      </trkpt>
      <trkpt lat="48.23092" lon="7.28089">
        <ele>917.20001220703</ele>
        <time>2020-10-17T10:32:31Z</time>
      </trkpt>
      <trkpt lat="48.23067" lon="7.28095">
        <ele>917</ele>
        <time>2020-10-17T10:32:51Z</time>
      </trkpt>
      <trkpt lat="48.23056" lon="7.28097">
        <ele>917.79998779297</ele>
        <time>2020-10-17T10:33:11Z</time>
      </trkpt>
      <trkpt lat="48.23065" lon="7.28099">
        <ele>917.79998779297</ele>
        <time>2020-10-17T10:33:42Z</time>
      </trkpt>
      <trkpt lat="48.23065" lon="7.28101">
        <ele>918.20001220703</ele>
        <time>2020-10-17T10:34:05Z</time>
      </trkpt>
      <trkpt lat="48.2307" lon="7.28098">
        <ele>917.79998779297</ele>
        <time>2020-10-17T10:34:29Z</time>
      </trkpt>
      <trkpt lat="48.23053" lon="7.281">
        <ele>917.79998779297</ele>
        <time>2020-10-17T10:34:38Z</time>
      </trkpt>
      <trkpt lat="48.23041" lon="7.281">
        <ele>917.79998779297</ele>
        <time>2020-10-17T10:34:43Z</time>
      </trkpt>
      <trkpt lat="48.23013" lon="7.28104">
        <ele>918.20001220703</ele>
        <time>2020-10-17T10:35:04Z</time>
      </trkpt>
      <trkpt lat="48.22994" lon="7.28108">
        <ele>919</ele>
        <time>2020-10-17T10:35:17Z</time>
      </trkpt>
      <trkpt lat="48.2298" lon="7.28116">
        <ele>920.20001220703</ele>
        <time>2020-10-17T10:35:28Z</time>
      </trkpt>
      <trkpt lat="48.22965" lon="7.28124">
        <ele>921.40002441406</ele>
        <time>2020-10-17T10:35:43Z</time>
      </trkpt>
      <trkpt lat="48.22951" lon="7.2814">
        <ele>922.40002441406</ele>
        <time>2020-10-17T10:36:04Z</time>
      </trkpt>
      <trkpt lat="48.22948" lon="7.2814">
        <ele>922.59997558594</ele>
        <time>2020-10-17T10:36:06Z</time>
      </trkpt>
      <trkpt lat="48.22929" lon="7.28145">
        <ele>923</ele>
        <time>2020-10-17T10:36:20Z</time>
      </trkpt>
      <trkpt lat="48.2292" lon="7.28145">
        <ele>922.79998779297</ele>
        <time>2020-10-17T10:36:28Z</time>
      </trkpt>
      <trkpt lat="48.22909" lon="7.28146">
        <ele>922</ele>
        <time>2020-10-17T10:36:37Z</time>
      </trkpt>
      <trkpt lat="48.22908" lon="7.28146">
        <ele>922</ele>
        <time>2020-10-17T10:36:38Z</time>
      </trkpt>
      <trkpt lat="48.22897" lon="7.28152">
        <ele>922.20001220703</ele>
        <time>2020-10-17T10:36:46Z</time>
      </trkpt>
      <trkpt lat="48.2289" lon="7.28158">
        <ele>922.20001220703</ele>
        <time>2020-10-17T10:36:52Z</time>
      </trkpt>
      <trkpt lat="48.22888" lon="7.2816">
        <ele>922.20001220703</ele>
        <time>2020-10-17T10:36:53Z</time>
      </trkpt>
      <trkpt lat="48.22878" lon="7.28173">
        <ele>922.20001220703</ele>
        <time>2020-10-17T10:37:02Z</time>
      </trkpt>
      <trkpt lat="48.22877" lon="7.28174">
        <ele>922.20001220703</ele>
        <time>2020-10-17T10:37:03Z</time>
      </trkpt>
      <trkpt lat="48.22855" lon="7.28176">
        <ele>921.79998779297</ele>
        <time>2020-10-17T10:37:19Z</time>
      </trkpt>
      <trkpt lat="48.22839" lon="7.28178">
        <ele>921.59997558594</ele>
        <time>2020-10-17T10:37:36Z</time>
      </trkpt>
      <trkpt lat="48.22828" lon="7.28182">
        <ele>921.40002441406</ele>
        <time>2020-10-17T10:37:57Z</time>
      </trkpt>
      <trkpt lat="48.22824" lon="7.28184">
        <ele>921</ele>
        <time>2020-10-17T10:38:00Z</time>
      </trkpt>
      <trkpt lat="48.22812" lon="7.28189">
        <ele>920.59997558594</ele>
        <time>2020-10-17T10:38:08Z</time>
      </trkpt>
      <trkpt lat="48.22811" lon="7.2819">
        <ele>920.59997558594</ele>
        <time>2020-10-17T10:38:09Z</time>
      </trkpt>
      <trkpt lat="48.22809" lon="7.28192">
        <ele>920.59997558594</ele>
        <time>2020-10-17T10:38:10Z</time>
      </trkpt>
      <trkpt lat="48.22807" lon="7.28193">
        <ele>920.59997558594</ele>
        <time>2020-10-17T10:38:11Z</time>
      </trkpt>
      <trkpt lat="48.22806" lon="7.28194">
        <ele>920.59997558594</ele>
        <time>2020-10-17T10:38:12Z</time>
      </trkpt>
      <trkpt lat="48.22804" lon="7.28196">
        <ele>920.79998779297</ele>
        <time>2020-10-17T10:38:14Z</time>
      </trkpt>
      <trkpt lat="48.22791" lon="7.28201">
        <ele>921.20001220703</ele>
        <time>2020-10-17T10:38:24Z</time>
      </trkpt>
      <trkpt lat="48.22789" lon="7.28201">
        <ele>921.20001220703</ele>
        <time>2020-10-17T10:38:25Z</time>
      </trkpt>
      <trkpt lat="48.22787" lon="7.28201">
        <ele>921.20001220703</ele>
        <time>2020-10-17T10:38:26Z</time>
      </trkpt>
      <trkpt lat="48.22785" lon="7.28201">
        <ele>921.20001220703</ele>
        <time>2020-10-17T10:38:27Z</time>
      </trkpt>
      <trkpt lat="48.22783" lon="7.28202">
        <ele>921.20001220703</ele>
        <time>2020-10-17T10:38:28Z</time>
      </trkpt>
      <trkpt lat="48.22782" lon="7.28203">
        <ele>921.20001220703</ele>
        <time>2020-10-17T10:38:29Z</time>
      </trkpt>
      <trkpt lat="48.2278" lon="7.28203">
        <ele>921.20001220703</ele>
        <time>2020-10-17T10:38:30Z</time>
      </trkpt>
      <trkpt lat="48.22779" lon="7.28204">
        <ele>921.20001220703</ele>
        <time>2020-10-17T10:38:31Z</time>
      </trkpt>
      <trkpt lat="48.22778" lon="7.28204">
        <ele>921.20001220703</ele>
        <time>2020-10-17T10:38:32Z</time>
      </trkpt>
      <trkpt lat="48.22776" lon="7.28204">
        <ele>921.20001220703</ele>
        <time>2020-10-17T10:38:33Z</time>
      </trkpt>
      <trkpt lat="48.22775" lon="7.28205">
        <ele>921.20001220703</ele>
        <time>2020-10-17T10:38:34Z</time>
      </trkpt>
      <trkpt lat="48.22763" lon="7.28212">
        <ele>921</ele>
        <time>2020-10-17T10:38:47Z</time>
      </trkpt>
      <trkpt lat="48.22745" lon="7.28197">
        <ele>921</ele>
        <time>2020-10-17T10:39:08Z</time>
      </trkpt>
      <trkpt lat="48.22736" lon="7.28178">
        <ele>919.20001220703</ele>
        <time>2020-10-17T10:39:23Z</time>
      </trkpt>
      <trkpt lat="48.22725" lon="7.28158">
        <ele>918.59997558594</ele>
        <time>2020-10-17T10:39:36Z</time>
      </trkpt>
      <trkpt lat="48.2272" lon="7.28149">
        <ele>918.79998779297</ele>
        <time>2020-10-17T10:40:00Z</time>
      </trkpt>
      <trkpt lat="48.22725" lon="7.28162">
        <ele>918.79998779297</ele>
        <time>2020-10-17T10:40:23Z</time>
      </trkpt>
      <trkpt lat="48.22733" lon="7.28184">
        <ele>919.59997558594</ele>
        <time>2020-10-17T10:40:38Z</time>
      </trkpt>
      <trkpt lat="48.22745" lon="7.282">
        <ele>920.79998779297</ele>
        <time>2020-10-17T10:40:50Z</time>
      </trkpt>
      <trkpt lat="48.22746" lon="7.28201">
        <ele>921</ele>
        <time>2020-10-17T10:40:51Z</time>
      </trkpt>
      <trkpt lat="48.22747" lon="7.28202">
        <ele>921.20001220703</ele>
        <time>2020-10-17T10:40:52Z</time>
      </trkpt>
      <trkpt lat="48.22759" lon="7.28222">
        <ele>920.79998779297</ele>
        <time>2020-10-17T10:41:09Z</time>
      </trkpt>
      <trkpt lat="48.22757" lon="7.28236">
        <ele>918.59997558594</ele>
        <time>2020-10-17T10:41:19Z</time>
      </trkpt>
      <trkpt lat="48.22748" lon="7.28262">
        <ele>916.40002441406</ele>
        <time>2020-10-17T10:41:33Z</time>
      </trkpt>
      <trkpt lat="48.22739" lon="7.28296">
        <ele>913</ele>
        <time>2020-10-17T10:41:50Z</time>
      </trkpt>
      <trkpt lat="48.22733" lon="7.28315">
        <ele>910.59997558594</ele>
        <time>2020-10-17T10:42:02Z</time>
      </trkpt>
      <trkpt lat="48.22732" lon="7.28327">
        <ele>908.59997558594</ele>
        <time>2020-10-17T10:42:21Z</time>
      </trkpt>
      <trkpt lat="48.22732" lon="7.28338">
        <ele>907.59997558594</ele>
        <time>2020-10-17T10:42:25Z</time>
      </trkpt>
      <trkpt lat="48.22728" lon="7.28355">
        <ele>904.40002441406</ele>
        <time>2020-10-17T10:42:33Z</time>
      </trkpt>
      <trkpt lat="48.22723" lon="7.28369">
        <ele>901</ele>
        <time>2020-10-17T10:42:42Z</time>
      </trkpt>
      <trkpt lat="48.2272" lon="7.28371">
        <ele>899.59997558594</ele>
        <time>2020-10-17T10:42:46Z</time>
      </trkpt>
      <trkpt lat="48.22717" lon="7.28373">
        <ele>898.79998779297</ele>
        <time>2020-10-17T10:42:49Z</time>
      </trkpt>
      <trkpt lat="48.22713" lon="7.28375">
        <ele>897</ele>
        <time>2020-10-17T10:42:54Z</time>
      </trkpt>
      <trkpt lat="48.22709" lon="7.28378">
        <ele>894.59997558594</ele>
        <time>2020-10-17T10:43:15Z</time>
      </trkpt>
      <trkpt lat="48.22706" lon="7.2838">
        <ele>894.40002441406</ele>
        <time>2020-10-17T10:43:18Z</time>
      </trkpt>
      <trkpt lat="48.22695" lon="7.28381">
        <ele>892</ele>
        <time>2020-10-17T10:43:30Z</time>
      </trkpt>
      <trkpt lat="48.22696" lon="7.28389">
        <ele>890.40002441406</ele>
        <time>2020-10-17T10:43:53Z</time>
      </trkpt>
      <trkpt lat="48.22695" lon="7.2839">
        <ele>890.20001220703</ele>
        <time>2020-10-17T10:43:54Z</time>
      </trkpt>
      <trkpt lat="48.22686" lon="7.28398">
        <ele>887</ele>
        <time>2020-10-17T10:44:04Z</time>
      </trkpt>
      <trkpt lat="48.22681" lon="7.28409">
        <ele>883.59997558594</ele>
        <time>2020-10-17T10:44:12Z</time>
      </trkpt>
      <trkpt lat="48.22678" lon="7.28422">
        <ele>880.59997558594</ele>
        <time>2020-10-17T10:44:20Z</time>
      </trkpt>
      <trkpt lat="48.22674" lon="7.28429">
        <ele>876.79998779297</ele>
        <time>2020-10-17T10:44:27Z</time>
      </trkpt>
      <trkpt lat="48.22673" lon="7.28432">
        <ele>876.20001220703</ele>
        <time>2020-10-17T10:44:29Z</time>
      </trkpt>
      <trkpt lat="48.22666" lon="7.2845">
        <ele>874</ele>
        <time>2020-10-17T10:44:41Z</time>
      </trkpt>
      <trkpt lat="48.22657" lon="7.28463">
        <ele>872.79998779297</ele>
        <time>2020-10-17T10:44:55Z</time>
      </trkpt>
      <trkpt lat="48.22655" lon="7.28468">
        <ele>872.40002441406</ele>
        <time>2020-10-17T10:44:57Z</time>
      </trkpt>
      <trkpt lat="48.22651" lon="7.28472">
        <ele>871.79998779297</ele>
        <time>2020-10-17T10:45:00Z</time>
      </trkpt>
      <trkpt lat="48.22633" lon="7.28483">
        <ele>868.59997558594</ele>
        <time>2020-10-17T10:45:14Z</time>
      </trkpt>
      <trkpt lat="48.22629" lon="7.28487">
        <ele>867.79998779297</ele>
        <time>2020-10-17T10:45:17Z</time>
      </trkpt>
      <trkpt lat="48.22617" lon="7.28507">
        <ele>865</ele>
        <time>2020-10-17T10:45:32Z</time>
      </trkpt>
      <trkpt lat="48.22609" lon="7.28543">
        <ele>865.40002441406</ele>
        <time>2020-10-17T10:45:50Z</time>
      </trkpt>
      <trkpt lat="48.22591" lon="7.28585">
        <ele>866.20001220703</ele>
        <time>2020-10-17T10:46:13Z</time>
      </trkpt>
      <trkpt lat="48.22588" lon="7.28599">
        <ele>865.59997558594</ele>
        <time>2020-10-17T10:46:20Z</time>
      </trkpt>
      <trkpt lat="48.22573" lon="7.28634">
        <ele>864.20001220703</ele>
        <time>2020-10-17T10:46:38Z</time>
      </trkpt>
      <trkpt lat="48.22562" lon="7.28654">
        <ele>864</ele>
        <time>2020-10-17T10:46:51Z</time>
      </trkpt>
      <trkpt lat="48.22547" lon="7.28676">
        <ele>865</ele>
        <time>2020-10-17T10:47:06Z</time>
      </trkpt>
      <trkpt lat="48.22531" lon="7.28696">
        <ele>866.79998779297</ele>
        <time>2020-10-17T10:47:23Z</time>
      </trkpt>
      <trkpt lat="48.22527" lon="7.28709">
        <ele>867.20001220703</ele>
        <time>2020-10-17T10:47:31Z</time>
      </trkpt>
      <trkpt lat="48.22522" lon="7.28721">
        <ele>868</ele>
        <time>2020-10-17T10:47:37Z</time>
      </trkpt>
      <trkpt lat="48.22522" lon="7.28723">
        <ele>868</ele>
        <time>2020-10-17T10:47:38Z</time>
      </trkpt>
      <trkpt lat="48.22518" lon="7.2874">
        <ele>868.79998779297</ele>
        <time>2020-10-17T10:47:45Z</time>
      </trkpt>
      <trkpt lat="48.22507" lon="7.28762">
        <ele>869.20001220703</ele>
        <time>2020-10-17T10:47:58Z</time>
      </trkpt>
      <trkpt lat="48.225" lon="7.28769">
        <ele>869.59997558594</ele>
        <time>2020-10-17T10:48:04Z</time>
      </trkpt>
      <trkpt lat="48.22499" lon="7.2877">
        <ele>869.59997558594</ele>
        <time>2020-10-17T10:48:05Z</time>
      </trkpt>
      <trkpt lat="48.22498" lon="7.28772">
        <ele>869.79998779297</ele>
        <time>2020-10-17T10:48:06Z</time>
      </trkpt>
      <trkpt lat="48.22491" lon="7.2878">
        <ele>869.79998779297</ele>
        <time>2020-10-17T10:48:12Z</time>
      </trkpt>
      <trkpt lat="48.22479" lon="7.28796">
        <ele>870</ele>
        <time>2020-10-17T10:48:27Z</time>
      </trkpt>
      <trkpt lat="48.22473" lon="7.28812">
        <ele>870.40002441406</ele>
        <time>2020-10-17T10:48:36Z</time>
      </trkpt>
      <trkpt lat="48.22465" lon="7.28832">
        <ele>871</ele>
        <time>2020-10-17T10:48:48Z</time>
      </trkpt>
      <trkpt lat="48.22452" lon="7.28857">
        <ele>872.40002441406</ele>
        <time>2020-10-17T10:49:05Z</time>
      </trkpt>
      <trkpt lat="48.22438" lon="7.28877">
        <ele>873.59997558594</ele>
        <time>2020-10-17T10:49:19Z</time>
      </trkpt>
      <trkpt lat="48.22424" lon="7.28897">
        <ele>874</ele>
        <time>2020-10-17T10:49:32Z</time>
      </trkpt>
      <trkpt lat="48.22421" lon="7.28903">
        <ele>874.40002441406</ele>
        <time>2020-10-17T10:49:36Z</time>
      </trkpt>
      <trkpt lat="48.2241" lon="7.28921">
        <ele>877.40002441406</ele>
        <time>2020-10-17T10:49:52Z</time>
      </trkpt>
      <trkpt lat="48.22404" lon="7.28927">
        <ele>878.79998779297</ele>
        <time>2020-10-17T10:50:02Z</time>
      </trkpt>
      <trkpt lat="48.22395" lon="7.2894">
        <ele>880.20001220703</ele>
        <time>2020-10-17T10:50:12Z</time>
      </trkpt>
      <trkpt lat="48.2239" lon="7.28942">
        <ele>880.59997558594</ele>
        <time>2020-10-17T10:50:28Z</time>
      </trkpt>
      <trkpt lat="48.22376" lon="7.28955">
        <ele>882.40002441406</ele>
        <time>2020-10-17T10:50:53Z</time>
      </trkpt>
      <trkpt lat="48.2237" lon="7.28984">
        <ele>884.79998779297</ele>
        <time>2020-10-17T10:51:13Z</time>
      </trkpt>
      <trkpt lat="48.2236" lon="7.29001">
        <ele>886.40002441406</ele>
        <time>2020-10-17T10:51:26Z</time>
      </trkpt>
      <trkpt lat="48.22344" lon="7.29023">
        <ele>888</ele>
        <time>2020-10-17T10:51:43Z</time>
      </trkpt>
      <trkpt lat="48.22348" lon="7.29036">
        <ele>889</ele>
        <time>2020-10-17T10:51:59Z</time>
      </trkpt>
      <trkpt lat="48.22351" lon="7.29048">
        <ele>889.20001220703</ele>
        <time>2020-10-17T10:52:23Z</time>
      </trkpt>
      <trkpt lat="48.22352" lon="7.29047">
        <ele>889</ele>
        <time>2020-10-17T10:52:40Z</time>
      </trkpt>
      <trkpt lat="48.22341" lon="7.29035">
        <ele>889.20001220703</ele>
        <time>2020-10-17T10:53:00Z</time>
      </trkpt>
      <trkpt lat="48.22336" lon="7.29039">
        <ele>889.59997558594</ele>
        <time>2020-10-17T10:53:05Z</time>
      </trkpt>
      <trkpt lat="48.22329" lon="7.29044">
        <ele>889.79998779297</ele>
        <time>2020-10-17T10:53:10Z</time>
      </trkpt>
      <trkpt lat="48.22328" lon="7.29045">
        <ele>890</ele>
        <time>2020-10-17T10:53:11Z</time>
      </trkpt>
      <trkpt lat="48.22326" lon="7.29047">
        <ele>890</ele>
        <time>2020-10-17T10:53:12Z</time>
      </trkpt>
      <trkpt lat="48.22325" lon="7.29048">
        <ele>890</ele>
        <time>2020-10-17T10:53:13Z</time>
      </trkpt>
      <trkpt lat="48.22323" lon="7.29049">
        <ele>890.20001220703</ele>
        <time>2020-10-17T10:53:14Z</time>
      </trkpt>
      <trkpt lat="48.22306" lon="7.29058">
        <ele>891</ele>
        <time>2020-10-17T10:53:30Z</time>
      </trkpt>
      <trkpt lat="48.22305" lon="7.29058">
        <ele>891</ele>
        <time>2020-10-17T10:53:31Z</time>
      </trkpt>
      <trkpt lat="48.22303" lon="7.29059">
        <ele>890.79998779297</ele>
        <time>2020-10-17T10:53:32Z</time>
      </trkpt>
      <trkpt lat="48.22301" lon="7.2906">
        <ele>890.79998779297</ele>
        <time>2020-10-17T10:53:33Z</time>
      </trkpt>
      <trkpt lat="48.223" lon="7.29061">
        <ele>890.59997558594</ele>
        <time>2020-10-17T10:53:34Z</time>
      </trkpt>
      <trkpt lat="48.22298" lon="7.29061">
        <ele>890.59997558594</ele>
        <time>2020-10-17T10:53:35Z</time>
      </trkpt>
      <trkpt lat="48.22283" lon="7.29063">
        <ele>889.59997558594</ele>
        <time>2020-10-17T10:53:48Z</time>
      </trkpt>
      <trkpt lat="48.22282" lon="7.29063">
        <ele>889.40002441406</ele>
        <time>2020-10-17T10:53:49Z</time>
      </trkpt>
      <trkpt lat="48.22278" lon="7.29065">
        <ele>889.40002441406</ele>
        <time>2020-10-17T10:53:52Z</time>
      </trkpt>
      <trkpt lat="48.22263" lon="7.29072">
        <ele>890.59997558594</ele>
        <time>2020-10-17T10:54:11Z</time>
      </trkpt>
      <trkpt lat="48.22248" lon="7.29073">
        <ele>890</ele>
        <time>2020-10-17T10:54:29Z</time>
      </trkpt>
      <trkpt lat="48.22233" lon="7.2908">
        <ele>889</ele>
        <time>2020-10-17T10:54:40Z</time>
      </trkpt>
      <trkpt lat="48.22232" lon="7.29081">
        <ele>889</ele>
        <time>2020-10-17T10:54:41Z</time>
      </trkpt>
      <trkpt lat="48.2223" lon="7.29082">
        <ele>889</ele>
        <time>2020-10-17T10:54:42Z</time>
      </trkpt>
      <trkpt lat="48.22217" lon="7.2909">
        <ele>889</ele>
        <time>2020-10-17T10:54:51Z</time>
      </trkpt>
      <trkpt lat="48.22207" lon="7.29099">
        <ele>889.59997558594</ele>
        <time>2020-10-17T10:55:01Z</time>
      </trkpt>
      <trkpt lat="48.22193" lon="7.29105">
        <ele>890.59997558594</ele>
        <time>2020-10-17T10:55:15Z</time>
      </trkpt>
      <trkpt lat="48.22186" lon="7.29112">
        <ele>890.59997558594</ele>
        <time>2020-10-17T10:55:34Z</time>
      </trkpt>
      <trkpt lat="48.22162" lon="7.29116">
        <ele>892.40002441406</ele>
        <time>2020-10-17T10:55:54Z</time>
      </trkpt>
      <trkpt lat="48.22141" lon="7.29117">
        <ele>894.20001220703</ele>
        <time>2020-10-17T10:56:09Z</time>
      </trkpt>
      <trkpt lat="48.2214" lon="7.29118">
        <ele>894.40002441406</ele>
        <time>2020-10-17T10:56:10Z</time>
      </trkpt>
      <trkpt lat="48.22134" lon="7.29117">
        <ele>894.59997558594</ele>
        <time>2020-10-17T10:56:14Z</time>
      </trkpt>
      <trkpt lat="48.22122" lon="7.29118">
        <ele>895.40002441406</ele>
        <time>2020-10-17T10:56:24Z</time>
      </trkpt>
      <trkpt lat="48.22114" lon="7.29118">
        <ele>897</ele>
        <time>2020-10-17T10:56:35Z</time>
      </trkpt>
      <trkpt lat="48.22107" lon="7.29121">
        <ele>898.40002441406</ele>
        <time>2020-10-17T10:56:43Z</time>
      </trkpt>
      <trkpt lat="48.22094" lon="7.29125">
        <ele>900</ele>
        <time>2020-10-17T10:56:54Z</time>
      </trkpt>
      <trkpt lat="48.22079" lon="7.29121">
        <ele>903</ele>
        <time>2020-10-17T10:57:08Z</time>
      </trkpt>
      <trkpt lat="48.22068" lon="7.29122">
        <ele>904.20001220703</ele>
        <time>2020-10-17T10:57:17Z</time>
      </trkpt>
      <trkpt lat="48.22061" lon="7.29123">
        <ele>904.59997558594</ele>
        <time>2020-10-17T10:57:22Z</time>
      </trkpt>
      <trkpt lat="48.22044" lon="7.29122">
        <ele>904.59997558594</ele>
        <time>2020-10-17T10:57:37Z</time>
      </trkpt>
      <trkpt lat="48.22033" lon="7.29123">
        <ele>903.20001220703</ele>
        <time>2020-10-17T10:57:47Z</time>
      </trkpt>
      <trkpt lat="48.22012" lon="7.29125">
        <ele>901</ele>
        <time>2020-10-17T10:58:04Z</time>
      </trkpt>
      <trkpt lat="48.2201" lon="7.29114">
        <ele>899.20001220703</ele>
        <time>2020-10-17T10:58:21Z</time>
      </trkpt>
      <trkpt lat="48.22016" lon="7.29107">
        <ele>898.40002441406</ele>
        <time>2020-10-17T10:58:34Z</time>
      </trkpt>
      <trkpt lat="48.22014" lon="7.29105">
        <ele>898.59997558594</ele>
        <time>2020-10-17T10:59:00Z</time>
      </trkpt>
      <trkpt lat="48.22012" lon="7.29102">
        <ele>898.20001220703</ele>
        <time>2020-10-17T10:59:29Z</time>
      </trkpt>
      <trkpt lat="48.21999" lon="7.29098">
        <ele>895</ele>
        <time>2020-10-17T10:59:39Z</time>
      </trkpt>
      <trkpt lat="48.21993" lon="7.29096">
        <ele>891.79998779297</ele>
        <time>2020-10-17T10:59:48Z</time>
      </trkpt>
      <trkpt lat="48.22002" lon="7.29084">
        <ele>888.59997558594</ele>
        <time>2020-10-17T11:00:08Z</time>
      </trkpt>
      <trkpt lat="48.22008" lon="7.29077">
        <ele>884.59997558594</ele>
        <time>2020-10-17T11:00:19Z</time>
      </trkpt>
      <trkpt lat="48.22007" lon="7.29077">
        <ele>884.59997558594</ele>
        <time>2020-10-17T11:00:20Z</time>
      </trkpt>
      <trkpt lat="48.22004" lon="7.29073">
        <ele>882.40002441406</ele>
        <time>2020-10-17T11:00:25Z</time>
      </trkpt>
      <trkpt lat="48.21999" lon="7.29071">
        <ele>879.20001220703</ele>
        <time>2020-10-17T11:00:35Z</time>
      </trkpt>
      <trkpt lat="48.22002" lon="7.29071">
        <ele>879</ele>
        <time>2020-10-17T11:01:02Z</time>
      </trkpt>
      <trkpt lat="48.22001" lon="7.29069">
        <ele>879.40002441406</ele>
        <time>2020-10-17T11:01:20Z</time>
      </trkpt>
      <trkpt lat="48.21991" lon="7.29067">
        <ele>878.59997558594</ele>
        <time>2020-10-17T11:01:46Z</time>
      </trkpt>
      <trkpt lat="48.21994" lon="7.29066">
        <ele>878</ele>
        <time>2020-10-17T11:02:15Z</time>
      </trkpt>
      <trkpt lat="48.21995" lon="7.29065">
        <ele>878.40002441406</ele>
        <time>2020-10-17T11:02:47Z</time>
      </trkpt>
      <trkpt lat="48.21989" lon="7.29063">
        <ele>878.59997558594</ele>
        <time>2020-10-17T11:03:09Z</time>
      </trkpt>
      <trkpt lat="48.21988" lon="7.29065">
        <ele>878.59997558594</ele>
        <time>2020-10-17T11:03:36Z</time>
      </trkpt>
      <trkpt lat="48.2198" lon="7.29058">
        <ele>878.59997558594</ele>
        <time>2020-10-17T11:03:54Z</time>
      </trkpt>
      <trkpt lat="48.21979" lon="7.29058">
        <ele>878.59997558594</ele>
        <time>2020-10-17T11:03:55Z</time>
      </trkpt>
      <trkpt lat="48.21976" lon="7.29057">
        <ele>878.59997558594</ele>
        <time>2020-10-17T11:03:57Z</time>
      </trkpt>
      <trkpt lat="48.21974" lon="7.29058">
        <ele>878</ele>
        <time>2020-10-17T11:03:58Z</time>
      </trkpt>
      <trkpt lat="48.21969" lon="7.2906">
        <ele>874.20001220703</ele>
        <time>2020-10-17T11:04:01Z</time>
      </trkpt>
      <trkpt lat="48.21971" lon="7.29054">
        <ele>871.40002441406</ele>
        <time>2020-10-17T11:04:08Z</time>
      </trkpt>
      <trkpt lat="48.21972" lon="7.29051">
        <ele>868.20001220703</ele>
        <time>2020-10-17T11:04:15Z</time>
      </trkpt>
      <trkpt lat="48.21969" lon="7.29052">
        <ele>867.59997558594</ele>
        <time>2020-10-17T11:04:17Z</time>
      </trkpt>
      <trkpt lat="48.21968" lon="7.29052">
        <ele>867.20001220703</ele>
        <time>2020-10-17T11:04:18Z</time>
      </trkpt>
      <trkpt lat="48.21966" lon="7.29052">
        <ele>866.79998779297</ele>
        <time>2020-10-17T11:04:19Z</time>
      </trkpt>
      <trkpt lat="48.21955" lon="7.29056">
        <ele>863.40002441406</ele>
        <time>2020-10-17T11:04:26Z</time>
      </trkpt>
      <trkpt lat="48.21942" lon="7.29056">
        <ele>860.20001220703</ele>
        <time>2020-10-17T11:04:33Z</time>
      </trkpt>
      <trkpt lat="48.21932" lon="7.29055">
        <ele>857</ele>
        <time>2020-10-17T11:04:39Z</time>
      </trkpt>
      <trkpt lat="48.21925" lon="7.29055">
        <ele>854.59997558594</ele>
        <time>2020-10-17T11:04:43Z</time>
      </trkpt>
      <trkpt lat="48.21923" lon="7.29056">
        <ele>854</ele>
        <time>2020-10-17T11:04:44Z</time>
      </trkpt>
      <trkpt lat="48.21921" lon="7.29057">
        <ele>853.40002441406</ele>
        <time>2020-10-17T11:04:45Z</time>
      </trkpt>
      <trkpt lat="48.21918" lon="7.29062">
        <ele>852.59997558594</ele>
        <time>2020-10-17T11:04:48Z</time>
      </trkpt>
      <trkpt lat="48.21909" lon="7.29072">
        <ele>849.59997558594</ele>
        <time>2020-10-17T11:04:54Z</time>
      </trkpt>
      <trkpt lat="48.21907" lon="7.29079">
        <ele>848</ele>
        <time>2020-10-17T11:04:58Z</time>
      </trkpt>
      <trkpt lat="48.21904" lon="7.29083">
        <ele>847.20001220703</ele>
        <time>2020-10-17T11:05:01Z</time>
      </trkpt>
      <trkpt lat="48.21894" lon="7.29104">
        <ele>843.79998779297</ele>
        <time>2020-10-17T11:05:12Z</time>
      </trkpt>
      <trkpt lat="48.21889" lon="7.29116">
        <ele>840.59997558594</ele>
        <time>2020-10-17T11:05:18Z</time>
      </trkpt>
      <trkpt lat="48.21883" lon="7.29121">
        <ele>837.59997558594</ele>
        <time>2020-10-17T11:05:25Z</time>
      </trkpt>
      <trkpt lat="48.21878" lon="7.2911">
        <ele>834.20001220703</ele>
        <time>2020-10-17T11:05:36Z</time>
      </trkpt>
      <trkpt lat="48.21876" lon="7.29103">
        <ele>832.79998779297</ele>
        <time>2020-10-17T11:05:40Z</time>
      </trkpt>
      <trkpt lat="48.21875" lon="7.29101">
        <ele>832.40002441406</ele>
        <time>2020-10-17T11:05:41Z</time>
      </trkpt>
      <trkpt lat="48.21875" lon="7.29098">
        <ele>832</ele>
        <time>2020-10-17T11:05:42Z</time>
      </trkpt>
      <trkpt lat="48.21869" lon="7.29076">
        <ele>828.79998779297</ele>
        <time>2020-10-17T11:05:53Z</time>
      </trkpt>
      <trkpt lat="48.21867" lon="7.29074">
        <ele>827.20001220703</ele>
        <time>2020-10-17T11:05:57Z</time>
      </trkpt>
      <trkpt lat="48.21862" lon="7.29084">
        <ele>823.40002441406</ele>
        <time>2020-10-17T11:06:04Z</time>
      </trkpt>
      <trkpt lat="48.21857" lon="7.29101">
        <ele>820.20001220703</ele>
        <time>2020-10-17T11:06:13Z</time>
      </trkpt>
      <trkpt lat="48.21851" lon="7.29119">
        <ele>816.40002441406</ele>
        <time>2020-10-17T11:06:24Z</time>
      </trkpt>
      <trkpt lat="48.21843" lon="7.29108">
        <ele>813.40002441406</ele>
        <time>2020-10-17T11:06:34Z</time>
      </trkpt>
      <trkpt lat="48.21839" lon="7.291">
        <ele>811.40002441406</ele>
        <time>2020-10-17T11:06:40Z</time>
      </trkpt>
      <trkpt lat="48.21831" lon="7.29101">
        <ele>808</ele>
        <time>2020-10-17T11:06:48Z</time>
      </trkpt>
      <trkpt lat="48.2183" lon="7.29102">
        <ele>807.59997558594</ele>
        <time>2020-10-17T11:06:49Z</time>
      </trkpt>
      <trkpt lat="48.21825" lon="7.29106">
        <ele>804.59997558594</ele>
        <time>2020-10-17T11:06:56Z</time>
      </trkpt>
      <trkpt lat="48.21821" lon="7.29115">
        <ele>801.59997558594</ele>
        <time>2020-10-17T11:07:02Z</time>
      </trkpt>
      <trkpt lat="48.21816" lon="7.29125">
        <ele>798.40002441406</ele>
        <time>2020-10-17T11:07:10Z</time>
      </trkpt>
      <trkpt lat="48.21809" lon="7.2913">
        <ele>795</ele>
        <time>2020-10-17T11:07:16Z</time>
      </trkpt>
      <trkpt lat="48.21805" lon="7.2913">
        <ele>794</ele>
        <time>2020-10-17T11:07:35Z</time>
      </trkpt>
      <trkpt lat="48.21806" lon="7.29144">
        <ele>793.79998779297</ele>
        <time>2020-10-17T11:07:58Z</time>
      </trkpt>
      <trkpt lat="48.2181" lon="7.2917">
        <ele>792.79998779297</ele>
        <time>2020-10-17T11:08:13Z</time>
      </trkpt>
      <trkpt lat="48.21809" lon="7.29173">
        <ele>791.40002441406</ele>
        <time>2020-10-17T11:08:26Z</time>
      </trkpt>
      <trkpt lat="48.21808" lon="7.29165">
        <ele>792.40002441406</ele>
        <time>2020-10-17T11:08:30Z</time>
      </trkpt>
      <trkpt lat="48.21809" lon="7.29163">
        <ele>792.79998779297</ele>
        <time>2020-10-17T11:08:31Z</time>
      </trkpt>
      <trkpt lat="48.21808" lon="7.2916">
        <ele>792.79998779297</ele>
        <time>2020-10-17T11:08:32Z</time>
      </trkpt>
      <trkpt lat="48.21804" lon="7.29144">
        <ele>793.40002441406</ele>
        <time>2020-10-17T11:08:41Z</time>
      </trkpt>
      <trkpt lat="48.21804" lon="7.29143">
        <ele>793.40002441406</ele>
        <time>2020-10-17T11:08:42Z</time>
      </trkpt>
      <trkpt lat="48.21804" lon="7.29138">
        <ele>793.59997558594</ele>
        <time>2020-10-17T11:08:45Z</time>
      </trkpt>
      <trkpt lat="48.21802" lon="7.29132">
        <ele>793.79998779297</ele>
        <time>2020-10-17T11:08:49Z</time>
      </trkpt>
      <trkpt lat="48.21801" lon="7.29131">
        <ele>793.79998779297</ele>
        <time>2020-10-17T11:08:50Z</time>
      </trkpt>
      <trkpt lat="48.21801" lon="7.29129">
        <ele>793.59997558594</ele>
        <time>2020-10-17T11:08:51Z</time>
      </trkpt>
      <trkpt lat="48.21798" lon="7.29108">
        <ele>790.59997558594</ele>
        <time>2020-10-17T11:09:02Z</time>
      </trkpt>
      <trkpt lat="48.21792" lon="7.29086">
        <ele>787.40002441406</ele>
        <time>2020-10-17T11:09:14Z</time>
      </trkpt>
      <trkpt lat="48.2179" lon="7.29065">
        <ele>784.79998779297</ele>
        <time>2020-10-17T11:09:25Z</time>
      </trkpt>
      <trkpt lat="48.21788" lon="7.2905">
        <ele>783.40002441406</ele>
        <time>2020-10-17T11:09:33Z</time>
      </trkpt>
      <trkpt lat="48.21788" lon="7.29047">
        <ele>783.20001220703</ele>
        <time>2020-10-17T11:09:34Z</time>
      </trkpt>
      <trkpt lat="48.21788" lon="7.29045">
        <ele>783</ele>
        <time>2020-10-17T11:09:35Z</time>
      </trkpt>
      <trkpt lat="48.21788" lon="7.29042">
        <ele>782.79998779297</ele>
        <time>2020-10-17T11:09:36Z</time>
      </trkpt>
      <trkpt lat="48.21788" lon="7.2904">
        <ele>782.59997558594</ele>
        <time>2020-10-17T11:09:37Z</time>
      </trkpt>
      <trkpt lat="48.21788" lon="7.29031">
        <ele>781.40002441406</ele>
        <time>2020-10-17T11:09:41Z</time>
      </trkpt>
      <trkpt lat="48.21788" lon="7.29028">
        <ele>781.20001220703</ele>
        <time>2020-10-17T11:09:42Z</time>
      </trkpt>
      <trkpt lat="48.21787" lon="7.29021">
        <ele>780.20001220703</ele>
        <time>2020-10-17T11:09:46Z</time>
      </trkpt>
      <trkpt lat="48.21778" lon="7.2902">
        <ele>776.79998779297</ele>
        <time>2020-10-17T11:09:55Z</time>
      </trkpt>
      <trkpt lat="48.21769" lon="7.29031">
        <ele>773.59997558594</ele>
        <time>2020-10-17T11:10:04Z</time>
      </trkpt>
      <trkpt lat="48.21768" lon="7.29032">
        <ele>773.20001220703</ele>
        <time>2020-10-17T11:10:05Z</time>
      </trkpt>
      <trkpt lat="48.2176" lon="7.2904">
        <ele>769.59997558594</ele>
        <time>2020-10-17T11:10:15Z</time>
      </trkpt>
      <trkpt lat="48.21751" lon="7.29047">
        <ele>766.20001220703</ele>
        <time>2020-10-17T11:10:24Z</time>
      </trkpt>
      <trkpt lat="48.2175" lon="7.29049">
        <ele>766</ele>
        <time>2020-10-17T11:10:25Z</time>
      </trkpt>
      <trkpt lat="48.21742" lon="7.29046">
        <ele>762.79998779297</ele>
        <time>2020-10-17T11:10:36Z</time>
      </trkpt>
      <trkpt lat="48.21738" lon="7.29036">
        <ele>759.79998779297</ele>
        <time>2020-10-17T11:10:44Z</time>
      </trkpt>
      <trkpt lat="48.21736" lon="7.29023">
        <ele>757</ele>
        <time>2020-10-17T11:10:53Z</time>
      </trkpt>
      <trkpt lat="48.21729" lon="7.29006">
        <ele>754</ele>
        <time>2020-10-17T11:11:03Z</time>
      </trkpt>
      <trkpt lat="48.21725" lon="7.2899">
        <ele>750.79998779297</ele>
        <time>2020-10-17T11:11:13Z</time>
      </trkpt>
      <trkpt lat="48.21716" lon="7.2899">
        <ele>747.59997558594</ele>
        <time>2020-10-17T11:11:21Z</time>
      </trkpt>
      <trkpt lat="48.21706" lon="7.28996">
        <ele>744.20001220703</ele>
        <time>2020-10-17T11:11:30Z</time>
      </trkpt>
      <trkpt lat="48.21699" lon="7.29">
        <ele>742.59997558594</ele>
        <time>2020-10-17T11:11:35Z</time>
      </trkpt>
      <trkpt lat="48.2169" lon="7.29008">
        <ele>739</ele>
        <time>2020-10-17T11:11:44Z</time>
      </trkpt>
      <trkpt lat="48.21681" lon="7.29016">
        <ele>736.40002441406</ele>
        <time>2020-10-17T11:11:51Z</time>
      </trkpt>
      <trkpt lat="48.21678" lon="7.29019">
        <ele>735.40002441406</ele>
        <time>2020-10-17T11:11:54Z</time>
      </trkpt>
      <trkpt lat="48.21669" lon="7.29023">
        <ele>733.59997558594</ele>
        <time>2020-10-17T11:12:00Z</time>
      </trkpt>
      <trkpt lat="48.21667" lon="7.29024">
        <ele>733.40002441406</ele>
        <time>2020-10-17T11:12:01Z</time>
      </trkpt>
      <trkpt lat="48.21665" lon="7.29052">
        <ele>732.59997558594</ele>
        <time>2020-10-17T11:12:19Z</time>
      </trkpt>
      <trkpt lat="48.21665" lon="7.29055">
        <ele>732.79998779297</ele>
        <time>2020-10-17T11:12:20Z</time>
      </trkpt>
      <trkpt lat="48.21667" lon="7.29064">
        <ele>733.20001220703</ele>
        <time>2020-10-17T11:12:24Z</time>
      </trkpt>
      <trkpt lat="48.21668" lon="7.29073">
        <ele>733.40002441406</ele>
        <time>2020-10-17T11:12:28Z</time>
      </trkpt>
      <trkpt lat="48.21668" lon="7.29099">
        <ele>734.20001220703</ele>
        <time>2020-10-17T11:12:40Z</time>
      </trkpt>
      <trkpt lat="48.21669" lon="7.29104">
        <ele>734.40002441406</ele>
        <time>2020-10-17T11:12:42Z</time>
      </trkpt>
      <trkpt lat="48.21669" lon="7.29106">
        <ele>734.40002441406</ele>
        <time>2020-10-17T11:12:43Z</time>
      </trkpt>
      <trkpt lat="48.21669" lon="7.29108">
        <ele>734.40002441406</ele>
        <time>2020-10-17T11:12:44Z</time>
      </trkpt>
      <trkpt lat="48.21669" lon="7.29111">
        <ele>734.40002441406</ele>
        <time>2020-10-17T11:12:45Z</time>
      </trkpt>
      <trkpt lat="48.21669" lon="7.29113">
        <ele>734.40002441406</ele>
        <time>2020-10-17T11:12:46Z</time>
      </trkpt>
      <trkpt lat="48.21668" lon="7.29117">
        <ele>734.59997558594</ele>
        <time>2020-10-17T11:12:48Z</time>
      </trkpt>
      <trkpt lat="48.21674" lon="7.29136">
        <ele>735</ele>
        <time>2020-10-17T11:12:58Z</time>
      </trkpt>
      <trkpt lat="48.21674" lon="7.29138">
        <ele>735</ele>
        <time>2020-10-17T11:12:59Z</time>
      </trkpt>
      <trkpt lat="48.21675" lon="7.2914">
        <ele>735.20001220703</ele>
        <time>2020-10-17T11:13:00Z</time>
      </trkpt>
      <trkpt lat="48.21681" lon="7.29163">
        <ele>735.79998779297</ele>
        <time>2020-10-17T11:13:11Z</time>
      </trkpt>
      <trkpt lat="48.21682" lon="7.29165">
        <ele>735.79998779297</ele>
        <time>2020-10-17T11:13:12Z</time>
      </trkpt>
      <trkpt lat="48.21682" lon="7.29167">
        <ele>736</ele>
        <time>2020-10-17T11:13:13Z</time>
      </trkpt>
      <trkpt lat="48.21683" lon="7.2917">
        <ele>736</ele>
        <time>2020-10-17T11:13:15Z</time>
      </trkpt>
      <trkpt lat="48.21691" lon="7.29188">
        <ele>737.20001220703</ele>
        <time>2020-10-17T11:13:28Z</time>
      </trkpt>
      <trkpt lat="48.21701" lon="7.29212">
        <ele>739</ele>
        <time>2020-10-17T11:13:44Z</time>
      </trkpt>
      <trkpt lat="48.21703" lon="7.29213">
        <ele>739.20001220703</ele>
        <time>2020-10-17T11:13:45Z</time>
      </trkpt>
      <trkpt lat="48.21704" lon="7.29215">
        <ele>739.40002441406</ele>
        <time>2020-10-17T11:13:46Z</time>
      </trkpt>
      <trkpt lat="48.21705" lon="7.29217">
        <ele>739.40002441406</ele>
        <time>2020-10-17T11:13:47Z</time>
      </trkpt>
      <trkpt lat="48.21706" lon="7.29219">
        <ele>739.59997558594</ele>
        <time>2020-10-17T11:13:48Z</time>
      </trkpt>
      <trkpt lat="48.21707" lon="7.29221">
        <ele>739.59997558594</ele>
        <time>2020-10-17T11:13:49Z</time>
      </trkpt>
      <trkpt lat="48.21714" lon="7.29238">
        <ele>740.59997558594</ele>
        <time>2020-10-17T11:14:01Z</time>
      </trkpt>
      <trkpt lat="48.21717" lon="7.29252">
        <ele>741</ele>
        <time>2020-10-17T11:14:08Z</time>
      </trkpt>
      <trkpt lat="48.21718" lon="7.29255">
        <ele>741</ele>
        <time>2020-10-17T11:14:09Z</time>
      </trkpt>
      <trkpt lat="48.21727" lon="7.29293">
        <ele>740.40002441406</ele>
        <time>2020-10-17T11:14:26Z</time>
      </trkpt>
      <trkpt lat="48.21736" lon="7.2932">
        <ele>741.20001220703</ele>
        <time>2020-10-17T11:14:42Z</time>
      </trkpt>
      <trkpt lat="48.21741" lon="7.2933">
        <ele>741.59997558594</ele>
        <time>2020-10-17T11:14:47Z</time>
      </trkpt>
      <trkpt lat="48.21754" lon="7.29353">
        <ele>743</ele>
        <time>2020-10-17T11:15:02Z</time>
      </trkpt>
      <trkpt lat="48.21774" lon="7.2938">
        <ele>745.20001220703</ele>
        <time>2020-10-17T11:15:21Z</time>
      </trkpt>
      <trkpt lat="48.21788" lon="7.29394">
        <ele>747</ele>
        <time>2020-10-17T11:15:35Z</time>
      </trkpt>
      <trkpt lat="48.21801" lon="7.29411">
        <ele>748.79998779297</ele>
        <time>2020-10-17T11:15:49Z</time>
      </trkpt>
      <trkpt lat="48.21815" lon="7.29431">
        <ele>749.59997558594</ele>
        <time>2020-10-17T11:16:03Z</time>
      </trkpt>
      <trkpt lat="48.21833" lon="7.2945">
        <ele>750.59997558594</ele>
        <time>2020-10-17T11:16:19Z</time>
      </trkpt>
      <trkpt lat="48.21853" lon="7.29465">
        <ele>750.59997558594</ele>
        <time>2020-10-17T11:16:35Z</time>
      </trkpt>
      <trkpt lat="48.21871" lon="7.29488">
        <ele>749.20001220703</ele>
        <time>2020-10-17T11:16:51Z</time>
      </trkpt>
      <trkpt lat="48.2189" lon="7.2951">
        <ele>747.20001220703</ele>
        <time>2020-10-17T11:17:07Z</time>
      </trkpt>
      <trkpt lat="48.21903" lon="7.29526">
        <ele>746.20001220703</ele>
        <time>2020-10-17T11:17:19Z</time>
      </trkpt>
      <trkpt lat="48.21917" lon="7.29544">
        <ele>745.40002441406</ele>
        <time>2020-10-17T11:17:34Z</time>
      </trkpt>
      <trkpt lat="48.21934" lon="7.29556">
        <ele>744.79998779297</ele>
        <time>2020-10-17T11:17:48Z</time>
      </trkpt>
      <trkpt lat="48.21951" lon="7.29574">
        <ele>744.20001220703</ele>
        <time>2020-10-17T11:18:03Z</time>
      </trkpt>
      <trkpt lat="48.21968" lon="7.29599">
        <ele>741.59997558594</ele>
        <time>2020-10-17T11:18:17Z</time>
      </trkpt>
      <trkpt lat="48.21974" lon="7.29616">
        <ele>738.40002441406</ele>
        <time>2020-10-17T11:18:27Z</time>
      </trkpt>
      <trkpt lat="48.21982" lon="7.2963">
        <ele>736.40002441406</ele>
        <time>2020-10-17T11:18:35Z</time>
      </trkpt>
      <trkpt lat="48.21983" lon="7.29633">
        <ele>736.20001220703</ele>
        <time>2020-10-17T11:18:36Z</time>
      </trkpt>
      <trkpt lat="48.21984" lon="7.29634">
        <ele>736.20001220703</ele>
        <time>2020-10-17T11:18:37Z</time>
      </trkpt>
      <trkpt lat="48.21985" lon="7.29636">
        <ele>736</ele>
        <time>2020-10-17T11:18:38Z</time>
      </trkpt>
      <trkpt lat="48.21986" lon="7.29638">
        <ele>736</ele>
        <time>2020-10-17T11:18:39Z</time>
      </trkpt>
      <trkpt lat="48.22005" lon="7.29659">
        <ele>734.40002441406</ele>
        <time>2020-10-17T11:18:54Z</time>
      </trkpt>
      <trkpt lat="48.22001" lon="7.29679">
        <ele>733.79998779297</ele>
        <time>2020-10-17T11:19:10Z</time>
      </trkpt>
      <trkpt lat="48.22002" lon="7.29688">
        <ele>732.20001220703</ele>
        <time>2020-10-17T11:19:26Z</time>
      </trkpt>
      <trkpt lat="48.21995" lon="7.29714">
        <ele>729.20001220703</ele>
        <time>2020-10-17T11:19:40Z</time>
      </trkpt>
      <trkpt lat="48.21994" lon="7.29717">
        <ele>728.79998779297</ele>
        <time>2020-10-17T11:19:41Z</time>
      </trkpt>
      <trkpt lat="48.2199" lon="7.29754">
        <ele>726.79998779297</ele>
        <time>2020-10-17T11:19:56Z</time>
      </trkpt>
      <trkpt lat="48.21989" lon="7.29761">
        <ele>726.40002441406</ele>
        <time>2020-10-17T11:20:00Z</time>
      </trkpt>
      <trkpt lat="48.21988" lon="7.29763">
        <ele>726.20001220703</ele>
        <time>2020-10-17T11:20:01Z</time>
      </trkpt>
      <trkpt lat="48.21987" lon="7.29765">
        <ele>726</ele>
        <time>2020-10-17T11:20:02Z</time>
      </trkpt>
      <trkpt lat="48.21986" lon="7.29767">
        <ele>725.79998779297</ele>
        <time>2020-10-17T11:20:03Z</time>
      </trkpt>
      <trkpt lat="48.21985" lon="7.29768">
        <ele>725.59997558594</ele>
        <time>2020-10-17T11:20:04Z</time>
      </trkpt>
      <trkpt lat="48.21979" lon="7.29779">
        <ele>723.79998779297</ele>
        <time>2020-10-17T11:20:12Z</time>
      </trkpt>
      <trkpt lat="48.21978" lon="7.29781">
        <ele>723.40002441406</ele>
        <time>2020-10-17T11:20:13Z</time>
      </trkpt>
      <trkpt lat="48.21976" lon="7.29785">
        <ele>722.59997558594</ele>
        <time>2020-10-17T11:20:16Z</time>
      </trkpt>
      <trkpt lat="48.21975" lon="7.29787">
        <ele>722.40002441406</ele>
        <time>2020-10-17T11:20:17Z</time>
      </trkpt>
      <trkpt lat="48.21974" lon="7.29789">
        <ele>722.20001220703</ele>
        <time>2020-10-17T11:20:18Z</time>
      </trkpt>
      <trkpt lat="48.21972" lon="7.29791">
        <ele>721.59997558594</ele>
        <time>2020-10-17T11:20:19Z</time>
      </trkpt>
      <trkpt lat="48.2197" lon="7.29792">
        <ele>721.59997558594</ele>
        <time>2020-10-17T11:20:20Z</time>
      </trkpt>
      <trkpt lat="48.21969" lon="7.29794">
        <ele>721</ele>
        <time>2020-10-17T11:20:21Z</time>
      </trkpt>
      <trkpt lat="48.21968" lon="7.29796">
        <ele>721</ele>
        <time>2020-10-17T11:20:22Z</time>
      </trkpt>
      <trkpt lat="48.21963" lon="7.2981">
        <ele>718.79998779297</ele>
        <time>2020-10-17T11:20:29Z</time>
      </trkpt>
      <trkpt lat="48.21962" lon="7.29812">
        <ele>718.40002441406</ele>
        <time>2020-10-17T11:20:30Z</time>
      </trkpt>
      <trkpt lat="48.21955" lon="7.29826">
        <ele>715.20001220703</ele>
        <time>2020-10-17T11:20:40Z</time>
      </trkpt>
      <trkpt lat="48.21953" lon="7.29828">
        <ele>714.59997558594</ele>
        <time>2020-10-17T11:20:42Z</time>
      </trkpt>
      <trkpt lat="48.21952" lon="7.29829">
        <ele>714.20001220703</ele>
        <time>2020-10-17T11:20:43Z</time>
      </trkpt>
      <trkpt lat="48.21951" lon="7.2983">
        <ele>713.79998779297</ele>
        <time>2020-10-17T11:20:44Z</time>
      </trkpt>
      <trkpt lat="48.21945" lon="7.29832">
        <ele>710.59997558594</ele>
        <time>2020-10-17T11:20:50Z</time>
      </trkpt>
      <trkpt lat="48.21939" lon="7.29836">
        <ele>707.20001220703</ele>
        <time>2020-10-17T11:20:57Z</time>
      </trkpt>
      <trkpt lat="48.21928" lon="7.29839">
        <ele>704.20001220703</ele>
        <time>2020-10-17T11:21:03Z</time>
      </trkpt>
      <trkpt lat="48.21926" lon="7.29839">
        <ele>703.40002441406</ele>
        <time>2020-10-17T11:21:04Z</time>
      </trkpt>
      <trkpt lat="48.21921" lon="7.2984">
        <ele>701.59997558594</ele>
        <time>2020-10-17T11:21:07Z</time>
      </trkpt>
      <trkpt lat="48.21914" lon="7.29846">
        <ele>698.40002441406</ele>
        <time>2020-10-17T11:21:13Z</time>
      </trkpt>
      <trkpt lat="48.21912" lon="7.29848">
        <ele>697</ele>
        <time>2020-10-17T11:21:33Z</time>
      </trkpt>
      <trkpt lat="48.21915" lon="7.29851">
        <ele>697.40002441406</ele>
        <time>2020-10-17T11:21:55Z</time>
      </trkpt>
      <trkpt lat="48.21905" lon="7.29829">
        <ele>696.40002441406</ele>
        <time>2020-10-17T11:22:11Z</time>
      </trkpt>
      <trkpt lat="48.219" lon="7.29817">
        <ele>694.40002441406</ele>
        <time>2020-10-17T11:22:26Z</time>
      </trkpt>
      <trkpt lat="48.21904" lon="7.29802">
        <ele>696.20001220703</ele>
        <time>2020-10-17T11:22:43Z</time>
      </trkpt>
      <trkpt lat="48.21913" lon="7.29782">
        <ele>699</ele>
        <time>2020-10-17T11:23:02Z</time>
      </trkpt>
      <trkpt lat="48.21913" lon="7.29772">
        <ele>702</ele>
        <time>2020-10-17T11:23:18Z</time>
      </trkpt>
      <trkpt lat="48.21916" lon="7.29761">
        <ele>702.59997558594</ele>
        <time>2020-10-17T11:23:38Z</time>
      </trkpt>
      <trkpt lat="48.21917" lon="7.29758">
        <ele>703</ele>
        <time>2020-10-17T11:23:41Z</time>
      </trkpt>
      <trkpt lat="48.2192" lon="7.29756">
        <ele>706.40002441406</ele>
        <time>2020-10-17T11:23:57Z</time>
      </trkpt>
      <trkpt lat="48.21921" lon="7.29747">
        <ele>708.40002441406</ele>
        <time>2020-10-17T11:24:12Z</time>
      </trkpt>
      <trkpt lat="48.21926" lon="7.29724">
        <ele>711.20001220703</ele>
        <time>2020-10-17T11:24:32Z</time>
      </trkpt>
      <trkpt lat="48.21926" lon="7.29702">
        <ele>712</ele>
        <time>2020-10-17T11:24:52Z</time>
      </trkpt>
      <trkpt lat="48.21913" lon="7.29687">
        <ele>711</ele>
        <time>2020-10-17T11:25:10Z</time>
      </trkpt>
      <trkpt lat="48.2191" lon="7.29684">
        <ele>710.59997558594</ele>
        <time>2020-10-17T11:25:14Z</time>
      </trkpt>
      <trkpt lat="48.21909" lon="7.29683">
        <ele>710.20001220703</ele>
        <time>2020-10-17T11:25:15Z</time>
      </trkpt>
      <trkpt lat="48.21907" lon="7.29678">
        <ele>707.59997558594</ele>
        <time>2020-10-17T11:25:36Z</time>
      </trkpt>
      <trkpt lat="48.21897" lon="7.29676">
        <ele>707.79998779297</ele>
        <time>2020-10-17T11:26:17Z</time>
      </trkpt>
      <trkpt lat="48.21884" lon="7.29684">
        <ele>708.40002441406</ele>
        <time>2020-10-17T11:26:42Z</time>
      </trkpt>
      <trkpt lat="48.2187" lon="7.29674">
        <ele>708.40002441406</ele>
        <time>2020-10-17T11:26:57Z</time>
      </trkpt>
      <trkpt lat="48.21867" lon="7.29671">
        <ele>708.40002441406</ele>
        <time>2020-10-17T11:26:59Z</time>
      </trkpt>
      <trkpt lat="48.21866" lon="7.29671">
        <ele>707.59997558594</ele>
        <time>2020-10-17T11:27:00Z</time>
      </trkpt>
      <trkpt lat="48.21864" lon="7.2967">
        <ele>705.59997558594</ele>
        <time>2020-10-17T11:27:01Z</time>
      </trkpt>
      <trkpt lat="48.21862" lon="7.29669">
        <ele>702.40002441406</ele>
        <time>2020-10-17T11:27:03Z</time>
      </trkpt>
      <trkpt lat="48.21858" lon="7.29665">
        <ele>700.20001220703</ele>
        <time>2020-10-17T11:27:07Z</time>
      </trkpt>
      <trkpt lat="48.21842" lon="7.29654">
        <ele>697.59997558594</ele>
        <time>2020-10-17T11:27:21Z</time>
      </trkpt>
      <trkpt lat="48.2182" lon="7.29639">
        <ele>694.59997558594</ele>
        <time>2020-10-17T11:27:36Z</time>
      </trkpt>
      <trkpt lat="48.21809" lon="7.29631">
        <ele>692.59997558594</ele>
        <time>2020-10-17T11:27:44Z</time>
      </trkpt>
      <trkpt lat="48.21803" lon="7.29629">
        <ele>691.40002441406</ele>
        <time>2020-10-17T11:27:48Z</time>
      </trkpt>
      <trkpt lat="48.2179" lon="7.29623">
        <ele>688.20001220703</ele>
        <time>2020-10-17T11:27:59Z</time>
      </trkpt>
      <trkpt lat="48.21776" lon="7.29618">
        <ele>685.20001220703</ele>
        <time>2020-10-17T11:28:12Z</time>
      </trkpt>
      <trkpt lat="48.2176" lon="7.29613">
        <ele>681.79998779297</ele>
        <time>2020-10-17T11:28:25Z</time>
      </trkpt>
      <trkpt lat="48.21751" lon="7.29609">
        <ele>680</ele>
        <time>2020-10-17T11:28:31Z</time>
      </trkpt>
      <trkpt lat="48.21742" lon="7.29609">
        <ele>678</ele>
        <time>2020-10-17T11:28:37Z</time>
      </trkpt>
      <trkpt lat="48.2173" lon="7.29612">
        <ele>675</ele>
        <time>2020-10-17T11:28:47Z</time>
      </trkpt>
      <trkpt lat="48.21724" lon="7.29611">
        <ele>673.40002441406</ele>
        <time>2020-10-17T11:28:51Z</time>
      </trkpt>
      <trkpt lat="48.21712" lon="7.29607">
        <ele>670</ele>
        <time>2020-10-17T11:29:00Z</time>
      </trkpt>
      <trkpt lat="48.21701" lon="7.29603">
        <ele>668.20001220703</ele>
        <time>2020-10-17T11:29:08Z</time>
      </trkpt>
      <trkpt lat="48.21699" lon="7.29603">
        <ele>668</ele>
        <time>2020-10-17T11:29:09Z</time>
      </trkpt>
      <trkpt lat="48.21696" lon="7.29602">
        <ele>667.40002441406</ele>
        <time>2020-10-17T11:29:11Z</time>
      </trkpt>
      <trkpt lat="48.21683" lon="7.29599">
        <ele>664.20001220703</ele>
        <time>2020-10-17T11:29:19Z</time>
      </trkpt>
      <trkpt lat="48.21668" lon="7.29595">
        <ele>661</ele>
        <time>2020-10-17T11:29:28Z</time>
      </trkpt>
      <trkpt lat="48.21651" lon="7.29593">
        <ele>657.79998779297</ele>
        <time>2020-10-17T11:29:37Z</time>
      </trkpt>
      <trkpt lat="48.21632" lon="7.29594">
        <ele>654.59997558594</ele>
        <time>2020-10-17T11:29:47Z</time>
      </trkpt>
      <trkpt lat="48.21616" lon="7.29592">
        <ele>652.40002441406</ele>
        <time>2020-10-17T11:29:57Z</time>
      </trkpt>
      <trkpt lat="48.21608" lon="7.2959">
        <ele>650.40002441406</ele>
        <time>2020-10-17T11:30:05Z</time>
      </trkpt>
      <trkpt lat="48.21605" lon="7.2959">
        <ele>650.20001220703</ele>
        <time>2020-10-17T11:30:06Z</time>
      </trkpt>
      <trkpt lat="48.21603" lon="7.29589">
        <ele>650.20001220703</ele>
        <time>2020-10-17T11:30:07Z</time>
      </trkpt>
      <trkpt lat="48.21597" lon="7.29589">
        <ele>649.40002441406</ele>
        <time>2020-10-17T11:30:11Z</time>
      </trkpt>
      <trkpt lat="48.21584" lon="7.29586">
        <ele>648</ele>
        <time>2020-10-17T11:30:22Z</time>
      </trkpt>
      <trkpt lat="48.21574" lon="7.29583">
        <ele>647</ele>
        <time>2020-10-17T11:30:32Z</time>
      </trkpt>
      <trkpt lat="48.21554" lon="7.29585">
        <ele>644.59997558594</ele>
        <time>2020-10-17T11:30:47Z</time>
      </trkpt>
      <trkpt lat="48.21531" lon="7.29582">
        <ele>641.59997558594</ele>
        <time>2020-10-17T11:31:04Z</time>
      </trkpt>
      <trkpt lat="48.21523" lon="7.29574">
        <ele>640.79998779297</ele>
        <time>2020-10-17T11:31:25Z</time>
      </trkpt>
      <trkpt lat="48.21514" lon="7.2957">
        <ele>640</ele>
        <time>2020-10-17T11:31:41Z</time>
      </trkpt>
      <trkpt lat="48.21509" lon="7.2958">
        <ele>639.79998779297</ele>
        <time>2020-10-17T11:32:08Z</time>
      </trkpt>
      <trkpt lat="48.21502" lon="7.29583">
        <ele>638.79998779297</ele>
        <time>2020-10-17T11:32:14Z</time>
      </trkpt>
      <trkpt lat="48.21488" lon="7.29597">
        <ele>636.20001220703</ele>
        <time>2020-10-17T11:32:29Z</time>
      </trkpt>
      <trkpt lat="48.21487" lon="7.29598">
        <ele>636</ele>
        <time>2020-10-17T11:32:30Z</time>
      </trkpt>
      <trkpt lat="48.21486" lon="7.29599">
        <ele>635.79998779297</ele>
        <time>2020-10-17T11:32:31Z</time>
      </trkpt>
      <trkpt lat="48.2148" lon="7.29608">
        <ele>635.40002441406</ele>
        <time>2020-10-17T11:32:36Z</time>
      </trkpt>
      <trkpt lat="48.21479" lon="7.2961">
        <ele>635.40002441406</ele>
        <time>2020-10-17T11:32:37Z</time>
      </trkpt>
      <trkpt lat="48.21478" lon="7.29612">
        <ele>635.20001220703</ele>
        <time>2020-10-17T11:32:38Z</time>
      </trkpt>
      <trkpt lat="48.21468" lon="7.29623">
        <ele>633.59997558594</ele>
        <time>2020-10-17T11:32:52Z</time>
      </trkpt>
      <trkpt lat="48.21457" lon="7.29652">
        <ele>631</ele>
        <time>2020-10-17T11:33:08Z</time>
      </trkpt>
      <trkpt lat="48.21451" lon="7.29672">
        <ele>629.59997558594</ele>
        <time>2020-10-17T11:33:18Z</time>
      </trkpt>
      <trkpt lat="48.21448" lon="7.29677">
        <ele>629.20001220703</ele>
        <time>2020-10-17T11:33:21Z</time>
      </trkpt>
      <trkpt lat="48.21447" lon="7.29679">
        <ele>629</ele>
        <time>2020-10-17T11:33:22Z</time>
      </trkpt>
      <trkpt lat="48.21438" lon="7.29706">
        <ele>627.59997558594</ele>
        <time>2020-10-17T11:33:38Z</time>
      </trkpt>
      <trkpt lat="48.21432" lon="7.29739">
        <ele>625.59997558594</ele>
        <time>2020-10-17T11:33:54Z</time>
      </trkpt>
      <trkpt lat="48.21419" lon="7.29769">
        <ele>623.79998779297</ele>
        <time>2020-10-17T11:34:11Z</time>
      </trkpt>
      <trkpt lat="48.21417" lon="7.29772">
        <ele>623.79998779297</ele>
        <time>2020-10-17T11:34:13Z</time>
      </trkpt>
      <trkpt lat="48.21416" lon="7.29776">
        <ele>623.59997558594</ele>
        <time>2020-10-17T11:34:15Z</time>
      </trkpt>
      <trkpt lat="48.21415" lon="7.29778">
        <ele>623.59997558594</ele>
        <time>2020-10-17T11:34:16Z</time>
      </trkpt>
      <trkpt lat="48.21414" lon="7.2978">
        <ele>623.40002441406</ele>
        <time>2020-10-17T11:34:17Z</time>
      </trkpt>
      <trkpt lat="48.21413" lon="7.29782">
        <ele>623.40002441406</ele>
        <time>2020-10-17T11:34:18Z</time>
      </trkpt>
      <trkpt lat="48.21412" lon="7.29784">
        <ele>623.40002441406</ele>
        <time>2020-10-17T11:34:19Z</time>
      </trkpt>
      <trkpt lat="48.21408" lon="7.29795">
        <ele>623</ele>
        <time>2020-10-17T11:34:24Z</time>
      </trkpt>
      <trkpt lat="48.21407" lon="7.29797">
        <ele>623</ele>
        <time>2020-10-17T11:34:25Z</time>
      </trkpt>
      <trkpt lat="48.21404" lon="7.29805">
        <ele>622.20001220703</ele>
        <time>2020-10-17T11:34:40Z</time>
      </trkpt>
      <trkpt lat="48.21402" lon="7.29816">
        <ele>622.20001220703</ele>
        <time>2020-10-17T11:34:48Z</time>
      </trkpt>
      <trkpt lat="48.214" lon="7.29819">
        <ele>622.20001220703</ele>
        <time>2020-10-17T11:34:50Z</time>
      </trkpt>
      <trkpt lat="48.214" lon="7.29822">
        <ele>622.20001220703</ele>
        <time>2020-10-17T11:34:51Z</time>
      </trkpt>
      <trkpt lat="48.21399" lon="7.29824">
        <ele>622.20001220703</ele>
        <time>2020-10-17T11:34:52Z</time>
      </trkpt>
      <trkpt lat="48.2139" lon="7.29853">
        <ele>621.20001220703</ele>
        <time>2020-10-17T11:35:07Z</time>
      </trkpt>
      <trkpt lat="48.21386" lon="7.29872">
        <ele>620.79998779297</ele>
        <time>2020-10-17T11:35:17Z</time>
      </trkpt>
      <trkpt lat="48.21374" lon="7.29905">
        <ele>620.20001220703</ele>
        <time>2020-10-17T11:35:32Z</time>
      </trkpt>
      <trkpt lat="48.21357" lon="7.29932">
        <ele>619.79998779297</ele>
        <time>2020-10-17T11:35:48Z</time>
      </trkpt>
      <trkpt lat="48.21344" lon="7.29949">
        <ele>620.20001220703</ele>
        <time>2020-10-17T11:36:01Z</time>
      </trkpt>
      <trkpt lat="48.21344" lon="7.29951">
        <ele>620.40002441406</ele>
        <time>2020-10-17T11:36:02Z</time>
      </trkpt>
      <trkpt lat="48.21343" lon="7.29954">
        <ele>620.20001220703</ele>
        <time>2020-10-17T11:36:03Z</time>
      </trkpt>
      <trkpt lat="48.21343" lon="7.29956">
        <ele>620</ele>
        <time>2020-10-17T11:36:04Z</time>
      </trkpt>
      <trkpt lat="48.21342" lon="7.29958">
        <ele>619.79998779297</ele>
        <time>2020-10-17T11:36:05Z</time>
      </trkpt>
      <trkpt lat="48.21342" lon="7.2996">
        <ele>619.79998779297</ele>
        <time>2020-10-17T11:36:06Z</time>
      </trkpt>
      <trkpt lat="48.21341" lon="7.29963">
        <ele>619.79998779297</ele>
        <time>2020-10-17T11:36:07Z</time>
      </trkpt>
      <trkpt lat="48.21341" lon="7.29966">
        <ele>619.79998779297</ele>
        <time>2020-10-17T11:36:08Z</time>
      </trkpt>
      <trkpt lat="48.2134" lon="7.29968">
        <ele>619.79998779297</ele>
        <time>2020-10-17T11:36:09Z</time>
      </trkpt>
      <trkpt lat="48.2134" lon="7.29979">
        <ele>618.79998779297</ele>
        <time>2020-10-17T11:36:25Z</time>
      </trkpt>
      <trkpt lat="48.21339" lon="7.29989">
        <ele>618.40002441406</ele>
        <time>2020-10-17T11:36:31Z</time>
      </trkpt>
      <trkpt lat="48.21332" lon="7.30012">
        <ele>616.59997558594</ele>
        <time>2020-10-17T11:36:45Z</time>
      </trkpt>
      <trkpt lat="48.2133" lon="7.30019">
        <ele>616.20001220703</ele>
        <time>2020-10-17T11:36:49Z</time>
      </trkpt>
      <trkpt lat="48.21329" lon="7.30021">
        <ele>616</ele>
        <time>2020-10-17T11:36:50Z</time>
      </trkpt>
      <trkpt lat="48.21321" lon="7.30052">
        <ele>614.20001220703</ele>
        <time>2020-10-17T11:37:05Z</time>
      </trkpt>
      <trkpt lat="48.21308" lon="7.30084">
        <ele>613</ele>
        <time>2020-10-17T11:37:20Z</time>
      </trkpt>
      <trkpt lat="48.21301" lon="7.30104">
        <ele>612.20001220703</ele>
        <time>2020-10-17T11:37:30Z</time>
      </trkpt>
      <trkpt lat="48.21298" lon="7.30112">
        <ele>612</ele>
        <time>2020-10-17T11:37:34Z</time>
      </trkpt>
      <trkpt lat="48.21297" lon="7.30115">
        <ele>611.79998779297</ele>
        <time>2020-10-17T11:37:35Z</time>
      </trkpt>
      <trkpt lat="48.21297" lon="7.30117">
        <ele>611.79998779297</ele>
        <time>2020-10-17T11:37:36Z</time>
      </trkpt>
      <trkpt lat="48.21297" lon="7.3012">
        <ele>611.59997558594</ele>
        <time>2020-10-17T11:37:37Z</time>
      </trkpt>
      <trkpt lat="48.21296" lon="7.30124">
        <ele>611.40002441406</ele>
        <time>2020-10-17T11:37:39Z</time>
      </trkpt>
      <trkpt lat="48.21296" lon="7.30126">
        <ele>611.40002441406</ele>
        <time>2020-10-17T11:37:40Z</time>
      </trkpt>
      <trkpt lat="48.21296" lon="7.30128">
        <ele>611.20001220703</ele>
        <time>2020-10-17T11:37:41Z</time>
      </trkpt>
      <trkpt lat="48.21295" lon="7.30131">
        <ele>611</ele>
        <time>2020-10-17T11:37:42Z</time>
      </trkpt>
      <trkpt lat="48.21295" lon="7.30138">
        <ele>610.79998779297</ele>
        <time>2020-10-17T11:37:45Z</time>
      </trkpt>
      <trkpt lat="48.21295" lon="7.3014">
        <ele>610.59997558594</ele>
        <time>2020-10-17T11:37:46Z</time>
      </trkpt>
      <trkpt lat="48.21292" lon="7.30146">
        <ele>610.20001220703</ele>
        <time>2020-10-17T11:37:50Z</time>
      </trkpt>
      <trkpt lat="48.21288" lon="7.30155">
        <ele>609.59997558594</ele>
        <time>2020-10-17T11:37:55Z</time>
      </trkpt>
      <trkpt lat="48.21285" lon="7.3018">
        <ele>606.79998779297</ele>
        <time>2020-10-17T11:38:07Z</time>
      </trkpt>
      <trkpt lat="48.21283" lon="7.30197">
        <ele>605.40002441406</ele>
        <time>2020-10-17T11:38:23Z</time>
      </trkpt>
      <trkpt lat="48.21283" lon="7.30211">
        <ele>605.20001220703</ele>
        <time>2020-10-17T11:38:36Z</time>
      </trkpt>
      <trkpt lat="48.21282" lon="7.30216">
        <ele>605</ele>
        <time>2020-10-17T11:38:38Z</time>
      </trkpt>
      <trkpt lat="48.21277" lon="7.30242">
        <ele>603.40002441406</ele>
        <time>2020-10-17T11:38:55Z</time>
      </trkpt>
      <trkpt lat="48.21276" lon="7.30244">
        <ele>603.20001220703</ele>
        <time>2020-10-17T11:38:56Z</time>
      </trkpt>
      <trkpt lat="48.21276" lon="7.30246">
        <ele>603</ele>
        <time>2020-10-17T11:38:57Z</time>
      </trkpt>
      <trkpt lat="48.21271" lon="7.30268">
        <ele>601.20001220703</ele>
        <time>2020-10-17T11:39:09Z</time>
      </trkpt>
      <trkpt lat="48.21271" lon="7.30274">
        <ele>600.79998779297</ele>
        <time>2020-10-17T11:39:27Z</time>
      </trkpt>
      <trkpt lat="48.21271" lon="7.30277">
        <ele>600.59997558594</ele>
        <time>2020-10-17T11:40:09Z</time>
      </trkpt>
      <trkpt lat="48.21272" lon="7.30277">
        <ele>600.59997558594</ele>
        <time>2020-10-17T11:40:10Z</time>
      </trkpt>
      <trkpt lat="48.21267" lon="7.30273">
        <ele>600.40002441406</ele>
        <time>2020-10-17T11:40:31Z</time>
      </trkpt>
      <trkpt lat="48.21264" lon="7.30286">
        <ele>598.79998779297</ele>
        <time>2020-10-17T11:40:39Z</time>
      </trkpt>
      <trkpt lat="48.21263" lon="7.30289">
        <ele>598.59997558594</ele>
        <time>2020-10-17T11:40:40Z</time>
      </trkpt>
      <trkpt lat="48.21262" lon="7.30304">
        <ele>596.79998779297</ele>
        <time>2020-10-17T11:40:46Z</time>
      </trkpt>
      <trkpt lat="48.21261" lon="7.30306">
        <ele>596.59997558594</ele>
        <time>2020-10-17T11:40:47Z</time>
      </trkpt>
      <trkpt lat="48.21261" lon="7.30309">
        <ele>596.20001220703</ele>
        <time>2020-10-17T11:40:48Z</time>
      </trkpt>
      <trkpt lat="48.21262" lon="7.30317">
        <ele>595.40002441406</ele>
        <time>2020-10-17T11:40:51Z</time>
      </trkpt>
      <trkpt lat="48.21262" lon="7.3033">
        <ele>594.20001220703</ele>
        <time>2020-10-17T11:40:57Z</time>
      </trkpt>
      <trkpt lat="48.21262" lon="7.30346">
        <ele>592.40002441406</ele>
        <time>2020-10-17T11:41:05Z</time>
      </trkpt>
      <trkpt lat="48.21262" lon="7.30356">
        <ele>591.59997558594</ele>
        <time>2020-10-17T11:41:09Z</time>
      </trkpt>
      <trkpt lat="48.21262" lon="7.30358">
        <ele>591.40002441406</ele>
        <time>2020-10-17T11:41:10Z</time>
      </trkpt>
      <trkpt lat="48.21261" lon="7.30361">
        <ele>591.20001220703</ele>
        <time>2020-10-17T11:41:11Z</time>
      </trkpt>
      <trkpt lat="48.21256" lon="7.30376">
        <ele>589.59997558594</ele>
        <time>2020-10-17T11:41:19Z</time>
      </trkpt>
      <trkpt lat="48.21252" lon="7.30398">
        <ele>587.20001220703</ele>
        <time>2020-10-17T11:41:29Z</time>
      </trkpt>
      <trkpt lat="48.21249" lon="7.30421">
        <ele>585.20001220703</ele>
        <time>2020-10-17T11:41:38Z</time>
      </trkpt>
      <trkpt lat="48.21248" lon="7.30423">
        <ele>584.79998779297</ele>
        <time>2020-10-17T11:41:39Z</time>
      </trkpt>
      <trkpt lat="48.21244" lon="7.30452">
        <ele>581.79998779297</ele>
        <time>2020-10-17T11:41:52Z</time>
      </trkpt>
      <trkpt lat="48.21239" lon="7.30483">
        <ele>578.59997558594</ele>
        <time>2020-10-17T11:42:07Z</time>
      </trkpt>
      <trkpt lat="48.21233" lon="7.30511">
        <ele>575.59997558594</ele>
        <time>2020-10-17T11:42:21Z</time>
      </trkpt>
      <trkpt lat="48.21232" lon="7.30535">
        <ele>573.40002441406</ele>
        <time>2020-10-17T11:42:31Z</time>
      </trkpt>
      <trkpt lat="48.21232" lon="7.30539">
        <ele>573.20001220703</ele>
        <time>2020-10-17T11:42:32Z</time>
      </trkpt>
      <trkpt lat="48.21233" lon="7.30553">
        <ele>571.79998779297</ele>
        <time>2020-10-17T11:42:38Z</time>
      </trkpt>
      <trkpt lat="48.21232" lon="7.30573">
        <ele>570</ele>
        <time>2020-10-17T11:42:47Z</time>
      </trkpt>
      <trkpt lat="48.21232" lon="7.30581">
        <ele>569.40002441406</ele>
        <time>2020-10-17T11:42:51Z</time>
      </trkpt>
      <trkpt lat="48.21226" lon="7.30597">
        <ele>567.59997558594</ele>
        <time>2020-10-17T11:43:06Z</time>
      </trkpt>
      <trkpt lat="48.21226" lon="7.30598">
        <ele>567.40002441406</ele>
        <time>2020-10-17T11:43:18Z</time>
      </trkpt>
      <trkpt lat="48.21229" lon="7.30629">
        <ele>566.40002441406</ele>
        <time>2020-10-17T11:43:39Z</time>
      </trkpt>
      <trkpt lat="48.2123" lon="7.3065">
        <ele>565.40002441406</ele>
        <time>2020-10-17T11:43:48Z</time>
      </trkpt>
      <trkpt lat="48.21218" lon="7.3066">
        <ele>563.20001220703</ele>
        <time>2020-10-17T11:44:04Z</time>
      </trkpt>
      <trkpt lat="48.21217" lon="7.30659">
        <ele>563</ele>
        <time>2020-10-17T11:44:05Z</time>
      </trkpt>
      <trkpt lat="48.21214" lon="7.30656">
        <ele>562.79998779297</ele>
        <time>2020-10-17T11:44:07Z</time>
      </trkpt>
      <trkpt lat="48.21206" lon="7.30638">
        <ele>559.59997558594</ele>
        <time>2020-10-17T11:44:19Z</time>
      </trkpt>
      <trkpt lat="48.21199" lon="7.30623">
        <ele>556.40002441406</ele>
        <time>2020-10-17T11:44:33Z</time>
      </trkpt>
      <trkpt lat="48.21193" lon="7.3062">
        <ele>555.40002441406</ele>
        <time>2020-10-17T11:44:37Z</time>
      </trkpt>
      <trkpt lat="48.21188" lon="7.30616">
        <ele>553.79998779297</ele>
        <time>2020-10-17T11:44:41Z</time>
      </trkpt>
      <trkpt lat="48.21187" lon="7.30615">
        <ele>553.59997558594</ele>
        <time>2020-10-17T11:44:42Z</time>
      </trkpt>
      <trkpt lat="48.21171" lon="7.30616">
        <ele>550.40002441406</ele>
        <time>2020-10-17T11:44:54Z</time>
      </trkpt>
      <trkpt lat="48.21152" lon="7.30619">
        <ele>547.40002441406</ele>
        <time>2020-10-17T11:45:06Z</time>
      </trkpt>
      <trkpt lat="48.2114" lon="7.30617">
        <ele>544.20001220703</ele>
        <time>2020-10-17T11:45:14Z</time>
      </trkpt>
      <trkpt lat="48.21139" lon="7.30617">
        <ele>544</ele>
        <time>2020-10-17T11:45:15Z</time>
      </trkpt>
      <trkpt lat="48.21127" lon="7.30619">
        <ele>541.59997558594</ele>
        <time>2020-10-17T11:45:24Z</time>
      </trkpt>
      <trkpt lat="48.21126" lon="7.3062">
        <ele>541.40002441406</ele>
        <time>2020-10-17T11:45:25Z</time>
      </trkpt>
      <trkpt lat="48.21111" lon="7.30619">
        <ele>538.20001220703</ele>
        <time>2020-10-17T11:45:36Z</time>
      </trkpt>
      <trkpt lat="48.21095" lon="7.30613">
        <ele>535</ele>
        <time>2020-10-17T11:45:48Z</time>
      </trkpt>
      <trkpt lat="48.21083" lon="7.30599">
        <ele>531.79998779297</ele>
        <time>2020-10-17T11:46:00Z</time>
      </trkpt>
      <trkpt lat="48.21081" lon="7.30595">
        <ele>530.79998779297</ele>
        <time>2020-10-17T11:46:04Z</time>
      </trkpt>
      <trkpt lat="48.21072" lon="7.30581">
        <ele>528.20001220703</ele>
        <time>2020-10-17T11:46:14Z</time>
      </trkpt>
      <trkpt lat="48.21062" lon="7.30576">
        <ele>526.20001220703</ele>
        <time>2020-10-17T11:46:20Z</time>
      </trkpt>
      <trkpt lat="48.21061" lon="7.30573">
        <ele>526</ele>
        <time>2020-10-17T11:46:21Z</time>
      </trkpt>
      <trkpt lat="48.21059" lon="7.30572">
        <ele>525.59997558594</ele>
        <time>2020-10-17T11:46:22Z</time>
      </trkpt>
      <trkpt lat="48.21047" lon="7.30558">
        <ele>522.59997558594</ele>
        <time>2020-10-17T11:46:34Z</time>
      </trkpt>
      <trkpt lat="48.21046" lon="7.30548">
        <ele>520.40002441406</ele>
        <time>2020-10-17T11:46:41Z</time>
      </trkpt>
      <trkpt lat="48.21045" lon="7.30546">
        <ele>519.79998779297</ele>
        <time>2020-10-17T11:46:43Z</time>
      </trkpt>
      <trkpt lat="48.21037" lon="7.30541">
        <ele>518.40002441406</ele>
        <time>2020-10-17T11:46:49Z</time>
      </trkpt>
      <trkpt lat="48.21024" lon="7.30534">
        <ele>516.20001220703</ele>
        <time>2020-10-17T11:46:58Z</time>
      </trkpt>
      <trkpt lat="48.21019" lon="7.30534">
        <ele>516</ele>
        <time>2020-10-17T11:46:59Z</time>
      </trkpt>
      <trkpt lat="48.21017" lon="7.30534">
        <ele>515.59997558594</ele>
        <time>2020-10-17T11:47:00Z</time>
      </trkpt>
      <trkpt lat="48.21013" lon="7.30533">
        <ele>515.20001220703</ele>
        <time>2020-10-17T11:47:02Z</time>
      </trkpt>
      <trkpt lat="48.2101" lon="7.30532">
        <ele>514.79998779297</ele>
        <time>2020-10-17T11:47:03Z</time>
      </trkpt>
      <trkpt lat="48.21006" lon="7.30531">
        <ele>514</ele>
        <time>2020-10-17T11:47:05Z</time>
      </trkpt>
      <trkpt lat="48.20993" lon="7.30526">
        <ele>511.60000610352</ele>
        <time>2020-10-17T11:47:14Z</time>
      </trkpt>
      <trkpt lat="48.20992" lon="7.30529">
        <ele>511</ele>
        <time>2020-10-17T11:47:19Z</time>
      </trkpt>
      <trkpt lat="48.20994" lon="7.30543">
        <ele>507.60000610352</ele>
        <time>2020-10-17T11:47:27Z</time>
      </trkpt>
      <trkpt lat="48.2099" lon="7.3056">
        <ele>504.60000610352</ele>
        <time>2020-10-17T11:47:35Z</time>
      </trkpt>
      <trkpt lat="48.2099" lon="7.30581">
        <ele>501</ele>
        <time>2020-10-17T11:47:43Z</time>
      </trkpt>
      <trkpt lat="48.20991" lon="7.30594">
        <ele>498</ele>
        <time>2020-10-17T11:47:50Z</time>
      </trkpt>
      <trkpt lat="48.20994" lon="7.306">
        <ele>496</ele>
        <time>2020-10-17T11:47:54Z</time>
      </trkpt>
      <trkpt lat="48.20994" lon="7.30604">
        <ele>495.20001220703</ele>
        <time>2020-10-17T11:47:56Z</time>
      </trkpt>
      <trkpt lat="48.20996" lon="7.30622">
        <ele>492.20001220703</ele>
        <time>2020-10-17T11:48:04Z</time>
      </trkpt>
      <trkpt lat="48.20996" lon="7.30639">
        <ele>488.79998779297</ele>
        <time>2020-10-17T11:48:13Z</time>
      </trkpt>
      <trkpt lat="48.21002" lon="7.30654">
        <ele>486.20001220703</ele>
        <time>2020-10-17T11:48:19Z</time>
      </trkpt>
      <trkpt lat="48.21005" lon="7.3066">
        <ele>485.60000610352</ele>
        <time>2020-10-17T11:48:22Z</time>
      </trkpt>
      <trkpt lat="48.21005" lon="7.30662">
        <ele>485.20001220703</ele>
        <time>2020-10-17T11:48:23Z</time>
      </trkpt>
      <trkpt lat="48.2101" lon="7.30681">
        <ele>482.39999389648</ele>
        <time>2020-10-17T11:48:32Z</time>
      </trkpt>
      <trkpt lat="48.21006" lon="7.30702">
        <ele>481.39999389648</ele>
        <time>2020-10-17T11:48:43Z</time>
      </trkpt>
      <trkpt lat="48.21011" lon="7.3073">
        <ele>479.79998779297</ele>
        <time>2020-10-17T11:48:57Z</time>
      </trkpt>
      <trkpt lat="48.21008" lon="7.30747">
        <ele>479.20001220703</ele>
        <time>2020-10-17T11:49:06Z</time>
      </trkpt>
      <trkpt lat="48.21008" lon="7.30753">
        <ele>478.60000610352</ele>
        <time>2020-10-17T11:49:10Z</time>
      </trkpt>
      <trkpt lat="48.21004" lon="7.30772">
        <ele>477.39999389648</ele>
        <time>2020-10-17T11:49:20Z</time>
      </trkpt>
      <trkpt lat="48.21002" lon="7.30785">
        <ele>476.20001220703</ele>
        <time>2020-10-17T11:49:29Z</time>
      </trkpt>
      <trkpt lat="48.20997" lon="7.30801">
        <ele>474.79998779297</ele>
        <time>2020-10-17T11:49:37Z</time>
      </trkpt>
      <trkpt lat="48.21004" lon="7.30819">
        <ele>473.20001220703</ele>
        <time>2020-10-17T11:49:45Z</time>
      </trkpt>
      <trkpt lat="48.21005" lon="7.30832">
        <ele>472.60000610352</ele>
        <time>2020-10-17T11:49:50Z</time>
      </trkpt>
      <trkpt lat="48.21003" lon="7.3085">
        <ele>471.20001220703</ele>
        <time>2020-10-17T11:49:57Z</time>
      </trkpt>
      <trkpt lat="48.21002" lon="7.30853">
        <ele>471</ele>
        <time>2020-10-17T11:49:58Z</time>
      </trkpt>
      <trkpt lat="48.21001" lon="7.30858">
        <ele>470.60000610352</ele>
        <time>2020-10-17T11:50:00Z</time>
      </trkpt>
      <trkpt lat="48.21002" lon="7.30871">
        <ele>469.79998779297</ele>
        <time>2020-10-17T11:50:05Z</time>
      </trkpt>
      <trkpt lat="48.20995" lon="7.3089">
        <ele>468</ele>
        <time>2020-10-17T11:50:14Z</time>
      </trkpt>
      <trkpt lat="48.20988" lon="7.30905">
        <ele>466.79998779297</ele>
        <time>2020-10-17T11:50:21Z</time>
      </trkpt>
      <trkpt lat="48.20988" lon="7.30907">
        <ele>466.60000610352</ele>
        <time>2020-10-17T11:50:22Z</time>
      </trkpt>
      <trkpt lat="48.20984" lon="7.30921">
        <ele>465.39999389648</ele>
        <time>2020-10-17T11:50:29Z</time>
      </trkpt>
      <trkpt lat="48.20996" lon="7.3094">
        <ele>464</ele>
        <time>2020-10-17T11:50:50Z</time>
      </trkpt>
      <trkpt lat="48.20994" lon="7.30957">
        <ele>462.79998779297</ele>
        <time>2020-10-17T11:50:57Z</time>
      </trkpt>
      <trkpt lat="48.20992" lon="7.30978">
        <ele>461.39999389648</ele>
        <time>2020-10-17T11:51:13Z</time>
      </trkpt>
      <trkpt lat="48.20995" lon="7.30983">
        <ele>461.39999389648</ele>
        <time>2020-10-17T11:51:26Z</time>
      </trkpt>
      <trkpt lat="48.20998" lon="7.30988">
        <ele>461.20001220703</ele>
        <time>2020-10-17T11:51:59Z</time>
      </trkpt>
      <trkpt lat="48.21008" lon="7.30979">
        <ele>461</ele>
        <time>2020-10-17T11:52:16Z</time>
      </trkpt>
      <trkpt lat="48.21004" lon="7.30971">
        <ele>461.20001220703</ele>
        <time>2020-10-17T11:52:48Z</time>
      </trkpt>
      <trkpt lat="48.21005" lon="7.30971">
        <ele>461</ele>
        <time>2020-10-17T11:53:08Z</time>
      </trkpt>
      <trkpt lat="48.2101" lon="7.30981">
        <ele>461</ele>
        <time>2020-10-17T11:53:32Z</time>
      </trkpt>
      <trkpt lat="48.21011" lon="7.30982">
        <ele>461</ele>
        <time>2020-10-17T11:53:33Z</time>
      </trkpt>
      <trkpt lat="48.21011" lon="7.30992">
        <ele>461</ele>
        <time>2020-10-17T11:53:59Z</time>
      </trkpt>
      <trkpt lat="48.21017" lon="7.30986">
        <ele>461</ele>
        <time>2020-10-17T11:54:14Z</time>
      </trkpt>
      <trkpt lat="48.21024" lon="7.30996">
        <ele>461</ele>
        <time>2020-10-17T11:54:59Z</time>
      </trkpt>
      <trkpt lat="48.21014" lon="7.30992">
        <ele>461</ele>
        <time>2020-10-17T11:55:08Z</time>
      </trkpt>
      <trkpt lat="48.20992" lon="7.30984">
        <ele>460.79998779297</ele>
        <time>2020-10-17T11:55:30Z</time>
      </trkpt>
      <trkpt lat="48.20991" lon="7.30979">
        <ele>461</ele>
        <time>2020-10-17T11:55:38Z</time>
      </trkpt>
      <trkpt lat="48.2099" lon="7.30997">
        <ele>459.79998779297</ele>
        <time>2020-10-17T11:55:56Z</time>
      </trkpt>
      <trkpt lat="48.20994" lon="7.31021">
        <ele>457.60000610352</ele>
        <time>2020-10-17T11:56:08Z</time>
      </trkpt>
      <trkpt lat="48.20997" lon="7.31026">
        <ele>457.39999389648</ele>
        <time>2020-10-17T11:56:10Z</time>
      </trkpt>
      <trkpt lat="48.20997" lon="7.31049">
        <ele>455</ele>
        <time>2020-10-17T11:56:22Z</time>
      </trkpt>
      <trkpt lat="48.20991" lon="7.31062">
        <ele>453.79998779297</ele>
        <time>2020-10-17T11:56:28Z</time>
      </trkpt>
      <trkpt lat="48.20997" lon="7.3107">
        <ele>453.20001220703</ele>
        <time>2020-10-17T11:56:31Z</time>
      </trkpt>
      <trkpt lat="48.20992" lon="7.31092">
        <ele>451.60000610352</ele>
        <time>2020-10-17T11:56:41Z</time>
      </trkpt>
      <trkpt lat="48.20992" lon="7.3111">
        <ele>450.20001220703</ele>
        <time>2020-10-17T11:56:49Z</time>
      </trkpt>
      <trkpt lat="48.20989" lon="7.31134">
        <ele>448.39999389648</ele>
        <time>2020-10-17T11:56:56Z</time>
      </trkpt>
      <trkpt lat="48.20988" lon="7.31138">
        <ele>448</ele>
        <time>2020-10-17T11:56:57Z</time>
      </trkpt>
      <trkpt lat="48.20988" lon="7.31141">
        <ele>447.60000610352</ele>
        <time>2020-10-17T11:56:58Z</time>
      </trkpt>
      <trkpt lat="48.20988" lon="7.31144">
        <ele>447.39999389648</ele>
        <time>2020-10-17T11:56:59Z</time>
      </trkpt>
      <trkpt lat="48.20994" lon="7.31161">
        <ele>446</ele>
        <time>2020-10-17T11:57:05Z</time>
      </trkpt>
      <trkpt lat="48.20995" lon="7.31173">
        <ele>445.20001220703</ele>
        <time>2020-10-17T11:57:08Z</time>
      </trkpt>
      <trkpt lat="48.20993" lon="7.31177">
        <ele>445</ele>
        <time>2020-10-17T11:57:09Z</time>
      </trkpt>
      <trkpt lat="48.20993" lon="7.3118">
        <ele>444.79998779297</ele>
        <time>2020-10-17T11:57:10Z</time>
      </trkpt>
      <trkpt lat="48.20993" lon="7.31183">
        <ele>444.20001220703</ele>
        <time>2020-10-17T11:57:11Z</time>
      </trkpt>
      <trkpt lat="48.20994" lon="7.31186">
        <ele>444</ele>
        <time>2020-10-17T11:57:12Z</time>
      </trkpt>
      <trkpt lat="48.20993" lon="7.31191">
        <ele>443.79998779297</ele>
        <time>2020-10-17T11:57:14Z</time>
      </trkpt>
      <trkpt lat="48.20991" lon="7.31195">
        <ele>443.39999389648</ele>
        <time>2020-10-17T11:57:15Z</time>
      </trkpt>
      <trkpt lat="48.20989" lon="7.31207">
        <ele>442.20001220703</ele>
        <time>2020-10-17T11:57:19Z</time>
      </trkpt>
      <trkpt lat="48.20986" lon="7.31225">
        <ele>440.60000610352</ele>
        <time>2020-10-17T11:57:26Z</time>
      </trkpt>
      <trkpt lat="48.20986" lon="7.3123">
        <ele>440</ele>
        <time>2020-10-17T11:57:28Z</time>
      </trkpt>
      <trkpt lat="48.2099" lon="7.31239">
        <ele>439.20001220703</ele>
        <time>2020-10-17T11:57:31Z</time>
      </trkpt>
      <trkpt lat="48.20993" lon="7.31252">
        <ele>437.79998779297</ele>
        <time>2020-10-17T11:57:35Z</time>
      </trkpt>
      <trkpt lat="48.20993" lon="7.31256">
        <ele>437.60000610352</ele>
        <time>2020-10-17T11:57:36Z</time>
      </trkpt>
      <trkpt lat="48.20994" lon="7.31259">
        <ele>437.39999389648</ele>
        <time>2020-10-17T11:57:37Z</time>
      </trkpt>
      <trkpt lat="48.20993" lon="7.31263">
        <ele>437.20001220703</ele>
        <time>2020-10-17T11:57:38Z</time>
      </trkpt>
      <trkpt lat="48.20993" lon="7.31267">
        <ele>437</ele>
        <time>2020-10-17T11:57:39Z</time>
      </trkpt>
      <trkpt lat="48.20993" lon="7.3127">
        <ele>436.79998779297</ele>
        <time>2020-10-17T11:57:40Z</time>
      </trkpt>
      <trkpt lat="48.20993" lon="7.31273">
        <ele>436.60000610352</ele>
        <time>2020-10-17T11:57:41Z</time>
      </trkpt>
      <trkpt lat="48.20995" lon="7.31283">
        <ele>435.60000610352</ele>
        <time>2020-10-17T11:57:45Z</time>
      </trkpt>
      <trkpt lat="48.20996" lon="7.31288">
        <ele>434.79998779297</ele>
        <time>2020-10-17T11:57:47Z</time>
      </trkpt>
      <trkpt lat="48.20996" lon="7.31291">
        <ele>434.60000610352</ele>
        <time>2020-10-17T11:57:48Z</time>
      </trkpt>
      <trkpt lat="48.20991" lon="7.31298">
        <ele>434.20001220703</ele>
        <time>2020-10-17T11:57:50Z</time>
      </trkpt>
      <trkpt lat="48.20989" lon="7.31301">
        <ele>434.20001220703</ele>
        <time>2020-10-17T11:57:51Z</time>
      </trkpt>
      <trkpt lat="48.20989" lon="7.31303">
        <ele>434.20001220703</ele>
        <time>2020-10-17T11:57:52Z</time>
      </trkpt>
      <trkpt lat="48.20975" lon="7.31326">
        <ele>434</ele>
        <time>2020-10-17T11:58:02Z</time>
      </trkpt>
      <trkpt lat="48.2096" lon="7.31339">
        <ele>433.79998779297</ele>
        <time>2020-10-17T11:58:07Z</time>
      </trkpt>
      <trkpt lat="48.20958" lon="7.31339">
        <ele>433.60000610352</ele>
        <time>2020-10-17T11:58:08Z</time>
      </trkpt>
      <trkpt lat="48.20956" lon="7.31339">
        <ele>433.39999389648</ele>
        <time>2020-10-17T11:58:09Z</time>
      </trkpt>
      <trkpt lat="48.20947" lon="7.31337">
        <ele>430.60000610352</ele>
        <time>2020-10-17T11:58:17Z</time>
      </trkpt>
      <trkpt lat="48.20944" lon="7.31348">
        <ele>428.39999389648</ele>
        <time>2020-10-17T11:58:33Z</time>
      </trkpt>
      <trkpt lat="48.20937" lon="7.31348">
        <ele>428.20001220703</ele>
        <time>2020-10-17T11:58:37Z</time>
      </trkpt>
      <trkpt lat="48.20929" lon="7.31345">
        <ele>427</ele>
        <time>2020-10-17T11:58:42Z</time>
      </trkpt>
      <trkpt lat="48.20927" lon="7.31345">
        <ele>426.60000610352</ele>
        <time>2020-10-17T11:58:43Z</time>
      </trkpt>
      <trkpt lat="48.20925" lon="7.31344">
        <ele>426.20001220703</ele>
        <time>2020-10-17T11:58:44Z</time>
      </trkpt>
      <trkpt lat="48.2092" lon="7.31341">
        <ele>424.79998779297</ele>
        <time>2020-10-17T11:58:47Z</time>
      </trkpt>
      <trkpt lat="48.20919" lon="7.31341">
        <ele>424.20001220703</ele>
        <time>2020-10-17T11:58:48Z</time>
      </trkpt>
      <trkpt lat="48.20917" lon="7.31341">
        <ele>423.39999389648</ele>
        <time>2020-10-17T11:58:50Z</time>
      </trkpt>
      <trkpt lat="48.20908" lon="7.31335">
        <ele>420.20001220703</ele>
        <time>2020-10-17T11:58:58Z</time>
      </trkpt>
      <trkpt lat="48.20905" lon="7.31333">
        <ele>419.60000610352</ele>
        <time>2020-10-17T11:59:00Z</time>
      </trkpt>
      <trkpt lat="48.20891" lon="7.31324">
        <ele>417.60000610352</ele>
        <time>2020-10-17T11:59:08Z</time>
      </trkpt>
      <trkpt lat="48.20889" lon="7.31323">
        <ele>417.39999389648</ele>
        <time>2020-10-17T11:59:09Z</time>
      </trkpt>
      <trkpt lat="48.20879" lon="7.31317">
        <ele>415</ele>
        <time>2020-10-17T11:59:14Z</time>
      </trkpt>
      <trkpt lat="48.20877" lon="7.31316">
        <ele>414.79998779297</ele>
        <time>2020-10-17T11:59:15Z</time>
      </trkpt>
      <trkpt lat="48.20876" lon="7.31316">
        <ele>414.39999389648</ele>
        <time>2020-10-17T11:59:16Z</time>
      </trkpt>
      <trkpt lat="48.20867" lon="7.31313">
        <ele>412.60000610352</ele>
        <time>2020-10-17T11:59:23Z</time>
      </trkpt>
      <trkpt lat="48.20863" lon="7.31311">
        <ele>412.20001220703</ele>
        <time>2020-10-17T11:59:26Z</time>
      </trkpt>
      <trkpt lat="48.20862" lon="7.31311">
        <ele>411.79998779297</ele>
        <time>2020-10-17T11:59:27Z</time>
      </trkpt>
      <trkpt lat="48.2086" lon="7.31311">
        <ele>411.39999389648</ele>
        <time>2020-10-17T11:59:28Z</time>
      </trkpt>
      <trkpt lat="48.20858" lon="7.31311">
        <ele>411</ele>
        <time>2020-10-17T11:59:29Z</time>
      </trkpt>
      <trkpt lat="48.2085" lon="7.31311">
        <ele>409.79998779297</ele>
        <time>2020-10-17T11:59:34Z</time>
      </trkpt>
      <trkpt lat="48.20837" lon="7.31306">
        <ele>408</ele>
        <time>2020-10-17T11:59:42Z</time>
      </trkpt>
      <trkpt lat="48.20833" lon="7.31307">
        <ele>407.39999389648</ele>
        <time>2020-10-17T11:59:45Z</time>
      </trkpt>
      <trkpt lat="48.20831" lon="7.31307">
        <ele>407.20001220703</ele>
        <time>2020-10-17T11:59:46Z</time>
      </trkpt>
      <trkpt lat="48.20829" lon="7.31307">
        <ele>407.20001220703</ele>
        <time>2020-10-17T11:59:47Z</time>
      </trkpt>
      <trkpt lat="48.20827" lon="7.31307">
        <ele>407</ele>
        <time>2020-10-17T11:59:48Z</time>
      </trkpt>
      <trkpt lat="48.20826" lon="7.31307">
        <ele>406.79998779297</ele>
        <time>2020-10-17T11:59:49Z</time>
      </trkpt>
      <trkpt lat="48.20815" lon="7.31304">
        <ele>404.60000610352</ele>
        <time>2020-10-17T11:59:58Z</time>
      </trkpt>
      <trkpt lat="48.20813" lon="7.31304">
        <ele>404.39999389648</ele>
        <time>2020-10-17T11:59:59Z</time>
      </trkpt>
      <trkpt lat="48.2081" lon="7.31303">
        <ele>403.79998779297</ele>
        <time>2020-10-17T12:00:01Z</time>
      </trkpt>
      <trkpt lat="48.20808" lon="7.31302">
        <ele>403.60000610352</ele>
        <time>2020-10-17T12:00:02Z</time>
      </trkpt>
      <trkpt lat="48.20805" lon="7.31302">
        <ele>403.20001220703</ele>
        <time>2020-10-17T12:00:04Z</time>
      </trkpt>
      <trkpt lat="48.20804" lon="7.31303">
        <ele>402.79998779297</ele>
        <time>2020-10-17T12:00:05Z</time>
      </trkpt>
      <trkpt lat="48.20802" lon="7.31303">
        <ele>402.60000610352</ele>
        <time>2020-10-17T12:00:06Z</time>
      </trkpt>
      <trkpt lat="48.208" lon="7.31303">
        <ele>402.39999389648</ele>
        <time>2020-10-17T12:00:07Z</time>
      </trkpt>
      <trkpt lat="48.20798" lon="7.31303">
        <ele>402.20001220703</ele>
        <time>2020-10-17T12:00:08Z</time>
      </trkpt>
      <trkpt lat="48.20795" lon="7.31303">
        <ele>402</ele>
        <time>2020-10-17T12:00:09Z</time>
      </trkpt>
      <trkpt lat="48.20793" lon="7.31302">
        <ele>401.60000610352</ele>
        <time>2020-10-17T12:00:10Z</time>
      </trkpt>
      <trkpt lat="48.20787" lon="7.31301">
        <ele>400.60000610352</ele>
        <time>2020-10-17T12:00:14Z</time>
      </trkpt>
      <trkpt lat="48.20785" lon="7.31301">
        <ele>400.39999389648</ele>
        <time>2020-10-17T12:00:15Z</time>
      </trkpt>
      <trkpt lat="48.20767" lon="7.31299">
        <ele>397.79998779297</ele>
        <time>2020-10-17T12:00:27Z</time>
      </trkpt>
      <trkpt lat="48.20763" lon="7.31294">
        <ele>397</ele>
        <time>2020-10-17T12:00:31Z</time>
      </trkpt>
      <trkpt lat="48.20759" lon="7.3129">
        <ele>396.39999389648</ele>
        <time>2020-10-17T12:00:34Z</time>
      </trkpt>
      <trkpt lat="48.20756" lon="7.31289">
        <ele>396</ele>
        <time>2020-10-17T12:00:36Z</time>
      </trkpt>
      <trkpt lat="48.20745" lon="7.31287">
        <ele>394.20001220703</ele>
        <time>2020-10-17T12:00:45Z</time>
      </trkpt>
      <trkpt lat="48.20737" lon="7.31287">
        <ele>392.60000610352</ele>
        <time>2020-10-17T12:00:52Z</time>
      </trkpt>
      <trkpt lat="48.20736" lon="7.31286">
        <ele>392.39999389648</ele>
        <time>2020-10-17T12:00:53Z</time>
      </trkpt>
      <trkpt lat="48.20735" lon="7.31284">
        <ele>392.39999389648</ele>
        <time>2020-10-17T12:00:54Z</time>
      </trkpt>
      <trkpt lat="48.20729" lon="7.31278">
        <ele>391.60000610352</ele>
        <time>2020-10-17T12:00:58Z</time>
      </trkpt>
      <trkpt lat="48.20728" lon="7.31277">
        <ele>391.20001220703</ele>
        <time>2020-10-17T12:00:59Z</time>
      </trkpt>
      <trkpt lat="48.20719" lon="7.31274">
        <ele>390</ele>
        <time>2020-10-17T12:01:05Z</time>
      </trkpt>
      <trkpt lat="48.20718" lon="7.31273">
        <ele>389.79998779297</ele>
        <time>2020-10-17T12:01:06Z</time>
      </trkpt>
      <trkpt lat="48.20717" lon="7.31273">
        <ele>389.60000610352</ele>
        <time>2020-10-17T12:01:07Z</time>
      </trkpt>
      <trkpt lat="48.20712" lon="7.31273">
        <ele>388.79998779297</ele>
        <time>2020-10-17T12:01:11Z</time>
      </trkpt>
      <trkpt lat="48.20711" lon="7.31272">
        <ele>388.79998779297</ele>
        <time>2020-10-17T12:01:12Z</time>
      </trkpt>
      <trkpt lat="48.20709" lon="7.31272">
        <ele>388.20001220703</ele>
        <time>2020-10-17T12:01:13Z</time>
      </trkpt>
      <trkpt lat="48.20708" lon="7.31272">
        <ele>388</ele>
        <time>2020-10-17T12:01:14Z</time>
      </trkpt>
      <trkpt lat="48.20706" lon="7.31272">
        <ele>387.79998779297</ele>
        <time>2020-10-17T12:01:15Z</time>
      </trkpt>
      <trkpt lat="48.20704" lon="7.3127">
        <ele>387.60000610352</ele>
        <time>2020-10-17T12:01:16Z</time>
      </trkpt>
      <trkpt lat="48.20703" lon="7.3127">
        <ele>387.39999389648</ele>
        <time>2020-10-17T12:01:17Z</time>
      </trkpt>
      <trkpt lat="48.20701" lon="7.31268">
        <ele>387.20001220703</ele>
        <time>2020-10-17T12:01:19Z</time>
      </trkpt>
      <trkpt lat="48.207" lon="7.31267">
        <ele>387</ele>
        <time>2020-10-17T12:01:20Z</time>
      </trkpt>
      <trkpt lat="48.20699" lon="7.31266">
        <ele>386.79998779297</ele>
        <time>2020-10-17T12:01:21Z</time>
      </trkpt>
      <trkpt lat="48.20686" lon="7.31257">
        <ele>384.79998779297</ele>
        <time>2020-10-17T12:01:32Z</time>
      </trkpt>
      <trkpt lat="48.20678" lon="7.31254">
        <ele>383.60000610352</ele>
        <time>2020-10-17T12:01:37Z</time>
      </trkpt>
      <trkpt lat="48.2067" lon="7.3125">
        <ele>382.79998779297</ele>
        <time>2020-10-17T12:01:42Z</time>
      </trkpt>
      <trkpt lat="48.20664" lon="7.31251">
        <ele>381.79998779297</ele>
        <time>2020-10-17T12:01:46Z</time>
      </trkpt>
      <trkpt lat="48.20663" lon="7.3125">
        <ele>381.60000610352</ele>
        <time>2020-10-17T12:01:47Z</time>
      </trkpt>
      <trkpt lat="48.20661" lon="7.3125">
        <ele>381.39999389648</ele>
        <time>2020-10-17T12:01:48Z</time>
      </trkpt>
      <trkpt lat="48.2066" lon="7.3125">
        <ele>381.20001220703</ele>
        <time>2020-10-17T12:01:49Z</time>
      </trkpt>
      <trkpt lat="48.20643" lon="7.31246">
        <ele>378.20001220703</ele>
        <time>2020-10-17T12:02:03Z</time>
      </trkpt>
      <trkpt lat="48.20639" lon="7.31245">
        <ele>377.79998779297</ele>
        <time>2020-10-17T12:02:05Z</time>
      </trkpt>
      <trkpt lat="48.20637" lon="7.31244">
        <ele>377.79998779297</ele>
        <time>2020-10-17T12:02:06Z</time>
      </trkpt>
      <trkpt lat="48.20636" lon="7.31245">
        <ele>377.60000610352</ele>
        <time>2020-10-17T12:02:07Z</time>
      </trkpt>
      <trkpt lat="48.20634" lon="7.31245">
        <ele>377.20001220703</ele>
        <time>2020-10-17T12:02:08Z</time>
      </trkpt>
      <trkpt lat="48.20633" lon="7.31244">
        <ele>376.79998779297</ele>
        <time>2020-10-17T12:02:09Z</time>
      </trkpt>
      <trkpt lat="48.20614" lon="7.3124">
        <ele>373.60000610352</ele>
        <time>2020-10-17T12:02:23Z</time>
      </trkpt>
      <trkpt lat="48.20606" lon="7.31239">
        <ele>372.39999389648</ele>
        <time>2020-10-17T12:02:28Z</time>
      </trkpt>
      <trkpt lat="48.20591" lon="7.31233">
        <ele>370.60000610352</ele>
        <time>2020-10-17T12:02:38Z</time>
      </trkpt>
      <trkpt lat="48.20587" lon="7.3123">
        <ele>370.20001220703</ele>
        <time>2020-10-17T12:02:41Z</time>
      </trkpt>
      <trkpt lat="48.20586" lon="7.31228">
        <ele>370.20001220703</ele>
        <time>2020-10-17T12:02:42Z</time>
      </trkpt>
      <trkpt lat="48.20584" lon="7.31227">
        <ele>370.20001220703</ele>
        <time>2020-10-17T12:02:43Z</time>
      </trkpt>
      <trkpt lat="48.2058" lon="7.31226">
        <ele>369.60000610352</ele>
        <time>2020-10-17T12:02:46Z</time>
      </trkpt>
      <trkpt lat="48.20564" lon="7.31216">
        <ele>366.60000610352</ele>
        <time>2020-10-17T12:03:00Z</time>
      </trkpt>
      <trkpt lat="48.20554" lon="7.31212">
        <ele>365</ele>
        <time>2020-10-17T12:03:08Z</time>
      </trkpt>
      <trkpt lat="48.20548" lon="7.3121">
        <ele>363.39999389648</ele>
        <time>2020-10-17T12:03:13Z</time>
      </trkpt>
      <trkpt lat="48.20546" lon="7.31208">
        <ele>363.20001220703</ele>
        <time>2020-10-17T12:03:14Z</time>
      </trkpt>
      <trkpt lat="48.20538" lon="7.31202">
        <ele>363</ele>
        <time>2020-10-17T12:03:24Z</time>
      </trkpt>
      <trkpt lat="48.20531" lon="7.31207">
        <ele>361.79998779297</ele>
        <time>2020-10-17T12:03:33Z</time>
      </trkpt>
      <trkpt lat="48.20531" lon="7.31209">
        <ele>361.60000610352</ele>
        <time>2020-10-17T12:03:34Z</time>
      </trkpt>
      <trkpt lat="48.20529" lon="7.31221">
        <ele>361</ele>
        <time>2020-10-17T12:03:39Z</time>
      </trkpt>
      <trkpt lat="48.20527" lon="7.31226">
        <ele>360.60000610352</ele>
        <time>2020-10-17T12:03:41Z</time>
      </trkpt>
      <trkpt lat="48.20528" lon="7.31228">
        <ele>360.39999389648</ele>
        <time>2020-10-17T12:03:42Z</time>
      </trkpt>
      <trkpt lat="48.20528" lon="7.31231">
        <ele>360</ele>
        <time>2020-10-17T12:03:43Z</time>
      </trkpt>
      <trkpt lat="48.20528" lon="7.31236">
        <ele>359.60000610352</ele>
        <time>2020-10-17T12:03:45Z</time>
      </trkpt>
      <trkpt lat="48.2053" lon="7.31249">
        <ele>358.20001220703</ele>
        <time>2020-10-17T12:03:51Z</time>
      </trkpt>
      <trkpt lat="48.20524" lon="7.31267">
        <ele>355.79998779297</ele>
        <time>2020-10-17T12:04:03Z</time>
      </trkpt>
      <trkpt lat="48.20522" lon="7.31272">
        <ele>355</ele>
        <time>2020-10-17T12:04:07Z</time>
      </trkpt>
      <trkpt lat="48.2051" lon="7.31273">
        <ele>353.39999389648</ele>
        <time>2020-10-17T12:04:14Z</time>
      </trkpt>
      <trkpt lat="48.20502" lon="7.31274">
        <ele>352.20001220703</ele>
        <time>2020-10-17T12:04:21Z</time>
      </trkpt>
      <trkpt lat="48.20492" lon="7.31274">
        <ele>351.39999389648</ele>
        <time>2020-10-17T12:04:30Z</time>
      </trkpt>
      <trkpt lat="48.20477" lon="7.31282">
        <ele>349.39999389648</ele>
        <time>2020-10-17T12:04:46Z</time>
      </trkpt>
      <trkpt lat="48.20468" lon="7.3129">
        <ele>348.20001220703</ele>
        <time>2020-10-17T12:04:54Z</time>
      </trkpt>
      <trkpt lat="48.20461" lon="7.31295">
        <ele>346.60000610352</ele>
        <time>2020-10-17T12:05:21Z</time>
      </trkpt>
      <trkpt lat="48.2045" lon="7.31307">
        <ele>344.60000610352</ele>
        <time>2020-10-17T12:05:32Z</time>
      </trkpt>
      <trkpt lat="48.20448" lon="7.31307">
        <ele>344</ele>
        <time>2020-10-17T12:05:34Z</time>
      </trkpt>
      <trkpt lat="48.20433" lon="7.3131">
        <ele>342.39999389648</ele>
        <time>2020-10-17T12:05:45Z</time>
      </trkpt>
      <trkpt lat="48.20418" lon="7.31316">
        <ele>340.60000610352</ele>
        <time>2020-10-17T12:05:54Z</time>
      </trkpt>
      <trkpt lat="48.20413" lon="7.31324">
        <ele>339.39999389648</ele>
        <time>2020-10-17T12:06:00Z</time>
      </trkpt>
      <trkpt lat="48.20403" lon="7.31331">
        <ele>338</ele>
        <time>2020-10-17T12:06:10Z</time>
      </trkpt>
      <trkpt lat="48.20395" lon="7.31333">
        <ele>336.39999389648</ele>
        <time>2020-10-17T12:06:17Z</time>
      </trkpt>
      <trkpt lat="48.20376" lon="7.31337">
        <ele>334</ele>
        <time>2020-10-17T12:06:28Z</time>
      </trkpt>
      <trkpt lat="48.20365" lon="7.31336">
        <ele>332</ele>
        <time>2020-10-17T12:06:38Z</time>
      </trkpt>
      <trkpt lat="48.20348" lon="7.31342">
        <ele>330.20001220703</ele>
        <time>2020-10-17T12:06:48Z</time>
      </trkpt>
      <trkpt lat="48.20337" lon="7.31349">
        <ele>328.79998779297</ele>
        <time>2020-10-17T12:06:55Z</time>
      </trkpt>
      <trkpt lat="48.20325" lon="7.31358">
        <ele>327.20001220703</ele>
        <time>2020-10-17T12:07:04Z</time>
      </trkpt>
      <trkpt lat="48.20321" lon="7.31361">
        <ele>327</ele>
        <time>2020-10-17T12:07:06Z</time>
      </trkpt>
      <trkpt lat="48.2032" lon="7.31362">
        <ele>326.60000610352</ele>
        <time>2020-10-17T12:07:07Z</time>
      </trkpt>
      <trkpt lat="48.20308" lon="7.3137">
        <ele>324.79998779297</ele>
        <time>2020-10-17T12:07:16Z</time>
      </trkpt>
      <trkpt lat="48.20304" lon="7.31373">
        <ele>323.79998779297</ele>
        <time>2020-10-17T12:07:19Z</time>
      </trkpt>
      <trkpt lat="48.20299" lon="7.31383">
        <ele>322.39999389648</ele>
        <time>2020-10-17T12:07:26Z</time>
      </trkpt>
      <trkpt lat="48.20277" lon="7.31409">
        <ele>319.79998779297</ele>
        <time>2020-10-17T12:07:40Z</time>
      </trkpt>
      <trkpt lat="48.20276" lon="7.3141">
        <ele>319.20001220703</ele>
        <time>2020-10-17T12:07:41Z</time>
      </trkpt>
      <trkpt lat="48.20268" lon="7.31419">
        <ele>317.79998779297</ele>
        <time>2020-10-17T12:07:48Z</time>
      </trkpt>
      <trkpt lat="48.20262" lon="7.31426">
        <ele>317</ele>
        <time>2020-10-17T12:07:52Z</time>
      </trkpt>
      <trkpt lat="48.2025" lon="7.31439">
        <ele>314.60000610352</ele>
        <time>2020-10-17T12:08:02Z</time>
      </trkpt>
      <trkpt lat="48.20244" lon="7.31443">
        <ele>313.39999389648</ele>
        <time>2020-10-17T12:08:06Z</time>
      </trkpt>
      <trkpt lat="48.20236" lon="7.31448">
        <ele>312</ele>
        <time>2020-10-17T12:08:14Z</time>
      </trkpt>
      <trkpt lat="48.20227" lon="7.31452">
        <ele>311</ele>
        <time>2020-10-17T12:08:20Z</time>
      </trkpt>
      <trkpt lat="48.20225" lon="7.31453">
        <ele>310.79998779297</ele>
        <time>2020-10-17T12:08:21Z</time>
      </trkpt>
      <trkpt lat="48.20212" lon="7.31457">
        <ele>309</ele>
        <time>2020-10-17T12:08:29Z</time>
      </trkpt>
      <trkpt lat="48.20208" lon="7.31458">
        <ele>308.60000610352</ele>
        <time>2020-10-17T12:08:31Z</time>
      </trkpt>
      <trkpt lat="48.20207" lon="7.31458">
        <ele>308.39999389648</ele>
        <time>2020-10-17T12:08:32Z</time>
      </trkpt>
      <trkpt lat="48.20203" lon="7.3146">
        <ele>308</ele>
        <time>2020-10-17T12:08:35Z</time>
      </trkpt>
      <trkpt lat="48.20199" lon="7.31461">
        <ele>307.60000610352</ele>
        <time>2020-10-17T12:08:37Z</time>
      </trkpt>
      <trkpt lat="48.20183" lon="7.31462">
        <ele>305.60000610352</ele>
        <time>2020-10-17T12:08:48Z</time>
      </trkpt>
      <trkpt lat="48.20179" lon="7.31462">
        <ele>305.20001220703</ele>
        <time>2020-10-17T12:08:50Z</time>
      </trkpt>
      <trkpt lat="48.20178" lon="7.31462">
        <ele>305</ele>
        <time>2020-10-17T12:08:51Z</time>
      </trkpt>
      <trkpt lat="48.20163" lon="7.31468">
        <ele>302.79998779297</ele>
        <time>2020-10-17T12:09:01Z</time>
      </trkpt>
      <trkpt lat="48.20159" lon="7.31469">
        <ele>302.20001220703</ele>
        <time>2020-10-17T12:09:04Z</time>
      </trkpt>
      <trkpt lat="48.20155" lon="7.31469">
        <ele>301.79998779297</ele>
        <time>2020-10-17T12:09:07Z</time>
      </trkpt>
      <trkpt lat="48.20154" lon="7.31469">
        <ele>301.60000610352</ele>
        <time>2020-10-17T12:09:08Z</time>
      </trkpt>
      <trkpt lat="48.20153" lon="7.31469">
        <ele>301.39999389648</ele>
        <time>2020-10-17T12:09:09Z</time>
      </trkpt>
      <trkpt lat="48.20143" lon="7.31475">
        <ele>299.20001220703</ele>
        <time>2020-10-17T12:09:18Z</time>
      </trkpt>
      <trkpt lat="48.20132" lon="7.31476">
        <ele>297.79998779297</ele>
        <time>2020-10-17T12:09:25Z</time>
      </trkpt>
      <trkpt lat="48.20131" lon="7.31477">
        <ele>297.60000610352</ele>
        <time>2020-10-17T12:09:26Z</time>
      </trkpt>
      <trkpt lat="48.20129" lon="7.31477">
        <ele>297.60000610352</ele>
        <time>2020-10-17T12:09:27Z</time>
      </trkpt>
      <trkpt lat="48.20115" lon="7.31479">
        <ele>296</ele>
        <time>2020-10-17T12:09:37Z</time>
      </trkpt>
      <trkpt lat="48.20108" lon="7.31477">
        <ele>295</ele>
        <time>2020-10-17T12:09:41Z</time>
      </trkpt>
      <trkpt lat="48.20093" lon="7.31478">
        <ele>293.20001220703</ele>
        <time>2020-10-17T12:09:51Z</time>
      </trkpt>
      <trkpt lat="48.20079" lon="7.31482">
        <ele>291.39999389648</ele>
        <time>2020-10-17T12:10:00Z</time>
      </trkpt>
      <trkpt lat="48.20077" lon="7.31483">
        <ele>291.39999389648</ele>
        <time>2020-10-17T12:10:01Z</time>
      </trkpt>
      <trkpt lat="48.20077" lon="7.31484">
        <ele>291.20001220703</ele>
        <time>2020-10-17T12:10:02Z</time>
      </trkpt>
      <trkpt lat="48.20075" lon="7.31485">
        <ele>291</ele>
        <time>2020-10-17T12:10:03Z</time>
      </trkpt>
      <trkpt lat="48.20075" lon="7.31486">
        <ele>290.79998779297</ele>
        <time>2020-10-17T12:10:04Z</time>
      </trkpt>
      <trkpt lat="48.20069" lon="7.31491">
        <ele>289.60000610352</ele>
        <time>2020-10-17T12:10:09Z</time>
      </trkpt>
      <trkpt lat="48.20053" lon="7.31499">
        <ele>288.20001220703</ele>
        <time>2020-10-17T12:10:23Z</time>
      </trkpt>
      <trkpt lat="48.20038" lon="7.31509">
        <ele>285.79998779297</ele>
        <time>2020-10-17T12:10:35Z</time>
      </trkpt>
      <trkpt lat="48.20026" lon="7.31521">
        <ele>284.79998779297</ele>
        <time>2020-10-17T12:10:46Z</time>
      </trkpt>
      <trkpt lat="48.20016" lon="7.31523">
        <ele>283.79998779297</ele>
        <time>2020-10-17T12:10:59Z</time>
      </trkpt>
      <trkpt lat="48.20014" lon="7.31523">
        <ele>283.79998779297</ele>
        <time>2020-10-17T12:11:01Z</time>
      </trkpt>
      <trkpt lat="48.19997" lon="7.3152">
        <ele>283</ele>
        <time>2020-10-17T12:11:15Z</time>
      </trkpt>
      <trkpt lat="48.19995" lon="7.31519">
        <ele>282.79998779297</ele>
        <time>2020-10-17T12:11:17Z</time>
      </trkpt>
      <trkpt lat="48.19993" lon="7.31519">
        <ele>282.60000610352</ele>
        <time>2020-10-17T12:11:18Z</time>
      </trkpt>
      <trkpt lat="48.19978" lon="7.31516">
        <ele>281.39999389648</ele>
        <time>2020-10-17T12:11:29Z</time>
      </trkpt>
      <trkpt lat="48.19966" lon="7.31513">
        <ele>281.39999389648</ele>
        <time>2020-10-17T12:11:36Z</time>
      </trkpt>
      <trkpt lat="48.19948" lon="7.31504">
        <ele>282.39999389648</ele>
        <time>2020-10-17T12:11:48Z</time>
      </trkpt>
      <trkpt lat="48.19945" lon="7.31502">
        <ele>282.39999389648</ele>
        <time>2020-10-17T12:11:50Z</time>
      </trkpt>
      <trkpt lat="48.19933" lon="7.31497">
        <ele>280.79998779297</ele>
        <time>2020-10-17T12:11:59Z</time>
      </trkpt>
      <trkpt lat="48.19924" lon="7.31497">
        <ele>279.79998779297</ele>
        <time>2020-10-17T12:12:04Z</time>
      </trkpt>
      <trkpt lat="48.19922" lon="7.31496">
        <ele>279.60000610352</ele>
        <time>2020-10-17T12:12:06Z</time>
      </trkpt>
      <trkpt lat="48.19907" lon="7.31492">
        <ele>278</ele>
        <time>2020-10-17T12:12:17Z</time>
      </trkpt>
      <trkpt lat="48.19898" lon="7.31492">
        <ele>277</ele>
        <time>2020-10-17T12:12:23Z</time>
      </trkpt>
      <trkpt lat="48.19896" lon="7.31492">
        <ele>276.79998779297</ele>
        <time>2020-10-17T12:12:24Z</time>
      </trkpt>
      <trkpt lat="48.1989" lon="7.31492">
        <ele>276.20001220703</ele>
        <time>2020-10-17T12:12:28Z</time>
      </trkpt>
      <trkpt lat="48.19889" lon="7.31492">
        <ele>276</ele>
        <time>2020-10-17T12:12:29Z</time>
      </trkpt>
      <trkpt lat="48.19885" lon="7.31494">
        <ele>275.79998779297</ele>
        <time>2020-10-17T12:12:30Z</time>
      </trkpt>
      <trkpt lat="48.19882" lon="7.31496">
        <ele>275.39999389648</ele>
        <time>2020-10-17T12:12:31Z</time>
      </trkpt>
      <trkpt lat="48.1988" lon="7.31502">
        <ele>273.79998779297</ele>
        <time>2020-10-17T12:12:42Z</time>
      </trkpt>
      <trkpt lat="48.19881" lon="7.31503">
        <ele>272.60000610352</ele>
        <time>2020-10-17T12:13:05Z</time>
      </trkpt>
      <trkpt lat="48.19889" lon="7.31507">
        <ele>272.39999389648</ele>
        <time>2020-10-17T12:13:27Z</time>
      </trkpt>
      <trkpt lat="48.19887" lon="7.31505">
        <ele>272.39999389648</ele>
        <time>2020-10-17T12:13:56Z</time>
      </trkpt>
      <trkpt lat="48.19887" lon="7.31506">
        <ele>272.39999389648</ele>
        <time>2020-10-17T12:14:29Z</time>
      </trkpt>
      <trkpt lat="48.19887" lon="7.31499">
        <ele>272.39999389648</ele>
        <time>2020-10-17T12:15:00Z</time>
      </trkpt>
      <trkpt lat="48.19886" lon="7.31506">
        <ele>272.39999389648</ele>
        <time>2020-10-17T12:15:24Z</time>
      </trkpt>
      <trkpt lat="48.19887" lon="7.31504">
        <ele>272.39999389648</ele>
        <time>2020-10-17T12:15:56Z</time>
      </trkpt>
      <trkpt lat="48.19892" lon="7.31507">
        <ele>272.39999389648</ele>
        <time>2020-10-17T12:16:37Z</time>
      </trkpt>
      <trkpt lat="48.19899" lon="7.31507">
        <ele>272.39999389648</ele>
        <time>2020-10-17T12:17:08Z</time>
      </trkpt>
      <trkpt lat="48.19891" lon="7.31505">
        <ele>273.39999389648</ele>
        <time>2020-10-17T12:17:34Z</time>
      </trkpt>
      <trkpt lat="48.19891" lon="7.31506">
        <ele>273.39999389648</ele>
        <time>2020-10-17T12:17:37Z</time>
      </trkpt>
      <trkpt lat="48.19889" lon="7.31507">
        <ele>273.39999389648</ele>
        <time>2020-10-17T12:17:39Z</time>
      </trkpt>
      <trkpt lat="48.19889" lon="7.31505">
        <ele>273.60000610352</ele>
        <time>2020-10-17T12:17:54Z</time>
      </trkpt>
      <trkpt lat="48.19894" lon="7.31514">
        <ele>273.20001220703</ele>
        <time>2020-10-17T12:18:26Z</time>
      </trkpt>
      <trkpt lat="48.19894" lon="7.31516">
        <ele>273</ele>
        <time>2020-10-17T12:18:27Z</time>
      </trkpt>
      <trkpt lat="48.19894" lon="7.31517">
        <ele>273</ele>
        <time>2020-10-17T12:18:28Z</time>
      </trkpt>
      <trkpt lat="48.19887" lon="7.31544">
        <ele>272</ele>
        <time>2020-10-17T12:18:42Z</time>
      </trkpt>
      <trkpt lat="48.19881" lon="7.31568">
        <ele>272.20001220703</ele>
        <time>2020-10-17T12:18:58Z</time>
      </trkpt>
      <trkpt lat="48.19879" lon="7.31569">
        <ele>272</ele>
        <time>2020-10-17T12:18:59Z</time>
      </trkpt>
      <trkpt lat="48.19877" lon="7.31573">
        <ele>272</ele>
        <time>2020-10-17T12:19:03Z</time>
      </trkpt>
      <trkpt lat="48.19871" lon="7.3158">
        <ele>271.60000610352</ele>
        <time>2020-10-17T12:19:08Z</time>
      </trkpt>
      <trkpt lat="48.19869" lon="7.31581">
        <ele>271.60000610352</ele>
        <time>2020-10-17T12:19:09Z</time>
      </trkpt>
      <trkpt lat="48.19868" lon="7.31583">
        <ele>271.60000610352</ele>
        <time>2020-10-17T12:19:10Z</time>
      </trkpt>
      <trkpt lat="48.19867" lon="7.31584">
        <ele>271.60000610352</ele>
        <time>2020-10-17T12:19:11Z</time>
      </trkpt>
      <trkpt lat="48.19866" lon="7.31586">
        <ele>271.39999389648</ele>
        <time>2020-10-17T12:19:12Z</time>
      </trkpt>
      <trkpt lat="48.19864" lon="7.31587">
        <ele>271.39999389648</ele>
        <time>2020-10-17T12:19:13Z</time>
      </trkpt>
      <trkpt lat="48.19863" lon="7.3159">
        <ele>271.20001220703</ele>
        <time>2020-10-17T12:19:15Z</time>
      </trkpt>
      <trkpt lat="48.19862" lon="7.31591">
        <ele>271.20001220703</ele>
        <time>2020-10-17T12:19:16Z</time>
      </trkpt>
      <trkpt lat="48.19851" lon="7.31609">
        <ele>270</ele>
        <time>2020-10-17T12:19:27Z</time>
      </trkpt>
      <trkpt lat="48.1985" lon="7.3161">
        <ele>270</ele>
        <time>2020-10-17T12:19:28Z</time>
      </trkpt>
      <trkpt lat="48.1984" lon="7.31623">
        <ele>269</ele>
        <time>2020-10-17T12:19:43Z</time>
      </trkpt>
      <trkpt lat="48.19829" lon="7.31636">
        <ele>267.60000610352</ele>
        <time>2020-10-17T12:19:54Z</time>
      </trkpt>
      <trkpt lat="48.1982" lon="7.31647">
        <ele>266.79998779297</ele>
        <time>2020-10-17T12:19:59Z</time>
      </trkpt>
      <trkpt lat="48.1982" lon="7.3165">
        <ele>266.79998779297</ele>
        <time>2020-10-17T12:20:00Z</time>
      </trkpt>
      <trkpt lat="48.19817" lon="7.31666">
        <ele>265.60000610352</ele>
        <time>2020-10-17T12:20:12Z</time>
      </trkpt>
      <trkpt lat="48.19814" lon="7.31673">
        <ele>265</ele>
        <time>2020-10-17T12:20:16Z</time>
      </trkpt>
      <trkpt lat="48.19813" lon="7.31675">
        <ele>264.79998779297</ele>
        <time>2020-10-17T12:20:17Z</time>
      </trkpt>
      <trkpt lat="48.19811" lon="7.31677">
        <ele>264.79998779297</ele>
        <time>2020-10-17T12:20:18Z</time>
      </trkpt>
      <trkpt lat="48.1981" lon="7.31679">
        <ele>264.79998779297</ele>
        <time>2020-10-17T12:20:19Z</time>
      </trkpt>
      <trkpt lat="48.19808" lon="7.31681">
        <ele>264.60000610352</ele>
        <time>2020-10-17T12:20:20Z</time>
      </trkpt>
      <trkpt lat="48.19807" lon="7.31682">
        <ele>264.60000610352</ele>
        <time>2020-10-17T12:20:21Z</time>
      </trkpt>
      <trkpt lat="48.1979" lon="7.31707">
        <ele>262</ele>
        <time>2020-10-17T12:20:35Z</time>
      </trkpt>
      <trkpt lat="48.19787" lon="7.31711">
        <ele>261.60000610352</ele>
        <time>2020-10-17T12:20:38Z</time>
      </trkpt>
      <trkpt lat="48.19786" lon="7.31713">
        <ele>261.60000610352</ele>
        <time>2020-10-17T12:20:39Z</time>
      </trkpt>
      <trkpt lat="48.19785" lon="7.31719">
        <ele>261.20001220703</ele>
        <time>2020-10-17T12:20:43Z</time>
      </trkpt>
      <trkpt lat="48.19767" lon="7.31732">
        <ele>259.60000610352</ele>
        <time>2020-10-17T12:21:00Z</time>
      </trkpt>
      <trkpt lat="48.19746" lon="7.31741">
        <ele>258.39999389648</ele>
        <time>2020-10-17T12:21:20Z</time>
      </trkpt>
      <trkpt lat="48.19738" lon="7.31745">
        <ele>258</ele>
        <time>2020-10-17T12:21:34Z</time>
      </trkpt>
      <trkpt lat="48.19727" lon="7.31755">
        <ele>257.39999389648</ele>
        <time>2020-10-17T12:21:44Z</time>
      </trkpt>
      <trkpt lat="48.19726" lon="7.31756">
        <ele>257.39999389648</ele>
        <time>2020-10-17T12:21:45Z</time>
      </trkpt>
      <trkpt lat="48.19724" lon="7.31758">
        <ele>257.20001220703</ele>
        <time>2020-10-17T12:21:46Z</time>
      </trkpt>
      <trkpt lat="48.19722" lon="7.3176">
        <ele>257.20001220703</ele>
        <time>2020-10-17T12:21:48Z</time>
      </trkpt>
      <trkpt lat="48.19714" lon="7.31764">
        <ele>256.39999389648</ele>
        <time>2020-10-17T12:22:02Z</time>
      </trkpt>
      <trkpt lat="48.19698" lon="7.31777">
        <ele>255.60000610352</ele>
        <time>2020-10-17T12:22:19Z</time>
      </trkpt>
      <trkpt lat="48.19692" lon="7.31781">
        <ele>255.19999694824</ele>
        <time>2020-10-17T12:22:23Z</time>
      </trkpt>
      <trkpt lat="48.19691" lon="7.31783">
        <ele>255.19999694824</ele>
        <time>2020-10-17T12:22:24Z</time>
      </trkpt>
      <trkpt lat="48.19689" lon="7.31784">
        <ele>255.19999694824</ele>
        <time>2020-10-17T12:22:25Z</time>
      </trkpt>
      <trkpt lat="48.19674" lon="7.31794">
        <ele>254</ele>
        <time>2020-10-17T12:22:37Z</time>
      </trkpt>
      <trkpt lat="48.19672" lon="7.31794">
        <ele>253.80000305176</ele>
        <time>2020-10-17T12:22:38Z</time>
      </trkpt>
      <trkpt lat="48.1967" lon="7.31795">
        <ele>253.80000305176</ele>
        <time>2020-10-17T12:22:39Z</time>
      </trkpt>
      <trkpt lat="48.19669" lon="7.31796">
        <ele>253.60000610352</ele>
        <time>2020-10-17T12:22:40Z</time>
      </trkpt>
      <trkpt lat="48.19667" lon="7.31797">
        <ele>253.60000610352</ele>
        <time>2020-10-17T12:22:41Z</time>
      </trkpt>
      <trkpt lat="48.19656" lon="7.31805">
        <ele>253</ele>
        <time>2020-10-17T12:22:47Z</time>
      </trkpt>
      <trkpt lat="48.19639" lon="7.3183">
        <ele>251.39999389648</ele>
        <time>2020-10-17T12:23:00Z</time>
      </trkpt>
      <trkpt lat="48.19638" lon="7.31841">
        <ele>250.80000305176</ele>
        <time>2020-10-17T12:23:19Z</time>
      </trkpt>
      <trkpt lat="48.19637" lon="7.31846">
        <ele>250.80000305176</ele>
        <time>2020-10-17T12:23:21Z</time>
      </trkpt>
      <trkpt lat="48.19635" lon="7.31847">
        <ele>250.60000610352</ele>
        <time>2020-10-17T12:23:22Z</time>
      </trkpt>
      <trkpt lat="48.19623" lon="7.31872">
        <ele>248.39999389648</ele>
        <time>2020-10-17T12:23:36Z</time>
      </trkpt>
      <trkpt lat="48.19622" lon="7.31874">
        <ele>248.39999389648</ele>
        <time>2020-10-17T12:23:37Z</time>
      </trkpt>
      <trkpt lat="48.19622" lon="7.31876">
        <ele>248.19999694824</ele>
        <time>2020-10-17T12:23:38Z</time>
      </trkpt>
      <trkpt lat="48.1962" lon="7.31879">
        <ele>248</ele>
        <time>2020-10-17T12:23:40Z</time>
      </trkpt>
      <trkpt lat="48.19616" lon="7.31886">
        <ele>247</ele>
        <time>2020-10-17T12:23:49Z</time>
      </trkpt>
      <trkpt lat="48.19605" lon="7.31913">
        <ele>245</ele>
        <time>2020-10-17T12:24:09Z</time>
      </trkpt>
      <trkpt lat="48.19603" lon="7.31914">
        <ele>245</ele>
        <time>2020-10-17T12:24:10Z</time>
      </trkpt>
      <trkpt lat="48.19601" lon="7.31916">
        <ele>245</ele>
        <time>2020-10-17T12:24:11Z</time>
      </trkpt>
      <trkpt lat="48.19596" lon="7.31927">
        <ele>244</ele>
        <time>2020-10-17T12:24:28Z</time>
      </trkpt>
      <trkpt lat="48.19592" lon="7.31945">
        <ele>243.60000610352</ele>
        <time>2020-10-17T12:24:45Z</time>
      </trkpt>
      <trkpt lat="48.1959" lon="7.31949">
        <ele>243.60000610352</ele>
        <time>2020-10-17T12:24:47Z</time>
      </trkpt>
      <trkpt lat="48.19579" lon="7.31972">
        <ele>243.80000305176</ele>
        <time>2020-10-17T12:24:57Z</time>
      </trkpt>
      <trkpt lat="48.19572" lon="7.31983">
        <ele>244</ele>
        <time>2020-10-17T12:25:03Z</time>
      </trkpt>
      <trkpt lat="48.19571" lon="7.31984">
        <ele>244</ele>
        <time>2020-10-17T12:25:04Z</time>
      </trkpt>
      <trkpt lat="48.19571" lon="7.31986">
        <ele>244</ele>
        <time>2020-10-17T12:25:05Z</time>
      </trkpt>
      <trkpt lat="48.1957" lon="7.32001">
        <ele>243.39999389648</ele>
        <time>2020-10-17T12:25:14Z</time>
      </trkpt>
      <trkpt lat="48.19581" lon="7.32007">
        <ele>243.39999389648</ele>
        <time>2020-10-17T12:25:41Z</time>
      </trkpt>
      <trkpt lat="48.19589" lon="7.31996">
        <ele>243.39999389648</ele>
        <time>2020-10-17T12:25:48Z</time>
      </trkpt>
      <trkpt lat="48.19589" lon="7.31977">
        <ele>243.60000610352</ele>
        <time>2020-10-17T12:26:02Z</time>
      </trkpt>
      <trkpt lat="48.19598" lon="7.31977">
        <ele>243.39999389648</ele>
        <time>2020-10-17T12:26:33Z</time>
      </trkpt>
      <trkpt lat="48.19595" lon="7.31974">
        <ele>243.39999389648</ele>
        <time>2020-10-17T12:26:51Z</time>
      </trkpt>
      <trkpt lat="48.19592" lon="7.31975">
        <ele>243.19999694824</ele>
        <time>2020-10-17T12:27:23Z</time>
      </trkpt>
      <trkpt lat="48.19598" lon="7.31974">
        <ele>243.19999694824</ele>
        <time>2020-10-17T12:27:41Z</time>
      </trkpt>
      <trkpt lat="48.19599" lon="7.31973">
        <ele>243.19999694824</ele>
        <time>2020-10-17T12:27:42Z</time>
      </trkpt>
      <trkpt lat="48.196" lon="7.31969">
        <ele>243.39999389648</ele>
        <time>2020-10-17T12:27:44Z</time>
      </trkpt>
      <trkpt lat="48.196" lon="7.31968">
        <ele>243.39999389648</ele>
        <time>2020-10-17T12:27:45Z</time>
      </trkpt>
      <trkpt lat="48.19602" lon="7.31965">
        <ele>243.39999389648</ele>
        <time>2020-10-17T12:27:47Z</time>
      </trkpt>
      <trkpt lat="48.19603" lon="7.31964">
        <ele>243.39999389648</ele>
        <time>2020-10-17T12:27:48Z</time>
      </trkpt>
      <trkpt lat="48.19603" lon="7.31963">
        <ele>243.39999389648</ele>
        <time>2020-10-17T12:27:49Z</time>
      </trkpt>
      <trkpt lat="48.19604" lon="7.31961">
        <ele>243.19999694824</ele>
        <time>2020-10-17T12:27:50Z</time>
      </trkpt>
      <trkpt lat="48.19604" lon="7.31959">
        <ele>243.19999694824</ele>
        <time>2020-10-17T12:27:51Z</time>
      </trkpt>
      <trkpt lat="48.19604" lon="7.31957">
        <ele>243.19999694824</ele>
        <time>2020-10-17T12:27:52Z</time>
      </trkpt>
      <trkpt lat="48.19605" lon="7.31955">
        <ele>243.39999389648</ele>
        <time>2020-10-17T12:27:53Z</time>
      </trkpt>
      <trkpt lat="48.19612" lon="7.31928">
        <ele>243.60000610352</ele>
        <time>2020-10-17T12:28:09Z</time>
      </trkpt>
      <trkpt lat="48.19615" lon="7.31917">
        <ele>244.60000610352</ele>
        <time>2020-10-17T12:28:19Z</time>
      </trkpt>
      <trkpt lat="48.19618" lon="7.31912">
        <ele>245.19999694824</ele>
        <time>2020-10-17T12:28:24Z</time>
      </trkpt>
      <trkpt lat="48.19621" lon="7.31904">
        <ele>246</ele>
        <time>2020-10-17T12:28:29Z</time>
      </trkpt>
      <trkpt lat="48.19622" lon="7.31897">
        <ele>246.39999389648</ele>
        <time>2020-10-17T12:28:33Z</time>
      </trkpt>
      <trkpt lat="48.19627" lon="7.31899">
        <ele>248.80000305176</ele>
        <time>2020-10-17T12:28:46Z</time>
      </trkpt>
      <trkpt lat="48.19635" lon="7.31907">
        <ele>252</ele>
        <time>2020-10-17T12:28:58Z</time>
      </trkpt>
      <trkpt lat="48.19638" lon="7.31909">
        <ele>253.19999694824</ele>
        <time>2020-10-17T12:29:02Z</time>
      </trkpt>
      <trkpt lat="48.19645" lon="7.3191">
        <ele>256.39999389648</ele>
        <time>2020-10-17T12:29:18Z</time>
      </trkpt>
      <trkpt lat="48.19647" lon="7.31913">
        <ele>258.79998779297</ele>
        <time>2020-10-17T12:29:41Z</time>
      </trkpt>
      <trkpt lat="48.19654" lon="7.31907">
        <ele>259.60000610352</ele>
        <time>2020-10-17T12:30:10Z</time>
      </trkpt>
      <trkpt lat="48.1966" lon="7.31911">
        <ele>262.79998779297</ele>
        <time>2020-10-17T12:30:22Z</time>
      </trkpt>
      <trkpt lat="48.19659" lon="7.31923">
        <ele>265.79998779297</ele>
        <time>2020-10-17T12:30:35Z</time>
      </trkpt>
      <trkpt lat="48.19662" lon="7.31933">
        <ele>269</ele>
        <time>2020-10-17T12:30:46Z</time>
      </trkpt>
      <trkpt lat="48.19663" lon="7.31951">
        <ele>272</ele>
        <time>2020-10-17T12:31:01Z</time>
      </trkpt>
      <trkpt lat="48.19664" lon="7.31964">
        <ele>274.20001220703</ele>
        <time>2020-10-17T12:31:19Z</time>
      </trkpt>
      <trkpt lat="48.19668" lon="7.31987">
        <ele>277.20001220703</ele>
        <time>2020-10-17T12:31:38Z</time>
      </trkpt>
      <trkpt lat="48.19669" lon="7.31994">
        <ele>277.79998779297</ele>
        <time>2020-10-17T12:31:42Z</time>
      </trkpt>
      <trkpt lat="48.19673" lon="7.3202">
        <ele>280</ele>
        <time>2020-10-17T12:31:59Z</time>
      </trkpt>
      <trkpt lat="48.19673" lon="7.32027">
        <ele>281.39999389648</ele>
        <time>2020-10-17T12:32:16Z</time>
      </trkpt>
      <trkpt lat="48.19674" lon="7.32031">
        <ele>281.79998779297</ele>
        <time>2020-10-17T12:32:44Z</time>
      </trkpt>
      <trkpt lat="48.19682" lon="7.3204">
        <ele>284.20001220703</ele>
        <time>2020-10-17T12:33:09Z</time>
      </trkpt>
      <trkpt lat="48.19684" lon="7.32045">
        <ele>285</ele>
        <time>2020-10-17T12:33:14Z</time>
      </trkpt>
      <trkpt lat="48.19692" lon="7.32056">
        <ele>288</ele>
        <time>2020-10-17T12:33:27Z</time>
      </trkpt>
      <trkpt lat="48.19695" lon="7.32069">
        <ele>291.20001220703</ele>
        <time>2020-10-17T12:33:42Z</time>
      </trkpt>
      <trkpt lat="48.19698" lon="7.32081">
        <ele>292.79998779297</ele>
        <time>2020-10-17T12:33:51Z</time>
      </trkpt>
      <trkpt lat="48.197" lon="7.32101">
        <ele>295.79998779297</ele>
        <time>2020-10-17T12:34:05Z</time>
      </trkpt>
      <trkpt lat="48.197" lon="7.32103">
        <ele>295.79998779297</ele>
        <time>2020-10-17T12:34:06Z</time>
      </trkpt>
      <trkpt lat="48.197" lon="7.32105">
        <ele>296</ele>
        <time>2020-10-17T12:34:07Z</time>
      </trkpt>
      <trkpt lat="48.19708" lon="7.32119">
        <ele>298.60000610352</ele>
        <time>2020-10-17T12:34:22Z</time>
      </trkpt>
      <trkpt lat="48.19719" lon="7.32146">
        <ele>300.60000610352</ele>
        <time>2020-10-17T12:34:40Z</time>
      </trkpt>
      <trkpt lat="48.19721" lon="7.32157">
        <ele>300.39999389648</ele>
        <time>2020-10-17T12:34:46Z</time>
      </trkpt>
      <trkpt lat="48.19721" lon="7.32159">
        <ele>300.39999389648</ele>
        <time>2020-10-17T12:34:47Z</time>
      </trkpt>
      <trkpt lat="48.19721" lon="7.32161">
        <ele>300.39999389648</ele>
        <time>2020-10-17T12:34:48Z</time>
      </trkpt>
      <trkpt lat="48.19721" lon="7.32163">
        <ele>300.20001220703</ele>
        <time>2020-10-17T12:34:49Z</time>
      </trkpt>
      <trkpt lat="48.19721" lon="7.32165">
        <ele>300.20001220703</ele>
        <time>2020-10-17T12:34:50Z</time>
      </trkpt>
      <trkpt lat="48.1972" lon="7.32167">
        <ele>300.20001220703</ele>
        <time>2020-10-17T12:34:51Z</time>
      </trkpt>
      <trkpt lat="48.1972" lon="7.32169">
        <ele>300</ele>
        <time>2020-10-17T12:34:52Z</time>
      </trkpt>
      <trkpt lat="48.19719" lon="7.32171">
        <ele>300</ele>
        <time>2020-10-17T12:34:53Z</time>
      </trkpt>
      <trkpt lat="48.19718" lon="7.32174">
        <ele>300</ele>
        <time>2020-10-17T12:34:54Z</time>
      </trkpt>
      <trkpt lat="48.19709" lon="7.32208">
        <ele>299.60000610352</ele>
        <time>2020-10-17T12:35:13Z</time>
      </trkpt>
      <trkpt lat="48.19706" lon="7.32232">
        <ele>303</ele>
        <time>2020-10-17T12:35:29Z</time>
      </trkpt>
      <trkpt lat="48.19705" lon="7.32254">
        <ele>306</ele>
        <time>2020-10-17T12:35:43Z</time>
      </trkpt>
      <trkpt lat="48.19709" lon="7.32273">
        <ele>309.20001220703</ele>
        <time>2020-10-17T12:35:58Z</time>
      </trkpt>
      <trkpt lat="48.19724" lon="7.32276">
        <ele>310.79998779297</ele>
        <time>2020-10-17T12:36:14Z</time>
      </trkpt>
      <trkpt lat="48.19731" lon="7.3228">
        <ele>312.20001220703</ele>
        <time>2020-10-17T12:36:21Z</time>
      </trkpt>
      <trkpt lat="48.19733" lon="7.3228">
        <ele>312.39999389648</ele>
        <time>2020-10-17T12:36:22Z</time>
      </trkpt>
      <trkpt lat="48.19734" lon="7.32281">
        <ele>312.60000610352</ele>
        <time>2020-10-17T12:36:23Z</time>
      </trkpt>
      <trkpt lat="48.19757" lon="7.32303">
        <ele>314.39999389648</ele>
        <time>2020-10-17T12:36:44Z</time>
      </trkpt>
      <trkpt lat="48.19772" lon="7.32318">
        <ele>314</ele>
        <time>2020-10-17T12:37:01Z</time>
      </trkpt>
      <trkpt lat="48.19774" lon="7.32323">
        <ele>313.79998779297</ele>
        <time>2020-10-17T12:37:14Z</time>
      </trkpt>
      <trkpt lat="48.19788" lon="7.32355">
        <ele>313.79998779297</ele>
        <time>2020-10-17T12:37:32Z</time>
      </trkpt>
      <trkpt lat="48.19804" lon="7.32395">
        <ele>313.60000610352</ele>
        <time>2020-10-17T12:37:54Z</time>
      </trkpt>
      <trkpt lat="48.1982" lon="7.32436">
        <ele>312.60000610352</ele>
        <time>2020-10-17T12:38:17Z</time>
      </trkpt>
      <trkpt lat="48.19838" lon="7.32478">
        <ele>312.20001220703</ele>
        <time>2020-10-17T12:38:40Z</time>
      </trkpt>
      <trkpt lat="48.19854" lon="7.32505">
        <ele>312</ele>
        <time>2020-10-17T12:38:58Z</time>
      </trkpt>
      <trkpt lat="48.19869" lon="7.32531">
        <ele>311.79998779297</ele>
        <time>2020-10-17T12:39:15Z</time>
      </trkpt>
      <trkpt lat="48.1987" lon="7.32536">
        <ele>311.60000610352</ele>
        <time>2020-10-17T12:39:25Z</time>
      </trkpt>
      <trkpt lat="48.19871" lon="7.32538">
        <ele>311.79998779297</ele>
        <time>2020-10-17T12:39:26Z</time>
      </trkpt>
      <trkpt lat="48.19872" lon="7.3254">
        <ele>311.79998779297</ele>
        <time>2020-10-17T12:39:27Z</time>
      </trkpt>
      <trkpt lat="48.19874" lon="7.32543">
        <ele>312</ele>
        <time>2020-10-17T12:39:42Z</time>
      </trkpt>
      <trkpt lat="48.19875" lon="7.32544">
        <ele>311.79998779297</ele>
        <time>2020-10-17T12:39:43Z</time>
      </trkpt>
      <trkpt lat="48.19897" lon="7.32572">
        <ele>311.60000610352</ele>
        <time>2020-10-17T12:40:04Z</time>
      </trkpt>
      <trkpt lat="48.19908" lon="7.32582">
        <ele>311.39999389648</ele>
        <time>2020-10-17T12:40:13Z</time>
      </trkpt>
      <trkpt lat="48.19909" lon="7.32583">
        <ele>311.39999389648</ele>
        <time>2020-10-17T12:40:14Z</time>
      </trkpt>
      <trkpt lat="48.19911" lon="7.32583">
        <ele>311.39999389648</ele>
        <time>2020-10-17T12:40:15Z</time>
      </trkpt>
      <trkpt lat="48.19913" lon="7.32584">
        <ele>311.39999389648</ele>
        <time>2020-10-17T12:40:16Z</time>
      </trkpt>
      <trkpt lat="48.19914" lon="7.32585">
        <ele>311.39999389648</ele>
        <time>2020-10-17T12:40:17Z</time>
      </trkpt>
      <trkpt lat="48.19915" lon="7.32586">
        <ele>311.39999389648</ele>
        <time>2020-10-17T12:40:18Z</time>
      </trkpt>
      <trkpt lat="48.19945" lon="7.32613">
        <ele>312.39999389648</ele>
        <time>2020-10-17T12:40:42Z</time>
      </trkpt>
      <trkpt lat="48.19968" lon="7.32631">
        <ele>313</ele>
        <time>2020-10-17T12:40:59Z</time>
      </trkpt>
      <trkpt lat="48.19996" lon="7.3265">
        <ele>313.79998779297</ele>
        <time>2020-10-17T12:41:19Z</time>
      </trkpt>
      <trkpt lat="48.20021" lon="7.32678">
        <ele>313.60000610352</ele>
        <time>2020-10-17T12:41:41Z</time>
      </trkpt>
      <trkpt lat="48.20035" lon="7.32697">
        <ele>312.79998779297</ele>
        <time>2020-10-17T12:41:55Z</time>
      </trkpt>
      <trkpt lat="48.20059" lon="7.32738">
        <ele>310.39999389648</ele>
        <time>2020-10-17T12:42:16Z</time>
      </trkpt>
      <trkpt lat="48.20079" lon="7.32761">
        <ele>308.60000610352</ele>
        <time>2020-10-17T12:42:33Z</time>
      </trkpt>
      <trkpt lat="48.201" lon="7.32781">
        <ele>306</ele>
        <time>2020-10-17T12:42:50Z</time>
      </trkpt>
      <trkpt lat="48.20118" lon="7.32809">
        <ele>302.79998779297</ele>
        <time>2020-10-17T12:43:04Z</time>
      </trkpt>
      <trkpt lat="48.2013" lon="7.32833">
        <ele>299.39999389648</ele>
        <time>2020-10-17T12:43:13Z</time>
      </trkpt>
      <trkpt lat="48.20141" lon="7.32859">
        <ele>296.20001220703</ele>
        <time>2020-10-17T12:43:22Z</time>
      </trkpt>
      <trkpt lat="48.20155" lon="7.32885">
        <ele>293.20001220703</ele>
        <time>2020-10-17T12:43:36Z</time>
      </trkpt>
      <trkpt lat="48.20168" lon="7.32909">
        <ele>291</ele>
        <time>2020-10-17T12:43:51Z</time>
      </trkpt>
      <trkpt lat="48.20188" lon="7.32936">
        <ele>289.39999389648</ele>
        <time>2020-10-17T12:44:08Z</time>
      </trkpt>
      <trkpt lat="48.20201" lon="7.32979">
        <ele>288.39999389648</ele>
        <time>2020-10-17T12:44:28Z</time>
      </trkpt>
      <trkpt lat="48.20217" lon="7.33021">
        <ele>287.39999389648</ele>
        <time>2020-10-17T12:44:49Z</time>
      </trkpt>
      <trkpt lat="48.20219" lon="7.33055">
        <ele>286.60000610352</ele>
        <time>2020-10-17T12:45:06Z</time>
      </trkpt>
      <trkpt lat="48.20211" lon="7.33075">
        <ele>285</ele>
        <time>2020-10-17T12:45:16Z</time>
      </trkpt>
      <trkpt lat="48.20211" lon="7.33076">
        <ele>284.79998779297</ele>
        <time>2020-10-17T12:45:17Z</time>
      </trkpt>
      <trkpt lat="48.20212" lon="7.33078">
        <ele>284.79998779297</ele>
        <time>2020-10-17T12:45:18Z</time>
      </trkpt>
      <trkpt lat="48.20234" lon="7.331">
        <ele>285.60000610352</ele>
        <time>2020-10-17T12:45:37Z</time>
      </trkpt>
      <trkpt lat="48.20255" lon="7.33122">
        <ele>285.39999389648</ele>
        <time>2020-10-17T12:45:55Z</time>
      </trkpt>
      <trkpt lat="48.2028" lon="7.33144">
        <ele>284.79998779297</ele>
        <time>2020-10-17T12:46:13Z</time>
      </trkpt>
      <trkpt lat="48.20307" lon="7.3316">
        <ele>284.60000610352</ele>
        <time>2020-10-17T12:46:33Z</time>
      </trkpt>
      <trkpt lat="48.20327" lon="7.33181">
        <ele>285</ele>
        <time>2020-10-17T12:46:49Z</time>
      </trkpt>
      <trkpt lat="48.20352" lon="7.33205">
        <ele>285.79998779297</ele>
        <time>2020-10-17T12:47:09Z</time>
      </trkpt>
      <trkpt lat="48.20374" lon="7.33229">
        <ele>286.60000610352</ele>
        <time>2020-10-17T12:47:28Z</time>
      </trkpt>
      <trkpt lat="48.20391" lon="7.33256">
        <ele>287.20001220703</ele>
        <time>2020-10-17T12:47:45Z</time>
      </trkpt>
      <trkpt lat="48.2041" lon="7.33287">
        <ele>288</ele>
        <time>2020-10-17T12:48:04Z</time>
      </trkpt>
      <trkpt lat="48.20429" lon="7.33321">
        <ele>289.20001220703</ele>
        <time>2020-10-17T12:48:24Z</time>
      </trkpt>
      <trkpt lat="48.20448" lon="7.33352">
        <ele>291</ele>
        <time>2020-10-17T12:48:45Z</time>
      </trkpt>
      <trkpt lat="48.20467" lon="7.33371">
        <ele>292.60000610352</ele>
        <time>2020-10-17T12:49:02Z</time>
      </trkpt>
      <trkpt lat="48.20483" lon="7.33388">
        <ele>294.39999389648</ele>
        <time>2020-10-17T12:49:18Z</time>
      </trkpt>
      <trkpt lat="48.20503" lon="7.33408">
        <ele>295.79998779297</ele>
        <time>2020-10-17T12:49:35Z</time>
      </trkpt>
      <trkpt lat="48.20526" lon="7.33429">
        <ele>297.39999389648</ele>
        <time>2020-10-17T12:49:53Z</time>
      </trkpt>
      <trkpt lat="48.20545" lon="7.33447">
        <ele>298.20001220703</ele>
        <time>2020-10-17T12:50:09Z</time>
      </trkpt>
      <trkpt lat="48.20571" lon="7.33468">
        <ele>298.79998779297</ele>
        <time>2020-10-17T12:50:30Z</time>
      </trkpt>
      <trkpt lat="48.20596" lon="7.33496">
        <ele>300.39999389648</ele>
        <time>2020-10-17T12:50:51Z</time>
      </trkpt>
      <trkpt lat="48.20618" lon="7.33521">
        <ele>301.20001220703</ele>
        <time>2020-10-17T12:51:11Z</time>
      </trkpt>
      <trkpt lat="48.20635" lon="7.33549">
        <ele>302.20001220703</ele>
        <time>2020-10-17T12:51:30Z</time>
      </trkpt>
      <trkpt lat="48.20654" lon="7.3358">
        <ele>303.79998779297</ele>
        <time>2020-10-17T12:51:50Z</time>
      </trkpt>
      <trkpt lat="48.20674" lon="7.336">
        <ele>305.39999389648</ele>
        <time>2020-10-17T12:52:08Z</time>
      </trkpt>
      <trkpt lat="48.20696" lon="7.33619">
        <ele>306.39999389648</ele>
        <time>2020-10-17T12:52:27Z</time>
      </trkpt>
      <trkpt lat="48.20714" lon="7.33632">
        <ele>305.60000610352</ele>
        <time>2020-10-17T12:52:44Z</time>
      </trkpt>
      <trkpt lat="48.20719" lon="7.33635">
        <ele>305.20001220703</ele>
        <time>2020-10-17T12:52:55Z</time>
      </trkpt>
      <trkpt lat="48.2072" lon="7.33636">
        <ele>305.20001220703</ele>
        <time>2020-10-17T12:52:56Z</time>
      </trkpt>
      <trkpt lat="48.20721" lon="7.33637">
        <ele>305.20001220703</ele>
        <time>2020-10-17T12:52:57Z</time>
      </trkpt>
      <trkpt lat="48.20722" lon="7.33638">
        <ele>305.20001220703</ele>
        <time>2020-10-17T12:52:58Z</time>
      </trkpt>
      <trkpt lat="48.20724" lon="7.33639">
        <ele>305.20001220703</ele>
        <time>2020-10-17T12:52:59Z</time>
      </trkpt>
      <trkpt lat="48.20725" lon="7.33641">
        <ele>305</ele>
        <time>2020-10-17T12:53:00Z</time>
      </trkpt>
      <trkpt lat="48.20726" lon="7.33642">
        <ele>305</ele>
        <time>2020-10-17T12:53:01Z</time>
      </trkpt>
      <trkpt lat="48.20727" lon="7.33643">
        <ele>304.79998779297</ele>
        <time>2020-10-17T12:53:02Z</time>
      </trkpt>
      <trkpt lat="48.20752" lon="7.33656">
        <ele>302.79998779297</ele>
        <time>2020-10-17T12:53:20Z</time>
      </trkpt>
      <trkpt lat="48.20773" lon="7.33662">
        <ele>300.79998779297</ele>
        <time>2020-10-17T12:53:35Z</time>
      </trkpt>
      <trkpt lat="48.20795" lon="7.33662">
        <ele>297.79998779297</ele>
        <time>2020-10-17T12:53:50Z</time>
      </trkpt>
      <trkpt lat="48.20816" lon="7.33672">
        <ele>294.60000610352</ele>
        <time>2020-10-17T12:54:05Z</time>
      </trkpt>
      <trkpt lat="48.20842" lon="7.3369">
        <ele>291.79998779297</ele>
        <time>2020-10-17T12:54:22Z</time>
      </trkpt>
      <trkpt lat="48.20864" lon="7.33705">
        <ele>289.60000610352</ele>
        <time>2020-10-17T12:54:39Z</time>
      </trkpt>
      <trkpt lat="48.20886" lon="7.33711">
        <ele>287.60000610352</ele>
        <time>2020-10-17T12:54:55Z</time>
      </trkpt>
      <trkpt lat="48.20889" lon="7.33714">
        <ele>286.79998779297</ele>
        <time>2020-10-17T12:55:13Z</time>
      </trkpt>
      <trkpt lat="48.2089" lon="7.33714">
        <ele>286.79998779297</ele>
        <time>2020-10-17T12:55:15Z</time>
      </trkpt>
      <trkpt lat="48.20891" lon="7.33715">
        <ele>286.79998779297</ele>
        <time>2020-10-17T12:55:16Z</time>
      </trkpt>
      <trkpt lat="48.20894" lon="7.33715">
        <ele>286.79998779297</ele>
        <time>2020-10-17T12:55:18Z</time>
      </trkpt>
      <trkpt lat="48.20895" lon="7.33716">
        <ele>286.79998779297</ele>
        <time>2020-10-17T12:55:19Z</time>
      </trkpt>
      <trkpt lat="48.20923" lon="7.33719">
        <ele>285.20001220703</ele>
        <time>2020-10-17T12:55:37Z</time>
      </trkpt>
      <trkpt lat="48.20939" lon="7.33717">
        <ele>284.60000610352</ele>
        <time>2020-10-17T12:55:53Z</time>
      </trkpt>
      <trkpt lat="48.20941" lon="7.33717">
        <ele>284.60000610352</ele>
        <time>2020-10-17T12:55:54Z</time>
      </trkpt>
      <trkpt lat="48.20942" lon="7.33717">
        <ele>284.60000610352</ele>
        <time>2020-10-17T12:55:55Z</time>
      </trkpt>
      <trkpt lat="48.20944" lon="7.33716">
        <ele>284.60000610352</ele>
        <time>2020-10-17T12:55:56Z</time>
      </trkpt>
      <trkpt lat="48.20969" lon="7.33721">
        <ele>282.79998779297</ele>
        <time>2020-10-17T12:56:14Z</time>
      </trkpt>
      <trkpt lat="48.20992" lon="7.33732">
        <ele>280</ele>
        <time>2020-10-17T12:56:30Z</time>
      </trkpt>
      <trkpt lat="48.21019" lon="7.33745">
        <ele>277</ele>
        <time>2020-10-17T12:56:49Z</time>
      </trkpt>
      <trkpt lat="48.21043" lon="7.33753">
        <ele>273.79998779297</ele>
        <time>2020-10-17T12:57:05Z</time>
      </trkpt>
      <trkpt lat="48.21054" lon="7.33761">
        <ele>272.79998779297</ele>
        <time>2020-10-17T12:57:13Z</time>
      </trkpt>
      <trkpt lat="48.21056" lon="7.33762">
        <ele>272.60000610352</ele>
        <time>2020-10-17T12:57:14Z</time>
      </trkpt>
      <trkpt lat="48.21057" lon="7.33763">
        <ele>272.39999389648</ele>
        <time>2020-10-17T12:57:15Z</time>
      </trkpt>
      <trkpt lat="48.21076" lon="7.33779">
        <ele>270.20001220703</ele>
        <time>2020-10-17T12:57:32Z</time>
      </trkpt>
      <trkpt lat="48.21078" lon="7.33779">
        <ele>270</ele>
        <time>2020-10-17T12:57:34Z</time>
      </trkpt>
      <trkpt lat="48.21079" lon="7.33779">
        <ele>269.79998779297</ele>
        <time>2020-10-17T12:57:35Z</time>
      </trkpt>
      <trkpt lat="48.2108" lon="7.33779">
        <ele>269.79998779297</ele>
        <time>2020-10-17T12:57:36Z</time>
      </trkpt>
      <trkpt lat="48.21081" lon="7.3378">
        <ele>269.60000610352</ele>
        <time>2020-10-17T12:57:37Z</time>
      </trkpt>
      <trkpt lat="48.21105" lon="7.33788">
        <ele>267.20001220703</ele>
        <time>2020-10-17T12:57:54Z</time>
      </trkpt>
      <trkpt lat="48.21128" lon="7.33794">
        <ele>265.60000610352</ele>
        <time>2020-10-17T12:58:10Z</time>
      </trkpt>
      <trkpt lat="48.21153" lon="7.33797">
        <ele>263.60000610352</ele>
        <time>2020-10-17T12:58:27Z</time>
      </trkpt>
      <trkpt lat="48.21179" lon="7.33802">
        <ele>261.60000610352</ele>
        <time>2020-10-17T12:58:44Z</time>
      </trkpt>
      <trkpt lat="48.212" lon="7.33802">
        <ele>260</ele>
        <time>2020-10-17T12:58:59Z</time>
      </trkpt>
      <trkpt lat="48.21226" lon="7.33804">
        <ele>257.79998779297</ele>
        <time>2020-10-17T12:59:18Z</time>
      </trkpt>
      <trkpt lat="48.21227" lon="7.33805">
        <ele>257.39999389648</ele>
        <time>2020-10-17T12:59:34Z</time>
      </trkpt>
      <trkpt lat="48.21228" lon="7.33806">
        <ele>257.39999389648</ele>
        <time>2020-10-17T12:59:35Z</time>
      </trkpt>
      <trkpt lat="48.21229" lon="7.33807">
        <ele>257.39999389648</ele>
        <time>2020-10-17T12:59:36Z</time>
      </trkpt>
      <trkpt lat="48.21231" lon="7.33808">
        <ele>257.39999389648</ele>
        <time>2020-10-17T12:59:37Z</time>
      </trkpt>
      <trkpt lat="48.21232" lon="7.33808">
        <ele>257.39999389648</ele>
        <time>2020-10-17T12:59:38Z</time>
      </trkpt>
      <trkpt lat="48.21233" lon="7.33808">
        <ele>257.39999389648</ele>
        <time>2020-10-17T12:59:39Z</time>
      </trkpt>
      <trkpt lat="48.21234" lon="7.33808">
        <ele>257.20001220703</ele>
        <time>2020-10-17T12:59:40Z</time>
      </trkpt>
      <trkpt lat="48.21247" lon="7.33806">
        <ele>255.80000305176</ele>
        <time>2020-10-17T12:59:55Z</time>
      </trkpt>
      <trkpt lat="48.21246" lon="7.33797">
        <ele>257.39999389648</ele>
        <time>2020-10-17T13:00:17Z</time>
      </trkpt>
      <trkpt lat="48.21248" lon="7.33793">
        <ele>257.60000610352</ele>
        <time>2020-10-17T13:00:36Z</time>
      </trkpt>
      <trkpt lat="48.21245" lon="7.33801">
        <ele>257.60000610352</ele>
        <time>2020-10-17T13:00:50Z</time>
      </trkpt>
      <trkpt lat="48.21245" lon="7.33802">
        <ele>257.60000610352</ele>
        <time>2020-10-17T13:00:51Z</time>
      </trkpt>
      <trkpt lat="48.21246" lon="7.33803">
        <ele>257.60000610352</ele>
        <time>2020-10-17T13:00:52Z</time>
      </trkpt>
      <trkpt lat="48.21248" lon="7.33803">
        <ele>257.39999389648</ele>
        <time>2020-10-17T13:00:53Z</time>
      </trkpt>
      <trkpt lat="48.21249" lon="7.33804">
        <ele>256.79998779297</ele>
        <time>2020-10-17T13:00:54Z</time>
      </trkpt>
      <trkpt lat="48.2125" lon="7.33804">
        <ele>256.39999389648</ele>
        <time>2020-10-17T13:00:55Z</time>
      </trkpt>
      <trkpt lat="48.21251" lon="7.33805">
        <ele>256</ele>
        <time>2020-10-17T13:00:56Z</time>
      </trkpt>
      <trkpt lat="48.21265" lon="7.33806">
        <ele>254.19999694824</ele>
        <time>2020-10-17T13:01:12Z</time>
      </trkpt>
      <trkpt lat="48.21266" lon="7.33808">
        <ele>254.19999694824</ele>
        <time>2020-10-17T13:01:32Z</time>
      </trkpt>
      <trkpt lat="48.2127" lon="7.33809">
        <ele>254</ele>
        <time>2020-10-17T13:01:35Z</time>
      </trkpt>
      <trkpt lat="48.21272" lon="7.3381">
        <ele>253.80000305176</ele>
        <time>2020-10-17T13:01:36Z</time>
      </trkpt>
      <trkpt lat="48.21273" lon="7.3381">
        <ele>253.60000610352</ele>
        <time>2020-10-17T13:01:37Z</time>
      </trkpt>
      <trkpt lat="48.21275" lon="7.33811">
        <ele>253.39999389648</ele>
        <time>2020-10-17T13:01:38Z</time>
      </trkpt>
      <trkpt lat="48.21276" lon="7.33811">
        <ele>253.39999389648</ele>
        <time>2020-10-17T13:01:39Z</time>
      </trkpt>
      <trkpt lat="48.21285" lon="7.33817">
        <ele>252</ele>
        <time>2020-10-17T13:01:49Z</time>
      </trkpt>
      <trkpt lat="48.21288" lon="7.33819">
        <ele>251.80000305176</ele>
        <time>2020-10-17T13:01:51Z</time>
      </trkpt>
      <trkpt lat="48.2129" lon="7.33819">
        <ele>251.80000305176</ele>
        <time>2020-10-17T13:01:52Z</time>
      </trkpt>
      <trkpt lat="48.21291" lon="7.33819">
        <ele>251.60000610352</ele>
        <time>2020-10-17T13:01:53Z</time>
      </trkpt>
      <trkpt lat="48.21292" lon="7.3382">
        <ele>251.39999389648</ele>
        <time>2020-10-17T13:01:54Z</time>
      </trkpt>
      <trkpt lat="48.21293" lon="7.33821">
        <ele>251.19999694824</ele>
        <time>2020-10-17T13:01:55Z</time>
      </trkpt>
      <trkpt lat="48.21294" lon="7.33821">
        <ele>251</ele>
        <time>2020-10-17T13:01:56Z</time>
      </trkpt>
      <trkpt lat="48.213" lon="7.33823">
        <ele>250.19999694824</ele>
        <time>2020-10-17T13:02:10Z</time>
      </trkpt>
      <trkpt lat="48.21302" lon="7.33824">
        <ele>250.19999694824</ele>
        <time>2020-10-17T13:02:11Z</time>
      </trkpt>
      <trkpt lat="48.21303" lon="7.33824">
        <ele>250.19999694824</ele>
        <time>2020-10-17T13:02:12Z</time>
      </trkpt>
      <trkpt lat="48.21305" lon="7.33825">
        <ele>250.19999694824</ele>
        <time>2020-10-17T13:02:13Z</time>
      </trkpt>
      <trkpt lat="48.21306" lon="7.33826">
        <ele>250</ele>
        <time>2020-10-17T13:02:14Z</time>
      </trkpt>
      <trkpt lat="48.21307" lon="7.33827">
        <ele>249.60000610352</ele>
        <time>2020-10-17T13:02:15Z</time>
      </trkpt>
      <trkpt lat="48.21326" lon="7.33834">
        <ele>247.80000305176</ele>
        <time>2020-10-17T13:02:28Z</time>
      </trkpt>
      <trkpt lat="48.21327" lon="7.33833">
        <ele>247.60000610352</ele>
        <time>2020-10-17T13:02:29Z</time>
      </trkpt>
      <trkpt lat="48.21328" lon="7.33832">
        <ele>247.60000610352</ele>
        <time>2020-10-17T13:02:30Z</time>
      </trkpt>
      <trkpt lat="48.21329" lon="7.33831">
        <ele>247.60000610352</ele>
        <time>2020-10-17T13:02:31Z</time>
      </trkpt>
      <trkpt lat="48.21331" lon="7.3383">
        <ele>247.39999389648</ele>
        <time>2020-10-17T13:02:32Z</time>
      </trkpt>
      <trkpt lat="48.21332" lon="7.33828">
        <ele>247.39999389648</ele>
        <time>2020-10-17T13:02:33Z</time>
      </trkpt>
      <trkpt lat="48.21332" lon="7.33825">
        <ele>247.39999389648</ele>
        <time>2020-10-17T13:02:34Z</time>
      </trkpt>
      <trkpt lat="48.21345" lon="7.33797">
        <ele>246.80000305176</ele>
        <time>2020-10-17T13:02:50Z</time>
      </trkpt>
      <trkpt lat="48.21346" lon="7.33795">
        <ele>246.80000305176</ele>
        <time>2020-10-17T13:02:51Z</time>
      </trkpt>
      <trkpt lat="48.21349" lon="7.33791">
        <ele>246.80000305176</ele>
        <time>2020-10-17T13:02:54Z</time>
      </trkpt>
      <trkpt lat="48.2135" lon="7.3379">
        <ele>246.80000305176</ele>
        <time>2020-10-17T13:02:55Z</time>
      </trkpt>
      <trkpt lat="48.21351" lon="7.33788">
        <ele>246.80000305176</ele>
        <time>2020-10-17T13:02:56Z</time>
      </trkpt>
      <trkpt lat="48.21357" lon="7.33783">
        <ele>247</ele>
        <time>2020-10-17T13:03:02Z</time>
      </trkpt>
      <trkpt lat="48.21358" lon="7.33783">
        <ele>247</ele>
        <time>2020-10-17T13:03:03Z</time>
      </trkpt>
      <trkpt lat="48.21364" lon="7.33781">
        <ele>246.80000305176</ele>
        <time>2020-10-17T13:03:09Z</time>
      </trkpt>
      <trkpt lat="48.21365" lon="7.33782">
        <ele>246.80000305176</ele>
        <time>2020-10-17T13:03:10Z</time>
      </trkpt>
      <trkpt lat="48.21365" lon="7.33784">
        <ele>246.60000610352</ele>
        <time>2020-10-17T13:03:11Z</time>
      </trkpt>
      <trkpt lat="48.21365" lon="7.33786">
        <ele>246.39999389648</ele>
        <time>2020-10-17T13:03:12Z</time>
      </trkpt>
      <trkpt lat="48.21364" lon="7.33788">
        <ele>246.39999389648</ele>
        <time>2020-10-17T13:03:13Z</time>
      </trkpt>
      <trkpt lat="48.2137" lon="7.33813">
        <ele>245.39999389648</ele>
        <time>2020-10-17T13:03:27Z</time>
      </trkpt>
      <trkpt lat="48.21375" lon="7.3384">
        <ele>245.19999694824</ele>
        <time>2020-10-17T13:03:41Z</time>
      </trkpt>
      <trkpt lat="48.21378" lon="7.33859">
        <ele>244.60000610352</ele>
        <time>2020-10-17T13:03:55Z</time>
      </trkpt>
      <trkpt lat="48.21377" lon="7.33851">
        <ele>244.39999389648</ele>
        <time>2020-10-17T13:04:11Z</time>
      </trkpt>
      <trkpt lat="48.21377" lon="7.33844">
        <ele>245</ele>
        <time>2020-10-17T13:04:15Z</time>
      </trkpt>
      <trkpt lat="48.21371" lon="7.33818">
        <ele>245.39999389648</ele>
        <time>2020-10-17T13:04:29Z</time>
      </trkpt>
      <trkpt lat="48.21367" lon="7.33785">
        <ele>245.80000305176</ele>
        <time>2020-10-17T13:04:45Z</time>
      </trkpt>
      <trkpt lat="48.21367" lon="7.33782">
        <ele>246</ele>
        <time>2020-10-17T13:04:46Z</time>
      </trkpt>
      <trkpt lat="48.21367" lon="7.33781">
        <ele>246</ele>
        <time>2020-10-17T13:04:47Z</time>
      </trkpt>
      <trkpt lat="48.21368" lon="7.33776">
        <ele>246.39999389648</ele>
        <time>2020-10-17T13:04:50Z</time>
      </trkpt>
      <trkpt lat="48.21369" lon="7.33774">
        <ele>246.39999389648</ele>
        <time>2020-10-17T13:04:51Z</time>
      </trkpt>
      <trkpt lat="48.21372" lon="7.33764">
        <ele>246.80000305176</ele>
        <time>2020-10-17T13:04:56Z</time>
      </trkpt>
      <trkpt lat="48.21375" lon="7.33761">
        <ele>246.80000305176</ele>
        <time>2020-10-17T13:04:58Z</time>
      </trkpt>
      <trkpt lat="48.21375" lon="7.33758">
        <ele>246.80000305176</ele>
        <time>2020-10-17T13:04:59Z</time>
      </trkpt>
      <trkpt lat="48.21375" lon="7.33756">
        <ele>247</ele>
        <time>2020-10-17T13:05:00Z</time>
      </trkpt>
      <trkpt lat="48.21376" lon="7.33755">
        <ele>247</ele>
        <time>2020-10-17T13:05:01Z</time>
      </trkpt>
      <trkpt lat="48.21376" lon="7.33753">
        <ele>247.19999694824</ele>
        <time>2020-10-17T13:05:02Z</time>
      </trkpt>
      <trkpt lat="48.21376" lon="7.33751">
        <ele>247.19999694824</ele>
        <time>2020-10-17T13:05:03Z</time>
      </trkpt>
      <trkpt lat="48.21377" lon="7.33749">
        <ele>247.19999694824</ele>
        <time>2020-10-17T13:05:04Z</time>
      </trkpt>
      <trkpt lat="48.21377" lon="7.33747">
        <ele>247.19999694824</ele>
        <time>2020-10-17T13:05:05Z</time>
      </trkpt>
      <trkpt lat="48.21378" lon="7.33746">
        <ele>247.19999694824</ele>
        <time>2020-10-17T13:05:06Z</time>
      </trkpt>
      <trkpt lat="48.2138" lon="7.33744">
        <ele>247.19999694824</ele>
        <time>2020-10-17T13:05:09Z</time>
      </trkpt>
      <trkpt lat="48.21381" lon="7.33742">
        <ele>247.39999389648</ele>
        <time>2020-10-17T13:05:10Z</time>
      </trkpt>
      <trkpt lat="48.21386" lon="7.33737">
        <ele>247.39999389648</ele>
        <time>2020-10-17T13:05:15Z</time>
      </trkpt>
      <trkpt lat="48.21391" lon="7.33732">
        <ele>247.60000610352</ele>
        <time>2020-10-17T13:05:20Z</time>
      </trkpt>
      <trkpt lat="48.21399" lon="7.33718">
        <ele>248</ele>
        <time>2020-10-17T13:05:28Z</time>
      </trkpt>
      <trkpt lat="48.214" lon="7.33716">
        <ele>248</ele>
        <time>2020-10-17T13:05:29Z</time>
      </trkpt>
      <trkpt lat="48.21401" lon="7.33714">
        <ele>248.19999694824</ele>
        <time>2020-10-17T13:05:30Z</time>
      </trkpt>
      <trkpt lat="48.21404" lon="7.33709">
        <ele>248.19999694824</ele>
        <time>2020-10-17T13:05:35Z</time>
      </trkpt>
      <trkpt lat="48.21407" lon="7.33706">
        <ele>248.39999389648</ele>
        <time>2020-10-17T13:05:38Z</time>
      </trkpt>
      <trkpt lat="48.21408" lon="7.33705">
        <ele>248.60000610352</ele>
        <time>2020-10-17T13:05:39Z</time>
      </trkpt>
      <trkpt lat="48.21409" lon="7.33704">
        <ele>248.60000610352</ele>
        <time>2020-10-17T13:05:40Z</time>
      </trkpt>
      <trkpt lat="48.2141" lon="7.33704">
        <ele>248.60000610352</ele>
        <time>2020-10-17T13:05:41Z</time>
      </trkpt>
      <trkpt lat="48.21411" lon="7.33703">
        <ele>248.60000610352</ele>
        <time>2020-10-17T13:05:42Z</time>
      </trkpt>
      <trkpt lat="48.21416" lon="7.33697">
        <ele>249.19999694824</ele>
        <time>2020-10-17T13:05:46Z</time>
      </trkpt>
      <trkpt lat="48.21422" lon="7.33689">
        <ele>249.19999694824</ele>
        <time>2020-10-17T13:05:51Z</time>
      </trkpt>
      <trkpt lat="48.21427" lon="7.33681">
        <ele>249.60000610352</ele>
        <time>2020-10-17T13:05:56Z</time>
      </trkpt>
      <trkpt lat="48.21435" lon="7.33676">
        <ele>250.19999694824</ele>
        <time>2020-10-17T13:06:03Z</time>
      </trkpt>
      <trkpt lat="48.21436" lon="7.33675">
        <ele>250.19999694824</ele>
        <time>2020-10-17T13:06:04Z</time>
      </trkpt>
      <trkpt lat="48.21439" lon="7.33674">
        <ele>250.60000610352</ele>
        <time>2020-10-17T13:06:08Z</time>
      </trkpt>
      <trkpt lat="48.21441" lon="7.33673">
        <ele>250.80000305176</ele>
        <time>2020-10-17T13:06:10Z</time>
      </trkpt>
      <trkpt lat="48.21444" lon="7.33671">
        <ele>251.19999694824</ele>
        <time>2020-10-17T13:06:13Z</time>
      </trkpt>
      <trkpt lat="48.21445" lon="7.3367">
        <ele>251.19999694824</ele>
        <time>2020-10-17T13:06:14Z</time>
      </trkpt>
      <trkpt lat="48.21448" lon="7.33669">
        <ele>251.39999389648</ele>
        <time>2020-10-17T13:06:17Z</time>
      </trkpt>
      <trkpt lat="48.21453" lon="7.33667">
        <ele>251.60000610352</ele>
        <time>2020-10-17T13:06:21Z</time>
      </trkpt>
      <trkpt lat="48.21455" lon="7.33667">
        <ele>251.60000610352</ele>
        <time>2020-10-17T13:06:22Z</time>
      </trkpt>
      <trkpt lat="48.21459" lon="7.33668">
        <ele>251.60000610352</ele>
        <time>2020-10-17T13:06:25Z</time>
      </trkpt>
      <trkpt lat="48.21462" lon="7.3367">
        <ele>251.80000305176</ele>
        <time>2020-10-17T13:06:28Z</time>
      </trkpt>
      <trkpt lat="48.21464" lon="7.3367">
        <ele>252</ele>
        <time>2020-10-17T13:06:29Z</time>
      </trkpt>
      <trkpt lat="48.21465" lon="7.33671">
        <ele>252.19999694824</ele>
        <time>2020-10-17T13:06:30Z</time>
      </trkpt>
      <trkpt lat="48.21466" lon="7.33671">
        <ele>252.39999389648</ele>
        <time>2020-10-17T13:06:31Z</time>
      </trkpt>
      <trkpt lat="48.21478" lon="7.33679">
        <ele>254.19999694824</ele>
        <time>2020-10-17T13:06:42Z</time>
      </trkpt>
      <trkpt lat="48.21479" lon="7.3368">
        <ele>254.60000610352</ele>
        <time>2020-10-17T13:06:43Z</time>
      </trkpt>
      <trkpt lat="48.21487" lon="7.33687">
        <ele>256.20001220703</ele>
        <time>2020-10-17T13:06:55Z</time>
      </trkpt>
      <trkpt lat="48.21496" lon="7.33693">
        <ele>257.79998779297</ele>
        <time>2020-10-17T13:07:06Z</time>
      </trkpt>
      <trkpt lat="48.21498" lon="7.33694">
        <ele>258.39999389648</ele>
        <time>2020-10-17T13:07:08Z</time>
      </trkpt>
      <trkpt lat="48.21513" lon="7.33706">
        <ele>260.39999389648</ele>
        <time>2020-10-17T13:07:24Z</time>
      </trkpt>
      <trkpt lat="48.21524" lon="7.33716">
        <ele>262</ele>
        <time>2020-10-17T13:07:35Z</time>
      </trkpt>
      <trkpt lat="48.21534" lon="7.33729">
        <ele>264</ele>
        <time>2020-10-17T13:07:48Z</time>
      </trkpt>
      <trkpt lat="48.21543" lon="7.33741">
        <ele>265.79998779297</ele>
        <time>2020-10-17T13:08:00Z</time>
      </trkpt>
      <trkpt lat="48.21552" lon="7.33745">
        <ele>267.39999389648</ele>
        <time>2020-10-17T13:08:10Z</time>
      </trkpt>
      <trkpt lat="48.21568" lon="7.33737">
        <ele>269.60000610352</ele>
        <time>2020-10-17T13:08:25Z</time>
      </trkpt>
      <trkpt lat="48.21582" lon="7.33727">
        <ele>270.60000610352</ele>
        <time>2020-10-17T13:08:39Z</time>
      </trkpt>
      <trkpt lat="48.21588" lon="7.33728">
        <ele>271</ele>
        <time>2020-10-17T13:08:43Z</time>
      </trkpt>
      <trkpt lat="48.21591" lon="7.33728">
        <ele>271.20001220703</ele>
        <time>2020-10-17T13:08:45Z</time>
      </trkpt>
      <trkpt lat="48.21593" lon="7.33729">
        <ele>271.39999389648</ele>
        <time>2020-10-17T13:08:46Z</time>
      </trkpt>
      <trkpt lat="48.21595" lon="7.33729">
        <ele>271.39999389648</ele>
        <time>2020-10-17T13:08:48Z</time>
      </trkpt>
      <trkpt lat="48.21611" lon="7.33739">
        <ele>272</ele>
        <time>2020-10-17T13:09:03Z</time>
      </trkpt>
      <trkpt lat="48.21615" lon="7.33742">
        <ele>272.39999389648</ele>
        <time>2020-10-17T13:09:09Z</time>
      </trkpt>
      <trkpt lat="48.21626" lon="7.33752">
        <ele>272.79998779297</ele>
        <time>2020-10-17T13:09:19Z</time>
      </trkpt>
      <trkpt lat="48.21629" lon="7.33754">
        <ele>272.79998779297</ele>
        <time>2020-10-17T13:09:22Z</time>
      </trkpt>
      <trkpt lat="48.21633" lon="7.33755">
        <ele>273</ele>
        <time>2020-10-17T13:09:27Z</time>
      </trkpt>
      <trkpt lat="48.21639" lon="7.33753">
        <ele>273.39999389648</ele>
        <time>2020-10-17T13:09:44Z</time>
      </trkpt>
      <trkpt lat="48.21652" lon="7.33753">
        <ele>273.39999389648</ele>
        <time>2020-10-17T13:10:07Z</time>
      </trkpt>
      <trkpt lat="48.2166" lon="7.33762">
        <ele>273.60000610352</ele>
        <time>2020-10-17T13:10:17Z</time>
      </trkpt>
      <trkpt lat="48.21662" lon="7.33764">
        <ele>273.79998779297</ele>
        <time>2020-10-17T13:10:19Z</time>
      </trkpt>
      <trkpt lat="48.21666" lon="7.33768">
        <ele>274</ele>
        <time>2020-10-17T13:10:25Z</time>
      </trkpt>
      <trkpt lat="48.21667" lon="7.33769">
        <ele>274</ele>
        <time>2020-10-17T13:10:26Z</time>
      </trkpt>
      <trkpt lat="48.21669" lon="7.3377">
        <ele>274</ele>
        <time>2020-10-17T13:10:27Z</time>
      </trkpt>
      <trkpt lat="48.21683" lon="7.33764">
        <ele>274.60000610352</ele>
        <time>2020-10-17T13:10:40Z</time>
      </trkpt>
      <trkpt lat="48.21686" lon="7.33764">
        <ele>274.60000610352</ele>
        <time>2020-10-17T13:10:42Z</time>
      </trkpt>
      <trkpt lat="48.21692" lon="7.33766">
        <ele>275</ele>
        <time>2020-10-17T13:10:46Z</time>
      </trkpt>
      <trkpt lat="48.21693" lon="7.33766">
        <ele>275</ele>
        <time>2020-10-17T13:10:47Z</time>
      </trkpt>
      <trkpt lat="48.21706" lon="7.33776">
        <ele>276</ele>
        <time>2020-10-17T13:10:59Z</time>
      </trkpt>
      <trkpt lat="48.21708" lon="7.33792">
        <ele>277.60000610352</ele>
        <time>2020-10-17T13:11:10Z</time>
      </trkpt>
      <trkpt lat="48.21709" lon="7.33795">
        <ele>277.79998779297</ele>
        <time>2020-10-17T13:11:11Z</time>
      </trkpt>
      <trkpt lat="48.2171" lon="7.33797">
        <ele>278</ele>
        <time>2020-10-17T13:11:12Z</time>
      </trkpt>
      <trkpt lat="48.21716" lon="7.3381">
        <ele>279.20001220703</ele>
        <time>2020-10-17T13:11:23Z</time>
      </trkpt>
      <trkpt lat="48.21717" lon="7.33812">
        <ele>279.39999389648</ele>
        <time>2020-10-17T13:11:24Z</time>
      </trkpt>
      <trkpt lat="48.21724" lon="7.33827">
        <ele>280.79998779297</ele>
        <time>2020-10-17T13:11:35Z</time>
      </trkpt>
      <trkpt lat="48.21732" lon="7.33847">
        <ele>282.39999389648</ele>
        <time>2020-10-17T13:11:48Z</time>
      </trkpt>
      <trkpt lat="48.21735" lon="7.33859">
        <ele>283.39999389648</ele>
        <time>2020-10-17T13:11:55Z</time>
      </trkpt>
      <trkpt lat="48.21736" lon="7.33862">
        <ele>283.60000610352</ele>
        <time>2020-10-17T13:11:56Z</time>
      </trkpt>
      <trkpt lat="48.21736" lon="7.33864">
        <ele>283.79998779297</ele>
        <time>2020-10-17T13:11:57Z</time>
      </trkpt>
      <trkpt lat="48.21747" lon="7.33882">
        <ele>285.60000610352</ele>
        <time>2020-10-17T13:12:11Z</time>
      </trkpt>
      <trkpt lat="48.21754" lon="7.33894">
        <ele>287.20001220703</ele>
        <time>2020-10-17T13:12:20Z</time>
      </trkpt>
      <trkpt lat="48.21756" lon="7.33899">
        <ele>287.79998779297</ele>
        <time>2020-10-17T13:12:23Z</time>
      </trkpt>
      <trkpt lat="48.21769" lon="7.33925">
        <ele>290</ele>
        <time>2020-10-17T13:12:40Z</time>
      </trkpt>
      <trkpt lat="48.2177" lon="7.33928">
        <ele>290</ele>
        <time>2020-10-17T13:12:41Z</time>
      </trkpt>
      <trkpt lat="48.21769" lon="7.33959">
        <ele>291.39999389648</ele>
        <time>2020-10-17T13:12:56Z</time>
      </trkpt>
      <trkpt lat="48.2176" lon="7.33968">
        <ele>291.79998779297</ele>
        <time>2020-10-17T13:13:05Z</time>
      </trkpt>
      <trkpt lat="48.21755" lon="7.33965">
        <ele>292</ele>
        <time>2020-10-17T13:13:09Z</time>
      </trkpt>
      <trkpt lat="48.21751" lon="7.33961">
        <ele>292</ele>
        <time>2020-10-17T13:13:13Z</time>
      </trkpt>
      <trkpt lat="48.2175" lon="7.33961">
        <ele>292</ele>
        <time>2020-10-17T13:13:14Z</time>
      </trkpt>
      <trkpt lat="48.21749" lon="7.3396">
        <ele>292</ele>
        <time>2020-10-17T13:13:15Z</time>
      </trkpt>
      <trkpt lat="48.21748" lon="7.33958">
        <ele>292</ele>
        <time>2020-10-17T13:13:16Z</time>
      </trkpt>
      <trkpt lat="48.21744" lon="7.33953">
        <ele>292</ele>
        <time>2020-10-17T13:13:20Z</time>
      </trkpt>
      <trkpt lat="48.21743" lon="7.33952">
        <ele>292.20001220703</ele>
        <time>2020-10-17T13:13:21Z</time>
      </trkpt>
      <trkpt lat="48.21737" lon="7.33945">
        <ele>292.39999389648</ele>
        <time>2020-10-17T13:13:26Z</time>
      </trkpt>
      <trkpt lat="48.21729" lon="7.33936">
        <ele>292.60000610352</ele>
        <time>2020-10-17T13:13:34Z</time>
      </trkpt>
      <trkpt lat="48.21722" lon="7.33928">
        <ele>293</ele>
        <time>2020-10-17T13:13:39Z</time>
      </trkpt>
      <trkpt lat="48.21719" lon="7.33923">
        <ele>293.20001220703</ele>
        <time>2020-10-17T13:13:42Z</time>
      </trkpt>
      <trkpt lat="48.21713" lon="7.33914">
        <ele>294</ele>
        <time>2020-10-17T13:13:50Z</time>
      </trkpt>
      <trkpt lat="48.21701" lon="7.33903">
        <ele>295.20001220703</ele>
        <time>2020-10-17T13:14:03Z</time>
      </trkpt>
      <trkpt lat="48.21685" lon="7.33894">
        <ele>296.39999389648</ele>
        <time>2020-10-17T13:14:13Z</time>
      </trkpt>
      <trkpt lat="48.21684" lon="7.33894">
        <ele>296.60000610352</ele>
        <time>2020-10-17T13:14:14Z</time>
      </trkpt>
      <trkpt lat="48.21679" lon="7.33893">
        <ele>297</ele>
        <time>2020-10-17T13:14:17Z</time>
      </trkpt>
      <trkpt lat="48.21677" lon="7.33893">
        <ele>297.20001220703</ele>
        <time>2020-10-17T13:14:18Z</time>
      </trkpt>
      <trkpt lat="48.21675" lon="7.33893">
        <ele>297.39999389648</ele>
        <time>2020-10-17T13:14:19Z</time>
      </trkpt>
      <trkpt lat="48.21668" lon="7.33908">
        <ele>300</ele>
        <time>2020-10-17T13:14:32Z</time>
      </trkpt>
      <trkpt lat="48.21681" lon="7.33921">
        <ele>300.79998779297</ele>
        <time>2020-10-17T13:14:43Z</time>
      </trkpt>
      <trkpt lat="48.21683" lon="7.33924">
        <ele>301.39999389648</ele>
        <time>2020-10-17T13:14:45Z</time>
      </trkpt>
      <trkpt lat="48.21686" lon="7.33931">
        <ele>301.60000610352</ele>
        <time>2020-10-17T13:14:49Z</time>
      </trkpt>
      <trkpt lat="48.21689" lon="7.33938">
        <ele>302.20001220703</ele>
        <time>2020-10-17T13:14:54Z</time>
      </trkpt>
      <trkpt lat="48.21691" lon="7.3394">
        <ele>302.39999389648</ele>
        <time>2020-10-17T13:14:55Z</time>
      </trkpt>
      <trkpt lat="48.217" lon="7.33954">
        <ele>304</ele>
        <time>2020-10-17T13:15:06Z</time>
      </trkpt>
      <trkpt lat="48.21704" lon="7.33962">
        <ele>304.60000610352</ele>
        <time>2020-10-17T13:15:11Z</time>
      </trkpt>
      <trkpt lat="48.21708" lon="7.33966">
        <ele>305</ele>
        <time>2020-10-17T13:15:15Z</time>
      </trkpt>
      <trkpt lat="48.21714" lon="7.33969">
        <ele>305.79998779297</ele>
        <time>2020-10-17T13:15:20Z</time>
      </trkpt>
      <trkpt lat="48.21721" lon="7.33979">
        <ele>306.79998779297</ele>
        <time>2020-10-17T13:15:28Z</time>
      </trkpt>
      <trkpt lat="48.21721" lon="7.33981">
        <ele>307</ele>
        <time>2020-10-17T13:15:29Z</time>
      </trkpt>
      <trkpt lat="48.21726" lon="7.33991">
        <ele>307.79998779297</ele>
        <time>2020-10-17T13:15:36Z</time>
      </trkpt>
      <trkpt lat="48.21732" lon="7.34">
        <ele>309</ele>
        <time>2020-10-17T13:15:44Z</time>
      </trkpt>
      <trkpt lat="48.21741" lon="7.34012">
        <ele>310</ele>
        <time>2020-10-17T13:15:55Z</time>
      </trkpt>
      <trkpt lat="48.21749" lon="7.34024">
        <ele>311.79998779297</ele>
        <time>2020-10-17T13:16:06Z</time>
      </trkpt>
      <trkpt lat="48.2176" lon="7.34034">
        <ele>313</ele>
        <time>2020-10-17T13:16:16Z</time>
      </trkpt>
      <trkpt lat="48.21767" lon="7.34043">
        <ele>314.39999389648</ele>
        <time>2020-10-17T13:16:26Z</time>
      </trkpt>
      <trkpt lat="48.21779" lon="7.34058">
        <ele>316</ele>
        <time>2020-10-17T13:16:37Z</time>
      </trkpt>
      <trkpt lat="48.2178" lon="7.34059">
        <ele>316</ele>
        <time>2020-10-17T13:16:38Z</time>
      </trkpt>
      <trkpt lat="48.2178" lon="7.3406">
        <ele>316.20001220703</ele>
        <time>2020-10-17T13:16:39Z</time>
      </trkpt>
      <trkpt lat="48.2179" lon="7.34071">
        <ele>318.39999389648</ele>
        <time>2020-10-17T13:16:51Z</time>
      </trkpt>
      <trkpt lat="48.21792" lon="7.34075">
        <ele>319</ele>
        <time>2020-10-17T13:16:54Z</time>
      </trkpt>
      <trkpt lat="48.21803" lon="7.34085">
        <ele>321.60000610352</ele>
        <time>2020-10-17T13:17:07Z</time>
      </trkpt>
      <trkpt lat="48.21803" lon="7.34086">
        <ele>321.79998779297</ele>
        <time>2020-10-17T13:17:08Z</time>
      </trkpt>
      <trkpt lat="48.21808" lon="7.34105">
        <ele>324.20001220703</ele>
        <time>2020-10-17T13:17:19Z</time>
      </trkpt>
      <trkpt lat="48.21809" lon="7.34106">
        <ele>324.39999389648</ele>
        <time>2020-10-17T13:17:20Z</time>
      </trkpt>
      <trkpt lat="48.21816" lon="7.34121">
        <ele>325.79998779297</ele>
        <time>2020-10-17T13:17:30Z</time>
      </trkpt>
      <trkpt lat="48.2182" lon="7.34124">
        <ele>326</ele>
        <time>2020-10-17T13:17:33Z</time>
      </trkpt>
      <trkpt lat="48.21821" lon="7.34126">
        <ele>326.20001220703</ele>
        <time>2020-10-17T13:17:34Z</time>
      </trkpt>
      <trkpt lat="48.21821" lon="7.34128">
        <ele>326.39999389648</ele>
        <time>2020-10-17T13:17:35Z</time>
      </trkpt>
      <trkpt lat="48.21822" lon="7.3413">
        <ele>326.60000610352</ele>
        <time>2020-10-17T13:17:36Z</time>
      </trkpt>
      <trkpt lat="48.21823" lon="7.34131">
        <ele>327</ele>
        <time>2020-10-17T13:17:37Z</time>
      </trkpt>
      <trkpt lat="48.2183" lon="7.34144">
        <ele>328.39999389648</ele>
        <time>2020-10-17T13:17:48Z</time>
      </trkpt>
      <trkpt lat="48.21835" lon="7.34154">
        <ele>329.39999389648</ele>
        <time>2020-10-17T13:17:55Z</time>
      </trkpt>
      <trkpt lat="48.21836" lon="7.34156">
        <ele>329.39999389648</ele>
        <time>2020-10-17T13:17:56Z</time>
      </trkpt>
      <trkpt lat="48.21837" lon="7.34157">
        <ele>329.39999389648</ele>
        <time>2020-10-17T13:17:57Z</time>
      </trkpt>
      <trkpt lat="48.21837" lon="7.34158">
        <ele>329.60000610352</ele>
        <time>2020-10-17T13:17:58Z</time>
      </trkpt>
      <trkpt lat="48.21838" lon="7.3416">
        <ele>329.60000610352</ele>
        <time>2020-10-17T13:17:59Z</time>
      </trkpt>
      <trkpt lat="48.21843" lon="7.34172">
        <ele>330.39999389648</ele>
        <time>2020-10-17T13:18:08Z</time>
      </trkpt>
      <trkpt lat="48.2185" lon="7.34187">
        <ele>331.39999389648</ele>
        <time>2020-10-17T13:18:17Z</time>
      </trkpt>
      <trkpt lat="48.21858" lon="7.34205">
        <ele>332.39999389648</ele>
        <time>2020-10-17T13:18:29Z</time>
      </trkpt>
      <trkpt lat="48.21869" lon="7.34224">
        <ele>333.79998779297</ele>
        <time>2020-10-17T13:18:42Z</time>
      </trkpt>
      <trkpt lat="48.21872" lon="7.34228">
        <ele>334.20001220703</ele>
        <time>2020-10-17T13:18:45Z</time>
      </trkpt>
      <trkpt lat="48.21879" lon="7.34247">
        <ele>335.60000610352</ele>
        <time>2020-10-17T13:18:57Z</time>
      </trkpt>
      <trkpt lat="48.2188" lon="7.34249">
        <ele>335.79998779297</ele>
        <time>2020-10-17T13:18:58Z</time>
      </trkpt>
      <trkpt lat="48.21887" lon="7.34265">
        <ele>337</ele>
        <time>2020-10-17T13:19:09Z</time>
      </trkpt>
      <trkpt lat="48.21888" lon="7.34266">
        <ele>337</ele>
        <time>2020-10-17T13:19:10Z</time>
      </trkpt>
      <trkpt lat="48.21895" lon="7.34275">
        <ele>338.20001220703</ele>
        <time>2020-10-17T13:19:16Z</time>
      </trkpt>
      <trkpt lat="48.219" lon="7.34287">
        <ele>339.79998779297</ele>
        <time>2020-10-17T13:19:25Z</time>
      </trkpt>
      <trkpt lat="48.219" lon="7.34288">
        <ele>340</ele>
        <time>2020-10-17T13:19:26Z</time>
      </trkpt>
      <trkpt lat="48.21901" lon="7.34289">
        <ele>340</ele>
        <time>2020-10-17T13:19:27Z</time>
      </trkpt>
      <trkpt lat="48.21901" lon="7.34291">
        <ele>340.20001220703</ele>
        <time>2020-10-17T13:19:28Z</time>
      </trkpt>
      <trkpt lat="48.21902" lon="7.34294">
        <ele>340.60000610352</ele>
        <time>2020-10-17T13:19:30Z</time>
      </trkpt>
      <trkpt lat="48.21903" lon="7.34297">
        <ele>340.79998779297</ele>
        <time>2020-10-17T13:19:32Z</time>
      </trkpt>
      <trkpt lat="48.21904" lon="7.34304">
        <ele>341.60000610352</ele>
        <time>2020-10-17T13:19:37Z</time>
      </trkpt>
      <trkpt lat="48.21908" lon="7.34312">
        <ele>342.79998779297</ele>
        <time>2020-10-17T13:19:44Z</time>
      </trkpt>
      <trkpt lat="48.2191" lon="7.34325">
        <ele>343.79998779297</ele>
        <time>2020-10-17T13:19:51Z</time>
      </trkpt>
      <trkpt lat="48.2191" lon="7.34327">
        <ele>343.79998779297</ele>
        <time>2020-10-17T13:19:52Z</time>
      </trkpt>
      <trkpt lat="48.2191" lon="7.34329">
        <ele>344</ele>
        <time>2020-10-17T13:19:53Z</time>
      </trkpt>
      <trkpt lat="48.21911" lon="7.34333">
        <ele>344.20001220703</ele>
        <time>2020-10-17T13:19:55Z</time>
      </trkpt>
      <trkpt lat="48.21912" lon="7.34335">
        <ele>344.39999389648</ele>
        <time>2020-10-17T13:19:56Z</time>
      </trkpt>
      <trkpt lat="48.21913" lon="7.3434">
        <ele>344.79998779297</ele>
        <time>2020-10-17T13:19:59Z</time>
      </trkpt>
      <trkpt lat="48.21921" lon="7.34359">
        <ele>346.79998779297</ele>
        <time>2020-10-17T13:20:13Z</time>
      </trkpt>
      <trkpt lat="48.21926" lon="7.34377">
        <ele>348</ele>
        <time>2020-10-17T13:20:24Z</time>
      </trkpt>
      <trkpt lat="48.21932" lon="7.34395">
        <ele>349.20001220703</ele>
        <time>2020-10-17T13:20:36Z</time>
      </trkpt>
      <trkpt lat="48.21935" lon="7.34417">
        <ele>352.20001220703</ele>
        <time>2020-10-17T13:20:52Z</time>
      </trkpt>
      <trkpt lat="48.21938" lon="7.34436">
        <ele>354.20001220703</ele>
        <time>2020-10-17T13:21:06Z</time>
      </trkpt>
      <trkpt lat="48.21936" lon="7.34448">
        <ele>355.79998779297</ele>
        <time>2020-10-17T13:21:15Z</time>
      </trkpt>
      <trkpt lat="48.21932" lon="7.34464">
        <ele>357.60000610352</ele>
        <time>2020-10-17T13:21:27Z</time>
      </trkpt>
      <trkpt lat="48.2193" lon="7.34484">
        <ele>359.20001220703</ele>
        <time>2020-10-17T13:21:39Z</time>
      </trkpt>
      <trkpt lat="48.21932" lon="7.34506">
        <ele>360.79998779297</ele>
        <time>2020-10-17T13:21:52Z</time>
      </trkpt>
      <trkpt lat="48.21931" lon="7.34537">
        <ele>362.60000610352</ele>
        <time>2020-10-17T13:22:08Z</time>
      </trkpt>
      <trkpt lat="48.21931" lon="7.34539">
        <ele>362.79998779297</ele>
        <time>2020-10-17T13:22:09Z</time>
      </trkpt>
      <trkpt lat="48.21932" lon="7.34555">
        <ele>363.39999389648</ele>
        <time>2020-10-17T13:22:17Z</time>
      </trkpt>
      <trkpt lat="48.21933" lon="7.34557">
        <ele>363.60000610352</ele>
        <time>2020-10-17T13:22:18Z</time>
      </trkpt>
      <trkpt lat="48.21932" lon="7.34561">
        <ele>363.79998779297</ele>
        <time>2020-10-17T13:22:20Z</time>
      </trkpt>
      <trkpt lat="48.21933" lon="7.34574">
        <ele>364.20001220703</ele>
        <time>2020-10-17T13:22:29Z</time>
      </trkpt>
      <trkpt lat="48.21933" lon="7.34576">
        <ele>364.39999389648</ele>
        <time>2020-10-17T13:22:30Z</time>
      </trkpt>
      <trkpt lat="48.21933" lon="7.34579">
        <ele>364.39999389648</ele>
        <time>2020-10-17T13:22:31Z</time>
      </trkpt>
      <trkpt lat="48.21933" lon="7.34602">
        <ele>365</ele>
        <time>2020-10-17T13:22:42Z</time>
      </trkpt>
      <trkpt lat="48.21937" lon="7.34605">
        <ele>365.79998779297</ele>
        <time>2020-10-17T13:23:17Z</time>
      </trkpt>
      <trkpt lat="48.21938" lon="7.34607">
        <ele>365.79998779297</ele>
        <time>2020-10-17T13:23:18Z</time>
      </trkpt>
      <trkpt lat="48.21938" lon="7.34611">
        <ele>365.79998779297</ele>
        <time>2020-10-17T13:23:19Z</time>
      </trkpt>
      <trkpt lat="48.21939" lon="7.34617">
        <ele>365.79998779297</ele>
        <time>2020-10-17T13:23:22Z</time>
      </trkpt>
      <trkpt lat="48.2194" lon="7.34619">
        <ele>365.79998779297</ele>
        <time>2020-10-17T13:23:23Z</time>
      </trkpt>
      <trkpt lat="48.2194" lon="7.34621">
        <ele>365.79998779297</ele>
        <time>2020-10-17T13:23:24Z</time>
      </trkpt>
      <trkpt lat="48.21948" lon="7.34635">
        <ele>366.20001220703</ele>
        <time>2020-10-17T13:23:34Z</time>
      </trkpt>
      <trkpt lat="48.21949" lon="7.34637">
        <ele>366.20001220703</ele>
        <time>2020-10-17T13:23:35Z</time>
      </trkpt>
      <trkpt lat="48.2195" lon="7.34638">
        <ele>366.39999389648</ele>
        <time>2020-10-17T13:23:36Z</time>
      </trkpt>
      <trkpt lat="48.21951" lon="7.3464">
        <ele>366.39999389648</ele>
        <time>2020-10-17T13:23:38Z</time>
      </trkpt>
      <trkpt lat="48.21954" lon="7.34645">
        <ele>366.20001220703</ele>
        <time>2020-10-17T13:23:42Z</time>
      </trkpt>
      <trkpt lat="48.21955" lon="7.34647">
        <ele>365.79998779297</ele>
        <time>2020-10-17T13:23:43Z</time>
      </trkpt>
      <trkpt lat="48.21955" lon="7.3465">
        <ele>365.60000610352</ele>
        <time>2020-10-17T13:23:44Z</time>
      </trkpt>
      <trkpt lat="48.21967" lon="7.34676">
        <ele>364.39999389648</ele>
        <time>2020-10-17T13:23:59Z</time>
      </trkpt>
      <trkpt lat="48.21968" lon="7.3469">
        <ele>363.20001220703</ele>
        <time>2020-10-17T13:24:07Z</time>
      </trkpt>
      <trkpt lat="48.21967" lon="7.34692">
        <ele>363</ele>
        <time>2020-10-17T13:24:08Z</time>
      </trkpt>
      <trkpt lat="48.21966" lon="7.34694">
        <ele>363</ele>
        <time>2020-10-17T13:24:09Z</time>
      </trkpt>
      <trkpt lat="48.21963" lon="7.34713">
        <ele>362</ele>
        <time>2020-10-17T13:24:21Z</time>
      </trkpt>
      <trkpt lat="48.21963" lon="7.34716">
        <ele>361.79998779297</ele>
        <time>2020-10-17T13:24:23Z</time>
      </trkpt>
      <trkpt lat="48.21962" lon="7.34722">
        <ele>361.20001220703</ele>
        <time>2020-10-17T13:24:37Z</time>
      </trkpt>
      <trkpt lat="48.21959" lon="7.34734">
        <ele>360.79998779297</ele>
        <time>2020-10-17T13:25:08Z</time>
      </trkpt>
      <trkpt lat="48.2196" lon="7.34743">
        <ele>360.39999389648</ele>
        <time>2020-10-17T13:25:11Z</time>
      </trkpt>
      <trkpt lat="48.2196" lon="7.34746">
        <ele>360.20001220703</ele>
        <time>2020-10-17T13:25:12Z</time>
      </trkpt>
      <trkpt lat="48.21961" lon="7.34748">
        <ele>360</ele>
        <time>2020-10-17T13:25:13Z</time>
      </trkpt>
      <trkpt lat="48.21965" lon="7.34755">
        <ele>359.39999389648</ele>
        <time>2020-10-17T13:25:17Z</time>
      </trkpt>
      <trkpt lat="48.21972" lon="7.34773">
        <ele>358.39999389648</ele>
        <time>2020-10-17T13:25:27Z</time>
      </trkpt>
      <trkpt lat="48.21992" lon="7.34797">
        <ele>356.60000610352</ele>
        <time>2020-10-17T13:25:47Z</time>
      </trkpt>
      <trkpt lat="48.22004" lon="7.34807">
        <ele>354.60000610352</ele>
        <time>2020-10-17T13:26:02Z</time>
      </trkpt>
      <trkpt lat="48.22014" lon="7.3482">
        <ele>353.60000610352</ele>
        <time>2020-10-17T13:26:21Z</time>
      </trkpt>
      <trkpt lat="48.22015" lon="7.34821">
        <ele>353.39999389648</ele>
        <time>2020-10-17T13:26:22Z</time>
      </trkpt>
      <trkpt lat="48.22031" lon="7.34842">
        <ele>350.39999389648</ele>
        <time>2020-10-17T13:26:38Z</time>
      </trkpt>
      <trkpt lat="48.22043" lon="7.34859">
        <ele>347.20001220703</ele>
        <time>2020-10-17T13:26:50Z</time>
      </trkpt>
      <trkpt lat="48.22053" lon="7.34875">
        <ele>343.79998779297</ele>
        <time>2020-10-17T13:27:00Z</time>
      </trkpt>
      <trkpt lat="48.22055" lon="7.34879">
        <ele>343.20001220703</ele>
        <time>2020-10-17T13:27:02Z</time>
      </trkpt>
      <trkpt lat="48.22057" lon="7.34881">
        <ele>343</ele>
        <time>2020-10-17T13:27:03Z</time>
      </trkpt>
      <trkpt lat="48.22062" lon="7.34888">
        <ele>341.20001220703</ele>
        <time>2020-10-17T13:27:08Z</time>
      </trkpt>
      <trkpt lat="48.22063" lon="7.3489">
        <ele>340.60000610352</ele>
        <time>2020-10-17T13:27:09Z</time>
      </trkpt>
      <trkpt lat="48.22065" lon="7.34892">
        <ele>340.20001220703</ele>
        <time>2020-10-17T13:27:10Z</time>
      </trkpt>
      <trkpt lat="48.22075" lon="7.34906">
        <ele>337.39999389648</ele>
        <time>2020-10-17T13:27:19Z</time>
      </trkpt>
      <trkpt lat="48.22076" lon="7.34908">
        <ele>337.20001220703</ele>
        <time>2020-10-17T13:27:20Z</time>
      </trkpt>
      <trkpt lat="48.22076" lon="7.3491">
        <ele>337</ele>
        <time>2020-10-17T13:27:21Z</time>
      </trkpt>
      <trkpt lat="48.2208" lon="7.34923">
        <ele>335.79998779297</ele>
        <time>2020-10-17T13:27:28Z</time>
      </trkpt>
      <trkpt lat="48.22081" lon="7.34927">
        <ele>335.39999389648</ele>
        <time>2020-10-17T13:27:30Z</time>
      </trkpt>
      <trkpt lat="48.22089" lon="7.34952">
        <ele>333</ele>
        <time>2020-10-17T13:27:41Z</time>
      </trkpt>
      <trkpt lat="48.2209" lon="7.34955">
        <ele>332.79998779297</ele>
        <time>2020-10-17T13:27:42Z</time>
      </trkpt>
      <trkpt lat="48.22091" lon="7.34956">
        <ele>332.39999389648</ele>
        <time>2020-10-17T13:27:43Z</time>
      </trkpt>
      <trkpt lat="48.221" lon="7.34966">
        <ele>331.60000610352</ele>
        <time>2020-10-17T13:27:54Z</time>
      </trkpt>
      <trkpt lat="48.22119" lon="7.34974">
        <ele>332.79998779297</ele>
        <time>2020-10-17T13:28:09Z</time>
      </trkpt>
      <trkpt lat="48.22126" lon="7.34968">
        <ele>333.39999389648</ele>
        <time>2020-10-17T13:28:26Z</time>
      </trkpt>
      <trkpt lat="48.22124" lon="7.34971">
        <ele>333.60000610352</ele>
        <time>2020-10-17T13:28:34Z</time>
      </trkpt>
      <trkpt lat="48.22124" lon="7.34973">
        <ele>333.39999389648</ele>
        <time>2020-10-17T13:28:35Z</time>
      </trkpt>
      <trkpt lat="48.22124" lon="7.34975">
        <ele>333.39999389648</ele>
        <time>2020-10-17T13:28:36Z</time>
      </trkpt>
      <trkpt lat="48.22125" lon="7.34978">
        <ele>333</ele>
        <time>2020-10-17T13:28:38Z</time>
      </trkpt>
      <trkpt lat="48.22126" lon="7.34979">
        <ele>332.79998779297</ele>
        <time>2020-10-17T13:28:39Z</time>
      </trkpt>
      <trkpt lat="48.22127" lon="7.3498">
        <ele>332.79998779297</ele>
        <time>2020-10-17T13:28:40Z</time>
      </trkpt>
      <trkpt lat="48.22132" lon="7.34983">
        <ele>332</ele>
        <time>2020-10-17T13:28:51Z</time>
      </trkpt>
      <trkpt lat="48.22133" lon="7.34985">
        <ele>332</ele>
        <time>2020-10-17T13:28:52Z</time>
      </trkpt>
      <trkpt lat="48.22135" lon="7.34986">
        <ele>332</ele>
        <time>2020-10-17T13:28:53Z</time>
      </trkpt>
      <trkpt lat="48.22136" lon="7.34987">
        <ele>331.79998779297</ele>
        <time>2020-10-17T13:28:54Z</time>
      </trkpt>
      <trkpt lat="48.22138" lon="7.34988">
        <ele>331.79998779297</ele>
        <time>2020-10-17T13:28:55Z</time>
      </trkpt>
      <trkpt lat="48.22139" lon="7.34989">
        <ele>331.60000610352</ele>
        <time>2020-10-17T13:28:56Z</time>
      </trkpt>
      <trkpt lat="48.22141" lon="7.3499">
        <ele>331.60000610352</ele>
        <time>2020-10-17T13:28:57Z</time>
      </trkpt>
      <trkpt lat="48.22142" lon="7.3499">
        <ele>331.39999389648</ele>
        <time>2020-10-17T13:28:58Z</time>
      </trkpt>
      <trkpt lat="48.22143" lon="7.34991">
        <ele>331.39999389648</ele>
        <time>2020-10-17T13:28:59Z</time>
      </trkpt>
      <trkpt lat="48.22193" lon="7.34995">
        <ele>324.39999389648</ele>
        <time>2020-10-17T13:31:06Z</time>
      </trkpt>
      <trkpt lat="48.22194" lon="7.34991">
        <ele>324.39999389648</ele>
        <time>2020-10-17T13:31:29Z</time>
      </trkpt>
      <trkpt lat="48.22203" lon="7.34973">
        <ele>324.39999389648</ele>
        <time>2020-10-17T13:31:48Z</time>
      </trkpt>
      <trkpt lat="48.22204" lon="7.34971">
        <ele>324.39999389648</ele>
        <time>2020-10-17T13:31:49Z</time>
      </trkpt>
      <trkpt lat="48.22205" lon="7.34969">
        <ele>324.39999389648</ele>
        <time>2020-10-17T13:31:50Z</time>
      </trkpt>
      <trkpt lat="48.22216" lon="7.34957">
        <ele>322.39999389648</ele>
        <time>2020-10-17T13:32:04Z</time>
      </trkpt>
      <trkpt lat="48.22221" lon="7.34951">
        <ele>321.39999389648</ele>
        <time>2020-10-17T13:32:09Z</time>
      </trkpt>
      <trkpt lat="48.22229" lon="7.3493">
        <ele>318.20001220703</ele>
        <time>2020-10-17T13:32:22Z</time>
      </trkpt>
      <trkpt lat="48.22233" lon="7.34926">
        <ele>317.60000610352</ele>
        <time>2020-10-17T13:32:25Z</time>
      </trkpt>
      <trkpt lat="48.22234" lon="7.34924">
        <ele>317.39999389648</ele>
        <time>2020-10-17T13:32:26Z</time>
      </trkpt>
      <trkpt lat="48.22235" lon="7.34921">
        <ele>317.20001220703</ele>
        <time>2020-10-17T13:32:27Z</time>
      </trkpt>
      <trkpt lat="48.22241" lon="7.34906">
        <ele>315.39999389648</ele>
        <time>2020-10-17T13:32:39Z</time>
      </trkpt>
      <trkpt lat="48.22243" lon="7.34894">
        <ele>314.79998779297</ele>
        <time>2020-10-17T13:32:44Z</time>
      </trkpt>
      <trkpt lat="48.22243" lon="7.34891">
        <ele>314.79998779297</ele>
        <time>2020-10-17T13:32:45Z</time>
      </trkpt>
      <trkpt lat="48.22245" lon="7.34873">
        <ele>314.20001220703</ele>
        <time>2020-10-17T13:32:52Z</time>
      </trkpt>
      <trkpt lat="48.22248" lon="7.34857">
        <ele>313.60000610352</ele>
        <time>2020-10-17T13:32:59Z</time>
      </trkpt>
      <trkpt lat="48.22253" lon="7.34829">
        <ele>313</ele>
        <time>2020-10-17T13:33:13Z</time>
      </trkpt>
      <trkpt lat="48.22255" lon="7.34812">
        <ele>312.20001220703</ele>
        <time>2020-10-17T13:33:21Z</time>
      </trkpt>
      <trkpt lat="48.22262" lon="7.34767">
        <ele>312.79998779297</ele>
        <time>2020-10-17T13:33:41Z</time>
      </trkpt>
      <trkpt lat="48.22262" lon="7.34745">
        <ele>312.79998779297</ele>
        <time>2020-10-17T13:33:50Z</time>
      </trkpt>
      <trkpt lat="48.22262" lon="7.34742">
        <ele>312.79998779297</ele>
        <time>2020-10-17T13:33:51Z</time>
      </trkpt>
      <trkpt lat="48.22262" lon="7.34726">
        <ele>312.39999389648</ele>
        <time>2020-10-17T13:33:58Z</time>
      </trkpt>
      <trkpt lat="48.22262" lon="7.3472">
        <ele>312.20001220703</ele>
        <time>2020-10-17T13:34:01Z</time>
      </trkpt>
      <trkpt lat="48.22265" lon="7.34708">
        <ele>311.79998779297</ele>
        <time>2020-10-17T13:34:06Z</time>
      </trkpt>
      <trkpt lat="48.22265" lon="7.34706">
        <ele>311.79998779297</ele>
        <time>2020-10-17T13:34:07Z</time>
      </trkpt>
      <trkpt lat="48.22272" lon="7.34681">
        <ele>311</ele>
        <time>2020-10-17T13:34:19Z</time>
      </trkpt>
      <trkpt lat="48.22272" lon="7.34679">
        <ele>311</ele>
        <time>2020-10-17T13:34:20Z</time>
      </trkpt>
      <trkpt lat="48.22275" lon="7.34658">
        <ele>310</ele>
        <time>2020-10-17T13:34:30Z</time>
      </trkpt>
      <trkpt lat="48.22279" lon="7.34641">
        <ele>309.60000610352</ele>
        <time>2020-10-17T13:34:38Z</time>
      </trkpt>
      <trkpt lat="48.22285" lon="7.34599">
        <ele>308.79998779297</ele>
        <time>2020-10-17T13:34:55Z</time>
      </trkpt>
      <trkpt lat="48.2229" lon="7.34577">
        <ele>308.39999389648</ele>
        <time>2020-10-17T13:35:05Z</time>
      </trkpt>
      <trkpt lat="48.22291" lon="7.34572">
        <ele>308.39999389648</ele>
        <time>2020-10-17T13:35:07Z</time>
      </trkpt>
      <trkpt lat="48.2229" lon="7.34556">
        <ele>308.20001220703</ele>
        <time>2020-10-17T13:35:14Z</time>
      </trkpt>
      <trkpt lat="48.22294" lon="7.34523">
        <ele>307.39999389648</ele>
        <time>2020-10-17T13:35:29Z</time>
      </trkpt>
      <trkpt lat="48.22294" lon="7.34496">
        <ele>306.79998779297</ele>
        <time>2020-10-17T13:35:41Z</time>
      </trkpt>
      <trkpt lat="48.22301" lon="7.34496">
        <ele>305.20001220703</ele>
        <time>2020-10-17T13:35:49Z</time>
      </trkpt>
      <trkpt lat="48.22302" lon="7.34498">
        <ele>305</ele>
        <time>2020-10-17T13:35:50Z</time>
      </trkpt>
      <trkpt lat="48.22303" lon="7.34501">
        <ele>304.60000610352</ele>
        <time>2020-10-17T13:35:51Z</time>
      </trkpt>
      <trkpt lat="48.22303" lon="7.34503">
        <ele>304.39999389648</ele>
        <time>2020-10-17T13:35:52Z</time>
      </trkpt>
      <trkpt lat="48.22304" lon="7.34506">
        <ele>304.20001220703</ele>
        <time>2020-10-17T13:35:53Z</time>
      </trkpt>
      <trkpt lat="48.22309" lon="7.34527">
        <ele>301</ele>
        <time>2020-10-17T13:36:00Z</time>
      </trkpt>
      <trkpt lat="48.22316" lon="7.34544">
        <ele>299.39999389648</ele>
        <time>2020-10-17T13:36:06Z</time>
      </trkpt>
      <trkpt lat="48.22318" lon="7.34554">
        <ele>298.60000610352</ele>
        <time>2020-10-17T13:36:09Z</time>
      </trkpt>
      <trkpt lat="48.22319" lon="7.34557">
        <ele>298.39999389648</ele>
        <time>2020-10-17T13:36:10Z</time>
      </trkpt>
      <trkpt lat="48.2232" lon="7.3457">
        <ele>296.60000610352</ele>
        <time>2020-10-17T13:36:14Z</time>
      </trkpt>
      <trkpt lat="48.2232" lon="7.34574">
        <ele>296.39999389648</ele>
        <time>2020-10-17T13:36:15Z</time>
      </trkpt>
      <trkpt lat="48.22321" lon="7.34578">
        <ele>296</ele>
        <time>2020-10-17T13:36:16Z</time>
      </trkpt>
      <trkpt lat="48.22321" lon="7.34581">
        <ele>295.60000610352</ele>
        <time>2020-10-17T13:36:17Z</time>
      </trkpt>
      <trkpt lat="48.22322" lon="7.34584">
        <ele>295</ele>
        <time>2020-10-17T13:36:18Z</time>
      </trkpt>
      <trkpt lat="48.22322" lon="7.34588">
        <ele>294.79998779297</ele>
        <time>2020-10-17T13:36:19Z</time>
      </trkpt>
      <trkpt lat="48.22322" lon="7.34592">
        <ele>294.39999389648</ele>
        <time>2020-10-17T13:36:20Z</time>
      </trkpt>
      <trkpt lat="48.22325" lon="7.34617">
        <ele>291.79998779297</ele>
        <time>2020-10-17T13:36:34Z</time>
      </trkpt>
      <trkpt lat="48.22326" lon="7.34628">
        <ele>291.39999389648</ele>
        <time>2020-10-17T13:36:57Z</time>
      </trkpt>
      <trkpt lat="48.22329" lon="7.34644">
        <ele>290.20001220703</ele>
        <time>2020-10-17T13:37:05Z</time>
      </trkpt>
      <trkpt lat="48.22329" lon="7.34646">
        <ele>289.79998779297</ele>
        <time>2020-10-17T13:37:06Z</time>
      </trkpt>
      <trkpt lat="48.22329" lon="7.34649">
        <ele>289.60000610352</ele>
        <time>2020-10-17T13:37:07Z</time>
      </trkpt>
      <trkpt lat="48.22329" lon="7.34652">
        <ele>289.39999389648</ele>
        <time>2020-10-17T13:37:08Z</time>
      </trkpt>
      <trkpt lat="48.2233" lon="7.34654">
        <ele>289.20001220703</ele>
        <time>2020-10-17T13:37:09Z</time>
      </trkpt>
      <trkpt lat="48.2233" lon="7.34661">
        <ele>288.60000610352</ele>
        <time>2020-10-17T13:37:12Z</time>
      </trkpt>
      <trkpt lat="48.2233" lon="7.34664">
        <ele>288.39999389648</ele>
        <time>2020-10-17T13:37:13Z</time>
      </trkpt>
      <trkpt lat="48.22331" lon="7.34666">
        <ele>288.20001220703</ele>
        <time>2020-10-17T13:37:14Z</time>
      </trkpt>
      <trkpt lat="48.22337" lon="7.34693">
        <ele>285.60000610352</ele>
        <time>2020-10-17T13:37:28Z</time>
      </trkpt>
      <trkpt lat="48.22341" lon="7.34725">
        <ele>283</ele>
        <time>2020-10-17T13:37:43Z</time>
      </trkpt>
      <trkpt lat="48.22342" lon="7.34747">
        <ele>281</ele>
        <time>2020-10-17T13:37:53Z</time>
      </trkpt>
      <trkpt lat="48.2235" lon="7.34773">
        <ele>278.60000610352</ele>
        <time>2020-10-17T13:38:06Z</time>
      </trkpt>
      <trkpt lat="48.22349" lon="7.3478">
        <ele>278</ele>
        <time>2020-10-17T13:38:09Z</time>
      </trkpt>
      <trkpt lat="48.22348" lon="7.34782">
        <ele>278</ele>
        <time>2020-10-17T13:38:10Z</time>
      </trkpt>
      <trkpt lat="48.22343" lon="7.348">
        <ele>277</ele>
        <time>2020-10-17T13:38:20Z</time>
      </trkpt>
      <trkpt lat="48.22343" lon="7.34806">
        <ele>276.79998779297</ele>
        <time>2020-10-17T13:38:23Z</time>
      </trkpt>
      <trkpt lat="48.22343" lon="7.34808">
        <ele>276.79998779297</ele>
        <time>2020-10-17T13:38:24Z</time>
      </trkpt>
      <trkpt lat="48.22343" lon="7.3481">
        <ele>276.60000610352</ele>
        <time>2020-10-17T13:38:25Z</time>
      </trkpt>
      <trkpt lat="48.22342" lon="7.34824">
        <ele>276</ele>
        <time>2020-10-17T13:38:35Z</time>
      </trkpt>
      <trkpt lat="48.22342" lon="7.34827">
        <ele>276</ele>
        <time>2020-10-17T13:38:36Z</time>
      </trkpt>
      <trkpt lat="48.22342" lon="7.3483">
        <ele>276</ele>
        <time>2020-10-17T13:38:37Z</time>
      </trkpt>
      <trkpt lat="48.22342" lon="7.34832">
        <ele>275.79998779297</ele>
        <time>2020-10-17T13:38:38Z</time>
      </trkpt>
      <trkpt lat="48.22344" lon="7.34862">
        <ele>274.60000610352</ele>
        <time>2020-10-17T13:38:52Z</time>
      </trkpt>
      <trkpt lat="48.22344" lon="7.3488">
        <ele>273.60000610352</ele>
        <time>2020-10-17T13:39:00Z</time>
      </trkpt>
      <trkpt lat="48.22345" lon="7.34887">
        <ele>273.20001220703</ele>
        <time>2020-10-17T13:39:03Z</time>
      </trkpt>
      <trkpt lat="48.22345" lon="7.34888">
        <ele>273.20001220703</ele>
        <time>2020-10-17T13:39:04Z</time>
      </trkpt>
      <trkpt lat="48.22345" lon="7.34891">
        <ele>273</ele>
        <time>2020-10-17T13:39:05Z</time>
      </trkpt>
      <trkpt lat="48.22345" lon="7.34893">
        <ele>273</ele>
        <time>2020-10-17T13:39:06Z</time>
      </trkpt>
      <trkpt lat="48.22346" lon="7.34917">
        <ele>272</ele>
        <time>2020-10-17T13:39:18Z</time>
      </trkpt>
      <trkpt lat="48.22346" lon="7.34919">
        <ele>271.79998779297</ele>
        <time>2020-10-17T13:39:19Z</time>
      </trkpt>
      <trkpt lat="48.22346" lon="7.34922">
        <ele>271.79998779297</ele>
        <time>2020-10-17T13:39:20Z</time>
      </trkpt>
      <trkpt lat="48.22346" lon="7.34924">
        <ele>271.79998779297</ele>
        <time>2020-10-17T13:39:21Z</time>
      </trkpt>
      <trkpt lat="48.22345" lon="7.34926">
        <ele>271.60000610352</ele>
        <time>2020-10-17T13:39:22Z</time>
      </trkpt>
      <trkpt lat="48.22341" lon="7.34939">
        <ele>271.60000610352</ele>
        <time>2020-10-17T13:39:37Z</time>
      </trkpt>
      <trkpt lat="48.22341" lon="7.34946">
        <ele>271.60000610352</ele>
        <time>2020-10-17T13:40:09Z</time>
      </trkpt>
      <trkpt lat="48.22347" lon="7.34945">
        <ele>271.20001220703</ele>
        <time>2020-10-17T13:40:23Z</time>
      </trkpt>
      <trkpt lat="48.2235" lon="7.34955">
        <ele>270.79998779297</ele>
        <time>2020-10-17T13:40:29Z</time>
      </trkpt>
      <trkpt lat="48.2235" lon="7.34958">
        <ele>270.60000610352</ele>
        <time>2020-10-17T13:40:30Z</time>
      </trkpt>
      <trkpt lat="48.2235" lon="7.3496">
        <ele>270.60000610352</ele>
        <time>2020-10-17T13:40:31Z</time>
      </trkpt>
      <trkpt lat="48.2235" lon="7.34963">
        <ele>270.60000610352</ele>
        <time>2020-10-17T13:40:32Z</time>
      </trkpt>
      <trkpt lat="48.2235" lon="7.34965">
        <ele>270.39999389648</ele>
        <time>2020-10-17T13:40:33Z</time>
      </trkpt>
      <trkpt lat="48.22353" lon="7.34982">
        <ele>269.60000610352</ele>
        <time>2020-10-17T13:40:41Z</time>
      </trkpt>
      <trkpt lat="48.22353" lon="7.34984">
        <ele>269.39999389648</ele>
        <time>2020-10-17T13:40:42Z</time>
      </trkpt>
      <trkpt lat="48.2236" lon="7.35017">
        <ele>267.39999389648</ele>
        <time>2020-10-17T13:40:58Z</time>
      </trkpt>
      <trkpt lat="48.22366" lon="7.35055">
        <ele>265.60000610352</ele>
        <time>2020-10-17T13:41:16Z</time>
      </trkpt>
      <trkpt lat="48.22372" lon="7.35079">
        <ele>264.20001220703</ele>
        <time>2020-10-17T13:41:27Z</time>
      </trkpt>
      <trkpt lat="48.22382" lon="7.35109">
        <ele>262.20001220703</ele>
        <time>2020-10-17T13:41:44Z</time>
      </trkpt>
      <trkpt lat="48.22385" lon="7.35144">
        <ele>260.20001220703</ele>
        <time>2020-10-17T13:42:00Z</time>
      </trkpt>
      <trkpt lat="48.2239" lon="7.35178">
        <ele>257.60000610352</ele>
        <time>2020-10-17T13:42:16Z</time>
      </trkpt>
      <trkpt lat="48.22396" lon="7.35201">
        <ele>255.80000305176</ele>
        <time>2020-10-17T13:42:29Z</time>
      </trkpt>
      <trkpt lat="48.22397" lon="7.35203">
        <ele>255.60000610352</ele>
        <time>2020-10-17T13:42:30Z</time>
      </trkpt>
      <trkpt lat="48.22397" lon="7.35205">
        <ele>255.39999389648</ele>
        <time>2020-10-17T13:42:31Z</time>
      </trkpt>
      <trkpt lat="48.22397" lon="7.35206">
        <ele>255.39999389648</ele>
        <time>2020-10-17T13:42:32Z</time>
      </trkpt>
      <trkpt lat="48.224" lon="7.35233">
        <ele>253.39999389648</ele>
        <time>2020-10-17T13:42:48Z</time>
      </trkpt>
      <trkpt lat="48.22406" lon="7.35258">
        <ele>252</ele>
        <time>2020-10-17T13:43:00Z</time>
      </trkpt>
      <trkpt lat="48.22421" lon="7.35278">
        <ele>250.80000305176</ele>
        <time>2020-10-17T13:43:13Z</time>
      </trkpt>
      <trkpt lat="48.22422" lon="7.35279">
        <ele>250.80000305176</ele>
        <time>2020-10-17T13:43:14Z</time>
      </trkpt>
      <trkpt lat="48.22429" lon="7.35284">
        <ele>250.39999389648</ele>
        <time>2020-10-17T13:43:19Z</time>
      </trkpt>
      <trkpt lat="48.2244" lon="7.35295">
        <ele>250</ele>
        <time>2020-10-17T13:43:31Z</time>
      </trkpt>
      <trkpt lat="48.22441" lon="7.35295">
        <ele>250</ele>
        <time>2020-10-17T13:43:32Z</time>
      </trkpt>
      <trkpt lat="48.22447" lon="7.35297">
        <ele>249.80000305176</ele>
        <time>2020-10-17T13:43:37Z</time>
      </trkpt>
      <trkpt lat="48.22448" lon="7.35296">
        <ele>249.80000305176</ele>
        <time>2020-10-17T13:43:38Z</time>
      </trkpt>
      <trkpt lat="48.22457" lon="7.35293">
        <ele>249.80000305176</ele>
        <time>2020-10-17T13:43:45Z</time>
      </trkpt>
      <trkpt lat="48.22458" lon="7.35293">
        <ele>249.80000305176</ele>
        <time>2020-10-17T13:43:46Z</time>
      </trkpt>
      <trkpt lat="48.22461" lon="7.35296">
        <ele>249.80000305176</ele>
        <time>2020-10-17T13:43:48Z</time>
      </trkpt>
      <trkpt lat="48.22467" lon="7.35299">
        <ele>250</ele>
        <time>2020-10-17T13:43:53Z</time>
      </trkpt>
      <trkpt lat="48.22469" lon="7.35298">
        <ele>250</ele>
        <time>2020-10-17T13:43:54Z</time>
      </trkpt>
      <trkpt lat="48.22487" lon="7.35289">
        <ele>250.39999389648</ele>
        <time>2020-10-17T13:44:10Z</time>
      </trkpt>
      <trkpt lat="48.22489" lon="7.35287">
        <ele>250.19999694824</ele>
        <time>2020-10-17T13:44:11Z</time>
      </trkpt>
      <trkpt lat="48.22496" lon="7.35286">
        <ele>250.39999389648</ele>
        <time>2020-10-17T13:44:16Z</time>
      </trkpt>
      <trkpt lat="48.22499" lon="7.35287">
        <ele>250.39999389648</ele>
        <time>2020-10-17T13:44:17Z</time>
      </trkpt>
      <trkpt lat="48.225" lon="7.35289">
        <ele>250.60000610352</ele>
        <time>2020-10-17T13:44:18Z</time>
      </trkpt>
      <trkpt lat="48.22501" lon="7.3529">
        <ele>250.80000305176</ele>
        <time>2020-10-17T13:44:19Z</time>
      </trkpt>
      <trkpt lat="48.22502" lon="7.35297">
        <ele>250.60000610352</ele>
        <time>2020-10-17T13:44:23Z</time>
      </trkpt>
      <trkpt lat="48.22504" lon="7.35311">
        <ele>250</ele>
        <time>2020-10-17T13:44:28Z</time>
      </trkpt>
      <trkpt lat="48.22504" lon="7.35318">
        <ele>249.80000305176</ele>
        <time>2020-10-17T13:44:32Z</time>
      </trkpt>
      <trkpt lat="48.22506" lon="7.3532">
        <ele>249.60000610352</ele>
        <time>2020-10-17T13:44:35Z</time>
      </trkpt>
      <trkpt lat="48.22507" lon="7.35321">
        <ele>249.60000610352</ele>
        <time>2020-10-17T13:44:36Z</time>
      </trkpt>
      <trkpt lat="48.22514" lon="7.35323">
        <ele>249.60000610352</ele>
        <time>2020-10-17T13:44:41Z</time>
      </trkpt>
      <trkpt lat="48.22516" lon="7.35324">
        <ele>249.60000610352</ele>
        <time>2020-10-17T13:44:42Z</time>
      </trkpt>
      <trkpt lat="48.22535" lon="7.35329">
        <ele>250.39999389648</ele>
        <time>2020-10-17T13:44:56Z</time>
      </trkpt>
      <trkpt lat="48.2254" lon="7.35331">
        <ele>250.39999389648</ele>
        <time>2020-10-17T13:44:59Z</time>
      </trkpt>
      <trkpt lat="48.22542" lon="7.35331">
        <ele>250.60000610352</ele>
        <time>2020-10-17T13:45:00Z</time>
      </trkpt>
      <trkpt lat="48.22543" lon="7.35332">
        <ele>250.60000610352</ele>
        <time>2020-10-17T13:45:01Z</time>
      </trkpt>
      <trkpt lat="48.22544" lon="7.35334">
        <ele>250.60000610352</ele>
        <time>2020-10-17T13:45:02Z</time>
      </trkpt>
      <trkpt lat="48.22546" lon="7.35334">
        <ele>250.60000610352</ele>
        <time>2020-10-17T13:45:03Z</time>
      </trkpt>
      <trkpt lat="48.2257" lon="7.35348">
        <ele>248.80000305176</ele>
        <time>2020-10-17T13:45:18Z</time>
      </trkpt>
      <trkpt lat="48.22583" lon="7.35362">
        <ele>247</ele>
        <time>2020-10-17T13:45:29Z</time>
      </trkpt>
      <trkpt lat="48.226" lon="7.3536">
        <ele>244</ele>
        <time>2020-10-17T13:45:40Z</time>
      </trkpt>
      <trkpt lat="48.22624" lon="7.35359">
        <ele>241</ele>
        <time>2020-10-17T13:45:55Z</time>
      </trkpt>
      <trkpt lat="48.22653" lon="7.35367">
        <ele>238.60000610352</ele>
        <time>2020-10-17T13:46:14Z</time>
      </trkpt>
      <trkpt lat="48.22666" lon="7.35368">
        <ele>238.19999694824</ele>
        <time>2020-10-17T13:46:22Z</time>
      </trkpt>
      <trkpt lat="48.22667" lon="7.35368">
        <ele>238</ele>
        <time>2020-10-17T13:46:23Z</time>
      </trkpt>
      <trkpt lat="48.22668" lon="7.35368">
        <ele>238</ele>
        <time>2020-10-17T13:46:24Z</time>
      </trkpt>
      <trkpt lat="48.22669" lon="7.35369">
        <ele>238</ele>
        <time>2020-10-17T13:46:25Z</time>
      </trkpt>
      <trkpt lat="48.22671" lon="7.35369">
        <ele>238</ele>
        <time>2020-10-17T13:46:26Z</time>
      </trkpt>
      <trkpt lat="48.22686" lon="7.35366">
        <ele>238.19999694824</ele>
        <time>2020-10-17T13:46:37Z</time>
      </trkpt>
      <trkpt lat="48.22691" lon="7.35366">
        <ele>238.19999694824</ele>
        <time>2020-10-17T13:46:40Z</time>
      </trkpt>
      <trkpt lat="48.22694" lon="7.35365">
        <ele>238.39999389648</ele>
        <time>2020-10-17T13:46:41Z</time>
      </trkpt>
      <trkpt lat="48.22716" lon="7.35379">
        <ele>238.80000305176</ele>
        <time>2020-10-17T13:46:58Z</time>
      </trkpt>
      <trkpt lat="48.22721" lon="7.35394">
        <ele>238.80000305176</ele>
        <time>2020-10-17T13:47:12Z</time>
      </trkpt>
      <trkpt lat="48.2272" lon="7.35387">
        <ele>238.80000305176</ele>
        <time>2020-10-17T13:47:24Z</time>
      </trkpt>
      <trkpt lat="48.22714" lon="7.35363">
        <ele>239</ele>
        <time>2020-10-17T13:47:37Z</time>
      </trkpt>
      <trkpt lat="48.22727" lon="7.35339">
        <ele>240.60000610352</ele>
        <time>2020-10-17T13:47:51Z</time>
      </trkpt>
      <trkpt lat="48.22746" lon="7.35334">
        <ele>242</ele>
        <time>2020-10-17T13:48:07Z</time>
      </trkpt>
      <trkpt lat="48.22765" lon="7.35352">
        <ele>244</ele>
        <time>2020-10-17T13:48:25Z</time>
      </trkpt>
      <trkpt lat="48.22789" lon="7.35371">
        <ele>246.60000610352</ele>
        <time>2020-10-17T13:48:46Z</time>
      </trkpt>
      <trkpt lat="48.2279" lon="7.35371">
        <ele>246.80000305176</ele>
        <time>2020-10-17T13:48:47Z</time>
      </trkpt>
      <trkpt lat="48.22791" lon="7.3537">
        <ele>246.80000305176</ele>
        <time>2020-10-17T13:48:48Z</time>
      </trkpt>
      <trkpt lat="48.22805" lon="7.35348">
        <ele>249.60000610352</ele>
        <time>2020-10-17T13:49:04Z</time>
      </trkpt>
      <trkpt lat="48.22816" lon="7.35322">
        <ele>252.19999694824</ele>
        <time>2020-10-17T13:49:21Z</time>
      </trkpt>
      <trkpt lat="48.22824" lon="7.35312">
        <ele>253.39999389648</ele>
        <time>2020-10-17T13:49:29Z</time>
      </trkpt>
      <trkpt lat="48.22825" lon="7.35312">
        <ele>253.60000610352</ele>
        <time>2020-10-17T13:49:30Z</time>
      </trkpt>
      <trkpt lat="48.22836" lon="7.35321">
        <ele>255.60000610352</ele>
        <time>2020-10-17T13:49:40Z</time>
      </trkpt>
      <trkpt lat="48.22837" lon="7.35322">
        <ele>255.80000305176</ele>
        <time>2020-10-17T13:49:41Z</time>
      </trkpt>
      <trkpt lat="48.22838" lon="7.35324">
        <ele>256</ele>
        <time>2020-10-17T13:49:42Z</time>
      </trkpt>
      <trkpt lat="48.22851" lon="7.35346">
        <ele>257</ele>
        <time>2020-10-17T13:50:01Z</time>
      </trkpt>
      <trkpt lat="48.22852" lon="7.35346">
        <ele>257</ele>
        <time>2020-10-17T13:50:02Z</time>
      </trkpt>
      <trkpt lat="48.22854" lon="7.35349">
        <ele>256.79998779297</ele>
        <time>2020-10-17T13:50:04Z</time>
      </trkpt>
      <trkpt lat="48.22878" lon="7.35368">
        <ele>257.20001220703</ele>
        <time>2020-10-17T13:50:24Z</time>
      </trkpt>
      <trkpt lat="48.22902" lon="7.35388">
        <ele>257.79998779297</ele>
        <time>2020-10-17T13:50:44Z</time>
      </trkpt>
      <trkpt lat="48.22921" lon="7.35399">
        <ele>257.60000610352</ele>
        <time>2020-10-17T13:50:59Z</time>
      </trkpt>
      <trkpt lat="48.22935" lon="7.35409">
        <ele>258</ele>
        <time>2020-10-17T13:51:16Z</time>
      </trkpt>
      <trkpt lat="48.22937" lon="7.3541">
        <ele>258.20001220703</ele>
        <time>2020-10-17T13:51:25Z</time>
      </trkpt>
      <trkpt lat="48.22938" lon="7.35411">
        <ele>258.20001220703</ele>
        <time>2020-10-17T13:51:26Z</time>
      </trkpt>
      <trkpt lat="48.22939" lon="7.35412">
        <ele>258.20001220703</ele>
        <time>2020-10-17T13:51:27Z</time>
      </trkpt>
      <trkpt lat="48.22958" lon="7.35438">
        <ele>257.79998779297</ele>
        <time>2020-10-17T13:51:46Z</time>
      </trkpt>
      <trkpt lat="48.22977" lon="7.35458">
        <ele>256.79998779297</ele>
        <time>2020-10-17T13:52:04Z</time>
      </trkpt>
      <trkpt lat="48.22981" lon="7.3546">
        <ele>256.79998779297</ele>
        <time>2020-10-17T13:52:08Z</time>
      </trkpt>
      <trkpt lat="48.22982" lon="7.3546">
        <ele>256.79998779297</ele>
        <time>2020-10-17T13:52:09Z</time>
      </trkpt>
      <trkpt lat="48.22983" lon="7.3546">
        <ele>256.79998779297</ele>
        <time>2020-10-17T13:52:10Z</time>
      </trkpt>
      <trkpt lat="48.22984" lon="7.35459">
        <ele>256.60000610352</ele>
        <time>2020-10-17T13:52:11Z</time>
      </trkpt>
      <trkpt lat="48.22985" lon="7.35459">
        <ele>256.60000610352</ele>
        <time>2020-10-17T13:52:12Z</time>
      </trkpt>
      <trkpt lat="48.22986" lon="7.35458">
        <ele>256.60000610352</ele>
        <time>2020-10-17T13:52:13Z</time>
      </trkpt>
      <trkpt lat="48.22994" lon="7.35451">
        <ele>257.39999389648</ele>
        <time>2020-10-17T13:52:21Z</time>
      </trkpt>
      <trkpt lat="48.22995" lon="7.35452">
        <ele>257.39999389648</ele>
        <time>2020-10-17T13:52:22Z</time>
      </trkpt>
      <trkpt lat="48.22996" lon="7.35452">
        <ele>257.60000610352</ele>
        <time>2020-10-17T13:52:23Z</time>
      </trkpt>
      <trkpt lat="48.22997" lon="7.35453">
        <ele>257.79998779297</ele>
        <time>2020-10-17T13:52:24Z</time>
      </trkpt>
      <trkpt lat="48.22998" lon="7.35454">
        <ele>257.79998779297</ele>
        <time>2020-10-17T13:52:25Z</time>
      </trkpt>
      <trkpt lat="48.22999" lon="7.35455">
        <ele>257.79998779297</ele>
        <time>2020-10-17T13:52:26Z</time>
      </trkpt>
      <trkpt lat="48.23" lon="7.35457">
        <ele>257.79998779297</ele>
        <time>2020-10-17T13:52:27Z</time>
      </trkpt>
      <trkpt lat="48.23019" lon="7.35482">
        <ele>256</ele>
        <time>2020-10-17T13:52:43Z</time>
      </trkpt>
      <trkpt lat="48.23037" lon="7.35509">
        <ele>253.80000305176</ele>
        <time>2020-10-17T13:53:00Z</time>
      </trkpt>
      <trkpt lat="48.23053" lon="7.35534">
        <ele>252.19999694824</ele>
        <time>2020-10-17T13:53:15Z</time>
      </trkpt>
      <trkpt lat="48.23061" lon="7.35545">
        <ele>251.60000610352</ele>
        <time>2020-10-17T13:53:30Z</time>
      </trkpt>
      <trkpt lat="48.23063" lon="7.35548">
        <ele>251.60000610352</ele>
        <time>2020-10-17T13:53:36Z</time>
      </trkpt>
      <trkpt lat="48.23069" lon="7.35557">
        <ele>251.19999694824</ele>
        <time>2020-10-17T13:53:47Z</time>
      </trkpt>
      <trkpt lat="48.2307" lon="7.35558">
        <ele>251.19999694824</ele>
        <time>2020-10-17T13:53:48Z</time>
      </trkpt>
      <trkpt lat="48.23087" lon="7.35584">
        <ele>250.39999389648</ele>
        <time>2020-10-17T13:54:07Z</time>
      </trkpt>
      <trkpt lat="48.23103" lon="7.35602">
        <ele>249.80000305176</ele>
        <time>2020-10-17T13:54:20Z</time>
      </trkpt>
      <trkpt lat="48.23104" lon="7.35603">
        <ele>249.60000610352</ele>
        <time>2020-10-17T13:54:21Z</time>
      </trkpt>
      <trkpt lat="48.23105" lon="7.35604">
        <ele>249.60000610352</ele>
        <time>2020-10-17T13:54:22Z</time>
      </trkpt>
      <trkpt lat="48.23106" lon="7.35605">
        <ele>249.60000610352</ele>
        <time>2020-10-17T13:54:23Z</time>
      </trkpt>
      <trkpt lat="48.23106" lon="7.35606">
        <ele>249.60000610352</ele>
        <time>2020-10-17T13:54:24Z</time>
      </trkpt>
      <trkpt lat="48.23108" lon="7.35608">
        <ele>249.60000610352</ele>
        <time>2020-10-17T13:54:25Z</time>
      </trkpt>
      <trkpt lat="48.23108" lon="7.3561">
        <ele>249.39999389648</ele>
        <time>2020-10-17T13:54:26Z</time>
      </trkpt>
      <trkpt lat="48.23109" lon="7.35611">
        <ele>249.39999389648</ele>
        <time>2020-10-17T13:54:27Z</time>
      </trkpt>
      <trkpt lat="48.23114" lon="7.35622">
        <ele>248.60000610352</ele>
        <time>2020-10-17T13:54:46Z</time>
      </trkpt>
      <trkpt lat="48.23118" lon="7.35627">
        <ele>248.60000610352</ele>
        <time>2020-10-17T13:54:53Z</time>
      </trkpt>
      <trkpt lat="48.23119" lon="7.35628">
        <ele>248.60000610352</ele>
        <time>2020-10-17T13:54:54Z</time>
      </trkpt>
      <trkpt lat="48.23121" lon="7.35629">
        <ele>248.39999389648</ele>
        <time>2020-10-17T13:54:55Z</time>
      </trkpt>
      <trkpt lat="48.23122" lon="7.35631">
        <ele>248.39999389648</ele>
        <time>2020-10-17T13:54:56Z</time>
      </trkpt>
      <trkpt lat="48.23123" lon="7.35632">
        <ele>248.39999389648</ele>
        <time>2020-10-17T13:54:57Z</time>
      </trkpt>
      <trkpt lat="48.23139" lon="7.35658">
        <ele>246.60000610352</ele>
        <time>2020-10-17T13:55:15Z</time>
      </trkpt>
      <trkpt lat="48.23143" lon="7.35695">
        <ele>244</ele>
        <time>2020-10-17T13:55:31Z</time>
      </trkpt>
      <trkpt lat="48.23141" lon="7.35713">
        <ele>240.39999389648</ele>
        <time>2020-10-17T13:55:39Z</time>
      </trkpt>
      <trkpt lat="48.23141" lon="7.35715">
        <ele>240.19999694824</ele>
        <time>2020-10-17T13:55:40Z</time>
      </trkpt>
      <trkpt lat="48.23141" lon="7.35716">
        <ele>240</ele>
        <time>2020-10-17T13:55:41Z</time>
      </trkpt>
      <trkpt lat="48.23141" lon="7.35718">
        <ele>239.80000305176</ele>
        <time>2020-10-17T13:55:42Z</time>
      </trkpt>
      <trkpt lat="48.23141" lon="7.3572">
        <ele>239.60000610352</ele>
        <time>2020-10-17T13:55:43Z</time>
      </trkpt>
      <trkpt lat="48.23142" lon="7.35722">
        <ele>239.39999389648</ele>
        <time>2020-10-17T13:55:44Z</time>
      </trkpt>
      <trkpt lat="48.23142" lon="7.35723">
        <ele>239.19999694824</ele>
        <time>2020-10-17T13:55:45Z</time>
      </trkpt>
      <trkpt lat="48.23142" lon="7.35725">
        <ele>239</ele>
        <time>2020-10-17T13:55:46Z</time>
      </trkpt>
      <trkpt lat="48.23143" lon="7.35726">
        <ele>238.80000305176</ele>
        <time>2020-10-17T13:55:47Z</time>
      </trkpt>
      <trkpt lat="48.23143" lon="7.35728">
        <ele>238.80000305176</ele>
        <time>2020-10-17T13:55:48Z</time>
      </trkpt>
      <trkpt lat="48.23144" lon="7.35729">
        <ele>238.60000610352</ele>
        <time>2020-10-17T13:55:49Z</time>
      </trkpt>
      <trkpt lat="48.23144" lon="7.35731">
        <ele>238.60000610352</ele>
        <time>2020-10-17T13:55:50Z</time>
      </trkpt>
      <trkpt lat="48.23145" lon="7.35733">
        <ele>238.60000610352</ele>
        <time>2020-10-17T13:55:51Z</time>
      </trkpt>
      <trkpt lat="48.23139" lon="7.35767">
        <ele>238</ele>
        <time>2020-10-17T13:56:04Z</time>
      </trkpt>
      <trkpt lat="48.23124" lon="7.35795">
        <ele>237.60000610352</ele>
        <time>2020-10-17T13:56:21Z</time>
      </trkpt>
      <trkpt lat="48.23115" lon="7.35825">
        <ele>236.80000305176</ele>
        <time>2020-10-17T13:56:37Z</time>
      </trkpt>
      <trkpt lat="48.23117" lon="7.3584">
        <ele>236.39999389648</ele>
        <time>2020-10-17T13:56:45Z</time>
      </trkpt>
      <trkpt lat="48.23118" lon="7.35841">
        <ele>236.19999694824</ele>
        <time>2020-10-17T13:56:46Z</time>
      </trkpt>
      <trkpt lat="48.2312" lon="7.35843">
        <ele>236</ele>
        <time>2020-10-17T13:56:47Z</time>
      </trkpt>
      <trkpt lat="48.23129" lon="7.35866">
        <ele>234.39999389648</ele>
        <time>2020-10-17T13:56:58Z</time>
      </trkpt>
      <trkpt lat="48.2313" lon="7.35869">
        <ele>234.19999694824</ele>
        <time>2020-10-17T13:57:00Z</time>
      </trkpt>
      <trkpt lat="48.23132" lon="7.35875">
        <ele>234</ele>
        <time>2020-10-17T13:57:03Z</time>
      </trkpt>
      <trkpt lat="48.23132" lon="7.35876">
        <ele>234</ele>
        <time>2020-10-17T13:57:04Z</time>
      </trkpt>
      <trkpt lat="48.23133" lon="7.35878">
        <ele>234</ele>
        <time>2020-10-17T13:57:05Z</time>
      </trkpt>
      <trkpt lat="48.23134" lon="7.3588">
        <ele>234</ele>
        <time>2020-10-17T13:57:06Z</time>
      </trkpt>
      <trkpt lat="48.23134" lon="7.35882">
        <ele>234</ele>
        <time>2020-10-17T13:57:07Z</time>
      </trkpt>
      <trkpt lat="48.23138" lon="7.35898">
        <ele>234.80000305176</ele>
        <time>2020-10-17T13:57:17Z</time>
      </trkpt>
      <trkpt lat="48.23142" lon="7.35916">
        <ele>235.60000610352</ele>
        <time>2020-10-17T13:57:26Z</time>
      </trkpt>
      <trkpt lat="48.23149" lon="7.3595">
        <ele>237.80000305176</ele>
        <time>2020-10-17T13:57:43Z</time>
      </trkpt>
      <trkpt lat="48.23156" lon="7.35973">
        <ele>239.80000305176</ele>
        <time>2020-10-17T13:57:58Z</time>
      </trkpt>
      <trkpt lat="48.23162" lon="7.35991">
        <ele>242.19999694824</ele>
        <time>2020-10-17T13:58:11Z</time>
      </trkpt>
      <trkpt lat="48.23163" lon="7.36012">
        <ele>244.80000305176</ele>
        <time>2020-10-17T13:58:23Z</time>
      </trkpt>
      <trkpt lat="48.23165" lon="7.36039">
        <ele>247.80000305176</ele>
        <time>2020-10-17T13:58:40Z</time>
      </trkpt>
      <trkpt lat="48.23165" lon="7.3604">
        <ele>248</ele>
        <time>2020-10-17T13:58:41Z</time>
      </trkpt>
      <trkpt lat="48.23162" lon="7.36069">
        <ele>250.19999694824</ele>
        <time>2020-10-17T13:58:58Z</time>
      </trkpt>
      <trkpt lat="48.23165" lon="7.36077">
        <ele>250.60000610352</ele>
        <time>2020-10-17T13:59:03Z</time>
      </trkpt>
      <trkpt lat="48.23165" lon="7.36079">
        <ele>250.80000305176</ele>
        <time>2020-10-17T13:59:04Z</time>
      </trkpt>
      <trkpt lat="48.23165" lon="7.36081">
        <ele>251</ele>
        <time>2020-10-17T13:59:05Z</time>
      </trkpt>
      <trkpt lat="48.23173" lon="7.36118">
        <ele>251.80000305176</ele>
        <time>2020-10-17T13:59:24Z</time>
      </trkpt>
      <trkpt lat="48.23184" lon="7.36151">
        <ele>252.19999694824</ele>
        <time>2020-10-17T13:59:41Z</time>
      </trkpt>
      <trkpt lat="48.23196" lon="7.36186">
        <ele>251.39999389648</ele>
        <time>2020-10-17T14:00:00Z</time>
      </trkpt>
      <trkpt lat="48.23206" lon="7.36217">
        <ele>250.60000610352</ele>
        <time>2020-10-17T14:00:16Z</time>
      </trkpt>
      <trkpt lat="48.23211" lon="7.36244">
        <ele>249.80000305176</ele>
        <time>2020-10-17T14:00:29Z</time>
      </trkpt>
      <trkpt lat="48.23223" lon="7.36276">
        <ele>248.19999694824</ele>
        <time>2020-10-17T14:00:47Z</time>
      </trkpt>
      <trkpt lat="48.23224" lon="7.36279">
        <ele>248.19999694824</ele>
        <time>2020-10-17T14:00:49Z</time>
      </trkpt>
      <trkpt lat="48.23225" lon="7.36281">
        <ele>248</ele>
        <time>2020-10-17T14:00:50Z</time>
      </trkpt>
      <trkpt lat="48.23225" lon="7.36284">
        <ele>247.80000305176</ele>
        <time>2020-10-17T14:00:51Z</time>
      </trkpt>
      <trkpt lat="48.23219" lon="7.36321">
        <ele>245.80000305176</ele>
        <time>2020-10-17T14:01:08Z</time>
      </trkpt>
      <trkpt lat="48.23209" lon="7.36353">
        <ele>244.39999389648</ele>
        <time>2020-10-17T14:01:24Z</time>
      </trkpt>
      <trkpt lat="48.23201" lon="7.36384">
        <ele>243.39999389648</ele>
        <time>2020-10-17T14:01:39Z</time>
      </trkpt>
      <trkpt lat="48.23196" lon="7.36414">
        <ele>242.39999389648</ele>
        <time>2020-10-17T14:01:55Z</time>
      </trkpt>
      <trkpt lat="48.23187" lon="7.36448">
        <ele>241.80000305176</ele>
        <time>2020-10-17T14:02:12Z</time>
      </trkpt>
      <trkpt lat="48.23188" lon="7.36476">
        <ele>241.19999694824</ele>
        <time>2020-10-17T14:02:27Z</time>
      </trkpt>
      <trkpt lat="48.23188" lon="7.36478">
        <ele>241.19999694824</ele>
        <time>2020-10-17T14:02:28Z</time>
      </trkpt>
      <trkpt lat="48.23188" lon="7.3648">
        <ele>241.19999694824</ele>
        <time>2020-10-17T14:02:29Z</time>
      </trkpt>
      <trkpt lat="48.23188" lon="7.36482">
        <ele>241.19999694824</ele>
        <time>2020-10-17T14:02:30Z</time>
      </trkpt>
      <trkpt lat="48.23189" lon="7.36484">
        <ele>241.19999694824</ele>
        <time>2020-10-17T14:02:31Z</time>
      </trkpt>
      <trkpt lat="48.2319" lon="7.36486">
        <ele>241.19999694824</ele>
        <time>2020-10-17T14:02:32Z</time>
      </trkpt>
      <trkpt lat="48.232" lon="7.36509">
        <ele>241</ele>
        <time>2020-10-17T14:02:44Z</time>
      </trkpt>
      <trkpt lat="48.23213" lon="7.36526">
        <ele>241.60000610352</ele>
        <time>2020-10-17T14:02:59Z</time>
      </trkpt>
      <trkpt lat="48.23208" lon="7.36532">
        <ele>241.39999389648</ele>
        <time>2020-10-17T14:03:07Z</time>
      </trkpt>
      <trkpt lat="48.23202" lon="7.36543">
        <ele>241.39999389648</ele>
        <time>2020-10-17T14:03:13Z</time>
      </trkpt>
      <trkpt lat="48.23201" lon="7.36545">
        <ele>241.39999389648</ele>
        <time>2020-10-17T14:03:14Z</time>
      </trkpt>
      <trkpt lat="48.232" lon="7.36547">
        <ele>241.19999694824</ele>
        <time>2020-10-17T14:03:15Z</time>
      </trkpt>
      <trkpt lat="48.23199" lon="7.36549">
        <ele>241.19999694824</ele>
        <time>2020-10-17T14:03:16Z</time>
      </trkpt>
      <trkpt lat="48.23198" lon="7.36552">
        <ele>241</ele>
        <time>2020-10-17T14:03:17Z</time>
      </trkpt>
      <trkpt lat="48.23198" lon="7.36578">
        <ele>239.80000305176</ele>
        <time>2020-10-17T14:03:29Z</time>
      </trkpt>
      <trkpt lat="48.23205" lon="7.36602">
        <ele>239.39999389648</ele>
        <time>2020-10-17T14:03:42Z</time>
      </trkpt>
      <trkpt lat="48.23211" lon="7.36625">
        <ele>239</ele>
        <time>2020-10-17T14:03:56Z</time>
      </trkpt>
      <trkpt lat="48.23222" lon="7.36651">
        <ele>238.80000305176</ele>
        <time>2020-10-17T14:04:08Z</time>
      </trkpt>
      <trkpt lat="48.23224" lon="7.36655">
        <ele>239.19999694824</ele>
        <time>2020-10-17T14:04:11Z</time>
      </trkpt>
      <trkpt lat="48.23225" lon="7.36658">
        <ele>239.19999694824</ele>
        <time>2020-10-17T14:04:12Z</time>
      </trkpt>
      <trkpt lat="48.23226" lon="7.3666">
        <ele>239.19999694824</ele>
        <time>2020-10-17T14:04:13Z</time>
      </trkpt>
      <trkpt lat="48.2323" lon="7.3667">
        <ele>239</ele>
        <time>2020-10-17T14:04:18Z</time>
      </trkpt>
      <trkpt lat="48.23231" lon="7.36672">
        <ele>239</ele>
        <time>2020-10-17T14:04:19Z</time>
      </trkpt>
      <trkpt lat="48.23231" lon="7.36674">
        <ele>239</ele>
        <time>2020-10-17T14:04:20Z</time>
      </trkpt>
      <trkpt lat="48.2323" lon="7.36676">
        <ele>239</ele>
        <time>2020-10-17T14:04:21Z</time>
      </trkpt>
      <trkpt lat="48.2323" lon="7.36691">
        <ele>238.19999694824</ele>
        <time>2020-10-17T14:04:28Z</time>
      </trkpt>
      <trkpt lat="48.23231" lon="7.36693">
        <ele>238.19999694824</ele>
        <time>2020-10-17T14:04:29Z</time>
      </trkpt>
      <trkpt lat="48.23232" lon="7.36695">
        <ele>238</ele>
        <time>2020-10-17T14:04:30Z</time>
      </trkpt>
      <trkpt lat="48.23233" lon="7.36696">
        <ele>237.60000610352</ele>
        <time>2020-10-17T14:04:31Z</time>
      </trkpt>
      <trkpt lat="48.23234" lon="7.36698">
        <ele>237.60000610352</ele>
        <time>2020-10-17T14:04:32Z</time>
      </trkpt>
      <trkpt lat="48.23238" lon="7.3671">
        <ele>237.19999694824</ele>
        <time>2020-10-17T14:04:43Z</time>
      </trkpt>
      <trkpt lat="48.23238" lon="7.36718">
        <ele>236.80000305176</ele>
        <time>2020-10-17T14:04:47Z</time>
      </trkpt>
      <trkpt lat="48.23242" lon="7.36723">
        <ele>236.39999389648</ele>
        <time>2020-10-17T14:04:54Z</time>
      </trkpt>
      <trkpt lat="48.23271" lon="7.36759">
        <ele>236</ele>
        <time>2020-10-17T14:05:17Z</time>
      </trkpt>
      <trkpt lat="48.23281" lon="7.36765">
        <ele>235.60000610352</ele>
        <time>2020-10-17T14:05:24Z</time>
      </trkpt>
      <trkpt lat="48.23283" lon="7.36769">
        <ele>235.39999389648</ele>
        <time>2020-10-17T14:05:27Z</time>
      </trkpt>
      <trkpt lat="48.23287" lon="7.36772">
        <ele>235.19999694824</ele>
        <time>2020-10-17T14:05:30Z</time>
      </trkpt>
      <trkpt lat="48.23309" lon="7.36795">
        <ele>234.19999694824</ele>
        <time>2020-10-17T14:05:48Z</time>
      </trkpt>
      <trkpt lat="48.23314" lon="7.36802">
        <ele>233.60000610352</ele>
        <time>2020-10-17T14:05:57Z</time>
      </trkpt>
      <trkpt lat="48.23315" lon="7.36811">
        <ele>233.80000305176</ele>
        <time>2020-10-17T14:06:04Z</time>
      </trkpt>
      <trkpt lat="48.2333" lon="7.36834">
        <ele>233.19999694824</ele>
        <time>2020-10-17T14:06:21Z</time>
      </trkpt>
      <trkpt lat="48.23329" lon="7.36839">
        <ele>232.80000305176</ele>
        <time>2020-10-17T14:06:23Z</time>
      </trkpt>
      <trkpt lat="48.23327" lon="7.36843">
        <ele>232.60000610352</ele>
        <time>2020-10-17T14:06:26Z</time>
      </trkpt>
      <trkpt lat="48.23323" lon="7.36849">
        <ele>232.19999694824</ele>
        <time>2020-10-17T14:06:29Z</time>
      </trkpt>
      <trkpt lat="48.23322" lon="7.36851">
        <ele>232.19999694824</ele>
        <time>2020-10-17T14:06:30Z</time>
      </trkpt>
      <trkpt lat="48.23321" lon="7.36852">
        <ele>232</ele>
        <time>2020-10-17T14:06:31Z</time>
      </trkpt>
      <trkpt lat="48.23319" lon="7.36854">
        <ele>231.80000305176</ele>
        <time>2020-10-17T14:06:32Z</time>
      </trkpt>
      <trkpt lat="48.23318" lon="7.36857">
        <ele>231.60000610352</ele>
        <time>2020-10-17T14:06:33Z</time>
      </trkpt>
      <trkpt lat="48.23317" lon="7.3686">
        <ele>231.60000610352</ele>
        <time>2020-10-17T14:06:34Z</time>
      </trkpt>
      <trkpt lat="48.23316" lon="7.36861">
        <ele>231.60000610352</ele>
        <time>2020-10-17T14:06:35Z</time>
      </trkpt>
      <trkpt lat="48.23315" lon="7.36863">
        <ele>231.39999389648</ele>
        <time>2020-10-17T14:06:36Z</time>
      </trkpt>
      <trkpt lat="48.23314" lon="7.36865">
        <ele>231.39999389648</ele>
        <time>2020-10-17T14:06:37Z</time>
      </trkpt>
      <trkpt lat="48.23303" lon="7.36886">
        <ele>230.19999694824</ele>
        <time>2020-10-17T14:06:50Z</time>
      </trkpt>
      <trkpt lat="48.23301" lon="7.36889">
        <ele>230</ele>
        <time>2020-10-17T14:06:52Z</time>
      </trkpt>
      <trkpt lat="48.23299" lon="7.3689">
        <ele>229.80000305176</ele>
        <time>2020-10-17T14:06:53Z</time>
      </trkpt>
      <trkpt lat="48.23298" lon="7.36893">
        <ele>229.60000610352</ele>
        <time>2020-10-17T14:06:55Z</time>
      </trkpt>
      <trkpt lat="48.23294" lon="7.36905">
        <ele>228.80000305176</ele>
        <time>2020-10-17T14:07:02Z</time>
      </trkpt>
      <trkpt lat="48.23288" lon="7.36913">
        <ele>228.60000610352</ele>
        <time>2020-10-17T14:07:07Z</time>
      </trkpt>
      <trkpt lat="48.23287" lon="7.36914">
        <ele>228.39999389648</ele>
        <time>2020-10-17T14:07:08Z</time>
      </trkpt>
      <trkpt lat="48.23285" lon="7.36915">
        <ele>228.39999389648</ele>
        <time>2020-10-17T14:07:09Z</time>
      </trkpt>
      <trkpt lat="48.23284" lon="7.36916">
        <ele>228.19999694824</ele>
        <time>2020-10-17T14:07:10Z</time>
      </trkpt>
      <trkpt lat="48.23282" lon="7.36918">
        <ele>228.19999694824</ele>
        <time>2020-10-17T14:07:11Z</time>
      </trkpt>
      <trkpt lat="48.23281" lon="7.36919">
        <ele>228</ele>
        <time>2020-10-17T14:07:12Z</time>
      </trkpt>
      <trkpt lat="48.23281" lon="7.36921">
        <ele>228</ele>
        <time>2020-10-17T14:07:13Z</time>
      </trkpt>
      <trkpt lat="48.23279" lon="7.36922">
        <ele>228</ele>
        <time>2020-10-17T14:07:14Z</time>
      </trkpt>
      <trkpt lat="48.23278" lon="7.36924">
        <ele>228</ele>
        <time>2020-10-17T14:07:15Z</time>
      </trkpt>
      <trkpt lat="48.23269" lon="7.36938">
        <ele>227</ele>
        <time>2020-10-17T14:07:26Z</time>
      </trkpt>
      <trkpt lat="48.23268" lon="7.36938">
        <ele>227</ele>
        <time>2020-10-17T14:07:27Z</time>
      </trkpt>
      <trkpt lat="48.23265" lon="7.3694">
        <ele>226.80000305176</ele>
        <time>2020-10-17T14:07:29Z</time>
      </trkpt>
      <trkpt lat="48.23264" lon="7.36941">
        <ele>226.80000305176</ele>
        <time>2020-10-17T14:07:30Z</time>
      </trkpt>
      <trkpt lat="48.23263" lon="7.36942">
        <ele>226.60000610352</ele>
        <time>2020-10-17T14:07:31Z</time>
      </trkpt>
      <trkpt lat="48.23261" lon="7.36945">
        <ele>226.39999389648</ele>
        <time>2020-10-17T14:07:33Z</time>
      </trkpt>
      <trkpt lat="48.2326" lon="7.36946">
        <ele>226.19999694824</ele>
        <time>2020-10-17T14:07:34Z</time>
      </trkpt>
      <trkpt lat="48.23259" lon="7.36947">
        <ele>226.19999694824</ele>
        <time>2020-10-17T14:07:35Z</time>
      </trkpt>
      <trkpt lat="48.23257" lon="7.36948">
        <ele>226</ele>
        <time>2020-10-17T14:07:36Z</time>
      </trkpt>
      <trkpt lat="48.23256" lon="7.36949">
        <ele>226</ele>
        <time>2020-10-17T14:07:37Z</time>
      </trkpt>
      <trkpt lat="48.2325" lon="7.36954">
        <ele>225.19999694824</ele>
        <time>2020-10-17T14:07:46Z</time>
      </trkpt>
      <trkpt lat="48.23247" lon="7.36959">
        <ele>225</ele>
        <time>2020-10-17T14:07:49Z</time>
      </trkpt>
      <trkpt lat="48.23246" lon="7.36961">
        <ele>225</ele>
        <time>2020-10-17T14:07:50Z</time>
      </trkpt>
      <trkpt lat="48.23228" lon="7.36985">
        <ele>224.19999694824</ele>
        <time>2020-10-17T14:08:06Z</time>
      </trkpt>
      <trkpt lat="48.23215" lon="7.37002">
        <ele>223.60000610352</ele>
        <time>2020-10-17T14:08:18Z</time>
      </trkpt>
      <trkpt lat="48.23213" lon="7.37008">
        <ele>223.60000610352</ele>
        <time>2020-10-17T14:08:21Z</time>
      </trkpt>
      <trkpt lat="48.23212" lon="7.3701">
        <ele>223.39999389648</ele>
        <time>2020-10-17T14:08:22Z</time>
      </trkpt>
      <trkpt lat="48.23196" lon="7.37034">
        <ele>223</ele>
        <time>2020-10-17T14:08:38Z</time>
      </trkpt>
      <trkpt lat="48.23185" lon="7.37057">
        <ele>222.60000610352</ele>
        <time>2020-10-17T14:08:53Z</time>
      </trkpt>
      <trkpt lat="48.23184" lon="7.37061">
        <ele>222.39999389648</ele>
        <time>2020-10-17T14:09:12Z</time>
      </trkpt>
      <trkpt lat="48.23184" lon="7.37063">
        <ele>222.39999389648</ele>
        <time>2020-10-17T14:09:13Z</time>
      </trkpt>
      <trkpt lat="48.23183" lon="7.37065">
        <ele>222.19999694824</ele>
        <time>2020-10-17T14:09:14Z</time>
      </trkpt>
      <trkpt lat="48.23181" lon="7.37069">
        <ele>222.19999694824</ele>
        <time>2020-10-17T14:09:16Z</time>
      </trkpt>
      <trkpt lat="48.23166" lon="7.37095">
        <ele>222</ele>
        <time>2020-10-17T14:09:31Z</time>
      </trkpt>
      <trkpt lat="48.23161" lon="7.3711">
        <ele>221.60000610352</ele>
        <time>2020-10-17T14:09:39Z</time>
      </trkpt>
      <trkpt lat="48.23161" lon="7.37112">
        <ele>221.60000610352</ele>
        <time>2020-10-17T14:09:40Z</time>
      </trkpt>
      <trkpt lat="48.23162" lon="7.37114">
        <ele>221.60000610352</ele>
        <time>2020-10-17T14:09:41Z</time>
      </trkpt>
      <trkpt lat="48.23163" lon="7.37116">
        <ele>221.39999389648</ele>
        <time>2020-10-17T14:09:42Z</time>
      </trkpt>
      <trkpt lat="48.23165" lon="7.37119">
        <ele>221.39999389648</ele>
        <time>2020-10-17T14:09:43Z</time>
      </trkpt>
      <trkpt lat="48.23166" lon="7.37121">
        <ele>221.39999389648</ele>
        <time>2020-10-17T14:09:44Z</time>
      </trkpt>
      <trkpt lat="48.23186" lon="7.37145">
        <ele>222.39999389648</ele>
        <time>2020-10-17T14:10:01Z</time>
      </trkpt>
      <trkpt lat="48.23194" lon="7.37156">
        <ele>222.60000610352</ele>
        <time>2020-10-17T14:10:08Z</time>
      </trkpt>
      <trkpt lat="48.23212" lon="7.37178">
        <ele>223.39999389648</ele>
        <time>2020-10-17T14:10:24Z</time>
      </trkpt>
      <trkpt lat="48.23229" lon="7.37201">
        <ele>224</ele>
        <time>2020-10-17T14:10:41Z</time>
      </trkpt>
      <trkpt lat="48.23248" lon="7.37217">
        <ele>224.19999694824</ele>
        <time>2020-10-17T14:10:58Z</time>
      </trkpt>
      <trkpt lat="48.23251" lon="7.37218">
        <ele>224.39999389648</ele>
        <time>2020-10-17T14:11:00Z</time>
      </trkpt>
      <trkpt lat="48.23254" lon="7.37219">
        <ele>224.39999389648</ele>
        <time>2020-10-17T14:11:03Z</time>
      </trkpt>
      <trkpt lat="48.23261" lon="7.37215">
        <ele>224.60000610352</ele>
        <time>2020-10-17T14:11:10Z</time>
      </trkpt>
      <trkpt lat="48.23262" lon="7.37213">
        <ele>224.80000305176</ele>
        <time>2020-10-17T14:11:11Z</time>
      </trkpt>
      <trkpt lat="48.23263" lon="7.37212">
        <ele>224.80000305176</ele>
        <time>2020-10-17T14:11:12Z</time>
      </trkpt>
      <trkpt lat="48.23265" lon="7.3721">
        <ele>224.80000305176</ele>
        <time>2020-10-17T14:11:13Z</time>
      </trkpt>
      <trkpt lat="48.23266" lon="7.37209">
        <ele>224.80000305176</ele>
        <time>2020-10-17T14:11:14Z</time>
      </trkpt>
      <trkpt lat="48.23273" lon="7.372">
        <ele>225.19999694824</ele>
        <time>2020-10-17T14:11:24Z</time>
      </trkpt>
      <trkpt lat="48.23276" lon="7.37198">
        <ele>225.60000610352</ele>
        <time>2020-10-17T14:11:44Z</time>
      </trkpt>
    </trkseg>
  </trk>
</gpx>